<?xml version="1.0" encoding="UTF-8" standalone="no" ?>
<gpx xmlns="http://www.topografix.com/GPX/1/1" xmlns:xsi="http://www.w3.org/2001/XMLSchema-instance" xsi:schemaLocation="http://www.topografix.com/GPX/1/1 http://www.topografix.com/GPX/1/1/gpx.xsd" version="1.1" creator="VisuGPX - https://www.visugpx.com">
  <metadata>
    <name>Col de Saleix- pic du Far</name>
    <desc><![CDATA[Col de Saleix- pic du Far]]></desc>
  </metadata>
  <trk>
    <name><![CDATA[Randocourse]]></name>
    <cmt><![CDATA[Boucle col de Saleix Pic du Far]]></cmt>
    <trkseg>
      <trkpt lat="42.76651" lon="1.48155">
        <ele>739.39111328125</ele>
        <time>2011-04-16T07:35:12Z</time>
      </trkpt>
      <trkpt lat="42.76651" lon="1.48154">
        <ele>739.39111328125</ele>
        <time>2011-04-16T07:35:13Z</time>
      </trkpt>
      <trkpt lat="42.76652" lon="1.48147">
        <ele>736.02661132812</ele>
        <time>2011-04-16T07:35:19Z</time>
      </trkpt>
      <trkpt lat="42.7665" lon="1.48141">
        <ele>736.02661132812</ele>
        <time>2011-04-16T07:35:23Z</time>
      </trkpt>
      <trkpt lat="42.76642" lon="1.48126">
        <ele>739.39111328125</ele>
        <time>2011-04-16T07:35:32Z</time>
      </trkpt>
      <trkpt lat="42.76642" lon="1.48118">
        <ele>740.3525390625</ele>
        <time>2011-04-16T07:35:37Z</time>
      </trkpt>
      <trkpt lat="42.76646" lon="1.48103">
        <ele>739.39111328125</ele>
        <time>2011-04-16T07:35:45Z</time>
      </trkpt>
      <trkpt lat="42.7665" lon="1.4809">
        <ele>736.98779296875</ele>
        <time>2011-04-16T07:35:52Z</time>
      </trkpt>
      <trkpt lat="42.76651" lon="1.48077">
        <ele>736.02661132812</ele>
        <time>2011-04-16T07:35:59Z</time>
      </trkpt>
      <trkpt lat="42.76652" lon="1.48058">
        <ele>737.94921875</ele>
        <time>2011-04-16T07:36:09Z</time>
      </trkpt>
      <trkpt lat="42.76653" lon="1.48044">
        <ele>739.39111328125</ele>
        <time>2011-04-16T07:36:16Z</time>
      </trkpt>
      <trkpt lat="42.76653" lon="1.48042">
        <ele>739.39111328125</ele>
        <time>2011-04-16T07:36:17Z</time>
      </trkpt>
      <trkpt lat="42.76651" lon="1.48031">
        <ele>740.3525390625</ele>
        <time>2011-04-16T07:36:23Z</time>
      </trkpt>
      <trkpt lat="42.76647" lon="1.48022">
        <ele>740.8330078125</ele>
        <time>2011-04-16T07:36:29Z</time>
      </trkpt>
      <trkpt lat="42.76646" lon="1.48021">
        <ele>740.8330078125</ele>
        <time>2011-04-16T07:36:30Z</time>
      </trkpt>
      <trkpt lat="42.7664" lon="1.4801">
        <ele>741.31372070312</ele>
        <time>2011-04-16T07:36:37Z</time>
      </trkpt>
      <trkpt lat="42.76638" lon="1.47999">
        <ele>744.19775390625</ele>
        <time>2011-04-16T07:36:44Z</time>
      </trkpt>
      <trkpt lat="42.76637" lon="1.47986">
        <ele>744.67822265625</ele>
        <time>2011-04-16T07:36:51Z</time>
      </trkpt>
      <trkpt lat="42.7664" lon="1.47969">
        <ele>743.71704101562</ele>
        <time>2011-04-16T07:36:59Z</time>
      </trkpt>
      <trkpt lat="42.76643" lon="1.47955">
        <ele>743.71704101562</ele>
        <time>2011-04-16T07:37:06Z</time>
      </trkpt>
      <trkpt lat="42.76643" lon="1.47941">
        <ele>744.19775390625</ele>
        <time>2011-04-16T07:37:13Z</time>
      </trkpt>
      <trkpt lat="42.76646" lon="1.47925">
        <ele>745.6396484375</ele>
        <time>2011-04-16T07:37:20Z</time>
      </trkpt>
      <trkpt lat="42.76649" lon="1.47919">
        <ele>746.12036132812</ele>
        <time>2011-04-16T07:37:23Z</time>
      </trkpt>
      <trkpt lat="42.76647" lon="1.47905">
        <ele>744.19775390625</ele>
        <time>2011-04-16T07:37:30Z</time>
      </trkpt>
      <trkpt lat="42.76648" lon="1.47899">
        <ele>743.236328125</ele>
        <time>2011-04-16T07:37:32Z</time>
      </trkpt>
      <trkpt lat="42.76649" lon="1.47881">
        <ele>740.8330078125</ele>
        <time>2011-04-16T07:37:37Z</time>
      </trkpt>
      <trkpt lat="42.76658" lon="1.47869">
        <ele>736.98779296875</ele>
        <time>2011-04-16T07:37:42Z</time>
      </trkpt>
      <trkpt lat="42.76665" lon="1.47859">
        <ele>736.02661132812</ele>
        <time>2011-04-16T07:37:46Z</time>
      </trkpt>
      <trkpt lat="42.76666" lon="1.47857">
        <ele>736.02661132812</ele>
        <time>2011-04-16T07:37:47Z</time>
      </trkpt>
      <trkpt lat="42.76674" lon="1.47845">
        <ele>736.02661132812</ele>
        <time>2011-04-16T07:37:52Z</time>
      </trkpt>
      <trkpt lat="42.76684" lon="1.47835">
        <ele>739.39111328125</ele>
        <time>2011-04-16T07:37:58Z</time>
      </trkpt>
      <trkpt lat="42.76689" lon="1.47824">
        <ele>738.91064453125</ele>
        <time>2011-04-16T07:38:02Z</time>
      </trkpt>
      <trkpt lat="42.76694" lon="1.47817">
        <ele>738.91064453125</ele>
        <time>2011-04-16T07:38:05Z</time>
      </trkpt>
      <trkpt lat="42.76703" lon="1.47806">
        <ele>736.50732421875</ele>
        <time>2011-04-16T07:38:10Z</time>
      </trkpt>
      <trkpt lat="42.76709" lon="1.47794">
        <ele>738.42993164062</ele>
        <time>2011-04-16T07:38:15Z</time>
      </trkpt>
      <trkpt lat="42.76714" lon="1.47789">
        <ele>740.3525390625</ele>
        <time>2011-04-16T07:38:19Z</time>
      </trkpt>
      <trkpt lat="42.76717" lon="1.47787">
        <ele>739.87182617188</ele>
        <time>2011-04-16T07:38:23Z</time>
      </trkpt>
      <trkpt lat="42.76719" lon="1.47783">
        <ele>740.8330078125</ele>
        <time>2011-04-16T07:38:27Z</time>
      </trkpt>
      <trkpt lat="42.76724" lon="1.4778">
        <ele>742.755859375</ele>
        <time>2011-04-16T07:38:33Z</time>
      </trkpt>
      <trkpt lat="42.76727" lon="1.47776">
        <ele>742.755859375</ele>
        <time>2011-04-16T07:38:40Z</time>
      </trkpt>
      <trkpt lat="42.76732" lon="1.47769">
        <ele>746.12036132812</ele>
        <time>2011-04-16T07:38:50Z</time>
      </trkpt>
      <trkpt lat="42.76736" lon="1.47766">
        <ele>748.52368164062</ele>
        <time>2011-04-16T07:38:56Z</time>
      </trkpt>
      <trkpt lat="42.76734" lon="1.47765">
        <ele>750.44653320312</ele>
        <time>2011-04-16T07:39:01Z</time>
      </trkpt>
      <trkpt lat="42.7673" lon="1.47764">
        <ele>753.33032226562</ele>
        <time>2011-04-16T07:39:07Z</time>
      </trkpt>
      <trkpt lat="42.76727" lon="1.4776">
        <ele>755.73364257812</ele>
        <time>2011-04-16T07:39:13Z</time>
      </trkpt>
      <trkpt lat="42.76725" lon="1.47757">
        <ele>757.17553710938</ele>
        <time>2011-04-16T07:39:17Z</time>
      </trkpt>
      <trkpt lat="42.76725" lon="1.47751">
        <ele>759.09814453125</ele>
        <time>2011-04-16T07:39:24Z</time>
      </trkpt>
      <trkpt lat="42.76727" lon="1.47744">
        <ele>760.05932617188</ele>
        <time>2011-04-16T07:39:30Z</time>
      </trkpt>
      <trkpt lat="42.7673" lon="1.4774">
        <ele>761.02075195312</ele>
        <time>2011-04-16T07:39:36Z</time>
      </trkpt>
      <trkpt lat="42.76731" lon="1.47731">
        <ele>761.98217773438</ele>
        <time>2011-04-16T07:39:43Z</time>
      </trkpt>
      <trkpt lat="42.7673" lon="1.47725">
        <ele>762.943359375</ele>
        <time>2011-04-16T07:39:47Z</time>
      </trkpt>
      <trkpt lat="42.76726" lon="1.47713">
        <ele>764.8662109375</ele>
        <time>2011-04-16T07:39:56Z</time>
      </trkpt>
      <trkpt lat="42.76723" lon="1.47701">
        <ele>766.78881835938</ele>
        <time>2011-04-16T07:40:04Z</time>
      </trkpt>
      <trkpt lat="42.76719" lon="1.4769">
        <ele>769.19213867188</ele>
        <time>2011-04-16T07:40:12Z</time>
      </trkpt>
      <trkpt lat="42.76717" lon="1.4768">
        <ele>771.59521484375</ele>
        <time>2011-04-16T07:40:20Z</time>
      </trkpt>
      <trkpt lat="42.76719" lon="1.47676">
        <ele>773.51806640625</ele>
        <time>2011-04-16T07:40:27Z</time>
      </trkpt>
      <trkpt lat="42.76721" lon="1.47672">
        <ele>775.4404296875</ele>
        <time>2011-04-16T07:40:32Z</time>
      </trkpt>
      <trkpt lat="42.76725" lon="1.4767">
        <ele>777.36328125</ele>
        <time>2011-04-16T07:40:38Z</time>
      </trkpt>
      <trkpt lat="42.76728" lon="1.47666">
        <ele>778.32446289062</ele>
        <time>2011-04-16T07:40:43Z</time>
      </trkpt>
      <trkpt lat="42.76731" lon="1.47661">
        <ele>779.76635742188</ele>
        <time>2011-04-16T07:40:49Z</time>
      </trkpt>
      <trkpt lat="42.76731" lon="1.47657">
        <ele>780.72802734375</ele>
        <time>2011-04-16T07:40:53Z</time>
      </trkpt>
      <trkpt lat="42.76731" lon="1.47646">
        <ele>782.65063476562</ele>
        <time>2011-04-16T07:41:01Z</time>
      </trkpt>
      <trkpt lat="42.76732" lon="1.47639">
        <ele>783.61181640625</ele>
        <time>2011-04-16T07:41:07Z</time>
      </trkpt>
      <trkpt lat="42.76733" lon="1.47627">
        <ele>785.05395507812</ele>
        <time>2011-04-16T07:41:15Z</time>
      </trkpt>
      <trkpt lat="42.76733" lon="1.47626">
        <ele>785.53442382812</ele>
        <time>2011-04-16T07:41:16Z</time>
      </trkpt>
      <trkpt lat="42.76731" lon="1.47615">
        <ele>787.93774414062</ele>
        <time>2011-04-16T07:41:23Z</time>
      </trkpt>
      <trkpt lat="42.76733" lon="1.47606">
        <ele>788.89916992188</ele>
        <time>2011-04-16T07:41:29Z</time>
      </trkpt>
      <trkpt lat="42.76735" lon="1.47597">
        <ele>788.89916992188</ele>
        <time>2011-04-16T07:41:35Z</time>
      </trkpt>
      <trkpt lat="42.76735" lon="1.47586">
        <ele>792.263671875</ele>
        <time>2011-04-16T07:41:41Z</time>
      </trkpt>
      <trkpt lat="42.76736" lon="1.47572">
        <ele>794.18627929688</ele>
        <time>2011-04-16T07:41:49Z</time>
      </trkpt>
      <trkpt lat="42.76739" lon="1.47562">
        <ele>793.70556640625</ele>
        <time>2011-04-16T07:41:55Z</time>
      </trkpt>
      <trkpt lat="42.76743" lon="1.47546">
        <ele>793.22485351562</ele>
        <time>2011-04-16T07:42:02Z</time>
      </trkpt>
      <trkpt lat="42.76749" lon="1.4753">
        <ele>794.18627929688</ele>
        <time>2011-04-16T07:42:08Z</time>
      </trkpt>
      <trkpt lat="42.76755" lon="1.4751">
        <ele>795.62817382812</ele>
        <time>2011-04-16T07:42:15Z</time>
      </trkpt>
      <trkpt lat="42.7676" lon="1.47495">
        <ele>795.1474609375</ele>
        <time>2011-04-16T07:42:20Z</time>
      </trkpt>
      <trkpt lat="42.76763" lon="1.4748">
        <ele>796.58984375</ele>
        <time>2011-04-16T07:42:25Z</time>
      </trkpt>
      <trkpt lat="42.76768" lon="1.47463">
        <ele>797.0703125</ele>
        <time>2011-04-16T07:42:31Z</time>
      </trkpt>
      <trkpt lat="42.76773" lon="1.47448">
        <ele>799.95434570312</ele>
        <time>2011-04-16T07:42:37Z</time>
      </trkpt>
      <trkpt lat="42.76776" lon="1.47433">
        <ele>801.39624023438</ele>
        <time>2011-04-16T07:42:43Z</time>
      </trkpt>
      <trkpt lat="42.76778" lon="1.47415">
        <ele>803.31884765625</ele>
        <time>2011-04-16T07:42:49Z</time>
      </trkpt>
      <trkpt lat="42.76781" lon="1.47398">
        <ele>805.72216796875</ele>
        <time>2011-04-16T07:42:55Z</time>
      </trkpt>
      <trkpt lat="42.76782" lon="1.47391">
        <ele>807.1640625</ele>
        <time>2011-04-16T07:42:59Z</time>
      </trkpt>
      <trkpt lat="42.76784" lon="1.47385">
        <ele>807.1640625</ele>
        <time>2011-04-16T07:43:03Z</time>
      </trkpt>
      <trkpt lat="42.76787" lon="1.47377">
        <ele>807.1640625</ele>
        <time>2011-04-16T07:43:09Z</time>
      </trkpt>
      <trkpt lat="42.7679" lon="1.47373">
        <ele>806.68334960938</ele>
        <time>2011-04-16T07:43:12Z</time>
      </trkpt>
      <trkpt lat="42.76795" lon="1.47367">
        <ele>806.68334960938</ele>
        <time>2011-04-16T07:43:18Z</time>
      </trkpt>
      <trkpt lat="42.76799" lon="1.47363">
        <ele>806.68334960938</ele>
        <time>2011-04-16T07:43:23Z</time>
      </trkpt>
      <trkpt lat="42.76801" lon="1.47362">
        <ele>807.64477539062</ele>
        <time>2011-04-16T07:43:25Z</time>
      </trkpt>
      <trkpt lat="42.76805" lon="1.47355">
        <ele>807.64477539062</ele>
        <time>2011-04-16T07:43:31Z</time>
      </trkpt>
      <trkpt lat="42.76807" lon="1.47353">
        <ele>807.64477539062</ele>
        <time>2011-04-16T07:43:33Z</time>
      </trkpt>
      <trkpt lat="42.7681" lon="1.47344">
        <ele>808.12548828125</ele>
        <time>2011-04-16T07:43:39Z</time>
      </trkpt>
      <trkpt lat="42.76813" lon="1.47337">
        <ele>807.64477539062</ele>
        <time>2011-04-16T07:43:43Z</time>
      </trkpt>
      <trkpt lat="42.76818" lon="1.47323">
        <ele>810.52856445312</ele>
        <time>2011-04-16T07:43:52Z</time>
      </trkpt>
      <trkpt lat="42.7682" lon="1.47318">
        <ele>811.48999023438</ele>
        <time>2011-04-16T07:43:56Z</time>
      </trkpt>
      <trkpt lat="42.76823" lon="1.47312">
        <ele>811.970703125</ele>
        <time>2011-04-16T07:44:01Z</time>
      </trkpt>
      <trkpt lat="42.76827" lon="1.47304">
        <ele>814.3740234375</ele>
        <time>2011-04-16T07:44:08Z</time>
      </trkpt>
      <trkpt lat="42.76831" lon="1.473">
        <ele>815.33544921875</ele>
        <time>2011-04-16T07:44:13Z</time>
      </trkpt>
      <trkpt lat="42.76834" lon="1.47296">
        <ele>818.21923828125</ele>
        <time>2011-04-16T07:44:18Z</time>
      </trkpt>
      <trkpt lat="42.76836" lon="1.4729">
        <ele>820.62255859375</ele>
        <time>2011-04-16T07:44:23Z</time>
      </trkpt>
      <trkpt lat="42.7684" lon="1.47282">
        <ele>822.54516601562</ele>
        <time>2011-04-16T07:44:30Z</time>
      </trkpt>
      <trkpt lat="42.76842" lon="1.47276">
        <ele>823.98706054688</ele>
        <time>2011-04-16T07:44:35Z</time>
      </trkpt>
      <trkpt lat="42.76845" lon="1.47273">
        <ele>824.4677734375</ele>
        <time>2011-04-16T07:44:38Z</time>
      </trkpt>
      <trkpt lat="42.76849" lon="1.47269">
        <ele>825.90966796875</ele>
        <time>2011-04-16T07:44:44Z</time>
      </trkpt>
      <trkpt lat="42.76853" lon="1.47267">
        <ele>826.87109375</ele>
        <time>2011-04-16T07:44:49Z</time>
      </trkpt>
      <trkpt lat="42.76856" lon="1.47266">
        <ele>828.31323242188</ele>
        <time>2011-04-16T07:44:54Z</time>
      </trkpt>
      <trkpt lat="42.76862" lon="1.47265">
        <ele>830.71655273438</ele>
        <time>2011-04-16T07:45:01Z</time>
      </trkpt>
      <trkpt lat="42.76867" lon="1.47261">
        <ele>831.197265625</ele>
        <time>2011-04-16T07:45:07Z</time>
      </trkpt>
      <trkpt lat="42.76872" lon="1.47258">
        <ele>832.15844726562</ele>
        <time>2011-04-16T07:45:12Z</time>
      </trkpt>
      <trkpt lat="42.76877" lon="1.47248">
        <ele>833.60034179688</ele>
        <time>2011-04-16T07:45:20Z</time>
      </trkpt>
      <trkpt lat="42.76883" lon="1.47241">
        <ele>832.63916015625</ele>
        <time>2011-04-16T07:45:26Z</time>
      </trkpt>
      <trkpt lat="42.76889" lon="1.47234">
        <ele>834.56176757812</ele>
        <time>2011-04-16T07:45:32Z</time>
      </trkpt>
      <trkpt lat="42.76891" lon="1.4723">
        <ele>834.56176757812</ele>
        <time>2011-04-16T07:45:35Z</time>
      </trkpt>
      <trkpt lat="42.76897" lon="1.4722">
        <ele>836.00366210938</ele>
        <time>2011-04-16T07:45:42Z</time>
      </trkpt>
      <trkpt lat="42.76902" lon="1.47212">
        <ele>839.84887695312</ele>
        <time>2011-04-16T07:45:48Z</time>
      </trkpt>
      <trkpt lat="42.76908" lon="1.47206">
        <ele>842.25219726562</ele>
        <time>2011-04-16T07:45:55Z</time>
      </trkpt>
      <trkpt lat="42.76912" lon="1.47203">
        <ele>842.73291015625</ele>
        <time>2011-04-16T07:46:00Z</time>
      </trkpt>
      <trkpt lat="42.76918" lon="1.47198">
        <ele>844.17504882812</ele>
        <time>2011-04-16T07:46:06Z</time>
      </trkpt>
      <trkpt lat="42.76926" lon="1.47195">
        <ele>844.65551757812</ele>
        <time>2011-04-16T07:46:13Z</time>
      </trkpt>
      <trkpt lat="42.76928" lon="1.47193">
        <ele>846.09765625</ele>
        <time>2011-04-16T07:46:16Z</time>
      </trkpt>
      <trkpt lat="42.76933" lon="1.4719">
        <ele>848.02026367188</ele>
        <time>2011-04-16T07:46:22Z</time>
      </trkpt>
      <trkpt lat="42.76936" lon="1.47188">
        <ele>848.02026367188</ele>
        <time>2011-04-16T07:46:27Z</time>
      </trkpt>
      <trkpt lat="42.7694" lon="1.47186">
        <ele>848.50073242188</ele>
        <time>2011-04-16T07:46:32Z</time>
      </trkpt>
      <trkpt lat="42.76944" lon="1.47185">
        <ele>849.94287109375</ele>
        <time>2011-04-16T07:46:37Z</time>
      </trkpt>
      <trkpt lat="42.76949" lon="1.47182">
        <ele>852.34594726562</ele>
        <time>2011-04-16T07:46:43Z</time>
      </trkpt>
      <trkpt lat="42.76951" lon="1.47183">
        <ele>854.26879882812</ele>
        <time>2011-04-16T07:46:48Z</time>
      </trkpt>
      <trkpt lat="42.76954" lon="1.47182">
        <ele>856.671875</ele>
        <time>2011-04-16T07:46:54Z</time>
      </trkpt>
      <trkpt lat="42.76959" lon="1.4718">
        <ele>860.51733398438</ele>
        <time>2011-04-16T07:47:01Z</time>
      </trkpt>
      <trkpt lat="42.76963" lon="1.47179">
        <ele>862.92065429688</ele>
        <time>2011-04-16T07:47:06Z</time>
      </trkpt>
      <trkpt lat="42.76968" lon="1.47176">
        <ele>865.8046875</ele>
        <time>2011-04-16T07:47:12Z</time>
      </trkpt>
      <trkpt lat="42.76972" lon="1.47174">
        <ele>866.76586914062</ele>
        <time>2011-04-16T07:47:17Z</time>
      </trkpt>
      <trkpt lat="42.76977" lon="1.47172">
        <ele>868.6884765625</ele>
        <time>2011-04-16T07:47:23Z</time>
      </trkpt>
      <trkpt lat="42.76981" lon="1.4717">
        <ele>870.13037109375</ele>
        <time>2011-04-16T07:47:28Z</time>
      </trkpt>
      <trkpt lat="42.76985" lon="1.47169">
        <ele>869.64990234375</ele>
        <time>2011-04-16T07:47:33Z</time>
      </trkpt>
      <trkpt lat="42.76989" lon="1.47172">
        <ele>870.61108398438</ele>
        <time>2011-04-16T07:47:39Z</time>
      </trkpt>
      <trkpt lat="42.76992" lon="1.47174">
        <ele>871.572265625</ele>
        <time>2011-04-16T07:47:44Z</time>
      </trkpt>
      <trkpt lat="42.76996" lon="1.47178">
        <ele>874.45629882812</ele>
        <time>2011-04-16T07:47:51Z</time>
      </trkpt>
      <trkpt lat="42.77" lon="1.47179">
        <ele>875.41748046875</ele>
        <time>2011-04-16T07:47:56Z</time>
      </trkpt>
      <trkpt lat="42.77003" lon="1.4718">
        <ele>875.89819335938</ele>
        <time>2011-04-16T07:48:00Z</time>
      </trkpt>
      <trkpt lat="42.77006" lon="1.47181">
        <ele>875.89819335938</ele>
        <time>2011-04-16T07:48:04Z</time>
      </trkpt>
      <trkpt lat="42.77009" lon="1.47183">
        <ele>875.41748046875</ele>
        <time>2011-04-16T07:48:08Z</time>
      </trkpt>
      <trkpt lat="42.77013" lon="1.47182">
        <ele>875.89819335938</ele>
        <time>2011-04-16T07:48:13Z</time>
      </trkpt>
      <trkpt lat="42.77016" lon="1.47177">
        <ele>875.89819335938</ele>
        <time>2011-04-16T07:48:17Z</time>
      </trkpt>
      <trkpt lat="42.77022" lon="1.47174">
        <ele>875.89819335938</ele>
        <time>2011-04-16T07:48:22Z</time>
      </trkpt>
      <trkpt lat="42.77026" lon="1.4717">
        <ele>875.41748046875</ele>
        <time>2011-04-16T07:48:26Z</time>
      </trkpt>
      <trkpt lat="42.77032" lon="1.47171">
        <ele>875.89819335938</ele>
        <time>2011-04-16T07:48:31Z</time>
      </trkpt>
      <trkpt lat="42.77034" lon="1.47174">
        <ele>877.82104492188</ele>
        <time>2011-04-16T07:48:36Z</time>
      </trkpt>
      <trkpt lat="42.77036" lon="1.47172">
        <ele>879.74365234375</ele>
        <time>2011-04-16T07:48:39Z</time>
      </trkpt>
      <trkpt lat="42.77038" lon="1.47166">
        <ele>881.66625976562</ele>
        <time>2011-04-16T07:48:44Z</time>
      </trkpt>
      <trkpt lat="42.77042" lon="1.47156">
        <ele>883.10815429688</ele>
        <time>2011-04-16T07:48:51Z</time>
      </trkpt>
      <trkpt lat="42.77048" lon="1.47147">
        <ele>885.03100585938</ele>
        <time>2011-04-16T07:48:58Z</time>
      </trkpt>
      <trkpt lat="42.7705" lon="1.47145">
        <ele>885.51147460938</ele>
        <time>2011-04-16T07:49:01Z</time>
      </trkpt>
      <trkpt lat="42.77055" lon="1.47143">
        <ele>886.95336914062</ele>
        <time>2011-04-16T07:49:06Z</time>
      </trkpt>
      <trkpt lat="42.7706" lon="1.47133">
        <ele>886.47290039062</ele>
        <time>2011-04-16T07:49:13Z</time>
      </trkpt>
      <trkpt lat="42.77066" lon="1.47119">
        <ele>885.9921875</ele>
        <time>2011-04-16T07:49:22Z</time>
      </trkpt>
      <trkpt lat="42.77068" lon="1.47112">
        <ele>886.47290039062</ele>
        <time>2011-04-16T07:49:27Z</time>
      </trkpt>
      <trkpt lat="42.77071" lon="1.47103">
        <ele>886.47290039062</ele>
        <time>2011-04-16T07:49:33Z</time>
      </trkpt>
      <trkpt lat="42.77071" lon="1.47102">
        <ele>886.95336914062</ele>
        <time>2011-04-16T07:51:47Z</time>
      </trkpt>
      <trkpt lat="42.77071" lon="1.47102">
        <ele>886.95336914062</ele>
        <time>2011-04-16T07:51:48Z</time>
      </trkpt>
      <trkpt lat="42.77074" lon="1.47097">
        <ele>885.9921875</ele>
        <time>2011-04-16T07:51:51Z</time>
      </trkpt>
      <trkpt lat="42.77076" lon="1.47088">
        <ele>886.47290039062</ele>
        <time>2011-04-16T07:51:55Z</time>
      </trkpt>
      <trkpt lat="42.77081" lon="1.47082">
        <ele>888.3955078125</ele>
        <time>2011-04-16T07:52:00Z</time>
      </trkpt>
      <trkpt lat="42.77084" lon="1.47078">
        <ele>890.31811523438</ele>
        <time>2011-04-16T07:52:06Z</time>
      </trkpt>
      <trkpt lat="42.77089" lon="1.47068">
        <ele>890.79858398438</ele>
        <time>2011-04-16T07:52:13Z</time>
      </trkpt>
      <trkpt lat="42.77095" lon="1.47059">
        <ele>888.87622070312</ele>
        <time>2011-04-16T07:52:20Z</time>
      </trkpt>
      <trkpt lat="42.77097" lon="1.47053">
        <ele>890.31811523438</ele>
        <time>2011-04-16T07:52:23Z</time>
      </trkpt>
      <trkpt lat="42.77098" lon="1.47046">
        <ele>892.7216796875</ele>
        <time>2011-04-16T07:52:27Z</time>
      </trkpt>
      <trkpt lat="42.77102" lon="1.47037">
        <ele>892.24096679688</ele>
        <time>2011-04-16T07:52:33Z</time>
      </trkpt>
      <trkpt lat="42.77104" lon="1.47038">
        <ele>891.279296875</ele>
        <time>2011-04-16T07:52:43Z</time>
      </trkpt>
      <trkpt lat="42.77103" lon="1.47041">
        <ele>890.79858398438</ele>
        <time>2011-04-16T07:52:46Z</time>
      </trkpt>
      <trkpt lat="42.771" lon="1.47049">
        <ele>891.76000976562</ele>
        <time>2011-04-16T07:52:52Z</time>
      </trkpt>
      <trkpt lat="42.77099" lon="1.47049">
        <ele>891.76000976562</ele>
        <time>2011-04-16T07:52:57Z</time>
      </trkpt>
      <trkpt lat="42.77101" lon="1.47043">
        <ele>891.76000976562</ele>
        <time>2011-04-16T07:53:01Z</time>
      </trkpt>
      <trkpt lat="42.77105" lon="1.47031">
        <ele>890.79858398438</ele>
        <time>2011-04-16T07:53:08Z</time>
      </trkpt>
      <trkpt lat="42.77105" lon="1.4703">
        <ele>890.79858398438</ele>
        <time>2011-04-16T07:53:09Z</time>
      </trkpt>
      <trkpt lat="42.77109" lon="1.47024">
        <ele>890.31811523438</ele>
        <time>2011-04-16T07:53:14Z</time>
      </trkpt>
      <trkpt lat="42.77113" lon="1.47014">
        <ele>892.7216796875</ele>
        <time>2011-04-16T07:53:21Z</time>
      </trkpt>
      <trkpt lat="42.77117" lon="1.47008">
        <ele>893.2021484375</ele>
        <time>2011-04-16T07:53:26Z</time>
      </trkpt>
      <trkpt lat="42.77124" lon="1.47001">
        <ele>894.64404296875</ele>
        <time>2011-04-16T07:53:32Z</time>
      </trkpt>
      <trkpt lat="42.77131" lon="1.46999">
        <ele>895.60546875</ele>
        <time>2011-04-16T07:53:38Z</time>
      </trkpt>
      <trkpt lat="42.77137" lon="1.46996">
        <ele>897.04736328125</ele>
        <time>2011-04-16T07:53:43Z</time>
      </trkpt>
      <trkpt lat="42.77142" lon="1.46994">
        <ele>898.4892578125</ele>
        <time>2011-04-16T07:53:48Z</time>
      </trkpt>
      <trkpt lat="42.77148" lon="1.46992">
        <ele>900.892578125</ele>
        <time>2011-04-16T07:53:53Z</time>
      </trkpt>
      <trkpt lat="42.77157" lon="1.46991">
        <ele>902.81518554688</ele>
        <time>2011-04-16T07:54:00Z</time>
      </trkpt>
      <trkpt lat="42.77164" lon="1.46989">
        <ele>903.77661132812</ele>
        <time>2011-04-16T07:54:06Z</time>
      </trkpt>
      <trkpt lat="42.7717" lon="1.46987">
        <ele>904.25732421875</ele>
        <time>2011-04-16T07:54:11Z</time>
      </trkpt>
      <trkpt lat="42.77178" lon="1.46986">
        <ele>904.25732421875</ele>
        <time>2011-04-16T07:54:17Z</time>
      </trkpt>
      <trkpt lat="42.77184" lon="1.46986">
        <ele>905.69921875</ele>
        <time>2011-04-16T07:54:22Z</time>
      </trkpt>
      <trkpt lat="42.77187" lon="1.46986">
        <ele>905.69921875</ele>
        <time>2011-04-16T07:54:24Z</time>
      </trkpt>
      <trkpt lat="42.77195" lon="1.46982">
        <ele>907.14111328125</ele>
        <time>2011-04-16T07:54:31Z</time>
      </trkpt>
      <trkpt lat="42.77198" lon="1.46982">
        <ele>906.66040039062</ele>
        <time>2011-04-16T07:54:33Z</time>
      </trkpt>
      <trkpt lat="42.77205" lon="1.46977">
        <ele>907.14111328125</ele>
        <time>2011-04-16T07:54:39Z</time>
      </trkpt>
      <trkpt lat="42.7721" lon="1.46973">
        <ele>906.1796875</ele>
        <time>2011-04-16T07:54:44Z</time>
      </trkpt>
      <trkpt lat="42.77219" lon="1.46965">
        <ele>906.66040039062</ele>
        <time>2011-04-16T07:54:51Z</time>
      </trkpt>
      <trkpt lat="42.77225" lon="1.46959">
        <ele>907.14111328125</ele>
        <time>2011-04-16T07:54:57Z</time>
      </trkpt>
      <trkpt lat="42.77232" lon="1.46952">
        <ele>908.10278320312</ele>
        <time>2011-04-16T07:55:04Z</time>
      </trkpt>
      <trkpt lat="42.77238" lon="1.46945">
        <ele>909.54467773438</ele>
        <time>2011-04-16T07:55:10Z</time>
      </trkpt>
      <trkpt lat="42.77244" lon="1.4694">
        <ele>910.505859375</ele>
        <time>2011-04-16T07:55:15Z</time>
      </trkpt>
      <trkpt lat="42.77249" lon="1.46932">
        <ele>911.94799804688</ele>
        <time>2011-04-16T07:55:21Z</time>
      </trkpt>
      <trkpt lat="42.77253" lon="1.46924">
        <ele>913.38989257812</ele>
        <time>2011-04-16T07:55:27Z</time>
      </trkpt>
      <trkpt lat="42.77257" lon="1.46919">
        <ele>913.87036132812</ele>
        <time>2011-04-16T07:55:31Z</time>
      </trkpt>
      <trkpt lat="42.77263" lon="1.46907">
        <ele>915.79321289062</ele>
        <time>2011-04-16T07:55:39Z</time>
      </trkpt>
      <trkpt lat="42.77267" lon="1.469">
        <ele>916.75439453125</ele>
        <time>2011-04-16T07:55:44Z</time>
      </trkpt>
      <trkpt lat="42.77272" lon="1.46893">
        <ele>916.75439453125</ele>
        <time>2011-04-16T07:55:49Z</time>
      </trkpt>
      <trkpt lat="42.77277" lon="1.46886">
        <ele>917.23510742188</ele>
        <time>2011-04-16T07:55:54Z</time>
      </trkpt>
      <trkpt lat="42.77281" lon="1.46877">
        <ele>920.11889648438</ele>
        <time>2011-04-16T07:56:00Z</time>
      </trkpt>
      <trkpt lat="42.77287" lon="1.46867">
        <ele>921.56079101562</ele>
        <time>2011-04-16T07:56:07Z</time>
      </trkpt>
      <trkpt lat="42.77291" lon="1.4686">
        <ele>923.0029296875</ele>
        <time>2011-04-16T07:56:12Z</time>
      </trkpt>
      <trkpt lat="42.77295" lon="1.46851">
        <ele>924.44506835938</ele>
        <time>2011-04-16T07:56:18Z</time>
      </trkpt>
      <trkpt lat="42.77299" lon="1.46841">
        <ele>925.40625</ele>
        <time>2011-04-16T07:56:24Z</time>
      </trkpt>
      <trkpt lat="42.77303" lon="1.46834">
        <ele>925.40625</ele>
        <time>2011-04-16T07:56:29Z</time>
      </trkpt>
      <trkpt lat="42.77306" lon="1.46826">
        <ele>925.88696289062</ele>
        <time>2011-04-16T07:56:34Z</time>
      </trkpt>
      <trkpt lat="42.77312" lon="1.46813">
        <ele>926.84838867188</ele>
        <time>2011-04-16T07:56:42Z</time>
      </trkpt>
      <trkpt lat="42.77316" lon="1.46804">
        <ele>926.84838867188</ele>
        <time>2011-04-16T07:56:48Z</time>
      </trkpt>
      <trkpt lat="42.77319" lon="1.46799">
        <ele>926.84838867188</ele>
        <time>2011-04-16T07:56:52Z</time>
      </trkpt>
      <trkpt lat="42.7732" lon="1.46797">
        <ele>926.84838867188</ele>
        <time>2011-04-16T07:56:53Z</time>
      </trkpt>
      <trkpt lat="42.77325" lon="1.46788">
        <ele>926.84838867188</ele>
        <time>2011-04-16T07:56:59Z</time>
      </trkpt>
      <trkpt lat="42.77327" lon="1.46785">
        <ele>926.84838867188</ele>
        <time>2011-04-16T07:57:01Z</time>
      </trkpt>
      <trkpt lat="42.77331" lon="1.46776">
        <ele>927.3291015625</ele>
        <time>2011-04-16T07:57:07Z</time>
      </trkpt>
      <trkpt lat="42.77332" lon="1.46773">
        <ele>927.3291015625</ele>
        <time>2011-04-16T07:57:09Z</time>
      </trkpt>
      <trkpt lat="42.77338" lon="1.46764">
        <ele>927.8095703125</ele>
        <time>2011-04-16T07:57:16Z</time>
      </trkpt>
      <trkpt lat="42.77341" lon="1.46758">
        <ele>927.8095703125</ele>
        <time>2011-04-16T07:57:20Z</time>
      </trkpt>
      <trkpt lat="42.77347" lon="1.46752">
        <ele>928.29028320312</ele>
        <time>2011-04-16T07:57:26Z</time>
      </trkpt>
      <trkpt lat="42.77353" lon="1.46739">
        <ele>930.69360351562</ele>
        <time>2011-04-16T07:57:34Z</time>
      </trkpt>
      <trkpt lat="42.77359" lon="1.46728">
        <ele>932.13549804688</ele>
        <time>2011-04-16T07:57:41Z</time>
      </trkpt>
      <trkpt lat="42.77362" lon="1.46722">
        <ele>932.13549804688</ele>
        <time>2011-04-16T07:57:45Z</time>
      </trkpt>
      <trkpt lat="42.77364" lon="1.46716">
        <ele>932.6162109375</ele>
        <time>2011-04-16T07:57:49Z</time>
      </trkpt>
      <trkpt lat="42.77369" lon="1.46706">
        <ele>932.6162109375</ele>
        <time>2011-04-16T07:57:56Z</time>
      </trkpt>
      <trkpt lat="42.77371" lon="1.46703">
        <ele>933.0966796875</ele>
        <time>2011-04-16T07:57:58Z</time>
      </trkpt>
      <trkpt lat="42.77376" lon="1.46692">
        <ele>932.13549804688</ele>
        <time>2011-04-16T07:58:05Z</time>
      </trkpt>
      <trkpt lat="42.77383" lon="1.46681">
        <ele>935.01953125</ele>
        <time>2011-04-16T07:58:13Z</time>
      </trkpt>
      <trkpt lat="42.77384" lon="1.46679">
        <ele>935.5</ele>
        <time>2011-04-16T07:58:14Z</time>
      </trkpt>
      <trkpt lat="42.77389" lon="1.46671">
        <ele>938.38403320312</ele>
        <time>2011-04-16T07:58:20Z</time>
      </trkpt>
      <trkpt lat="42.77393" lon="1.4666">
        <ele>942.2294921875</ele>
        <time>2011-04-16T07:58:27Z</time>
      </trkpt>
      <trkpt lat="42.77397" lon="1.4665">
        <ele>943.67138671875</ele>
        <time>2011-04-16T07:58:33Z</time>
      </trkpt>
      <trkpt lat="42.77398" lon="1.46646">
        <ele>945.11328125</ele>
        <time>2011-04-16T07:58:36Z</time>
      </trkpt>
      <trkpt lat="42.77401" lon="1.46641">
        <ele>945.59399414062</ele>
        <time>2011-04-16T07:58:39Z</time>
      </trkpt>
      <trkpt lat="42.77404" lon="1.46634">
        <ele>946.07470703125</ele>
        <time>2011-04-16T07:58:44Z</time>
      </trkpt>
      <trkpt lat="42.77406" lon="1.46631">
        <ele>946.07470703125</ele>
        <time>2011-04-16T07:58:46Z</time>
      </trkpt>
      <trkpt lat="42.77412" lon="1.46619">
        <ele>947.03588867188</ele>
        <time>2011-04-16T07:58:54Z</time>
      </trkpt>
      <trkpt lat="42.77413" lon="1.46618">
        <ele>947.5166015625</ele>
        <time>2011-04-16T07:58:55Z</time>
      </trkpt>
      <trkpt lat="42.77417" lon="1.4661">
        <ele>947.99731445312</ele>
        <time>2011-04-16T07:59:00Z</time>
      </trkpt>
      <trkpt lat="42.77418" lon="1.46607">
        <ele>947.99731445312</ele>
        <time>2011-04-16T07:59:02Z</time>
      </trkpt>
      <trkpt lat="42.77423" lon="1.46597">
        <ele>949.43920898438</ele>
        <time>2011-04-16T07:59:09Z</time>
      </trkpt>
      <trkpt lat="42.77428" lon="1.46585">
        <ele>949.919921875</ele>
        <time>2011-04-16T07:59:17Z</time>
      </trkpt>
      <trkpt lat="42.77433" lon="1.46575">
        <ele>951.36181640625</ele>
        <time>2011-04-16T07:59:23Z</time>
      </trkpt>
      <trkpt lat="42.77433" lon="1.46572">
        <ele>952.32299804688</ele>
        <time>2011-04-16T07:59:25Z</time>
      </trkpt>
      <trkpt lat="42.77438" lon="1.46563">
        <ele>953.28442382812</ele>
        <time>2011-04-16T07:59:31Z</time>
      </trkpt>
      <trkpt lat="42.77441" lon="1.46556">
        <ele>953.28442382812</ele>
        <time>2011-04-16T07:59:36Z</time>
      </trkpt>
      <trkpt lat="42.77443" lon="1.46552">
        <ele>954.24584960938</ele>
        <time>2011-04-16T07:59:39Z</time>
      </trkpt>
      <trkpt lat="42.77444" lon="1.46551">
        <ele>954.72631835938</ele>
        <time>2011-04-16T07:59:40Z</time>
      </trkpt>
      <trkpt lat="42.77441" lon="1.46549">
        <ele>968.66552734375</ele>
        <time>2011-04-16T08:00:20Z</time>
      </trkpt>
      <trkpt lat="42.77441" lon="1.46549">
        <ele>969.14624023438</ele>
        <time>2011-04-16T08:00:21Z</time>
      </trkpt>
      <trkpt lat="42.77444" lon="1.46544">
        <ele>968.18481445312</ele>
        <time>2011-04-16T08:00:26Z</time>
      </trkpt>
      <trkpt lat="42.77451" lon="1.46534">
        <ele>968.18481445312</ele>
        <time>2011-04-16T08:00:35Z</time>
      </trkpt>
      <trkpt lat="42.77456" lon="1.46528">
        <ele>968.18481445312</ele>
        <time>2011-04-16T08:00:42Z</time>
      </trkpt>
      <trkpt lat="42.77459" lon="1.46523">
        <ele>967.7041015625</ele>
        <time>2011-04-16T08:00:47Z</time>
      </trkpt>
      <trkpt lat="42.77465" lon="1.46518">
        <ele>967.7041015625</ele>
        <time>2011-04-16T08:00:52Z</time>
      </trkpt>
      <trkpt lat="42.77472" lon="1.4651">
        <ele>968.18481445312</ele>
        <time>2011-04-16T08:00:58Z</time>
      </trkpt>
      <trkpt lat="42.7748" lon="1.46498">
        <ele>966.26220703125</ele>
        <time>2011-04-16T08:01:07Z</time>
      </trkpt>
      <trkpt lat="42.77484" lon="1.46486">
        <ele>963.37841796875</ele>
        <time>2011-04-16T08:01:16Z</time>
      </trkpt>
      <trkpt lat="42.77489" lon="1.46477">
        <ele>964.8203125</ele>
        <time>2011-04-16T08:01:24Z</time>
      </trkpt>
      <trkpt lat="42.77496" lon="1.46467">
        <ele>966.74291992188</ele>
        <time>2011-04-16T08:01:32Z</time>
      </trkpt>
      <trkpt lat="42.77498" lon="1.46454">
        <ele>968.66552734375</ele>
        <time>2011-04-16T08:01:40Z</time>
      </trkpt>
      <trkpt lat="42.77498" lon="1.46442">
        <ele>968.66552734375</ele>
        <time>2011-04-16T08:01:47Z</time>
      </trkpt>
      <trkpt lat="42.77497" lon="1.46432">
        <ele>968.66552734375</ele>
        <time>2011-04-16T08:01:54Z</time>
      </trkpt>
      <trkpt lat="42.77497" lon="1.46416">
        <ele>971.06884765625</ele>
        <time>2011-04-16T08:02:03Z</time>
      </trkpt>
      <trkpt lat="42.77498" lon="1.46412">
        <ele>971.06884765625</ele>
        <time>2011-04-16T08:02:05Z</time>
      </trkpt>
      <trkpt lat="42.775" lon="1.46407">
        <ele>971.54931640625</ele>
        <time>2011-04-16T08:02:09Z</time>
      </trkpt>
      <trkpt lat="42.77504" lon="1.46395">
        <ele>972.99169921875</ele>
        <time>2011-04-16T08:02:17Z</time>
      </trkpt>
      <trkpt lat="42.77511" lon="1.46384">
        <ele>974.43359375</ele>
        <time>2011-04-16T08:02:26Z</time>
      </trkpt>
      <trkpt lat="42.77513" lon="1.46373">
        <ele>975.87548828125</ele>
        <time>2011-04-16T08:02:33Z</time>
      </trkpt>
      <trkpt lat="42.77513" lon="1.4637">
        <ele>976.35620117188</ele>
        <time>2011-04-16T08:02:35Z</time>
      </trkpt>
      <trkpt lat="42.77509" lon="1.46364">
        <ele>980.20141601562</ele>
        <time>2011-04-16T08:02:41Z</time>
      </trkpt>
      <trkpt lat="42.7751" lon="1.46351">
        <ele>983.56591796875</ele>
        <time>2011-04-16T08:02:49Z</time>
      </trkpt>
      <trkpt lat="42.77512" lon="1.4634">
        <ele>984.52734375</ele>
        <time>2011-04-16T08:02:56Z</time>
      </trkpt>
      <trkpt lat="42.77515" lon="1.46334">
        <ele>984.04663085938</ele>
        <time>2011-04-16T08:03:00Z</time>
      </trkpt>
      <trkpt lat="42.77519" lon="1.46321">
        <ele>985.00805664062</ele>
        <time>2011-04-16T08:03:08Z</time>
      </trkpt>
      <trkpt lat="42.77521" lon="1.46311">
        <ele>985.48852539062</ele>
        <time>2011-04-16T08:03:15Z</time>
      </trkpt>
      <trkpt lat="42.77521" lon="1.46307">
        <ele>986.44995117188</ele>
        <time>2011-04-16T08:03:17Z</time>
      </trkpt>
      <trkpt lat="42.7752" lon="1.46298">
        <ele>988.37280273438</ele>
        <time>2011-04-16T08:03:22Z</time>
      </trkpt>
      <trkpt lat="42.77522" lon="1.46285">
        <ele>988.37280273438</ele>
        <time>2011-04-16T08:03:30Z</time>
      </trkpt>
      <trkpt lat="42.77525" lon="1.46274">
        <ele>992.21801757812</ele>
        <time>2011-04-16T08:03:36Z</time>
      </trkpt>
      <trkpt lat="42.77528" lon="1.46262">
        <ele>995.10180664062</ele>
        <time>2011-04-16T08:03:43Z</time>
      </trkpt>
      <trkpt lat="42.77532" lon="1.46248">
        <ele>995.10180664062</ele>
        <time>2011-04-16T08:03:51Z</time>
      </trkpt>
      <trkpt lat="42.77534" lon="1.46235">
        <ele>995.10180664062</ele>
        <time>2011-04-16T08:03:59Z</time>
      </trkpt>
      <trkpt lat="42.7753" lon="1.46221">
        <ele>998.94702148438</ele>
        <time>2011-04-16T08:04:07Z</time>
      </trkpt>
      <trkpt lat="42.77528" lon="1.46213">
        <ele>998.94702148438</ele>
        <time>2011-04-16T08:04:12Z</time>
      </trkpt>
      <trkpt lat="42.77528" lon="1.462">
        <ele>999.427734375</ele>
        <time>2011-04-16T08:04:19Z</time>
      </trkpt>
      <trkpt lat="42.77529" lon="1.46187">
        <ele>998.46630859375</ele>
        <time>2011-04-16T08:04:26Z</time>
      </trkpt>
      <trkpt lat="42.77531" lon="1.46175">
        <ele>999.90844726562</ele>
        <time>2011-04-16T08:04:33Z</time>
      </trkpt>
      <trkpt lat="42.77532" lon="1.46171">
        <ele>1001.8310546875</ele>
        <time>2011-04-16T08:04:36Z</time>
      </trkpt>
      <trkpt lat="42.77536" lon="1.46159">
        <ele>1004.2346191406</ele>
        <time>2011-04-16T08:04:43Z</time>
      </trkpt>
      <trkpt lat="42.77538" lon="1.46148">
        <ele>1005.1958007812</ele>
        <time>2011-04-16T08:04:50Z</time>
      </trkpt>
      <trkpt lat="42.77539" lon="1.46143">
        <ele>1005.1958007812</ele>
        <time>2011-04-16T08:04:53Z</time>
      </trkpt>
      <trkpt lat="42.77538" lon="1.46135">
        <ele>1005.6765136719</ele>
        <time>2011-04-16T08:04:58Z</time>
      </trkpt>
      <trkpt lat="42.77536" lon="1.4612">
        <ele>1008.5603027344</ele>
        <time>2011-04-16T08:05:06Z</time>
      </trkpt>
      <trkpt lat="42.77537" lon="1.46109">
        <ele>1009.5217285156</ele>
        <time>2011-04-16T08:05:13Z</time>
      </trkpt>
      <trkpt lat="42.77539" lon="1.46099">
        <ele>1010.0021972656</ele>
        <time>2011-04-16T08:05:19Z</time>
      </trkpt>
      <trkpt lat="42.7754" lon="1.46087">
        <ele>1012.4055175781</ele>
        <time>2011-04-16T08:05:26Z</time>
      </trkpt>
      <trkpt lat="42.77542" lon="1.4608">
        <ele>1013.8474121094</ele>
        <time>2011-04-16T08:05:30Z</time>
      </trkpt>
      <trkpt lat="42.77547" lon="1.46064">
        <ele>1017.2121582031</ele>
        <time>2011-04-16T08:05:39Z</time>
      </trkpt>
      <trkpt lat="42.7755" lon="1.46055">
        <ele>1016.2507324219</ele>
        <time>2011-04-16T08:05:45Z</time>
      </trkpt>
      <trkpt lat="42.77549" lon="1.46046">
        <ele>1015.2895507812</ele>
        <time>2011-04-16T08:05:51Z</time>
      </trkpt>
      <trkpt lat="42.77548" lon="1.46041">
        <ele>1014.328125</ele>
        <time>2011-04-16T08:05:55Z</time>
      </trkpt>
      <trkpt lat="42.77544" lon="1.46033">
        <ele>1015.2895507812</ele>
        <time>2011-04-16T08:06:02Z</time>
      </trkpt>
      <trkpt lat="42.77543" lon="1.46031">
        <ele>1015.2895507812</ele>
        <time>2011-04-16T08:06:03Z</time>
      </trkpt>
      <trkpt lat="42.77543" lon="1.4602">
        <ele>1016.7314453125</ele>
        <time>2011-04-16T08:06:10Z</time>
      </trkpt>
      <trkpt lat="42.77544" lon="1.46018">
        <ele>1016.7314453125</ele>
        <time>2011-04-16T08:06:11Z</time>
      </trkpt>
      <trkpt lat="42.77545" lon="1.46006">
        <ele>1020.5769042969</ele>
        <time>2011-04-16T08:06:18Z</time>
      </trkpt>
      <trkpt lat="42.77549" lon="1.45997">
        <ele>1022.9802246094</ele>
        <time>2011-04-16T08:06:24Z</time>
      </trkpt>
      <trkpt lat="42.77551" lon="1.45992">
        <ele>1024.9028320312</ele>
        <time>2011-04-16T08:06:28Z</time>
      </trkpt>
      <trkpt lat="42.77554" lon="1.45987">
        <ele>1024.4221191406</ele>
        <time>2011-04-16T08:06:32Z</time>
      </trkpt>
      <trkpt lat="42.77556" lon="1.45972">
        <ele>1027.3061523438</ele>
        <time>2011-04-16T08:06:40Z</time>
      </trkpt>
      <trkpt lat="42.77556" lon="1.45959">
        <ele>1028.2673339844</ele>
        <time>2011-04-16T08:06:48Z</time>
      </trkpt>
      <trkpt lat="42.77555" lon="1.45954">
        <ele>1029.7092285156</ele>
        <time>2011-04-16T08:06:51Z</time>
      </trkpt>
      <trkpt lat="42.77553" lon="1.45946">
        <ele>1030.6706542969</ele>
        <time>2011-04-16T08:06:55Z</time>
      </trkpt>
      <trkpt lat="42.77552" lon="1.45939">
        <ele>1031.6318359375</ele>
        <time>2011-04-16T08:06:59Z</time>
      </trkpt>
      <trkpt lat="42.77551" lon="1.45933">
        <ele>1033.0737304688</ele>
        <time>2011-04-16T08:07:03Z</time>
      </trkpt>
      <trkpt lat="42.77543" lon="1.45921">
        <ele>1037.3999023438</ele>
        <time>2011-04-16T08:07:12Z</time>
      </trkpt>
      <trkpt lat="42.77542" lon="1.4592">
        <ele>1037.8806152344</ele>
        <time>2011-04-16T08:07:13Z</time>
      </trkpt>
      <trkpt lat="42.77534" lon="1.45911">
        <ele>1040.7644042969</ele>
        <time>2011-04-16T08:07:21Z</time>
      </trkpt>
      <trkpt lat="42.77528" lon="1.45907">
        <ele>1041.2451171875</ele>
        <time>2011-04-16T08:07:27Z</time>
      </trkpt>
      <trkpt lat="42.77525" lon="1.45902">
        <ele>1041.2451171875</ele>
        <time>2011-04-16T08:07:31Z</time>
      </trkpt>
      <trkpt lat="42.77525" lon="1.45898">
        <ele>1039.3225097656</ele>
        <time>2011-04-16T08:07:33Z</time>
      </trkpt>
      <trkpt lat="42.77525" lon="1.45891">
        <ele>1037.8806152344</ele>
        <time>2011-04-16T08:07:37Z</time>
      </trkpt>
      <trkpt lat="42.77525" lon="1.45881">
        <ele>1036.4387207031</ele>
        <time>2011-04-16T08:07:43Z</time>
      </trkpt>
      <trkpt lat="42.77524" lon="1.45875">
        <ele>1034.5158691406</ele>
        <time>2011-04-16T08:07:48Z</time>
      </trkpt>
      <trkpt lat="42.77525" lon="1.4587">
        <ele>1033.5544433594</ele>
        <time>2011-04-16T08:07:51Z</time>
      </trkpt>
      <trkpt lat="42.77524" lon="1.45852">
        <ele>1031.1513671875</ele>
        <time>2011-04-16T08:08:01Z</time>
      </trkpt>
      <trkpt lat="42.77524" lon="1.45851">
        <ele>1030.6706542969</ele>
        <time>2011-04-16T08:08:02Z</time>
      </trkpt>
      <trkpt lat="42.77522" lon="1.4584">
        <ele>1029.7092285156</ele>
        <time>2011-04-16T08:08:09Z</time>
      </trkpt>
      <trkpt lat="42.77517" lon="1.45825">
        <ele>1031.6318359375</ele>
        <time>2011-04-16T08:08:18Z</time>
      </trkpt>
      <trkpt lat="42.77511" lon="1.45815">
        <ele>1038.8420410156</ele>
        <time>2011-04-16T08:08:23Z</time>
      </trkpt>
      <trkpt lat="42.7751" lon="1.45813">
        <ele>1038.8420410156</ele>
        <time>2011-04-16T08:08:24Z</time>
      </trkpt>
      <trkpt lat="42.77502" lon="1.45799">
        <ele>1045.0903320312</ele>
        <time>2011-04-16T08:08:32Z</time>
      </trkpt>
      <trkpt lat="42.77501" lon="1.45795">
        <ele>1045.0903320312</ele>
        <time>2011-04-16T08:08:35Z</time>
      </trkpt>
      <trkpt lat="42.77498" lon="1.45785">
        <ele>1042.6872558594</ele>
        <time>2011-04-16T08:08:44Z</time>
      </trkpt>
      <trkpt lat="42.77496" lon="1.45776">
        <ele>1042.2065429688</ele>
        <time>2011-04-16T08:08:50Z</time>
      </trkpt>
      <trkpt lat="42.77495" lon="1.45767">
        <ele>1040.7644042969</ele>
        <time>2011-04-16T08:08:55Z</time>
      </trkpt>
      <trkpt lat="42.77491" lon="1.45756">
        <ele>1041.7258300781</ele>
        <time>2011-04-16T08:09:03Z</time>
      </trkpt>
      <trkpt lat="42.77491" lon="1.45752">
        <ele>1041.7258300781</ele>
        <time>2011-04-16T08:09:05Z</time>
      </trkpt>
      <trkpt lat="42.7749" lon="1.45749">
        <ele>1042.2065429688</ele>
        <time>2011-04-16T08:09:08Z</time>
      </trkpt>
      <trkpt lat="42.77488" lon="1.45746">
        <ele>1042.6872558594</ele>
        <time>2011-04-16T08:09:10Z</time>
      </trkpt>
      <trkpt lat="42.77481" lon="1.45736">
        <ele>1046.0517578125</ele>
        <time>2011-04-16T08:09:16Z</time>
      </trkpt>
      <trkpt lat="42.7748" lon="1.45733">
        <ele>1046.0517578125</ele>
        <time>2011-04-16T08:09:18Z</time>
      </trkpt>
      <trkpt lat="42.77472" lon="1.45725">
        <ele>1047.4936523438</ele>
        <time>2011-04-16T08:09:25Z</time>
      </trkpt>
      <trkpt lat="42.7747" lon="1.45721">
        <ele>1047.4936523438</ele>
        <time>2011-04-16T08:09:28Z</time>
      </trkpt>
      <trkpt lat="42.77464" lon="1.45712">
        <ele>1050.3776855469</ele>
        <time>2011-04-16T08:09:34Z</time>
      </trkpt>
      <trkpt lat="42.77463" lon="1.45708">
        <ele>1050.8581542969</ele>
        <time>2011-04-16T08:09:36Z</time>
      </trkpt>
      <trkpt lat="42.77457" lon="1.45695">
        <ele>1054.7036132812</ele>
        <time>2011-04-16T08:09:43Z</time>
      </trkpt>
      <trkpt lat="42.77455" lon="1.4569">
        <ele>1054.7036132812</ele>
        <time>2011-04-16T08:09:46Z</time>
      </trkpt>
      <trkpt lat="42.77452" lon="1.45681">
        <ele>1055.1843261719</ele>
        <time>2011-04-16T08:09:51Z</time>
      </trkpt>
      <trkpt lat="42.77449" lon="1.45668">
        <ele>1055.1843261719</ele>
        <time>2011-04-16T08:09:59Z</time>
      </trkpt>
      <trkpt lat="42.7745" lon="1.45666">
        <ele>1054.2231445312</ele>
        <time>2011-04-16T08:10:01Z</time>
      </trkpt>
      <trkpt lat="42.77447" lon="1.4565">
        <ele>1055.6650390625</ele>
        <time>2011-04-16T08:10:10Z</time>
      </trkpt>
      <trkpt lat="42.77446" lon="1.45647">
        <ele>1056.6262207031</ele>
        <time>2011-04-16T08:10:12Z</time>
      </trkpt>
      <trkpt lat="42.77442" lon="1.45634">
        <ele>1058.548828125</ele>
        <time>2011-04-16T08:10:20Z</time>
      </trkpt>
      <trkpt lat="42.77439" lon="1.45622">
        <ele>1060.9521484375</ele>
        <time>2011-04-16T08:10:27Z</time>
      </trkpt>
      <trkpt lat="42.77437" lon="1.45614">
        <ele>1063.35546875</ele>
        <time>2011-04-16T08:10:32Z</time>
      </trkpt>
      <trkpt lat="42.77436" lon="1.45612">
        <ele>1063.35546875</ele>
        <time>2011-04-16T08:10:33Z</time>
      </trkpt>
      <trkpt lat="42.77433" lon="1.45602">
        <ele>1065.2780761719</ele>
        <time>2011-04-16T08:10:39Z</time>
      </trkpt>
      <trkpt lat="42.77428" lon="1.45592">
        <ele>1066.7199707031</ele>
        <time>2011-04-16T08:10:45Z</time>
      </trkpt>
      <trkpt lat="42.77427" lon="1.4559">
        <ele>1067.2006835938</ele>
        <time>2011-04-16T08:10:47Z</time>
      </trkpt>
      <trkpt lat="42.77423" lon="1.4558">
        <ele>1067.6811523438</ele>
        <time>2011-04-16T08:10:54Z</time>
      </trkpt>
      <trkpt lat="42.77422" lon="1.45577">
        <ele>1068.162109375</ele>
        <time>2011-04-16T08:10:56Z</time>
      </trkpt>
      <trkpt lat="42.77419" lon="1.45571">
        <ele>1068.6428222656</ele>
        <time>2011-04-16T08:11:00Z</time>
      </trkpt>
      <trkpt lat="42.77413" lon="1.45558">
        <ele>1069.1235351562</ele>
        <time>2011-04-16T08:11:09Z</time>
      </trkpt>
      <trkpt lat="42.77411" lon="1.45552">
        <ele>1069.1235351562</ele>
        <time>2011-04-16T08:11:14Z</time>
      </trkpt>
      <trkpt lat="42.77406" lon="1.45542">
        <ele>1070.5654296875</ele>
        <time>2011-04-16T08:11:22Z</time>
      </trkpt>
      <trkpt lat="42.77402" lon="1.45536">
        <ele>1071.5266113281</ele>
        <time>2011-04-16T08:11:27Z</time>
      </trkpt>
      <trkpt lat="42.774" lon="1.45524">
        <ele>1071.5266113281</ele>
        <time>2011-04-16T08:11:34Z</time>
      </trkpt>
      <trkpt lat="42.77402" lon="1.45515">
        <ele>1072.0073242188</ele>
        <time>2011-04-16T08:11:40Z</time>
      </trkpt>
      <trkpt lat="42.77401" lon="1.45509">
        <ele>1073.9299316406</ele>
        <time>2011-04-16T08:11:45Z</time>
      </trkpt>
      <trkpt lat="42.77403" lon="1.45501">
        <ele>1076.3332519531</ele>
        <time>2011-04-16T08:11:52Z</time>
      </trkpt>
      <trkpt lat="42.77404" lon="1.45495">
        <ele>1076.3332519531</ele>
        <time>2011-04-16T08:11:57Z</time>
      </trkpt>
      <trkpt lat="42.77402" lon="1.45488">
        <ele>1077.2946777344</ele>
        <time>2011-04-16T08:12:02Z</time>
      </trkpt>
      <trkpt lat="42.77402" lon="1.45482">
        <ele>1078.255859375</ele>
        <time>2011-04-16T08:12:07Z</time>
      </trkpt>
      <trkpt lat="42.77403" lon="1.45476">
        <ele>1079.6977539062</ele>
        <time>2011-04-16T08:12:12Z</time>
      </trkpt>
      <trkpt lat="42.77406" lon="1.45472">
        <ele>1079.2170410156</ele>
        <time>2011-04-16T08:12:16Z</time>
      </trkpt>
      <trkpt lat="42.77406" lon="1.45469">
        <ele>1079.2170410156</ele>
        <time>2011-04-16T08:12:18Z</time>
      </trkpt>
      <trkpt lat="42.77406" lon="1.45459">
        <ele>1083.0622558594</ele>
        <time>2011-04-16T08:12:25Z</time>
      </trkpt>
      <trkpt lat="42.77406" lon="1.45454">
        <ele>1084.5046386719</ele>
        <time>2011-04-16T08:12:29Z</time>
      </trkpt>
      <trkpt lat="42.77407" lon="1.45445">
        <ele>1085.4658203125</ele>
        <time>2011-04-16T08:12:35Z</time>
      </trkpt>
      <trkpt lat="42.77407" lon="1.4544">
        <ele>1085.9465332031</ele>
        <time>2011-04-16T08:12:39Z</time>
      </trkpt>
      <trkpt lat="42.77411" lon="1.45433">
        <ele>1086.9077148438</ele>
        <time>2011-04-16T08:12:43Z</time>
      </trkpt>
      <trkpt lat="42.77414" lon="1.45423">
        <ele>1085.9465332031</ele>
        <time>2011-04-16T08:12:50Z</time>
      </trkpt>
      <trkpt lat="42.77417" lon="1.45419">
        <ele>1086.4272460938</ele>
        <time>2011-04-16T08:12:53Z</time>
      </trkpt>
      <trkpt lat="42.7742" lon="1.4541">
        <ele>1086.9077148438</ele>
        <time>2011-04-16T08:12:59Z</time>
      </trkpt>
      <trkpt lat="42.7742" lon="1.45409">
        <ele>1086.9077148438</ele>
        <time>2011-04-16T08:13:00Z</time>
      </trkpt>
      <trkpt lat="42.77424" lon="1.45398">
        <ele>1086.4272460938</ele>
        <time>2011-04-16T08:13:08Z</time>
      </trkpt>
      <trkpt lat="42.77427" lon="1.4539">
        <ele>1088.3498535156</ele>
        <time>2011-04-16T08:13:14Z</time>
      </trkpt>
      <trkpt lat="42.77427" lon="1.45389">
        <ele>1088.8305664062</ele>
        <time>2011-04-16T08:13:15Z</time>
      </trkpt>
      <trkpt lat="42.77428" lon="1.4538">
        <ele>1091.2336425781</ele>
        <time>2011-04-16T08:13:22Z</time>
      </trkpt>
      <trkpt lat="42.7743" lon="1.45376">
        <ele>1092.1950683594</ele>
        <time>2011-04-16T08:13:28Z</time>
      </trkpt>
      <trkpt lat="42.77431" lon="1.4537">
        <ele>1092.1950683594</ele>
        <time>2011-04-16T08:13:32Z</time>
      </trkpt>
      <trkpt lat="42.77432" lon="1.45367">
        <ele>1092.67578125</ele>
        <time>2011-04-16T08:13:34Z</time>
      </trkpt>
      <trkpt lat="42.77431" lon="1.45357">
        <ele>1095.5595703125</ele>
        <time>2011-04-16T08:13:40Z</time>
      </trkpt>
      <trkpt lat="42.77429" lon="1.45354">
        <ele>1098.443359375</ele>
        <time>2011-04-16T08:13:43Z</time>
      </trkpt>
      <trkpt lat="42.77427" lon="1.45345">
        <ele>1099.8854980469</ele>
        <time>2011-04-16T08:13:48Z</time>
      </trkpt>
      <trkpt lat="42.77423" lon="1.45336">
        <ele>1102.76953125</ele>
        <time>2011-04-16T08:13:54Z</time>
      </trkpt>
      <trkpt lat="42.77422" lon="1.45322">
        <ele>1102.2888183594</ele>
        <time>2011-04-16T08:14:02Z</time>
      </trkpt>
      <trkpt lat="42.77422" lon="1.4532">
        <ele>1103.2502441406</ele>
        <time>2011-04-16T08:14:03Z</time>
      </trkpt>
      <trkpt lat="42.7742" lon="1.45316">
        <ele>1103.2502441406</ele>
        <time>2011-04-16T08:14:06Z</time>
      </trkpt>
      <trkpt lat="42.7742" lon="1.45311">
        <ele>1103.2502441406</ele>
        <time>2011-04-16T08:14:09Z</time>
      </trkpt>
      <trkpt lat="42.77417" lon="1.45302">
        <ele>1105.1728515625</ele>
        <time>2011-04-16T08:14:16Z</time>
      </trkpt>
      <trkpt lat="42.77417" lon="1.45294">
        <ele>1105.6535644531</ele>
        <time>2011-04-16T08:14:21Z</time>
      </trkpt>
      <trkpt lat="42.77417" lon="1.4529">
        <ele>1106.6147460938</ele>
        <time>2011-04-16T08:14:24Z</time>
      </trkpt>
      <trkpt lat="42.77415" lon="1.45282">
        <ele>1106.6147460938</ele>
        <time>2011-04-16T08:14:29Z</time>
      </trkpt>
      <trkpt lat="42.77415" lon="1.4528">
        <ele>1106.1340332031</ele>
        <time>2011-04-16T08:14:31Z</time>
      </trkpt>
      <trkpt lat="42.77417" lon="1.45268">
        <ele>1107.0954589844</ele>
        <time>2011-04-16T08:14:39Z</time>
      </trkpt>
      <trkpt lat="42.77418" lon="1.45264">
        <ele>1108.5373535156</ele>
        <time>2011-04-16T08:14:42Z</time>
      </trkpt>
      <trkpt lat="42.77419" lon="1.45259">
        <ele>1110.4599609375</ele>
        <time>2011-04-16T08:14:46Z</time>
      </trkpt>
      <trkpt lat="42.77422" lon="1.45256">
        <ele>1113.3439941406</ele>
        <time>2011-04-16T08:14:52Z</time>
      </trkpt>
      <trkpt lat="42.77425" lon="1.45256">
        <ele>1115.2666015625</ele>
        <time>2011-04-16T08:14:56Z</time>
      </trkpt>
      <trkpt lat="42.77428" lon="1.45257">
        <ele>1116.2280273438</ele>
        <time>2011-04-16T08:15:00Z</time>
      </trkpt>
      <trkpt lat="42.77433" lon="1.45261">
        <ele>1117.669921875</ele>
        <time>2011-04-16T08:15:05Z</time>
      </trkpt>
      <trkpt lat="42.77437" lon="1.45265">
        <ele>1120.5539550781</ele>
        <time>2011-04-16T08:15:11Z</time>
      </trkpt>
      <trkpt lat="42.77442" lon="1.45271">
        <ele>1123.4379882812</ele>
        <time>2011-04-16T08:15:18Z</time>
      </trkpt>
      <trkpt lat="42.77442" lon="1.45273">
        <ele>1123.9184570312</ele>
        <time>2011-04-16T08:15:25Z</time>
      </trkpt>
      <trkpt lat="42.77442" lon="1.4527">
        <ele>1123.4379882812</ele>
        <time>2011-04-16T08:15:28Z</time>
      </trkpt>
      <trkpt lat="42.77443" lon="1.45262">
        <ele>1122.9572753906</ele>
        <time>2011-04-16T08:15:35Z</time>
      </trkpt>
      <trkpt lat="42.77444" lon="1.45256">
        <ele>1122.4765625</ele>
        <time>2011-04-16T08:15:41Z</time>
      </trkpt>
      <trkpt lat="42.77446" lon="1.4525">
        <ele>1124.3991699219</ele>
        <time>2011-04-16T08:15:46Z</time>
      </trkpt>
      <trkpt lat="42.77449" lon="1.45245">
        <ele>1124.3991699219</ele>
        <time>2011-04-16T08:15:53Z</time>
      </trkpt>
      <trkpt lat="42.77451" lon="1.45239">
        <ele>1125.8410644531</ele>
        <time>2011-04-16T08:15:59Z</time>
      </trkpt>
      <trkpt lat="42.77451" lon="1.45231">
        <ele>1128.2443847656</ele>
        <time>2011-04-16T08:16:05Z</time>
      </trkpt>
      <trkpt lat="42.77452" lon="1.45224">
        <ele>1129.2055664062</ele>
        <time>2011-04-16T08:16:10Z</time>
      </trkpt>
      <trkpt lat="42.77453" lon="1.45216">
        <ele>1131.6088867188</ele>
        <time>2011-04-16T08:16:17Z</time>
      </trkpt>
      <trkpt lat="42.77455" lon="1.4521">
        <ele>1133.5317382812</ele>
        <time>2011-04-16T08:16:22Z</time>
      </trkpt>
      <trkpt lat="42.77458" lon="1.45202">
        <ele>1134.0124511719</ele>
        <time>2011-04-16T08:16:29Z</time>
      </trkpt>
      <trkpt lat="42.7746" lon="1.45193">
        <ele>1134.9738769531</ele>
        <time>2011-04-16T08:16:36Z</time>
      </trkpt>
      <trkpt lat="42.7746" lon="1.45183">
        <ele>1136.4157714844</ele>
        <time>2011-04-16T08:16:43Z</time>
      </trkpt>
      <trkpt lat="42.77463" lon="1.45169">
        <ele>1135.9350585938</ele>
        <time>2011-04-16T08:16:52Z</time>
      </trkpt>
      <trkpt lat="42.77465" lon="1.45161">
        <ele>1135.9350585938</ele>
        <time>2011-04-16T08:16:57Z</time>
      </trkpt>
      <trkpt lat="42.77468" lon="1.45151">
        <ele>1135.4543457031</ele>
        <time>2011-04-16T08:17:03Z</time>
      </trkpt>
      <trkpt lat="42.77471" lon="1.45142">
        <ele>1136.8962402344</ele>
        <time>2011-04-16T08:17:09Z</time>
      </trkpt>
      <trkpt lat="42.77471" lon="1.45141">
        <ele>1137.376953125</ele>
        <time>2011-04-16T08:17:10Z</time>
      </trkpt>
      <trkpt lat="42.77475" lon="1.45133">
        <ele>1137.8576660156</ele>
        <time>2011-04-16T08:17:16Z</time>
      </trkpt>
      <trkpt lat="42.77478" lon="1.45123">
        <ele>1139.7802734375</ele>
        <time>2011-04-16T08:17:23Z</time>
      </trkpt>
      <trkpt lat="42.7748" lon="1.45115">
        <ele>1141.7028808594</ele>
        <time>2011-04-16T08:17:28Z</time>
      </trkpt>
      <trkpt lat="42.77481" lon="1.45104">
        <ele>1143.1447753906</ele>
        <time>2011-04-16T08:17:34Z</time>
      </trkpt>
      <trkpt lat="42.77485" lon="1.45094">
        <ele>1143.1447753906</ele>
        <time>2011-04-16T08:17:40Z</time>
      </trkpt>
      <trkpt lat="42.77487" lon="1.45085">
        <ele>1143.1447753906</ele>
        <time>2011-04-16T08:17:45Z</time>
      </trkpt>
      <trkpt lat="42.77488" lon="1.45072">
        <ele>1144.1062011719</ele>
        <time>2011-04-16T08:17:52Z</time>
      </trkpt>
      <trkpt lat="42.77488" lon="1.45067">
        <ele>1145.5480957031</ele>
        <time>2011-04-16T08:17:55Z</time>
      </trkpt>
      <trkpt lat="42.77489" lon="1.45058">
        <ele>1146.5095214844</ele>
        <time>2011-04-16T08:18:00Z</time>
      </trkpt>
      <trkpt lat="42.7749" lon="1.45045">
        <ele>1147.9514160156</ele>
        <time>2011-04-16T08:18:07Z</time>
      </trkpt>
      <trkpt lat="42.7749" lon="1.45035">
        <ele>1149.8742675781</ele>
        <time>2011-04-16T08:18:13Z</time>
      </trkpt>
      <trkpt lat="42.77491" lon="1.45024">
        <ele>1151.3161621094</ele>
        <time>2011-04-16T08:18:20Z</time>
      </trkpt>
      <trkpt lat="42.77491" lon="1.45018">
        <ele>1151.796875</ele>
        <time>2011-04-16T08:18:23Z</time>
      </trkpt>
      <trkpt lat="42.77491" lon="1.45008">
        <ele>1151.796875</ele>
        <time>2011-04-16T08:18:30Z</time>
      </trkpt>
      <trkpt lat="42.77491" lon="1.45006">
        <ele>1152.7580566406</ele>
        <time>2011-04-16T08:18:31Z</time>
      </trkpt>
      <trkpt lat="42.77488" lon="1.44997">
        <ele>1156.6032714844</ele>
        <time>2011-04-16T08:18:37Z</time>
      </trkpt>
      <trkpt lat="42.77486" lon="1.44988">
        <ele>1158.5258789062</ele>
        <time>2011-04-16T08:18:43Z</time>
      </trkpt>
      <trkpt lat="42.77485" lon="1.44984">
        <ele>1159.9677734375</ele>
        <time>2011-04-16T08:18:45Z</time>
      </trkpt>
      <trkpt lat="42.77486" lon="1.44973">
        <ele>1159.4873046875</ele>
        <time>2011-04-16T08:18:52Z</time>
      </trkpt>
      <trkpt lat="42.77485" lon="1.44968">
        <ele>1159.4873046875</ele>
        <time>2011-04-16T08:18:55Z</time>
      </trkpt>
      <trkpt lat="42.77485" lon="1.44964">
        <ele>1160.9291992188</ele>
        <time>2011-04-16T08:18:58Z</time>
      </trkpt>
      <trkpt lat="42.77482" lon="1.44953">
        <ele>1162.8518066406</ele>
        <time>2011-04-16T08:19:04Z</time>
      </trkpt>
      <trkpt lat="42.77481" lon="1.4495">
        <ele>1163.8129882812</ele>
        <time>2011-04-16T08:19:06Z</time>
      </trkpt>
      <trkpt lat="42.7748" lon="1.44937">
        <ele>1165.7360839844</ele>
        <time>2011-04-16T08:19:13Z</time>
      </trkpt>
      <trkpt lat="42.7748" lon="1.44926">
        <ele>1164.7746582031</ele>
        <time>2011-04-16T08:19:19Z</time>
      </trkpt>
      <trkpt lat="42.77482" lon="1.4492">
        <ele>1164.2939453125</ele>
        <time>2011-04-16T08:19:24Z</time>
      </trkpt>
      <trkpt lat="42.77487" lon="1.44917">
        <ele>1164.7746582031</ele>
        <time>2011-04-16T08:19:30Z</time>
      </trkpt>
      <trkpt lat="42.77491" lon="1.44917">
        <ele>1165.2553710938</ele>
        <time>2011-04-16T08:19:35Z</time>
      </trkpt>
      <trkpt lat="42.77493" lon="1.44917">
        <ele>1166.2165527344</ele>
        <time>2011-04-16T08:19:39Z</time>
      </trkpt>
      <trkpt lat="42.77498" lon="1.44915">
        <ele>1167.6584472656</ele>
        <time>2011-04-16T08:19:44Z</time>
      </trkpt>
      <trkpt lat="42.77501" lon="1.44912">
        <ele>1169.5812988281</ele>
        <time>2011-04-16T08:19:47Z</time>
      </trkpt>
      <trkpt lat="42.77505" lon="1.44905">
        <ele>1172.4650878906</ele>
        <time>2011-04-16T08:19:53Z</time>
      </trkpt>
      <trkpt lat="42.77508" lon="1.44903">
        <ele>1172.4650878906</ele>
        <time>2011-04-16T08:19:56Z</time>
      </trkpt>
      <trkpt lat="42.77512" lon="1.44897">
        <ele>1172.9458007812</ele>
        <time>2011-04-16T08:20:02Z</time>
      </trkpt>
      <trkpt lat="42.77512" lon="1.44891">
        <ele>1175.3488769531</ele>
        <time>2011-04-16T08:20:06Z</time>
      </trkpt>
      <trkpt lat="42.77514" lon="1.44886">
        <ele>1176.791015625</ele>
        <time>2011-04-16T08:20:10Z</time>
      </trkpt>
      <trkpt lat="42.77519" lon="1.44876">
        <ele>1178.2329101562</ele>
        <time>2011-04-16T08:20:19Z</time>
      </trkpt>
      <trkpt lat="42.77521" lon="1.44871">
        <ele>1179.1940917969</ele>
        <time>2011-04-16T08:20:24Z</time>
      </trkpt>
      <trkpt lat="42.77523" lon="1.44866">
        <ele>1181.1171875</ele>
        <time>2011-04-16T08:20:28Z</time>
      </trkpt>
      <trkpt lat="42.77525" lon="1.4486">
        <ele>1180.1557617188</ele>
        <time>2011-04-16T08:20:33Z</time>
      </trkpt>
      <trkpt lat="42.77525" lon="1.44856">
        <ele>1182.0783691406</ele>
        <time>2011-04-16T08:20:37Z</time>
      </trkpt>
      <trkpt lat="42.77526" lon="1.44851">
        <ele>1183.5202636719</ele>
        <time>2011-04-16T08:20:41Z</time>
      </trkpt>
      <trkpt lat="42.77528" lon="1.44844">
        <ele>1182.0783691406</ele>
        <time>2011-04-16T08:20:46Z</time>
      </trkpt>
      <trkpt lat="42.77529" lon="1.4484">
        <ele>1183.0395507812</ele>
        <time>2011-04-16T08:20:49Z</time>
      </trkpt>
      <trkpt lat="42.77529" lon="1.44832">
        <ele>1183.0395507812</ele>
        <time>2011-04-16T08:20:54Z</time>
      </trkpt>
      <trkpt lat="42.77528" lon="1.44825">
        <ele>1185.4428710938</ele>
        <time>2011-04-16T08:20:59Z</time>
      </trkpt>
      <trkpt lat="42.77529" lon="1.4482">
        <ele>1185.4428710938</ele>
        <time>2011-04-16T08:21:02Z</time>
      </trkpt>
      <trkpt lat="42.77528" lon="1.44817">
        <ele>1186.404296875</ele>
        <time>2011-04-16T08:21:04Z</time>
      </trkpt>
      <trkpt lat="42.77527" lon="1.44814">
        <ele>1189.2880859375</ele>
        <time>2011-04-16T08:21:06Z</time>
      </trkpt>
      <trkpt lat="42.77529" lon="1.44804">
        <ele>1189.7687988281</ele>
        <time>2011-04-16T08:21:13Z</time>
      </trkpt>
      <trkpt lat="42.7753" lon="1.44802">
        <ele>1189.2880859375</ele>
        <time>2011-04-16T08:21:15Z</time>
      </trkpt>
      <trkpt lat="42.77532" lon="1.44794">
        <ele>1189.7687988281</ele>
        <time>2011-04-16T08:21:21Z</time>
      </trkpt>
      <trkpt lat="42.77531" lon="1.44788">
        <ele>1191.2106933594</ele>
        <time>2011-04-16T08:21:26Z</time>
      </trkpt>
      <trkpt lat="42.7753" lon="1.44782">
        <ele>1195.0559082031</ele>
        <time>2011-04-16T08:21:30Z</time>
      </trkpt>
      <trkpt lat="42.77531" lon="1.44773">
        <ele>1196.017578125</ele>
        <time>2011-04-16T08:21:36Z</time>
      </trkpt>
      <trkpt lat="42.77533" lon="1.44762">
        <ele>1196.017578125</ele>
        <time>2011-04-16T08:21:43Z</time>
      </trkpt>
      <trkpt lat="42.77534" lon="1.44754">
        <ele>1196.9787597656</ele>
        <time>2011-04-16T08:21:48Z</time>
      </trkpt>
      <trkpt lat="42.77533" lon="1.44747">
        <ele>1200.8239746094</ele>
        <time>2011-04-16T08:21:54Z</time>
      </trkpt>
      <trkpt lat="42.77532" lon="1.44741">
        <ele>1202.2658691406</ele>
        <time>2011-04-16T08:21:58Z</time>
      </trkpt>
      <trkpt lat="42.77533" lon="1.44735">
        <ele>1204.1887207031</ele>
        <time>2011-04-16T08:22:03Z</time>
      </trkpt>
      <trkpt lat="42.77535" lon="1.44731">
        <ele>1206.1110839844</ele>
        <time>2011-04-16T08:22:07Z</time>
      </trkpt>
      <trkpt lat="42.77537" lon="1.44726">
        <ele>1205.1499023438</ele>
        <time>2011-04-16T08:22:12Z</time>
      </trkpt>
      <trkpt lat="42.77539" lon="1.44722">
        <ele>1207.5532226562</ele>
        <time>2011-04-16T08:22:18Z</time>
      </trkpt>
      <trkpt lat="42.77542" lon="1.44716">
        <ele>1208.0339355469</ele>
        <time>2011-04-16T08:22:24Z</time>
      </trkpt>
      <trkpt lat="42.77542" lon="1.44713">
        <ele>1207.5532226562</ele>
        <time>2011-04-16T08:22:26Z</time>
      </trkpt>
      <trkpt lat="42.77542" lon="1.44702">
        <ele>1222.9343261719</ele>
        <time>2011-04-16T08:24:20Z</time>
      </trkpt>
      <trkpt lat="42.77542" lon="1.44701">
        <ele>1222.9343261719</ele>
        <time>2011-04-16T08:24:21Z</time>
      </trkpt>
      <trkpt lat="42.77544" lon="1.44697">
        <ele>1221.9729003906</ele>
        <time>2011-04-16T08:24:24Z</time>
      </trkpt>
      <trkpt lat="42.77544" lon="1.44696">
        <ele>1221.9729003906</ele>
        <time>2011-04-16T08:24:25Z</time>
      </trkpt>
      <trkpt lat="42.77549" lon="1.44687">
        <ele>1219.0891113281</ele>
        <time>2011-04-16T08:24:32Z</time>
      </trkpt>
      <trkpt lat="42.77552" lon="1.44683">
        <ele>1218.1276855469</ele>
        <time>2011-04-16T08:24:37Z</time>
      </trkpt>
      <trkpt lat="42.77557" lon="1.44677">
        <ele>1218.1276855469</ele>
        <time>2011-04-16T08:24:43Z</time>
      </trkpt>
      <trkpt lat="42.77562" lon="1.44671">
        <ele>1218.1276855469</ele>
        <time>2011-04-16T08:24:49Z</time>
      </trkpt>
      <trkpt lat="42.77566" lon="1.44665">
        <ele>1219.0891113281</ele>
        <time>2011-04-16T08:24:54Z</time>
      </trkpt>
      <trkpt lat="42.77569" lon="1.44661">
        <ele>1220.0502929688</ele>
        <time>2011-04-16T08:24:57Z</time>
      </trkpt>
      <trkpt lat="42.77573" lon="1.44654">
        <ele>1220.5310058594</ele>
        <time>2011-04-16T08:25:03Z</time>
      </trkpt>
      <trkpt lat="42.77578" lon="1.44648">
        <ele>1221.01171875</ele>
        <time>2011-04-16T08:25:08Z</time>
      </trkpt>
      <trkpt lat="42.77585" lon="1.4464">
        <ele>1220.5310058594</ele>
        <time>2011-04-16T08:25:15Z</time>
      </trkpt>
      <trkpt lat="42.7759" lon="1.44631">
        <ele>1220.0502929688</ele>
        <time>2011-04-16T08:25:22Z</time>
      </trkpt>
      <trkpt lat="42.77592" lon="1.44625">
        <ele>1220.0502929688</ele>
        <time>2011-04-16T08:25:26Z</time>
      </trkpt>
      <trkpt lat="42.77593" lon="1.44617">
        <ele>1221.9729003906</ele>
        <time>2011-04-16T08:25:32Z</time>
      </trkpt>
      <trkpt lat="42.77594" lon="1.44612">
        <ele>1222.4536132812</ele>
        <time>2011-04-16T08:25:36Z</time>
      </trkpt>
      <trkpt lat="42.77594" lon="1.4461">
        <ele>1222.9343261719</ele>
        <time>2011-04-16T08:25:37Z</time>
      </trkpt>
      <trkpt lat="42.77595" lon="1.44607">
        <ele>1223.4150390625</ele>
        <time>2011-04-16T08:25:39Z</time>
      </trkpt>
      <trkpt lat="42.77598" lon="1.44603">
        <ele>1224.3762207031</ele>
        <time>2011-04-16T08:25:43Z</time>
      </trkpt>
      <trkpt lat="42.776" lon="1.44594">
        <ele>1226.298828125</ele>
        <time>2011-04-16T08:25:50Z</time>
      </trkpt>
      <trkpt lat="42.776" lon="1.44588">
        <ele>1227.2602539062</ele>
        <time>2011-04-16T08:25:54Z</time>
      </trkpt>
      <trkpt lat="42.77602" lon="1.44581">
        <ele>1228.7023925781</ele>
        <time>2011-04-16T08:26:00Z</time>
      </trkpt>
      <trkpt lat="42.77602" lon="1.4458">
        <ele>1228.7023925781</ele>
        <time>2011-04-16T08:26:01Z</time>
      </trkpt>
      <trkpt lat="42.77601" lon="1.4457">
        <ele>1231.5861816406</ele>
        <time>2011-04-16T08:26:07Z</time>
      </trkpt>
      <trkpt lat="42.776" lon="1.44569">
        <ele>1231.5861816406</ele>
        <time>2011-04-16T08:26:08Z</time>
      </trkpt>
      <trkpt lat="42.77602" lon="1.44564">
        <ele>1232.0668945312</ele>
        <time>2011-04-16T08:26:11Z</time>
      </trkpt>
      <trkpt lat="42.77604" lon="1.44556">
        <ele>1232.0668945312</ele>
        <time>2011-04-16T08:26:17Z</time>
      </trkpt>
      <trkpt lat="42.77605" lon="1.44544">
        <ele>1233.5087890625</ele>
        <time>2011-04-16T08:26:25Z</time>
      </trkpt>
      <trkpt lat="42.77607" lon="1.44536">
        <ele>1234.9509277344</ele>
        <time>2011-04-16T08:26:31Z</time>
      </trkpt>
      <trkpt lat="42.77609" lon="1.44529">
        <ele>1236.8732910156</ele>
        <time>2011-04-16T08:26:35Z</time>
      </trkpt>
      <trkpt lat="42.7761" lon="1.44524">
        <ele>1238.3154296875</ele>
        <time>2011-04-16T08:26:39Z</time>
      </trkpt>
      <trkpt lat="42.77612" lon="1.44515">
        <ele>1239.2766113281</ele>
        <time>2011-04-16T08:26:45Z</time>
      </trkpt>
      <trkpt lat="42.77613" lon="1.44514">
        <ele>1239.2766113281</ele>
        <time>2011-04-16T08:26:46Z</time>
      </trkpt>
      <trkpt lat="42.77614" lon="1.44505">
        <ele>1241.6799316406</ele>
        <time>2011-04-16T08:26:52Z</time>
      </trkpt>
      <trkpt lat="42.77615" lon="1.44504">
        <ele>1241.6799316406</ele>
        <time>2011-04-16T08:26:53Z</time>
      </trkpt>
      <trkpt lat="42.77618" lon="1.44498">
        <ele>1242.1606445312</ele>
        <time>2011-04-16T08:26:58Z</time>
      </trkpt>
      <trkpt lat="42.77619" lon="1.44493">
        <ele>1244.0834960938</ele>
        <time>2011-04-16T08:27:03Z</time>
      </trkpt>
      <trkpt lat="42.77621" lon="1.44484">
        <ele>1246.4868164062</ele>
        <time>2011-04-16T08:27:08Z</time>
      </trkpt>
      <trkpt lat="42.77623" lon="1.44474">
        <ele>1247.4479980469</ele>
        <time>2011-04-16T08:27:15Z</time>
      </trkpt>
      <trkpt lat="42.77626" lon="1.44467">
        <ele>1246.4868164062</ele>
        <time>2011-04-16T08:27:21Z</time>
      </trkpt>
      <trkpt lat="42.77627" lon="1.44466">
        <ele>1246.0061035156</ele>
        <time>2011-04-16T08:27:22Z</time>
      </trkpt>
      <trkpt lat="42.7763" lon="1.44457">
        <ele>1247.4479980469</ele>
        <time>2011-04-16T08:27:30Z</time>
      </trkpt>
      <trkpt lat="42.77632" lon="1.4445">
        <ele>1248.4091796875</ele>
        <time>2011-04-16T08:27:35Z</time>
      </trkpt>
      <trkpt lat="42.77634" lon="1.44445">
        <ele>1248.4091796875</ele>
        <time>2011-04-16T08:27:38Z</time>
      </trkpt>
      <trkpt lat="42.77639" lon="1.44439">
        <ele>1250.33203125</ele>
        <time>2011-04-16T08:27:44Z</time>
      </trkpt>
      <trkpt lat="42.7764" lon="1.44436">
        <ele>1252.2543945312</ele>
        <time>2011-04-16T08:27:46Z</time>
      </trkpt>
      <trkpt lat="42.77642" lon="1.44428">
        <ele>1253.6965332031</ele>
        <time>2011-04-16T08:27:52Z</time>
      </trkpt>
      <trkpt lat="42.77647" lon="1.44416">
        <ele>1257.5417480469</ele>
        <time>2011-04-16T08:28:00Z</time>
      </trkpt>
      <trkpt lat="42.77649" lon="1.44408">
        <ele>1261.3872070312</ele>
        <time>2011-04-16T08:28:06Z</time>
      </trkpt>
      <trkpt lat="42.7765" lon="1.44405">
        <ele>1261.3872070312</ele>
        <time>2011-04-16T08:28:08Z</time>
      </trkpt>
      <trkpt lat="42.77652" lon="1.44398">
        <ele>1263.3098144531</ele>
        <time>2011-04-16T08:28:14Z</time>
      </trkpt>
      <trkpt lat="42.77654" lon="1.44393">
        <ele>1262.8291015625</ele>
        <time>2011-04-16T08:28:19Z</time>
      </trkpt>
      <trkpt lat="42.77658" lon="1.44385">
        <ele>1260.9064941406</ele>
        <time>2011-04-16T08:28:25Z</time>
      </trkpt>
      <trkpt lat="42.77658" lon="1.44382">
        <ele>1262.3483886719</ele>
        <time>2011-04-16T08:28:28Z</time>
      </trkpt>
      <trkpt lat="42.7766" lon="1.44375">
        <ele>1262.3483886719</ele>
        <time>2011-04-16T08:28:34Z</time>
      </trkpt>
      <trkpt lat="42.7766" lon="1.44371">
        <ele>1262.8291015625</ele>
        <time>2011-04-16T08:28:36Z</time>
      </trkpt>
      <trkpt lat="42.77657" lon="1.44361">
        <ele>1264.7517089844</ele>
        <time>2011-04-16T08:28:43Z</time>
      </trkpt>
      <trkpt lat="42.77655" lon="1.44353">
        <ele>1266.1936035156</ele>
        <time>2011-04-16T08:28:48Z</time>
      </trkpt>
      <trkpt lat="42.77654" lon="1.44349">
        <ele>1267.1550292969</ele>
        <time>2011-04-16T08:28:51Z</time>
      </trkpt>
      <trkpt lat="42.77654" lon="1.44346">
        <ele>1268.1162109375</ele>
        <time>2011-04-16T08:28:53Z</time>
      </trkpt>
      <trkpt lat="42.77652" lon="1.44338">
        <ele>1270.0388183594</ele>
        <time>2011-04-16T08:29:00Z</time>
      </trkpt>
      <trkpt lat="42.7765" lon="1.44331">
        <ele>1272.4421386719</ele>
        <time>2011-04-16T08:29:06Z</time>
      </trkpt>
      <trkpt lat="42.7765" lon="1.44325">
        <ele>1275.806640625</ele>
        <time>2011-04-16T08:29:12Z</time>
      </trkpt>
      <trkpt lat="42.77647" lon="1.44318">
        <ele>1278.2102050781</ele>
        <time>2011-04-16T08:29:20Z</time>
      </trkpt>
      <trkpt lat="42.77647" lon="1.44313">
        <ele>1280.6135253906</ele>
        <time>2011-04-16T08:29:25Z</time>
      </trkpt>
      <trkpt lat="42.77646" lon="1.4431">
        <ele>1282.0554199219</ele>
        <time>2011-04-16T08:29:29Z</time>
      </trkpt>
      <trkpt lat="42.77646" lon="1.44305">
        <ele>1282.5361328125</ele>
        <time>2011-04-16T08:29:33Z</time>
      </trkpt>
      <trkpt lat="42.77648" lon="1.44297">
        <ele>1282.0554199219</ele>
        <time>2011-04-16T08:29:39Z</time>
      </trkpt>
      <trkpt lat="42.77648" lon="1.44295">
        <ele>1282.0554199219</ele>
        <time>2011-04-16T08:29:40Z</time>
      </trkpt>
      <trkpt lat="42.77649" lon="1.44293">
        <ele>1281.5747070312</ele>
        <time>2011-04-16T08:29:42Z</time>
      </trkpt>
      <trkpt lat="42.77647" lon="1.44285">
        <ele>1280.6135253906</ele>
        <time>2011-04-16T08:29:48Z</time>
      </trkpt>
      <trkpt lat="42.77647" lon="1.44278">
        <ele>1282.0554199219</ele>
        <time>2011-04-16T08:29:54Z</time>
      </trkpt>
      <trkpt lat="42.77649" lon="1.44272">
        <ele>1283.4973144531</ele>
        <time>2011-04-16T08:30:00Z</time>
      </trkpt>
      <trkpt lat="42.77651" lon="1.44268">
        <ele>1283.9780273438</ele>
        <time>2011-04-16T08:30:04Z</time>
      </trkpt>
      <trkpt lat="42.77653" lon="1.44263">
        <ele>1284.4587402344</ele>
        <time>2011-04-16T08:30:09Z</time>
      </trkpt>
      <trkpt lat="42.77654" lon="1.44259">
        <ele>1287.8232421875</ele>
        <time>2011-04-16T08:30:15Z</time>
      </trkpt>
      <trkpt lat="42.77656" lon="1.44254">
        <ele>1291.1877441406</ele>
        <time>2011-04-16T08:30:21Z</time>
      </trkpt>
      <trkpt lat="42.77658" lon="1.4425">
        <ele>1293.5913085938</ele>
        <time>2011-04-16T08:30:26Z</time>
      </trkpt>
      <trkpt lat="42.77661" lon="1.44248">
        <ele>1294.0720214844</ele>
        <time>2011-04-16T08:30:30Z</time>
      </trkpt>
      <trkpt lat="42.77665" lon="1.44243">
        <ele>1295.9946289062</ele>
        <time>2011-04-16T08:30:35Z</time>
      </trkpt>
      <trkpt lat="42.77669" lon="1.44239">
        <ele>1297.9172363281</ele>
        <time>2011-04-16T08:30:41Z</time>
      </trkpt>
      <trkpt lat="42.77675" lon="1.44234">
        <ele>1300.3205566406</ele>
        <time>2011-04-16T08:30:49Z</time>
      </trkpt>
      <trkpt lat="42.77677" lon="1.4423">
        <ele>1301.2817382812</ele>
        <time>2011-04-16T08:30:53Z</time>
      </trkpt>
      <trkpt lat="42.7768" lon="1.44226">
        <ele>1303.2043457031</ele>
        <time>2011-04-16T08:30:59Z</time>
      </trkpt>
      <trkpt lat="42.77683" lon="1.44223">
        <ele>1303.6850585938</ele>
        <time>2011-04-16T08:31:04Z</time>
      </trkpt>
      <trkpt lat="42.77687" lon="1.4422">
        <ele>1303.6850585938</ele>
        <time>2011-04-16T08:31:08Z</time>
      </trkpt>
      <trkpt lat="42.77691" lon="1.44219">
        <ele>1304.6462402344</ele>
        <time>2011-04-16T08:31:12Z</time>
      </trkpt>
      <trkpt lat="42.77693" lon="1.44217">
        <ele>1303.6850585938</ele>
        <time>2011-04-16T08:31:14Z</time>
      </trkpt>
      <trkpt lat="42.77695" lon="1.44216">
        <ele>1303.6850585938</ele>
        <time>2011-04-16T08:31:16Z</time>
      </trkpt>
      <trkpt lat="42.77697" lon="1.44211">
        <ele>1304.1657714844</ele>
        <time>2011-04-16T08:31:21Z</time>
      </trkpt>
      <trkpt lat="42.777" lon="1.44208">
        <ele>1305.126953125</ele>
        <time>2011-04-16T08:31:26Z</time>
      </trkpt>
      <trkpt lat="42.77704" lon="1.44207">
        <ele>1308.0112304688</ele>
        <time>2011-04-16T08:31:32Z</time>
      </trkpt>
      <trkpt lat="42.77707" lon="1.44206">
        <ele>1309.93359375</ele>
        <time>2011-04-16T08:31:38Z</time>
      </trkpt>
      <trkpt lat="42.77706" lon="1.44198">
        <ele>1311.8564453125</ele>
        <time>2011-04-16T08:31:45Z</time>
      </trkpt>
      <trkpt lat="42.77707" lon="1.44194">
        <ele>1312.3369140625</ele>
        <time>2011-04-16T08:31:49Z</time>
      </trkpt>
      <trkpt lat="42.77708" lon="1.44189">
        <ele>1312.8176269531</ele>
        <time>2011-04-16T08:31:54Z</time>
      </trkpt>
      <trkpt lat="42.77708" lon="1.44182">
        <ele>1312.8176269531</ele>
        <time>2011-04-16T08:32:00Z</time>
      </trkpt>
      <trkpt lat="42.77709" lon="1.44178">
        <ele>1312.8176269531</ele>
        <time>2011-04-16T08:32:04Z</time>
      </trkpt>
      <trkpt lat="42.77711" lon="1.44172">
        <ele>1315.2209472656</ele>
        <time>2011-04-16T08:32:10Z</time>
      </trkpt>
      <trkpt lat="42.77714" lon="1.44165">
        <ele>1316.1821289062</ele>
        <time>2011-04-16T08:32:16Z</time>
      </trkpt>
      <trkpt lat="42.77714" lon="1.4416">
        <ele>1316.1821289062</ele>
        <time>2011-04-16T08:32:20Z</time>
      </trkpt>
      <trkpt lat="42.77715" lon="1.44152">
        <ele>1316.1821289062</ele>
        <time>2011-04-16T08:32:26Z</time>
      </trkpt>
      <trkpt lat="42.77716" lon="1.44146">
        <ele>1315.7016601562</ele>
        <time>2011-04-16T08:32:31Z</time>
      </trkpt>
      <trkpt lat="42.77718" lon="1.44138">
        <ele>1317.6240234375</ele>
        <time>2011-04-16T08:32:37Z</time>
      </trkpt>
      <trkpt lat="42.77721" lon="1.44131">
        <ele>1320.5080566406</ele>
        <time>2011-04-16T08:32:44Z</time>
      </trkpt>
      <trkpt lat="42.77721" lon="1.4413">
        <ele>1320.9887695312</ele>
        <time>2011-04-16T08:32:45Z</time>
      </trkpt>
      <trkpt lat="42.77723" lon="1.44118">
        <ele>1322.9113769531</ele>
        <time>2011-04-16T08:32:54Z</time>
      </trkpt>
      <trkpt lat="42.77725" lon="1.44112">
        <ele>1323.3920898438</ele>
        <time>2011-04-16T08:32:59Z</time>
      </trkpt>
      <trkpt lat="42.77728" lon="1.44106">
        <ele>1324.353515625</ele>
        <time>2011-04-16T08:33:04Z</time>
      </trkpt>
      <trkpt lat="42.77731" lon="1.44099">
        <ele>1326.2761230469</ele>
        <time>2011-04-16T08:33:10Z</time>
      </trkpt>
      <trkpt lat="42.77732" lon="1.44092">
        <ele>1327.2375488281</ele>
        <time>2011-04-16T08:33:16Z</time>
      </trkpt>
      <trkpt lat="42.77733" lon="1.44085">
        <ele>1330.1213378906</ele>
        <time>2011-04-16T08:33:22Z</time>
      </trkpt>
      <trkpt lat="42.77737" lon="1.44081">
        <ele>1328.6794433594</ele>
        <time>2011-04-16T08:33:27Z</time>
      </trkpt>
      <trkpt lat="42.77739" lon="1.44073">
        <ele>1328.6794433594</ele>
        <time>2011-04-16T08:33:33Z</time>
      </trkpt>
      <trkpt lat="42.77741" lon="1.44067">
        <ele>1330.1213378906</ele>
        <time>2011-04-16T08:33:39Z</time>
      </trkpt>
      <trkpt lat="42.77742" lon="1.44056">
        <ele>1331.0827636719</ele>
        <time>2011-04-16T08:33:46Z</time>
      </trkpt>
      <trkpt lat="42.77742" lon="1.44055">
        <ele>1331.0827636719</ele>
        <time>2011-04-16T08:33:47Z</time>
      </trkpt>
      <trkpt lat="42.77744" lon="1.44048">
        <ele>1333.0051269531</ele>
        <time>2011-04-16T08:33:53Z</time>
      </trkpt>
      <trkpt lat="42.77747" lon="1.44041">
        <ele>1334.447265625</ele>
        <time>2011-04-16T08:34:00Z</time>
      </trkpt>
      <trkpt lat="42.7775" lon="1.44036">
        <ele>1336.3698730469</ele>
        <time>2011-04-16T08:34:07Z</time>
      </trkpt>
      <trkpt lat="42.77748" lon="1.4403">
        <ele>1339.734375</ele>
        <time>2011-04-16T08:34:12Z</time>
      </trkpt>
      <trkpt lat="42.77749" lon="1.44024">
        <ele>1341.6572265625</ele>
        <time>2011-04-16T08:34:17Z</time>
      </trkpt>
      <trkpt lat="42.7775" lon="1.44018">
        <ele>1342.6186523438</ele>
        <time>2011-04-16T08:34:22Z</time>
      </trkpt>
      <trkpt lat="42.77752" lon="1.44011">
        <ele>1344.541015625</ele>
        <time>2011-04-16T08:34:29Z</time>
      </trkpt>
      <trkpt lat="42.77752" lon="1.44006">
        <ele>1346.4638671875</ele>
        <time>2011-04-16T08:34:33Z</time>
      </trkpt>
      <trkpt lat="42.77752" lon="1.44">
        <ele>1347.4250488281</ele>
        <time>2011-04-16T08:34:38Z</time>
      </trkpt>
      <trkpt lat="42.7775" lon="1.43992">
        <ele>1347.9057617188</ele>
        <time>2011-04-16T08:34:44Z</time>
      </trkpt>
      <trkpt lat="42.7775" lon="1.43987">
        <ele>1351.2702636719</ele>
        <time>2011-04-16T08:34:49Z</time>
      </trkpt>
      <trkpt lat="42.77751" lon="1.43985">
        <ele>1352.7121582031</ele>
        <time>2011-04-16T08:34:53Z</time>
      </trkpt>
      <trkpt lat="42.7775" lon="1.43979">
        <ele>1354.154296875</ele>
        <time>2011-04-16T08:34:59Z</time>
      </trkpt>
      <trkpt lat="42.77751" lon="1.43972">
        <ele>1354.634765625</ele>
        <time>2011-04-16T08:35:04Z</time>
      </trkpt>
      <trkpt lat="42.77752" lon="1.43968">
        <ele>1354.634765625</ele>
        <time>2011-04-16T08:35:09Z</time>
      </trkpt>
      <trkpt lat="42.7775" lon="1.43962">
        <ele>1355.5961914062</ele>
        <time>2011-04-16T08:35:15Z</time>
      </trkpt>
      <trkpt lat="42.77749" lon="1.43957">
        <ele>1356.5576171875</ele>
        <time>2011-04-16T08:35:21Z</time>
      </trkpt>
      <trkpt lat="42.77745" lon="1.43953">
        <ele>1358.4802246094</ele>
        <time>2011-04-16T08:35:28Z</time>
      </trkpt>
      <trkpt lat="42.77742" lon="1.43946">
        <ele>1360.8835449219</ele>
        <time>2011-04-16T08:35:34Z</time>
      </trkpt>
      <trkpt lat="42.77741" lon="1.43941">
        <ele>1361.8449707031</ele>
        <time>2011-04-16T08:35:38Z</time>
      </trkpt>
      <trkpt lat="42.7774" lon="1.43939">
        <ele>1362.8061523438</ele>
        <time>2011-04-16T08:35:43Z</time>
      </trkpt>
      <trkpt lat="42.77741" lon="1.43942">
        <ele>1362.8061523438</ele>
        <time>2011-04-16T08:35:49Z</time>
      </trkpt>
      <trkpt lat="42.77741" lon="1.43947">
        <ele>1362.8061523438</ele>
        <time>2011-04-16T08:35:55Z</time>
      </trkpt>
      <trkpt lat="42.77743" lon="1.43948">
        <ele>1364.248046875</ele>
        <time>2011-04-16T08:36:02Z</time>
      </trkpt>
      <trkpt lat="42.77745" lon="1.43947">
        <ele>1363.2868652344</ele>
        <time>2011-04-16T08:36:08Z</time>
      </trkpt>
      <trkpt lat="42.77747" lon="1.43942">
        <ele>1364.248046875</ele>
        <time>2011-04-16T08:36:17Z</time>
      </trkpt>
      <trkpt lat="42.77749" lon="1.43937">
        <ele>1365.2094726562</ele>
        <time>2011-04-16T08:36:23Z</time>
      </trkpt>
      <trkpt lat="42.77749" lon="1.43936">
        <ele>1365.6901855469</ele>
        <time>2011-04-16T08:36:24Z</time>
      </trkpt>
      <trkpt lat="42.77748" lon="1.43932">
        <ele>1366.6513671875</ele>
        <time>2011-04-16T08:36:50Z</time>
      </trkpt>
      <trkpt lat="42.77748" lon="1.43931">
        <ele>1366.1706542969</ele>
        <time>2011-04-16T08:36:51Z</time>
      </trkpt>
      <trkpt lat="42.77744" lon="1.43922">
        <ele>1367.1320800781</ele>
        <time>2011-04-16T08:36:57Z</time>
      </trkpt>
      <trkpt lat="42.77744" lon="1.4392">
        <ele>1367.6125488281</ele>
        <time>2011-04-16T08:36:58Z</time>
      </trkpt>
      <trkpt lat="42.7774" lon="1.43912">
        <ele>1368.5739746094</ele>
        <time>2011-04-16T08:37:04Z</time>
      </trkpt>
      <trkpt lat="42.77741" lon="1.4391">
        <ele>1368.5739746094</ele>
        <time>2011-04-16T08:37:06Z</time>
      </trkpt>
      <trkpt lat="42.77746" lon="1.43908">
        <ele>1370.4965820312</ele>
        <time>2011-04-16T08:37:13Z</time>
      </trkpt>
      <trkpt lat="42.77749" lon="1.43908">
        <ele>1371.9384765625</ele>
        <time>2011-04-16T08:37:18Z</time>
      </trkpt>
      <trkpt lat="42.77746" lon="1.43905">
        <ele>1373.380859375</ele>
        <time>2011-04-16T08:37:25Z</time>
      </trkpt>
      <trkpt lat="42.77745" lon="1.43902">
        <ele>1373.861328125</ele>
        <time>2011-04-16T08:37:27Z</time>
      </trkpt>
      <trkpt lat="42.77742" lon="1.43892">
        <ele>1374.8227539062</ele>
        <time>2011-04-16T08:37:35Z</time>
      </trkpt>
      <trkpt lat="42.77744" lon="1.43883">
        <ele>1374.8227539062</ele>
        <time>2011-04-16T08:37:41Z</time>
      </trkpt>
      <trkpt lat="42.77748" lon="1.43876">
        <ele>1374.8227539062</ele>
        <time>2011-04-16T08:37:46Z</time>
      </trkpt>
      <trkpt lat="42.7775" lon="1.43867">
        <ele>1375.3032226562</ele>
        <time>2011-04-16T08:37:52Z</time>
      </trkpt>
      <trkpt lat="42.77752" lon="1.43863">
        <ele>1375.7839355469</ele>
        <time>2011-04-16T08:37:55Z</time>
      </trkpt>
      <trkpt lat="42.77752" lon="1.4386">
        <ele>1376.2646484375</ele>
        <time>2011-04-16T08:37:58Z</time>
      </trkpt>
      <trkpt lat="42.77752" lon="1.43856">
        <ele>1375.7839355469</ele>
        <time>2011-04-16T08:38:04Z</time>
      </trkpt>
      <trkpt lat="42.77754" lon="1.43853">
        <ele>1375.7839355469</ele>
        <time>2011-04-16T08:38:11Z</time>
      </trkpt>
      <trkpt lat="42.77758" lon="1.43848">
        <ele>1376.7453613281</ele>
        <time>2011-04-16T08:38:17Z</time>
      </trkpt>
      <trkpt lat="42.7776" lon="1.43844">
        <ele>1377.7065429688</ele>
        <time>2011-04-16T08:38:20Z</time>
      </trkpt>
      <trkpt lat="42.77764" lon="1.43838">
        <ele>1378.1872558594</ele>
        <time>2011-04-16T08:38:26Z</time>
      </trkpt>
      <trkpt lat="42.77766" lon="1.43836">
        <ele>1378.66796875</ele>
        <time>2011-04-16T08:38:28Z</time>
      </trkpt>
      <trkpt lat="42.77772" lon="1.43826">
        <ele>1378.1872558594</ele>
        <time>2011-04-16T08:38:36Z</time>
      </trkpt>
      <trkpt lat="42.77776" lon="1.43818">
        <ele>1378.66796875</ele>
        <time>2011-04-16T08:38:42Z</time>
      </trkpt>
      <trkpt lat="42.77779" lon="1.43809">
        <ele>1379.1484375</ele>
        <time>2011-04-16T08:38:48Z</time>
      </trkpt>
      <trkpt lat="42.77782" lon="1.438">
        <ele>1379.1484375</ele>
        <time>2011-04-16T08:38:53Z</time>
      </trkpt>
      <trkpt lat="42.77783" lon="1.43791">
        <ele>1379.6291503906</ele>
        <time>2011-04-16T08:38:59Z</time>
      </trkpt>
      <trkpt lat="42.77785" lon="1.43781">
        <ele>1381.5517578125</ele>
        <time>2011-04-16T08:39:05Z</time>
      </trkpt>
      <trkpt lat="42.77787" lon="1.43775">
        <ele>1382.5131835938</ele>
        <time>2011-04-16T08:39:10Z</time>
      </trkpt>
      <trkpt lat="42.77788" lon="1.43773">
        <ele>1382.5131835938</ele>
        <time>2011-04-16T08:39:12Z</time>
      </trkpt>
      <trkpt lat="42.77791" lon="1.43765">
        <ele>1383.4743652344</ele>
        <time>2011-04-16T08:39:18Z</time>
      </trkpt>
      <trkpt lat="42.77796" lon="1.43759">
        <ele>1385.3969726562</ele>
        <time>2011-04-16T08:39:24Z</time>
      </trkpt>
      <trkpt lat="42.77798" lon="1.43759">
        <ele>1386.3583984375</ele>
        <time>2011-04-16T08:39:28Z</time>
      </trkpt>
      <trkpt lat="42.77797" lon="1.43764">
        <ele>1386.8388671875</ele>
        <time>2011-04-16T08:40:21Z</time>
      </trkpt>
      <trkpt lat="42.77797" lon="1.43763">
        <ele>1386.8388671875</ele>
        <time>2011-04-16T08:40:22Z</time>
      </trkpt>
      <trkpt lat="42.77802" lon="1.43757">
        <ele>1387.3195800781</ele>
        <time>2011-04-16T08:40:27Z</time>
      </trkpt>
      <trkpt lat="42.7781" lon="1.43749">
        <ele>1388.7619628906</ele>
        <time>2011-04-16T08:40:35Z</time>
      </trkpt>
      <trkpt lat="42.77813" lon="1.43744">
        <ele>1389.7231445312</ele>
        <time>2011-04-16T08:40:39Z</time>
      </trkpt>
      <trkpt lat="42.77818" lon="1.43736">
        <ele>1390.2038574219</ele>
        <time>2011-04-16T08:40:46Z</time>
      </trkpt>
      <trkpt lat="42.77821" lon="1.43727">
        <ele>1391.1650390625</ele>
        <time>2011-04-16T08:40:52Z</time>
      </trkpt>
      <trkpt lat="42.77825" lon="1.43719">
        <ele>1390.6843261719</ele>
        <time>2011-04-16T08:40:58Z</time>
      </trkpt>
      <trkpt lat="42.77826" lon="1.43718">
        <ele>1390.6843261719</ele>
        <time>2011-04-16T08:40:59Z</time>
      </trkpt>
      <trkpt lat="42.77828" lon="1.43709">
        <ele>1390.6843261719</ele>
        <time>2011-04-16T08:41:04Z</time>
      </trkpt>
      <trkpt lat="42.77831" lon="1.43699">
        <ele>1391.6457519531</ele>
        <time>2011-04-16T08:41:10Z</time>
      </trkpt>
      <trkpt lat="42.77835" lon="1.43691">
        <ele>1392.1264648438</ele>
        <time>2011-04-16T08:41:16Z</time>
      </trkpt>
      <trkpt lat="42.77837" lon="1.43682">
        <ele>1393.0876464844</ele>
        <time>2011-04-16T08:41:22Z</time>
      </trkpt>
      <trkpt lat="42.77839" lon="1.43675">
        <ele>1394.0490722656</ele>
        <time>2011-04-16T08:41:26Z</time>
      </trkpt>
      <trkpt lat="42.77841" lon="1.43665">
        <ele>1393.568359375</ele>
        <time>2011-04-16T08:41:32Z</time>
      </trkpt>
      <trkpt lat="42.77844" lon="1.43655">
        <ele>1393.0876464844</ele>
        <time>2011-04-16T08:41:39Z</time>
      </trkpt>
      <trkpt lat="42.77847" lon="1.43644">
        <ele>1394.5295410156</ele>
        <time>2011-04-16T08:41:46Z</time>
      </trkpt>
      <trkpt lat="42.7785" lon="1.43636">
        <ele>1395.9716796875</ele>
        <time>2011-04-16T08:41:52Z</time>
      </trkpt>
      <trkpt lat="42.77852" lon="1.43629">
        <ele>1396.4523925781</ele>
        <time>2011-04-16T08:41:58Z</time>
      </trkpt>
      <trkpt lat="42.77856" lon="1.43619">
        <ele>1397.8942871094</ele>
        <time>2011-04-16T08:42:05Z</time>
      </trkpt>
      <trkpt lat="42.77859" lon="1.43612">
        <ele>1399.3361816406</ele>
        <time>2011-04-16T08:42:10Z</time>
      </trkpt>
      <trkpt lat="42.77863" lon="1.43602">
        <ele>1400.2976074219</ele>
        <time>2011-04-16T08:42:17Z</time>
      </trkpt>
      <trkpt lat="42.77868" lon="1.43592">
        <ele>1401.7395019531</ele>
        <time>2011-04-16T08:42:24Z</time>
      </trkpt>
      <trkpt lat="42.77873" lon="1.43582">
        <ele>1403.662109375</ele>
        <time>2011-04-16T08:42:31Z</time>
      </trkpt>
      <trkpt lat="42.77875" lon="1.43578">
        <ele>1404.6235351562</ele>
        <time>2011-04-16T08:42:34Z</time>
      </trkpt>
      <trkpt lat="42.77877" lon="1.43567">
        <ele>1405.5849609375</ele>
        <time>2011-04-16T08:42:41Z</time>
      </trkpt>
      <trkpt lat="42.77879" lon="1.43558">
        <ele>1406.0654296875</ele>
        <time>2011-04-16T08:42:46Z</time>
      </trkpt>
      <trkpt lat="42.7788" lon="1.43547">
        <ele>1407.0268554688</ele>
        <time>2011-04-16T08:42:53Z</time>
      </trkpt>
      <trkpt lat="42.77879" lon="1.43538">
        <ele>1407.98828125</ele>
        <time>2011-04-16T08:42:59Z</time>
      </trkpt>
      <trkpt lat="42.77879" lon="1.43536">
        <ele>1408.46875</ele>
        <time>2011-04-16T08:43:00Z</time>
      </trkpt>
      <trkpt lat="42.77879" lon="1.43524">
        <ele>1409.9106445312</ele>
        <time>2011-04-16T08:43:07Z</time>
      </trkpt>
      <trkpt lat="42.77881" lon="1.43514">
        <ele>1410.8720703125</ele>
        <time>2011-04-16T08:43:13Z</time>
      </trkpt>
      <trkpt lat="42.77884" lon="1.43506">
        <ele>1409.9106445312</ele>
        <time>2011-04-16T08:43:18Z</time>
      </trkpt>
      <trkpt lat="42.77887" lon="1.43494">
        <ele>1408.9494628906</ele>
        <time>2011-04-16T08:43:24Z</time>
      </trkpt>
      <trkpt lat="42.77887" lon="1.43485">
        <ele>1407.98828125</ele>
        <time>2011-04-16T08:43:29Z</time>
      </trkpt>
      <trkpt lat="42.77888" lon="1.43478">
        <ele>1407.98828125</ele>
        <time>2011-04-16T08:43:33Z</time>
      </trkpt>
      <trkpt lat="42.7789" lon="1.43468">
        <ele>1408.46875</ele>
        <time>2011-04-16T08:43:38Z</time>
      </trkpt>
      <trkpt lat="42.77892" lon="1.43462">
        <ele>1407.98828125</ele>
        <time>2011-04-16T08:43:42Z</time>
      </trkpt>
      <trkpt lat="42.77895" lon="1.43452">
        <ele>1408.46875</ele>
        <time>2011-04-16T08:43:48Z</time>
      </trkpt>
      <trkpt lat="42.77896" lon="1.43443">
        <ele>1407.98828125</ele>
        <time>2011-04-16T08:43:53Z</time>
      </trkpt>
      <trkpt lat="42.77901" lon="1.4343">
        <ele>1407.98828125</ele>
        <time>2011-04-16T08:44:00Z</time>
      </trkpt>
      <trkpt lat="42.77905" lon="1.43421">
        <ele>1408.9494628906</ele>
        <time>2011-04-16T08:44:05Z</time>
      </trkpt>
      <trkpt lat="42.77907" lon="1.43408">
        <ele>1411.3527832031</ele>
        <time>2011-04-16T08:44:11Z</time>
      </trkpt>
      <trkpt lat="42.77909" lon="1.43401">
        <ele>1412.7946777344</ele>
        <time>2011-04-16T08:44:15Z</time>
      </trkpt>
      <trkpt lat="42.77914" lon="1.43391">
        <ele>1416.1591796875</ele>
        <time>2011-04-16T08:44:22Z</time>
      </trkpt>
      <trkpt lat="42.77919" lon="1.43383">
        <ele>1416.1591796875</ele>
        <time>2011-04-16T08:44:28Z</time>
      </trkpt>
      <trkpt lat="42.7792" lon="1.43382">
        <ele>1416.6398925781</ele>
        <time>2011-04-16T08:44:29Z</time>
      </trkpt>
      <trkpt lat="42.77925" lon="1.43368">
        <ele>1416.6398925781</ele>
        <time>2011-04-16T08:44:38Z</time>
      </trkpt>
      <trkpt lat="42.77927" lon="1.43361">
        <ele>1417.6010742188</ele>
        <time>2011-04-16T08:44:41Z</time>
      </trkpt>
      <trkpt lat="42.77927" lon="1.43355">
        <ele>1418.0817871094</ele>
        <time>2011-04-16T08:44:45Z</time>
      </trkpt>
      <trkpt lat="42.77931" lon="1.43346">
        <ele>1416.1591796875</ele>
        <time>2011-04-16T08:44:50Z</time>
      </trkpt>
      <trkpt lat="42.77931" lon="1.4333">
        <ele>1415.6787109375</ele>
        <time>2011-04-16T08:44:58Z</time>
      </trkpt>
      <trkpt lat="42.77932" lon="1.43328">
        <ele>1416.1591796875</ele>
        <time>2011-04-16T08:44:59Z</time>
      </trkpt>
      <trkpt lat="42.77936" lon="1.43314">
        <ele>1416.1591796875</ele>
        <time>2011-04-16T08:45:07Z</time>
      </trkpt>
      <trkpt lat="42.7794" lon="1.43304">
        <ele>1414.7172851562</ele>
        <time>2011-04-16T08:45:13Z</time>
      </trkpt>
      <trkpt lat="42.77945" lon="1.43293">
        <ele>1414.2365722656</ele>
        <time>2011-04-16T08:45:20Z</time>
      </trkpt>
      <trkpt lat="42.77946" lon="1.43291">
        <ele>1414.7172851562</ele>
        <time>2011-04-16T08:45:22Z</time>
      </trkpt>
      <trkpt lat="42.7795" lon="1.43283">
        <ele>1414.7172851562</ele>
        <time>2011-04-16T08:45:28Z</time>
      </trkpt>
      <trkpt lat="42.77953" lon="1.43278">
        <ele>1415.6787109375</ele>
        <time>2011-04-16T08:45:31Z</time>
      </trkpt>
      <trkpt lat="42.77956" lon="1.43266">
        <ele>1416.1591796875</ele>
        <time>2011-04-16T08:45:38Z</time>
      </trkpt>
      <trkpt lat="42.77959" lon="1.4326">
        <ele>1416.6398925781</ele>
        <time>2011-04-16T08:45:42Z</time>
      </trkpt>
      <trkpt lat="42.77962" lon="1.43252">
        <ele>1417.6010742188</ele>
        <time>2011-04-16T08:45:48Z</time>
      </trkpt>
      <trkpt lat="42.77964" lon="1.43245">
        <ele>1419.5239257812</ele>
        <time>2011-04-16T08:45:53Z</time>
      </trkpt>
      <trkpt lat="42.77969" lon="1.43237">
        <ele>1421.4465332031</ele>
        <time>2011-04-16T08:46:00Z</time>
      </trkpt>
      <trkpt lat="42.77967" lon="1.43235">
        <ele>1427.6950683594</ele>
        <time>2011-04-16T08:46:52Z</time>
      </trkpt>
      <trkpt lat="42.77968" lon="1.43235">
        <ele>1428.17578125</ele>
        <time>2011-04-16T08:46:53Z</time>
      </trkpt>
      <trkpt lat="42.77971" lon="1.43231">
        <ele>1428.17578125</ele>
        <time>2011-04-16T08:46:56Z</time>
      </trkpt>
      <trkpt lat="42.7797" lon="1.43222">
        <ele>1428.6564941406</ele>
        <time>2011-04-16T08:47:00Z</time>
      </trkpt>
      <trkpt lat="42.7797" lon="1.43219">
        <ele>1428.6564941406</ele>
        <time>2011-04-16T08:47:01Z</time>
      </trkpt>
      <trkpt lat="42.77972" lon="1.43199">
        <ele>1427.6950683594</ele>
        <time>2011-04-16T08:47:08Z</time>
      </trkpt>
      <trkpt lat="42.77974" lon="1.43196">
        <ele>1427.6950683594</ele>
        <time>2011-04-16T08:47:10Z</time>
      </trkpt>
      <trkpt lat="42.77975" lon="1.43194">
        <ele>1426.7338867188</ele>
        <time>2011-04-16T08:47:17Z</time>
      </trkpt>
      <trkpt lat="42.77977" lon="1.43188">
        <ele>1426.2531738281</ele>
        <time>2011-04-16T08:47:22Z</time>
      </trkpt>
      <trkpt lat="42.7798" lon="1.43183">
        <ele>1426.2531738281</ele>
        <time>2011-04-16T08:47:26Z</time>
      </trkpt>
      <trkpt lat="42.77983" lon="1.43171">
        <ele>1425.7724609375</ele>
        <time>2011-04-16T08:47:33Z</time>
      </trkpt>
      <trkpt lat="42.77985" lon="1.4316">
        <ele>1424.8112792969</ele>
        <time>2011-04-16T08:47:40Z</time>
      </trkpt>
      <trkpt lat="42.77989" lon="1.43148">
        <ele>1425.2917480469</ele>
        <time>2011-04-16T08:47:47Z</time>
      </trkpt>
      <trkpt lat="42.7799" lon="1.43141">
        <ele>1425.2917480469</ele>
        <time>2011-04-16T08:47:52Z</time>
      </trkpt>
      <trkpt lat="42.77991" lon="1.43124">
        <ele>1426.2531738281</ele>
        <time>2011-04-16T08:48:01Z</time>
      </trkpt>
      <trkpt lat="42.77993" lon="1.43115">
        <ele>1427.2145996094</ele>
        <time>2011-04-16T08:48:06Z</time>
      </trkpt>
      <trkpt lat="42.77993" lon="1.43114">
        <ele>1427.2145996094</ele>
        <time>2011-04-16T08:48:07Z</time>
      </trkpt>
      <trkpt lat="42.77995" lon="1.43104">
        <ele>1429.1369628906</ele>
        <time>2011-04-16T08:48:14Z</time>
      </trkpt>
      <trkpt lat="42.77996" lon="1.43099">
        <ele>1429.6176757812</ele>
        <time>2011-04-16T08:48:18Z</time>
      </trkpt>
      <trkpt lat="42.77997" lon="1.43088">
        <ele>1430.5791015625</ele>
        <time>2011-04-16T08:48:25Z</time>
      </trkpt>
      <trkpt lat="42.77997" lon="1.43077">
        <ele>1431.0598144531</ele>
        <time>2011-04-16T08:48:31Z</time>
      </trkpt>
      <trkpt lat="42.77998" lon="1.43066">
        <ele>1431.0598144531</ele>
        <time>2011-04-16T08:48:37Z</time>
      </trkpt>
      <trkpt lat="42.77999" lon="1.43048">
        <ele>1431.0598144531</ele>
        <time>2011-04-16T08:48:46Z</time>
      </trkpt>
      <trkpt lat="42.78001" lon="1.43038">
        <ele>1430.5791015625</ele>
        <time>2011-04-16T08:48:51Z</time>
      </trkpt>
      <trkpt lat="42.78003" lon="1.43031">
        <ele>1430.0983886719</ele>
        <time>2011-04-16T08:48:55Z</time>
      </trkpt>
      <trkpt lat="42.78005" lon="1.43022">
        <ele>1430.0983886719</ele>
        <time>2011-04-16T08:49:00Z</time>
      </trkpt>
      <trkpt lat="42.78008" lon="1.43009">
        <ele>1430.5791015625</ele>
        <time>2011-04-16T08:49:07Z</time>
      </trkpt>
      <trkpt lat="42.78011" lon="1.42997">
        <ele>1431.0598144531</ele>
        <time>2011-04-16T08:49:14Z</time>
      </trkpt>
      <trkpt lat="42.78012" lon="1.42995">
        <ele>1431.0598144531</ele>
        <time>2011-04-16T08:49:16Z</time>
      </trkpt>
      <trkpt lat="42.78015" lon="1.42985">
        <ele>1431.5402832031</ele>
        <time>2011-04-16T08:49:22Z</time>
      </trkpt>
      <trkpt lat="42.78016" lon="1.42968">
        <ele>1432.0209960938</ele>
        <time>2011-04-16T08:49:31Z</time>
      </trkpt>
      <trkpt lat="42.78015" lon="1.42954">
        <ele>1432.5017089844</ele>
        <time>2011-04-16T08:49:38Z</time>
      </trkpt>
      <trkpt lat="42.78014" lon="1.42944">
        <ele>1432.9821777344</ele>
        <time>2011-04-16T08:49:43Z</time>
      </trkpt>
      <trkpt lat="42.78011" lon="1.42936">
        <ele>1433.462890625</ele>
        <time>2011-04-16T08:49:47Z</time>
      </trkpt>
      <trkpt lat="42.78011" lon="1.42925">
        <ele>1432.9821777344</ele>
        <time>2011-04-16T08:49:53Z</time>
      </trkpt>
      <trkpt lat="42.78011" lon="1.42919">
        <ele>1432.9821777344</ele>
        <time>2011-04-16T08:49:57Z</time>
      </trkpt>
      <trkpt lat="42.78012" lon="1.42911">
        <ele>1432.9821777344</ele>
        <time>2011-04-16T08:50:03Z</time>
      </trkpt>
      <trkpt lat="42.7801" lon="1.42901">
        <ele>1433.462890625</ele>
        <time>2011-04-16T08:50:08Z</time>
      </trkpt>
      <trkpt lat="42.78009" lon="1.42899">
        <ele>1433.462890625</ele>
        <time>2011-04-16T08:50:09Z</time>
      </trkpt>
      <trkpt lat="42.78006" lon="1.42883">
        <ele>1435.3854980469</ele>
        <time>2011-04-16T08:50:18Z</time>
      </trkpt>
      <trkpt lat="42.78006" lon="1.42871">
        <ele>1436.3471679688</ele>
        <time>2011-04-16T08:50:25Z</time>
      </trkpt>
      <trkpt lat="42.78007" lon="1.42866">
        <ele>1437.3083496094</ele>
        <time>2011-04-16T08:50:28Z</time>
      </trkpt>
      <trkpt lat="42.78004" lon="1.42857">
        <ele>1438.7504882812</ele>
        <time>2011-04-16T08:50:32Z</time>
      </trkpt>
      <trkpt lat="42.78002" lon="1.42849">
        <ele>1439.7116699219</ele>
        <time>2011-04-16T08:50:36Z</time>
      </trkpt>
      <trkpt lat="42.78001" lon="1.42839">
        <ele>1439.2309570312</ele>
        <time>2011-04-16T08:50:41Z</time>
      </trkpt>
      <trkpt lat="42.78" lon="1.42826">
        <ele>1438.2697753906</ele>
        <time>2011-04-16T08:50:48Z</time>
      </trkpt>
      <trkpt lat="42.77998" lon="1.42814">
        <ele>1437.7890625</ele>
        <time>2011-04-16T08:50:54Z</time>
      </trkpt>
      <trkpt lat="42.77995" lon="1.42801">
        <ele>1437.3083496094</ele>
        <time>2011-04-16T08:51:01Z</time>
      </trkpt>
      <trkpt lat="42.77995" lon="1.42797">
        <ele>1437.7890625</ele>
        <time>2011-04-16T08:51:03Z</time>
      </trkpt>
      <trkpt lat="42.77999" lon="1.42786">
        <ele>1437.3083496094</ele>
        <time>2011-04-16T08:51:09Z</time>
      </trkpt>
      <trkpt lat="42.78003" lon="1.42776">
        <ele>1437.3083496094</ele>
        <time>2011-04-16T08:51:14Z</time>
      </trkpt>
      <trkpt lat="42.78003" lon="1.42774">
        <ele>1437.3083496094</ele>
        <time>2011-04-16T08:51:15Z</time>
      </trkpt>
      <trkpt lat="42.78002" lon="1.42769">
        <ele>1437.7890625</ele>
        <time>2011-04-16T08:51:18Z</time>
      </trkpt>
      <trkpt lat="42.78006" lon="1.42757">
        <ele>1439.2309570312</ele>
        <time>2011-04-16T08:51:24Z</time>
      </trkpt>
      <trkpt lat="42.78008" lon="1.42747">
        <ele>1439.2309570312</ele>
        <time>2011-04-16T08:51:29Z</time>
      </trkpt>
      <trkpt lat="42.78007" lon="1.42733">
        <ele>1440.1923828125</ele>
        <time>2011-04-16T08:51:35Z</time>
      </trkpt>
      <trkpt lat="42.78008" lon="1.42728">
        <ele>1439.7116699219</ele>
        <time>2011-04-16T08:51:37Z</time>
      </trkpt>
      <trkpt lat="42.78008" lon="1.42717">
        <ele>1439.7116699219</ele>
        <time>2011-04-16T08:51:42Z</time>
      </trkpt>
      <trkpt lat="42.78008" lon="1.42706">
        <ele>1440.6728515625</ele>
        <time>2011-04-16T08:51:48Z</time>
      </trkpt>
      <trkpt lat="42.78009" lon="1.42702">
        <ele>1440.6728515625</ele>
        <time>2011-04-16T08:51:50Z</time>
      </trkpt>
      <trkpt lat="42.78011" lon="1.4269">
        <ele>1441.6342773438</ele>
        <time>2011-04-16T08:51:57Z</time>
      </trkpt>
      <trkpt lat="42.78011" lon="1.42678">
        <ele>1442.1149902344</ele>
        <time>2011-04-16T08:52:03Z</time>
      </trkpt>
      <trkpt lat="42.78011" lon="1.42667">
        <ele>1441.6342773438</ele>
        <time>2011-04-16T08:52:08Z</time>
      </trkpt>
      <trkpt lat="42.78011" lon="1.42665">
        <ele>1442.1149902344</ele>
        <time>2011-04-16T08:52:09Z</time>
      </trkpt>
      <trkpt lat="42.78013" lon="1.42652">
        <ele>1443.076171875</ele>
        <time>2011-04-16T08:52:16Z</time>
      </trkpt>
      <trkpt lat="42.78014" lon="1.4265">
        <ele>1443.5568847656</ele>
        <time>2011-04-16T08:52:17Z</time>
      </trkpt>
      <trkpt lat="42.78017" lon="1.42639">
        <ele>1444.0375976562</ele>
        <time>2011-04-16T08:52:23Z</time>
      </trkpt>
      <trkpt lat="42.78018" lon="1.42636">
        <ele>1444.0375976562</ele>
        <time>2011-04-16T08:52:25Z</time>
      </trkpt>
      <trkpt lat="42.78018" lon="1.42622">
        <ele>1444.5180664062</ele>
        <time>2011-04-16T08:52:32Z</time>
      </trkpt>
      <trkpt lat="42.7802" lon="1.42609">
        <ele>1444.9987792969</ele>
        <time>2011-04-16T08:52:39Z</time>
      </trkpt>
      <trkpt lat="42.7802" lon="1.42608">
        <ele>1445.4794921875</ele>
        <time>2011-04-16T08:52:40Z</time>
      </trkpt>
      <trkpt lat="42.7802" lon="1.42599">
        <ele>1445.4794921875</ele>
        <time>2011-04-16T08:52:45Z</time>
      </trkpt>
      <trkpt lat="42.78022" lon="1.42585">
        <ele>1446.9213867188</ele>
        <time>2011-04-16T08:52:53Z</time>
      </trkpt>
      <trkpt lat="42.78024" lon="1.42576">
        <ele>1447.4020996094</ele>
        <time>2011-04-16T08:52:58Z</time>
      </trkpt>
      <trkpt lat="42.78024" lon="1.42561">
        <ele>1447.4020996094</ele>
        <time>2011-04-16T08:53:05Z</time>
      </trkpt>
      <trkpt lat="42.78024" lon="1.4256">
        <ele>1447.8828125</ele>
        <time>2011-04-16T08:53:06Z</time>
      </trkpt>
      <trkpt lat="42.78024" lon="1.42555">
        <ele>1448.36328125</ele>
        <time>2011-04-16T08:53:09Z</time>
      </trkpt>
      <trkpt lat="42.78024" lon="1.42543">
        <ele>1448.36328125</ele>
        <time>2011-04-16T08:53:15Z</time>
      </trkpt>
      <trkpt lat="42.78024" lon="1.42535">
        <ele>1448.36328125</ele>
        <time>2011-04-16T08:53:20Z</time>
      </trkpt>
      <trkpt lat="42.78025" lon="1.42529">
        <ele>1448.8439941406</ele>
        <time>2011-04-16T08:53:23Z</time>
      </trkpt>
      <trkpt lat="42.78024" lon="1.42513">
        <ele>1450.2861328125</ele>
        <time>2011-04-16T08:53:32Z</time>
      </trkpt>
      <trkpt lat="42.78023" lon="1.42499">
        <ele>1451.7280273438</ele>
        <time>2011-04-16T08:53:39Z</time>
      </trkpt>
      <trkpt lat="42.78022" lon="1.42496">
        <ele>1452.2087402344</ele>
        <time>2011-04-16T08:53:41Z</time>
      </trkpt>
      <trkpt lat="42.78023" lon="1.42486">
        <ele>1453.1701660156</ele>
        <time>2011-04-16T08:53:46Z</time>
      </trkpt>
      <trkpt lat="42.78024" lon="1.42472">
        <ele>1455.0927734375</ele>
        <time>2011-04-16T08:53:54Z</time>
      </trkpt>
      <trkpt lat="42.78024" lon="1.4246">
        <ele>1456.0539550781</ele>
        <time>2011-04-16T08:54:00Z</time>
      </trkpt>
      <trkpt lat="42.78023" lon="1.42457">
        <ele>1456.0539550781</ele>
        <time>2011-04-16T08:54:01Z</time>
      </trkpt>
      <trkpt lat="42.78024" lon="1.42445">
        <ele>1456.5346679688</ele>
        <time>2011-04-16T08:54:07Z</time>
      </trkpt>
      <trkpt lat="42.78025" lon="1.42436">
        <ele>1457.0153808594</ele>
        <time>2011-04-16T08:54:12Z</time>
      </trkpt>
      <trkpt lat="42.78025" lon="1.42426">
        <ele>1457.49609375</ele>
        <time>2011-04-16T08:54:18Z</time>
      </trkpt>
      <trkpt lat="42.78025" lon="1.42418">
        <ele>1458.4572753906</ele>
        <time>2011-04-16T08:54:23Z</time>
      </trkpt>
      <trkpt lat="42.78024" lon="1.42406">
        <ele>1458.9379882812</ele>
        <time>2011-04-16T08:54:30Z</time>
      </trkpt>
      <trkpt lat="42.78021" lon="1.42393">
        <ele>1459.8991699219</ele>
        <time>2011-04-16T08:54:37Z</time>
      </trkpt>
      <trkpt lat="42.78021" lon="1.42383">
        <ele>1461.3413085938</ele>
        <time>2011-04-16T08:54:43Z</time>
      </trkpt>
      <trkpt lat="42.78022" lon="1.42374">
        <ele>1462.783203125</ele>
        <time>2011-04-16T08:54:49Z</time>
      </trkpt>
      <trkpt lat="42.78028" lon="1.42366">
        <ele>1462.783203125</ele>
        <time>2011-04-16T08:54:56Z</time>
      </trkpt>
      <trkpt lat="42.78032" lon="1.4236">
        <ele>1463.2639160156</ele>
        <time>2011-04-16T08:55:01Z</time>
      </trkpt>
      <trkpt lat="42.7803" lon="1.42354">
        <ele>1463.7443847656</ele>
        <time>2011-04-16T08:55:05Z</time>
      </trkpt>
      <trkpt lat="42.78024" lon="1.42344">
        <ele>1465.1865234375</ele>
        <time>2011-04-16T08:55:12Z</time>
      </trkpt>
      <trkpt lat="42.7802" lon="1.42333">
        <ele>1467.1091308594</ele>
        <time>2011-04-16T08:55:19Z</time>
      </trkpt>
      <trkpt lat="42.78017" lon="1.42323">
        <ele>1468.0705566406</ele>
        <time>2011-04-16T08:55:25Z</time>
      </trkpt>
      <trkpt lat="42.78013" lon="1.42309">
        <ele>1469.5126953125</ele>
        <time>2011-04-16T08:55:33Z</time>
      </trkpt>
      <trkpt lat="42.78012" lon="1.42306">
        <ele>1469.9931640625</ele>
        <time>2011-04-16T08:55:35Z</time>
      </trkpt>
      <trkpt lat="42.78008" lon="1.423">
        <ele>1470.4738769531</ele>
        <time>2011-04-16T08:55:39Z</time>
      </trkpt>
      <trkpt lat="42.78003" lon="1.4229">
        <ele>1471.4350585938</ele>
        <time>2011-04-16T08:55:46Z</time>
      </trkpt>
      <trkpt lat="42.78001" lon="1.4228">
        <ele>1471.9157714844</ele>
        <time>2011-04-16T08:55:52Z</time>
      </trkpt>
      <trkpt lat="42.77999" lon="1.42269">
        <ele>1472.8771972656</ele>
        <time>2011-04-16T08:55:58Z</time>
      </trkpt>
      <trkpt lat="42.77997" lon="1.42259">
        <ele>1473.3579101562</ele>
        <time>2011-04-16T08:56:04Z</time>
      </trkpt>
      <trkpt lat="42.77997" lon="1.42247">
        <ele>1474.7998046875</ele>
        <time>2011-04-16T08:56:11Z</time>
      </trkpt>
      <trkpt lat="42.77997" lon="1.42245">
        <ele>1474.7998046875</ele>
        <time>2011-04-16T08:56:12Z</time>
      </trkpt>
      <trkpt lat="42.77996" lon="1.42236">
        <ele>1475.7609863281</ele>
        <time>2011-04-16T08:56:18Z</time>
      </trkpt>
      <trkpt lat="42.77994" lon="1.42224">
        <ele>1476.7224121094</ele>
        <time>2011-04-16T08:56:25Z</time>
      </trkpt>
      <trkpt lat="42.77994" lon="1.42217">
        <ele>1477.203125</ele>
        <time>2011-04-16T08:56:29Z</time>
      </trkpt>
      <trkpt lat="42.77994" lon="1.42213">
        <ele>1477.68359375</ele>
        <time>2011-04-16T08:56:32Z</time>
      </trkpt>
      <trkpt lat="42.77992" lon="1.42201">
        <ele>1478.6450195312</ele>
        <time>2011-04-16T08:56:39Z</time>
      </trkpt>
      <trkpt lat="42.77992" lon="1.42199">
        <ele>1479.1254882812</ele>
        <time>2011-04-16T08:56:40Z</time>
      </trkpt>
      <trkpt lat="42.7799" lon="1.42186">
        <ele>1480.0869140625</ele>
        <time>2011-04-16T08:56:48Z</time>
      </trkpt>
      <trkpt lat="42.7799" lon="1.42179">
        <ele>1480.5676269531</ele>
        <time>2011-04-16T08:56:52Z</time>
      </trkpt>
      <trkpt lat="42.77989" lon="1.4217">
        <ele>1482.0095214844</ele>
        <time>2011-04-16T08:56:59Z</time>
      </trkpt>
      <trkpt lat="42.77987" lon="1.4216">
        <ele>1483.4514160156</ele>
        <time>2011-04-16T08:57:06Z</time>
      </trkpt>
      <trkpt lat="42.77987" lon="1.42156">
        <ele>1484.4130859375</ele>
        <time>2011-04-16T08:57:09Z</time>
      </trkpt>
      <trkpt lat="42.77987" lon="1.42144">
        <ele>1486.8161621094</ele>
        <time>2011-04-16T08:57:18Z</time>
      </trkpt>
      <trkpt lat="42.77988" lon="1.42133">
        <ele>1488.7390136719</ele>
        <time>2011-04-16T08:57:26Z</time>
      </trkpt>
      <trkpt lat="42.77988" lon="1.42126">
        <ele>1489.2194824219</ele>
        <time>2011-04-16T08:57:32Z</time>
      </trkpt>
      <trkpt lat="42.77987" lon="1.42114">
        <ele>1489.2194824219</ele>
        <time>2011-04-16T08:57:39Z</time>
      </trkpt>
      <trkpt lat="42.77987" lon="1.42113">
        <ele>1489.2194824219</ele>
        <time>2011-04-16T08:57:40Z</time>
      </trkpt>
      <trkpt lat="42.77988" lon="1.42105">
        <ele>1491.6228027344</ele>
        <time>2011-04-16T08:57:46Z</time>
      </trkpt>
      <trkpt lat="42.77986" lon="1.42091">
        <ele>1493.0646972656</ele>
        <time>2011-04-16T08:57:55Z</time>
      </trkpt>
      <trkpt lat="42.77986" lon="1.42082">
        <ele>1494.0261230469</ele>
        <time>2011-04-16T08:58:01Z</time>
      </trkpt>
      <trkpt lat="42.77986" lon="1.42071">
        <ele>1495.4680175781</ele>
        <time>2011-04-16T08:58:08Z</time>
      </trkpt>
      <trkpt lat="42.77986" lon="1.42069">
        <ele>1495.4680175781</ele>
        <time>2011-04-16T08:58:09Z</time>
      </trkpt>
      <trkpt lat="42.77986" lon="1.42066">
        <ele>1495.4680175781</ele>
        <time>2011-04-16T08:58:11Z</time>
      </trkpt>
      <trkpt lat="42.77984" lon="1.42054">
        <ele>1495.4680175781</ele>
        <time>2011-04-16T08:58:18Z</time>
      </trkpt>
      <trkpt lat="42.77985" lon="1.42042">
        <ele>1495.9487304688</ele>
        <time>2011-04-16T08:58:25Z</time>
      </trkpt>
      <trkpt lat="42.77986" lon="1.42031">
        <ele>1496.4294433594</ele>
        <time>2011-04-16T08:58:32Z</time>
      </trkpt>
      <trkpt lat="42.77986" lon="1.42027">
        <ele>1496.9099121094</ele>
        <time>2011-04-16T08:58:34Z</time>
      </trkpt>
      <trkpt lat="42.77985" lon="1.42016">
        <ele>1497.8713378906</ele>
        <time>2011-04-16T08:58:41Z</time>
      </trkpt>
      <trkpt lat="42.77985" lon="1.42001">
        <ele>1497.8713378906</ele>
        <time>2011-04-16T08:58:50Z</time>
      </trkpt>
      <trkpt lat="42.77984" lon="1.41985">
        <ele>1498.3518066406</ele>
        <time>2011-04-16T08:58:58Z</time>
      </trkpt>
      <trkpt lat="42.77985" lon="1.41974">
        <ele>1498.8325195312</ele>
        <time>2011-04-16T08:59:05Z</time>
      </trkpt>
      <trkpt lat="42.77987" lon="1.41969">
        <ele>1499.3132324219</ele>
        <time>2011-04-16T08:59:11Z</time>
      </trkpt>
      <trkpt lat="42.77987" lon="1.4196">
        <ele>1500.2749023438</ele>
        <time>2011-04-16T09:00:21Z</time>
      </trkpt>
      <trkpt lat="42.77987" lon="1.41959">
        <ele>1500.2749023438</ele>
        <time>2011-04-16T09:00:22Z</time>
      </trkpt>
      <trkpt lat="42.77985" lon="1.41953">
        <ele>1500.7553710938</ele>
        <time>2011-04-16T09:00:25Z</time>
      </trkpt>
      <trkpt lat="42.77985" lon="1.41948">
        <ele>1500.2749023438</ele>
        <time>2011-04-16T09:00:28Z</time>
      </trkpt>
      <trkpt lat="42.77985" lon="1.41935">
        <ele>1499.7939453125</ele>
        <time>2011-04-16T09:00:36Z</time>
      </trkpt>
      <trkpt lat="42.77985" lon="1.41932">
        <ele>1499.7939453125</ele>
        <time>2011-04-16T09:00:38Z</time>
      </trkpt>
      <trkpt lat="42.77985" lon="1.41922">
        <ele>1499.3132324219</ele>
        <time>2011-04-16T09:00:44Z</time>
      </trkpt>
      <trkpt lat="42.77984" lon="1.41914">
        <ele>1499.7939453125</ele>
        <time>2011-04-16T09:00:49Z</time>
      </trkpt>
      <trkpt lat="42.77983" lon="1.419">
        <ele>1500.2749023438</ele>
        <time>2011-04-16T09:00:57Z</time>
      </trkpt>
      <trkpt lat="42.77982" lon="1.41889">
        <ele>1500.7553710938</ele>
        <time>2011-04-16T09:01:03Z</time>
      </trkpt>
      <trkpt lat="42.77983" lon="1.41875">
        <ele>1500.7553710938</ele>
        <time>2011-04-16T09:01:10Z</time>
      </trkpt>
      <trkpt lat="42.77983" lon="1.41862">
        <ele>1501.2360839844</ele>
        <time>2011-04-16T09:01:17Z</time>
      </trkpt>
      <trkpt lat="42.77985" lon="1.4185">
        <ele>1501.2360839844</ele>
        <time>2011-04-16T09:01:23Z</time>
      </trkpt>
      <trkpt lat="42.77986" lon="1.41839">
        <ele>1502.197265625</ele>
        <time>2011-04-16T09:01:29Z</time>
      </trkpt>
      <trkpt lat="42.77989" lon="1.41827">
        <ele>1502.6779785156</ele>
        <time>2011-04-16T09:01:36Z</time>
      </trkpt>
      <trkpt lat="42.77991" lon="1.41815">
        <ele>1503.6394042969</ele>
        <time>2011-04-16T09:01:43Z</time>
      </trkpt>
      <trkpt lat="42.77992" lon="1.41803">
        <ele>1504.1201171875</ele>
        <time>2011-04-16T09:01:50Z</time>
      </trkpt>
      <trkpt lat="42.77993" lon="1.41794">
        <ele>1505.0812988281</ele>
        <time>2011-04-16T09:01:55Z</time>
      </trkpt>
      <trkpt lat="42.77995" lon="1.41781">
        <ele>1506.0424804688</ele>
        <time>2011-04-16T09:02:02Z</time>
      </trkpt>
      <trkpt lat="42.77997" lon="1.41772">
        <ele>1507.4846191406</ele>
        <time>2011-04-16T09:02:08Z</time>
      </trkpt>
      <trkpt lat="42.77999" lon="1.41762">
        <ele>1508.9265136719</ele>
        <time>2011-04-16T09:02:14Z</time>
      </trkpt>
      <trkpt lat="42.78002" lon="1.41754">
        <ele>1509.8876953125</ele>
        <time>2011-04-16T09:02:20Z</time>
      </trkpt>
      <trkpt lat="42.78006" lon="1.41746">
        <ele>1510.8491210938</ele>
        <time>2011-04-16T09:02:26Z</time>
      </trkpt>
      <trkpt lat="42.78008" lon="1.41742">
        <ele>1510.8491210938</ele>
        <time>2011-04-16T09:02:29Z</time>
      </trkpt>
      <trkpt lat="42.7801" lon="1.41733">
        <ele>1512.7717285156</ele>
        <time>2011-04-16T09:02:35Z</time>
      </trkpt>
      <trkpt lat="42.78012" lon="1.41727">
        <ele>1513.2524414062</ele>
        <time>2011-04-16T09:02:40Z</time>
      </trkpt>
      <trkpt lat="42.78013" lon="1.41719">
        <ele>1513.7329101562</ele>
        <time>2011-04-16T09:02:45Z</time>
      </trkpt>
      <trkpt lat="42.78019" lon="1.41707">
        <ele>1515.1750488281</ele>
        <time>2011-04-16T09:02:54Z</time>
      </trkpt>
      <trkpt lat="42.78023" lon="1.41701">
        <ele>1517.0979003906</ele>
        <time>2011-04-16T09:03:00Z</time>
      </trkpt>
      <trkpt lat="42.78028" lon="1.41691">
        <ele>1518.5397949219</ele>
        <time>2011-04-16T09:03:08Z</time>
      </trkpt>
      <trkpt lat="42.78031" lon="1.41682">
        <ele>1519.9816894531</ele>
        <time>2011-04-16T09:03:15Z</time>
      </trkpt>
      <trkpt lat="42.78033" lon="1.41677">
        <ele>1520.4624023438</ele>
        <time>2011-04-16T09:03:19Z</time>
      </trkpt>
      <trkpt lat="42.78034" lon="1.41672">
        <ele>1520.4624023438</ele>
        <time>2011-04-16T09:03:24Z</time>
      </trkpt>
      <trkpt lat="42.78035" lon="1.41658">
        <ele>1520.4624023438</ele>
        <time>2011-04-16T09:03:32Z</time>
      </trkpt>
      <trkpt lat="42.78038" lon="1.41647">
        <ele>1520.9431152344</ele>
        <time>2011-04-16T09:03:39Z</time>
      </trkpt>
      <trkpt lat="42.78039" lon="1.41645">
        <ele>1521.4235839844</ele>
        <time>2011-04-16T09:03:40Z</time>
      </trkpt>
      <trkpt lat="42.78041" lon="1.4164">
        <ele>1521.4235839844</ele>
        <time>2011-04-16T09:03:44Z</time>
      </trkpt>
      <trkpt lat="42.78046" lon="1.41631">
        <ele>1521.4235839844</ele>
        <time>2011-04-16T09:03:50Z</time>
      </trkpt>
      <trkpt lat="42.78051" lon="1.4162">
        <ele>1521.904296875</ele>
        <time>2011-04-16T09:03:57Z</time>
      </trkpt>
      <trkpt lat="42.78059" lon="1.41611">
        <ele>1521.4235839844</ele>
        <time>2011-04-16T09:04:04Z</time>
      </trkpt>
      <trkpt lat="42.78063" lon="1.41606">
        <ele>1521.904296875</ele>
        <time>2011-04-16T09:04:08Z</time>
      </trkpt>
      <trkpt lat="42.78068" lon="1.41597">
        <ele>1522.8657226562</ele>
        <time>2011-04-16T09:04:14Z</time>
      </trkpt>
      <trkpt lat="42.78074" lon="1.41588">
        <ele>1523.8269042969</ele>
        <time>2011-04-16T09:04:21Z</time>
      </trkpt>
      <trkpt lat="42.78079" lon="1.41578">
        <ele>1523.8269042969</ele>
        <time>2011-04-16T09:04:27Z</time>
      </trkpt>
      <trkpt lat="42.78086" lon="1.41567">
        <ele>1523.3464355469</ele>
        <time>2011-04-16T09:04:35Z</time>
      </trkpt>
      <trkpt lat="42.78092" lon="1.41553">
        <ele>1522.3850097656</ele>
        <time>2011-04-16T09:04:41Z</time>
      </trkpt>
      <trkpt lat="42.78097" lon="1.41545">
        <ele>1521.4235839844</ele>
        <time>2011-04-16T09:04:47Z</time>
      </trkpt>
      <trkpt lat="42.78105" lon="1.41539">
        <ele>1521.904296875</ele>
        <time>2011-04-16T09:04:54Z</time>
      </trkpt>
      <trkpt lat="42.78108" lon="1.41536">
        <ele>1522.3850097656</ele>
        <time>2011-04-16T09:04:57Z</time>
      </trkpt>
      <trkpt lat="42.78113" lon="1.41531">
        <ele>1523.3464355469</ele>
        <time>2011-04-16T09:05:03Z</time>
      </trkpt>
      <trkpt lat="42.78114" lon="1.41529">
        <ele>1523.8269042969</ele>
        <time>2011-04-16T09:05:04Z</time>
      </trkpt>
      <trkpt lat="42.78119" lon="1.41519">
        <ele>1524.7883300781</ele>
        <time>2011-04-16T09:05:12Z</time>
      </trkpt>
      <trkpt lat="42.78122" lon="1.41516">
        <ele>1525.7495117188</ele>
        <time>2011-04-16T09:05:15Z</time>
      </trkpt>
      <trkpt lat="42.78128" lon="1.41512">
        <ele>1526.7109375</ele>
        <time>2011-04-16T09:05:22Z</time>
      </trkpt>
      <trkpt lat="42.78129" lon="1.41512">
        <ele>1527.1916503906</ele>
        <time>2011-04-16T09:05:23Z</time>
      </trkpt>
      <trkpt lat="42.78133" lon="1.4151">
        <ele>1527.6721191406</ele>
        <time>2011-04-16T09:05:27Z</time>
      </trkpt>
      <trkpt lat="42.7814" lon="1.41505">
        <ele>1528.1528320312</ele>
        <time>2011-04-16T09:05:35Z</time>
      </trkpt>
      <trkpt lat="42.78144" lon="1.41504">
        <ele>1527.6721191406</ele>
        <time>2011-04-16T09:05:39Z</time>
      </trkpt>
      <trkpt lat="42.78149" lon="1.41502">
        <ele>1528.6335449219</ele>
        <time>2011-04-16T09:05:45Z</time>
      </trkpt>
      <trkpt lat="42.78151" lon="1.41502">
        <ele>1528.6335449219</ele>
        <time>2011-04-16T09:05:50Z</time>
      </trkpt>
      <trkpt lat="42.78151" lon="1.41496">
        <ele>1529.1140136719</ele>
        <time>2011-04-16T09:05:58Z</time>
      </trkpt>
      <trkpt lat="42.78155" lon="1.41489">
        <ele>1530.5561523438</ele>
        <time>2011-04-16T09:06:04Z</time>
      </trkpt>
      <trkpt lat="42.78156" lon="1.41488">
        <ele>1529.5947265625</ele>
        <time>2011-04-16T09:06:06Z</time>
      </trkpt>
      <trkpt lat="42.78159" lon="1.41482">
        <ele>1530.5561523438</ele>
        <time>2011-04-16T09:06:10Z</time>
      </trkpt>
      <trkpt lat="42.78162" lon="1.41475">
        <ele>1531.998046875</ele>
        <time>2011-04-16T09:06:16Z</time>
      </trkpt>
      <trkpt lat="42.78164" lon="1.41474">
        <ele>1532.4790039062</ele>
        <time>2011-04-16T09:06:17Z</time>
      </trkpt>
      <trkpt lat="42.78167" lon="1.4147">
        <ele>1533.4401855469</ele>
        <time>2011-04-16T09:06:21Z</time>
      </trkpt>
      <trkpt lat="42.78172" lon="1.41463">
        <ele>1535.8435058594</ele>
        <time>2011-04-16T09:06:29Z</time>
      </trkpt>
      <trkpt lat="42.78175" lon="1.4146">
        <ele>1537.7661132812</ele>
        <time>2011-04-16T09:06:34Z</time>
      </trkpt>
      <trkpt lat="42.78179" lon="1.41458">
        <ele>1538.7275390625</ele>
        <time>2011-04-16T09:06:41Z</time>
      </trkpt>
      <trkpt lat="42.78182" lon="1.41455">
        <ele>1540.6499023438</ele>
        <time>2011-04-16T09:06:47Z</time>
      </trkpt>
      <trkpt lat="42.78188" lon="1.4145">
        <ele>1543.0532226562</ele>
        <time>2011-04-16T09:06:54Z</time>
      </trkpt>
      <trkpt lat="42.78191" lon="1.41447">
        <ele>1544.0146484375</ele>
        <time>2011-04-16T09:06:59Z</time>
      </trkpt>
      <trkpt lat="42.78195" lon="1.41445">
        <ele>1545.4565429688</ele>
        <time>2011-04-16T09:07:05Z</time>
      </trkpt>
      <trkpt lat="42.78199" lon="1.41441">
        <ele>1546.8984375</ele>
        <time>2011-04-16T09:07:11Z</time>
      </trkpt>
      <trkpt lat="42.78204" lon="1.4144">
        <ele>1547.8598632812</ele>
        <time>2011-04-16T09:07:16Z</time>
      </trkpt>
      <trkpt lat="42.78209" lon="1.41437">
        <ele>1549.3020019531</ele>
        <time>2011-04-16T09:07:23Z</time>
      </trkpt>
      <trkpt lat="42.78213" lon="1.41435">
        <ele>1551.224609375</ele>
        <time>2011-04-16T09:07:29Z</time>
      </trkpt>
      <trkpt lat="42.78216" lon="1.41432">
        <ele>1552.1857910156</ele>
        <time>2011-04-16T09:07:34Z</time>
      </trkpt>
      <trkpt lat="42.78219" lon="1.41428">
        <ele>1553.6279296875</ele>
        <time>2011-04-16T09:07:39Z</time>
      </trkpt>
      <trkpt lat="42.78223" lon="1.41424">
        <ele>1555.5505371094</ele>
        <time>2011-04-16T09:07:45Z</time>
      </trkpt>
      <trkpt lat="42.78225" lon="1.4142">
        <ele>1556.51171875</ele>
        <time>2011-04-16T09:07:50Z</time>
      </trkpt>
      <trkpt lat="42.78227" lon="1.41415">
        <ele>1557.4731445312</ele>
        <time>2011-04-16T09:07:56Z</time>
      </trkpt>
      <trkpt lat="42.78226" lon="1.41407">
        <ele>1558.4343261719</ele>
        <time>2011-04-16T09:08:02Z</time>
      </trkpt>
      <trkpt lat="42.78228" lon="1.41401">
        <ele>1559.8762207031</ele>
        <time>2011-04-16T09:08:07Z</time>
      </trkpt>
      <trkpt lat="42.78231" lon="1.41398">
        <ele>1560.3569335938</ele>
        <time>2011-04-16T09:08:13Z</time>
      </trkpt>
      <trkpt lat="42.78235" lon="1.41389">
        <ele>1561.7990722656</ele>
        <time>2011-04-16T09:08:20Z</time>
      </trkpt>
      <trkpt lat="42.7824" lon="1.4138">
        <ele>1561.7990722656</ele>
        <time>2011-04-16T09:08:28Z</time>
      </trkpt>
      <trkpt lat="42.7825" lon="1.41376">
        <ele>1562.7602539062</ele>
        <time>2011-04-16T09:08:37Z</time>
      </trkpt>
      <trkpt lat="42.78251" lon="1.41371">
        <ele>1563.2409667969</ele>
        <time>2011-04-16T09:08:41Z</time>
      </trkpt>
      <trkpt lat="42.78251" lon="1.41368">
        <ele>1563.7214355469</ele>
        <time>2011-04-16T09:08:43Z</time>
      </trkpt>
      <trkpt lat="42.78254" lon="1.41357">
        <ele>1565.1638183594</ele>
        <time>2011-04-16T09:08:50Z</time>
      </trkpt>
      <trkpt lat="42.78257" lon="1.4135">
        <ele>1566.125</ele>
        <time>2011-04-16T09:08:55Z</time>
      </trkpt>
      <trkpt lat="42.78262" lon="1.4134">
        <ele>1567.0864257812</ele>
        <time>2011-04-16T09:09:02Z</time>
      </trkpt>
      <trkpt lat="42.78267" lon="1.41332">
        <ele>1567.5668945312</ele>
        <time>2011-04-16T09:09:08Z</time>
      </trkpt>
      <trkpt lat="42.78272" lon="1.41324">
        <ele>1568.5283203125</ele>
        <time>2011-04-16T09:09:14Z</time>
      </trkpt>
      <trkpt lat="42.78274" lon="1.41319">
        <ele>1569.9702148438</ele>
        <time>2011-04-16T09:09:18Z</time>
      </trkpt>
      <trkpt lat="42.78275" lon="1.41308">
        <ele>1570.931640625</ele>
        <time>2011-04-16T09:09:25Z</time>
      </trkpt>
      <trkpt lat="42.78273" lon="1.41297">
        <ele>1571.8928222656</ele>
        <time>2011-04-16T09:09:32Z</time>
      </trkpt>
      <trkpt lat="42.78274" lon="1.41284">
        <ele>1572.8542480469</ele>
        <time>2011-04-16T09:09:40Z</time>
      </trkpt>
      <trkpt lat="42.78274" lon="1.41278">
        <ele>1573.3349609375</ele>
        <time>2011-04-16T09:09:44Z</time>
      </trkpt>
      <trkpt lat="42.78273" lon="1.41267">
        <ele>1574.7768554688</ele>
        <time>2011-04-16T09:09:51Z</time>
      </trkpt>
      <trkpt lat="42.78273" lon="1.41258">
        <ele>1576.21875</ele>
        <time>2011-04-16T09:09:57Z</time>
      </trkpt>
      <trkpt lat="42.78273" lon="1.41249">
        <ele>1577.1801757812</ele>
        <time>2011-04-16T09:10:03Z</time>
      </trkpt>
      <trkpt lat="42.78272" lon="1.41241">
        <ele>1578.1413574219</ele>
        <time>2011-04-16T09:10:09Z</time>
      </trkpt>
      <trkpt lat="42.78272" lon="1.41239">
        <ele>1578.6220703125</ele>
        <time>2011-04-16T09:10:10Z</time>
      </trkpt>
      <trkpt lat="42.78273" lon="1.41228">
        <ele>1580.544921875</ele>
        <time>2011-04-16T09:10:18Z</time>
      </trkpt>
      <trkpt lat="42.78272" lon="1.41217">
        <ele>1582.4675292969</ele>
        <time>2011-04-16T09:10:25Z</time>
      </trkpt>
      <trkpt lat="42.78272" lon="1.41209">
        <ele>1582.9479980469</ele>
        <time>2011-04-16T09:10:31Z</time>
      </trkpt>
      <trkpt lat="42.78273" lon="1.412">
        <ele>1584.8708496094</ele>
        <time>2011-04-16T09:10:37Z</time>
      </trkpt>
      <trkpt lat="42.78273" lon="1.41198">
        <ele>1584.8708496094</ele>
        <time>2011-04-16T09:10:39Z</time>
      </trkpt>
      <trkpt lat="42.78275" lon="1.41192">
        <ele>1586.3127441406</ele>
        <time>2011-04-16T09:10:44Z</time>
      </trkpt>
      <trkpt lat="42.78271" lon="1.41183">
        <ele>1587.7546386719</ele>
        <time>2011-04-16T09:10:51Z</time>
      </trkpt>
      <trkpt lat="42.78271" lon="1.41177">
        <ele>1589.1965332031</ele>
        <time>2011-04-16T09:10:56Z</time>
      </trkpt>
      <trkpt lat="42.78272" lon="1.4117">
        <ele>1590.6384277344</ele>
        <time>2011-04-16T09:11:01Z</time>
      </trkpt>
      <trkpt lat="42.78271" lon="1.41161">
        <ele>1592.0805664062</ele>
        <time>2011-04-16T09:11:08Z</time>
      </trkpt>
      <trkpt lat="42.7827" lon="1.41154">
        <ele>1593.0417480469</ele>
        <time>2011-04-16T09:11:13Z</time>
      </trkpt>
      <trkpt lat="42.7827" lon="1.41151">
        <ele>1593.5224609375</ele>
        <time>2011-04-16T09:11:15Z</time>
      </trkpt>
      <trkpt lat="42.78271" lon="1.4114">
        <ele>1594.4836425781</ele>
        <time>2011-04-16T09:11:22Z</time>
      </trkpt>
      <trkpt lat="42.78271" lon="1.41133">
        <ele>1595.92578125</ele>
        <time>2011-04-16T09:11:27Z</time>
      </trkpt>
      <trkpt lat="42.7827" lon="1.4113">
        <ele>1596.4067382812</ele>
        <time>2011-04-16T09:11:29Z</time>
      </trkpt>
      <trkpt lat="42.78272" lon="1.41122">
        <ele>1596.8872070312</ele>
        <time>2011-04-16T09:11:35Z</time>
      </trkpt>
      <trkpt lat="42.78271" lon="1.41119">
        <ele>1597.3679199219</ele>
        <time>2011-04-16T09:11:37Z</time>
      </trkpt>
      <trkpt lat="42.78271" lon="1.41107">
        <ele>1598.8098144531</ele>
        <time>2011-04-16T09:11:45Z</time>
      </trkpt>
      <trkpt lat="42.78271" lon="1.41104">
        <ele>1599.7712402344</ele>
        <time>2011-04-16T09:11:48Z</time>
      </trkpt>
      <trkpt lat="42.7827" lon="1.41097">
        <ele>1601.2131347656</ele>
        <time>2011-04-16T09:11:53Z</time>
      </trkpt>
      <trkpt lat="42.7827" lon="1.41089">
        <ele>1602.1743164062</ele>
        <time>2011-04-16T09:11:59Z</time>
      </trkpt>
      <trkpt lat="42.7827" lon="1.4108">
        <ele>1603.6164550781</ele>
        <time>2011-04-16T09:12:06Z</time>
      </trkpt>
      <trkpt lat="42.7827" lon="1.41075">
        <ele>1605.0583496094</ele>
        <time>2011-04-16T09:12:11Z</time>
      </trkpt>
      <trkpt lat="42.7827" lon="1.41067">
        <ele>1606.5002441406</ele>
        <time>2011-04-16T09:12:17Z</time>
      </trkpt>
      <trkpt lat="42.78272" lon="1.41063">
        <ele>1607.4616699219</ele>
        <time>2011-04-16T09:12:22Z</time>
      </trkpt>
      <trkpt lat="42.78273" lon="1.41059">
        <ele>1608.9035644531</ele>
        <time>2011-04-16T09:12:27Z</time>
      </trkpt>
      <trkpt lat="42.78275" lon="1.41055">
        <ele>1610.3454589844</ele>
        <time>2011-04-16T09:12:33Z</time>
      </trkpt>
      <trkpt lat="42.78277" lon="1.41051">
        <ele>1611.7875976562</ele>
        <time>2011-04-16T09:12:38Z</time>
      </trkpt>
      <trkpt lat="42.78278" lon="1.41046">
        <ele>1612.7490234375</ele>
        <time>2011-04-16T09:12:44Z</time>
      </trkpt>
      <trkpt lat="42.78277" lon="1.4104">
        <ele>1613.7102050781</ele>
        <time>2011-04-16T09:12:49Z</time>
      </trkpt>
      <trkpt lat="42.78275" lon="1.41034">
        <ele>1614.6716308594</ele>
        <time>2011-04-16T09:12:54Z</time>
      </trkpt>
      <trkpt lat="42.78272" lon="1.41027">
        <ele>1614.6716308594</ele>
        <time>2011-04-16T09:13:00Z</time>
      </trkpt>
      <trkpt lat="42.78272" lon="1.41024">
        <ele>1615.15234375</ele>
        <time>2011-04-16T09:13:02Z</time>
      </trkpt>
      <trkpt lat="42.78271" lon="1.41014">
        <ele>1616.1135253906</ele>
        <time>2011-04-16T09:13:08Z</time>
      </trkpt>
      <trkpt lat="42.78271" lon="1.41013">
        <ele>1616.5942382812</ele>
        <time>2011-04-16T09:13:09Z</time>
      </trkpt>
      <trkpt lat="42.7827" lon="1.41003">
        <ele>1618.0361328125</ele>
        <time>2011-04-16T09:13:16Z</time>
      </trkpt>
      <trkpt lat="42.78269" lon="1.40995">
        <ele>1619.4782714844</ele>
        <time>2011-04-16T09:13:21Z</time>
      </trkpt>
      <trkpt lat="42.78264" lon="1.40988">
        <ele>1619.9587402344</ele>
        <time>2011-04-16T09:13:28Z</time>
      </trkpt>
      <trkpt lat="42.78262" lon="1.40982">
        <ele>1621.4006347656</ele>
        <time>2011-04-16T09:13:33Z</time>
      </trkpt>
      <trkpt lat="42.78265" lon="1.40979">
        <ele>1622.8427734375</ele>
        <time>2011-04-16T09:13:39Z</time>
      </trkpt>
      <trkpt lat="42.78264" lon="1.40972">
        <ele>1624.7653808594</ele>
        <time>2011-04-16T09:13:45Z</time>
      </trkpt>
      <trkpt lat="42.78261" lon="1.40965">
        <ele>1624.2846679688</ele>
        <time>2011-04-16T09:13:50Z</time>
      </trkpt>
      <trkpt lat="42.7826" lon="1.40951">
        <ele>1625.2458496094</ele>
        <time>2011-04-16T09:13:59Z</time>
      </trkpt>
      <trkpt lat="42.78258" lon="1.40943">
        <ele>1626.6879882812</ele>
        <time>2011-04-16T09:14:05Z</time>
      </trkpt>
      <trkpt lat="42.78257" lon="1.40941">
        <ele>1626.6879882812</ele>
        <time>2011-04-16T09:14:06Z</time>
      </trkpt>
      <trkpt lat="42.78256" lon="1.40934">
        <ele>1627.1687011719</ele>
        <time>2011-04-16T09:14:11Z</time>
      </trkpt>
      <trkpt lat="42.78255" lon="1.40922">
        <ele>1629.0913085938</ele>
        <time>2011-04-16T09:14:19Z</time>
      </trkpt>
      <trkpt lat="42.78255" lon="1.40912">
        <ele>1629.0913085938</ele>
        <time>2011-04-16T09:14:25Z</time>
      </trkpt>
      <trkpt lat="42.78254" lon="1.40898">
        <ele>1630.5334472656</ele>
        <time>2011-04-16T09:14:34Z</time>
      </trkpt>
      <trkpt lat="42.78258" lon="1.40891">
        <ele>1631.4946289062</ele>
        <time>2011-04-16T09:14:40Z</time>
      </trkpt>
      <trkpt lat="42.78259" lon="1.40889">
        <ele>1631.4946289062</ele>
        <time>2011-04-16T09:14:42Z</time>
      </trkpt>
      <trkpt lat="42.78255" lon="1.40886">
        <ele>1633.4172363281</ele>
        <time>2011-04-16T09:14:48Z</time>
      </trkpt>
      <trkpt lat="42.78252" lon="1.40882">
        <ele>1635.33984375</ele>
        <time>2011-04-16T09:14:54Z</time>
      </trkpt>
      <trkpt lat="42.78251" lon="1.4088">
        <ele>1636.3012695312</ele>
        <time>2011-04-16T09:14:58Z</time>
      </trkpt>
      <trkpt lat="42.78247" lon="1.40877">
        <ele>1637.7431640625</ele>
        <time>2011-04-16T09:15:04Z</time>
      </trkpt>
      <trkpt lat="42.78243" lon="1.4087">
        <ele>1638.2238769531</ele>
        <time>2011-04-16T09:15:10Z</time>
      </trkpt>
      <trkpt lat="42.78242" lon="1.40864">
        <ele>1639.6657714844</ele>
        <time>2011-04-16T09:15:16Z</time>
      </trkpt>
      <trkpt lat="42.7824" lon="1.40857">
        <ele>1640.146484375</ele>
        <time>2011-04-16T09:15:21Z</time>
      </trkpt>
      <trkpt lat="42.78239" lon="1.40849">
        <ele>1641.1076660156</ele>
        <time>2011-04-16T09:15:27Z</time>
      </trkpt>
      <trkpt lat="42.78238" lon="1.40842">
        <ele>1642.5498046875</ele>
        <time>2011-04-16T09:15:32Z</time>
      </trkpt>
      <trkpt lat="42.78239" lon="1.40838">
        <ele>1642.5498046875</ele>
        <time>2011-04-16T09:15:35Z</time>
      </trkpt>
      <trkpt lat="42.78242" lon="1.40832">
        <ele>1643.0302734375</ele>
        <time>2011-04-16T09:15:40Z</time>
      </trkpt>
      <trkpt lat="42.78241" lon="1.40824">
        <ele>1645.4338378906</ele>
        <time>2011-04-16T09:15:48Z</time>
      </trkpt>
      <trkpt lat="42.7824" lon="1.40818">
        <ele>1647.3564453125</ele>
        <time>2011-04-16T09:15:55Z</time>
      </trkpt>
      <trkpt lat="42.7824" lon="1.40812">
        <ele>1647.8371582031</ele>
        <time>2011-04-16T09:16:01Z</time>
      </trkpt>
      <trkpt lat="42.78242" lon="1.40804">
        <ele>1647.8371582031</ele>
        <time>2011-04-16T09:16:07Z</time>
      </trkpt>
      <trkpt lat="42.78242" lon="1.408">
        <ele>1648.7983398438</ele>
        <time>2011-04-16T09:16:12Z</time>
      </trkpt>
      <trkpt lat="42.78237" lon="1.408">
        <ele>1649.2790527344</ele>
        <time>2011-04-16T09:16:17Z</time>
      </trkpt>
      <trkpt lat="42.78232" lon="1.40803">
        <ele>1650.2404785156</ele>
        <time>2011-04-16T09:16:24Z</time>
      </trkpt>
      <trkpt lat="42.7823" lon="1.40804">
        <ele>1650.7209472656</ele>
        <time>2011-04-16T09:16:29Z</time>
      </trkpt>
      <trkpt lat="42.78226" lon="1.40803">
        <ele>1651.2016601562</ele>
        <time>2011-04-16T09:16:45Z</time>
      </trkpt>
      <trkpt lat="42.78222" lon="1.40797">
        <ele>1652.1628417969</ele>
        <time>2011-04-16T09:16:51Z</time>
      </trkpt>
      <trkpt lat="42.7822" lon="1.40793">
        <ele>1652.6435546875</ele>
        <time>2011-04-16T09:16:55Z</time>
      </trkpt>
      <trkpt lat="42.78219" lon="1.40786">
        <ele>1654.5661621094</ele>
        <time>2011-04-16T09:17:01Z</time>
      </trkpt>
      <trkpt lat="42.78219" lon="1.40782">
        <ele>1655.5275878906</ele>
        <time>2011-04-16T09:17:06Z</time>
      </trkpt>
      <trkpt lat="42.78219" lon="1.40776">
        <ele>1657.4501953125</ele>
        <time>2011-04-16T09:17:12Z</time>
      </trkpt>
      <trkpt lat="42.78219" lon="1.40772">
        <ele>1658.4113769531</ele>
        <time>2011-04-16T09:17:16Z</time>
      </trkpt>
      <trkpt lat="42.78219" lon="1.40766">
        <ele>1659.8532714844</ele>
        <time>2011-04-16T09:17:21Z</time>
      </trkpt>
      <trkpt lat="42.7822" lon="1.40761">
        <ele>1660.8149414062</ele>
        <time>2011-04-16T09:17:26Z</time>
      </trkpt>
      <trkpt lat="42.78219" lon="1.40756">
        <ele>1661.2956542969</ele>
        <time>2011-04-16T09:17:31Z</time>
      </trkpt>
      <trkpt lat="42.78219" lon="1.4075">
        <ele>1662.2568359375</ele>
        <time>2011-04-16T09:17:37Z</time>
      </trkpt>
      <trkpt lat="42.7822" lon="1.40745">
        <ele>1663.2182617188</ele>
        <time>2011-04-16T09:17:42Z</time>
      </trkpt>
      <trkpt lat="42.78219" lon="1.40739">
        <ele>1664.1794433594</ele>
        <time>2011-04-16T09:17:47Z</time>
      </trkpt>
      <trkpt lat="42.78219" lon="1.40735">
        <ele>1664.66015625</ele>
        <time>2011-04-16T09:17:51Z</time>
      </trkpt>
      <trkpt lat="42.78216" lon="1.4073">
        <ele>1666.5827636719</ele>
        <time>2011-04-16T09:17:58Z</time>
      </trkpt>
      <trkpt lat="42.78214" lon="1.40726">
        <ele>1667.0634765625</ele>
        <time>2011-04-16T09:18:03Z</time>
      </trkpt>
      <trkpt lat="42.78216" lon="1.40724">
        <ele>1667.0634765625</ele>
        <time>2011-04-16T09:18:07Z</time>
      </trkpt>
      <trkpt lat="42.78219" lon="1.40723">
        <ele>1668.5053710938</ele>
        <time>2011-04-16T09:18:12Z</time>
      </trkpt>
      <trkpt lat="42.78222" lon="1.40721">
        <ele>1670.4279785156</ele>
        <time>2011-04-16T09:18:18Z</time>
      </trkpt>
      <trkpt lat="42.78223" lon="1.40716">
        <ele>1670.9086914062</ele>
        <time>2011-04-16T09:18:23Z</time>
      </trkpt>
      <trkpt lat="42.78223" lon="1.40711">
        <ele>1672.3505859375</ele>
        <time>2011-04-16T09:18:29Z</time>
      </trkpt>
      <trkpt lat="42.78219" lon="1.40709">
        <ele>1673.7924804688</ele>
        <time>2011-04-16T09:18:35Z</time>
      </trkpt>
      <trkpt lat="42.78217" lon="1.40708">
        <ele>1674.75390625</ele>
        <time>2011-04-16T09:18:39Z</time>
      </trkpt>
      <trkpt lat="42.78214" lon="1.40704">
        <ele>1676.1960449219</ele>
        <time>2011-04-16T09:18:44Z</time>
      </trkpt>
      <trkpt lat="42.78211" lon="1.40701">
        <ele>1678.5993652344</ele>
        <time>2011-04-16T09:18:50Z</time>
      </trkpt>
      <trkpt lat="42.78209" lon="1.40697">
        <ele>1680.0412597656</ele>
        <time>2011-04-16T09:18:55Z</time>
      </trkpt>
      <trkpt lat="42.78212" lon="1.40694">
        <ele>1681.4831542969</ele>
        <time>2011-04-16T09:19:00Z</time>
      </trkpt>
      <trkpt lat="42.78213" lon="1.40692">
        <ele>1682.9250488281</ele>
        <time>2011-04-16T09:19:06Z</time>
      </trkpt>
      <trkpt lat="42.78213" lon="1.40687">
        <ele>1684.8479003906</ele>
        <time>2011-04-16T09:19:12Z</time>
      </trkpt>
      <trkpt lat="42.78215" lon="1.40684">
        <ele>1685.8090820312</ele>
        <time>2011-04-16T09:19:17Z</time>
      </trkpt>
      <trkpt lat="42.78214" lon="1.40681">
        <ele>1687.2509765625</ele>
        <time>2011-04-16T09:19:22Z</time>
      </trkpt>
      <trkpt lat="42.78212" lon="1.40676">
        <ele>1688.6931152344</ele>
        <time>2011-04-16T09:19:28Z</time>
      </trkpt>
      <trkpt lat="42.78209" lon="1.40672">
        <ele>1690.1350097656</ele>
        <time>2011-04-16T09:19:33Z</time>
      </trkpt>
      <trkpt lat="42.78207" lon="1.40668">
        <ele>1691.5769042969</ele>
        <time>2011-04-16T09:19:37Z</time>
      </trkpt>
      <trkpt lat="42.78207" lon="1.40663">
        <ele>1692.5385742188</ele>
        <time>2011-04-16T09:19:42Z</time>
      </trkpt>
      <trkpt lat="42.78205" lon="1.40658">
        <ele>1693.4997558594</ele>
        <time>2011-04-16T09:19:48Z</time>
      </trkpt>
      <trkpt lat="42.78202" lon="1.40653">
        <ele>1695.4223632812</ele>
        <time>2011-04-16T09:19:54Z</time>
      </trkpt>
      <trkpt lat="42.78201" lon="1.40651">
        <ele>1695.9030761719</ele>
        <time>2011-04-16T09:19:59Z</time>
      </trkpt>
      <trkpt lat="42.78198" lon="1.40648">
        <ele>1696.3837890625</ele>
        <time>2011-04-16T09:20:04Z</time>
      </trkpt>
      <trkpt lat="42.78195" lon="1.40647">
        <ele>1697.8256835938</ele>
        <time>2011-04-16T09:20:09Z</time>
      </trkpt>
      <trkpt lat="42.78192" lon="1.40644">
        <ele>1699.7482910156</ele>
        <time>2011-04-16T09:20:15Z</time>
      </trkpt>
      <trkpt lat="42.78189" lon="1.4064">
        <ele>1700.7094726562</ele>
        <time>2011-04-16T09:20:21Z</time>
      </trkpt>
      <trkpt lat="42.78188" lon="1.40636">
        <ele>1702.1513671875</ele>
        <time>2011-04-16T09:20:26Z</time>
      </trkpt>
      <trkpt lat="42.78189" lon="1.40633">
        <ele>1704.07421875</ele>
        <time>2011-04-16T09:20:31Z</time>
      </trkpt>
      <trkpt lat="42.78191" lon="1.40631">
        <ele>1705.0354003906</ele>
        <time>2011-04-16T09:20:36Z</time>
      </trkpt>
      <trkpt lat="42.78193" lon="1.40632">
        <ele>1705.9965820312</ele>
        <time>2011-04-16T09:20:41Z</time>
      </trkpt>
      <trkpt lat="42.78196" lon="1.4063">
        <ele>1705.9965820312</ele>
        <time>2011-04-16T09:20:46Z</time>
      </trkpt>
      <trkpt lat="42.78195" lon="1.40627">
        <ele>1707.4387207031</ele>
        <time>2011-04-16T09:20:51Z</time>
      </trkpt>
      <trkpt lat="42.78194" lon="1.40623">
        <ele>1708.880859375</ele>
        <time>2011-04-16T09:20:56Z</time>
      </trkpt>
      <trkpt lat="42.78193" lon="1.40621">
        <ele>1710.8034667969</ele>
        <time>2011-04-16T09:21:01Z</time>
      </trkpt>
      <trkpt lat="42.7819" lon="1.40617">
        <ele>1713.6872558594</ele>
        <time>2011-04-16T09:21:08Z</time>
      </trkpt>
      <trkpt lat="42.78188" lon="1.40614">
        <ele>1715.1293945312</ele>
        <time>2011-04-16T09:21:13Z</time>
      </trkpt>
      <trkpt lat="42.78184" lon="1.40614">
        <ele>1716.5712890625</ele>
        <time>2011-04-16T09:21:19Z</time>
      </trkpt>
      <trkpt lat="42.78182" lon="1.40611">
        <ele>1718.0131835938</ele>
        <time>2011-04-16T09:21:25Z</time>
      </trkpt>
      <trkpt lat="42.78183" lon="1.40608">
        <ele>1718.974609375</ele>
        <time>2011-04-16T09:21:30Z</time>
      </trkpt>
      <trkpt lat="42.78186" lon="1.40603">
        <ele>1719.9357910156</ele>
        <time>2011-04-16T09:21:36Z</time>
      </trkpt>
      <trkpt lat="42.78188" lon="1.40603">
        <ele>1721.3776855469</ele>
        <time>2011-04-16T09:21:42Z</time>
      </trkpt>
      <trkpt lat="42.7819" lon="1.406">
        <ele>1722.8198242188</ele>
        <time>2011-04-16T09:21:48Z</time>
      </trkpt>
      <trkpt lat="42.78193" lon="1.40596">
        <ele>1722.8198242188</ele>
        <time>2011-04-16T09:21:54Z</time>
      </trkpt>
      <trkpt lat="42.78193" lon="1.40595">
        <ele>1722.8198242188</ele>
        <time>2011-04-16T09:22:02Z</time>
      </trkpt>
      <trkpt lat="42.78192" lon="1.40591">
        <ele>1723.7810058594</ele>
        <time>2011-04-16T09:22:09Z</time>
      </trkpt>
      <trkpt lat="42.78192" lon="1.40588">
        <ele>1724.7426757812</ele>
        <time>2011-04-16T09:22:15Z</time>
      </trkpt>
      <trkpt lat="42.78191" lon="1.40586">
        <ele>1726.6652832031</ele>
        <time>2011-04-16T09:22:20Z</time>
      </trkpt>
      <trkpt lat="42.78189" lon="1.40584">
        <ele>1729.5490722656</ele>
        <time>2011-04-16T09:22:29Z</time>
      </trkpt>
      <trkpt lat="42.78186" lon="1.40581">
        <ele>1730.9912109375</ele>
        <time>2011-04-16T09:22:35Z</time>
      </trkpt>
      <trkpt lat="42.78184" lon="1.4058">
        <ele>1731.4716796875</ele>
        <time>2011-04-16T09:22:39Z</time>
      </trkpt>
      <trkpt lat="42.78182" lon="1.40577">
        <ele>1732.4331054688</ele>
        <time>2011-04-16T09:22:44Z</time>
      </trkpt>
      <trkpt lat="42.78181" lon="1.40575">
        <ele>1732.9135742188</ele>
        <time>2011-04-16T09:22:48Z</time>
      </trkpt>
      <trkpt lat="42.78178" lon="1.40573">
        <ele>1733.875</ele>
        <time>2011-04-16T09:22:54Z</time>
      </trkpt>
      <trkpt lat="42.78176" lon="1.40572">
        <ele>1734.3557128906</ele>
        <time>2011-04-16T09:22:57Z</time>
      </trkpt>
      <trkpt lat="42.78175" lon="1.40573">
        <ele>1736.2783203125</ele>
        <time>2011-04-16T09:23:28Z</time>
      </trkpt>
      <trkpt lat="42.78175" lon="1.40573">
        <ele>1736.2783203125</ele>
        <time>2011-04-16T09:23:29Z</time>
      </trkpt>
      <trkpt lat="42.78173" lon="1.40571">
        <ele>1737.7202148438</ele>
        <time>2011-04-16T09:23:34Z</time>
      </trkpt>
      <trkpt lat="42.78172" lon="1.40568">
        <ele>1740.1237792969</ele>
        <time>2011-04-16T09:23:41Z</time>
      </trkpt>
      <trkpt lat="42.78171" lon="1.40566">
        <ele>1741.0849609375</ele>
        <time>2011-04-16T09:23:46Z</time>
      </trkpt>
      <trkpt lat="42.78169" lon="1.40565">
        <ele>1742.5270996094</ele>
        <time>2011-04-16T09:23:51Z</time>
      </trkpt>
      <trkpt lat="42.78167" lon="1.40565">
        <ele>1743.9689941406</ele>
        <time>2011-04-16T09:23:56Z</time>
      </trkpt>
      <trkpt lat="42.78164" lon="1.40564">
        <ele>1744.4494628906</ele>
        <time>2011-04-16T09:24:02Z</time>
      </trkpt>
      <trkpt lat="42.78163" lon="1.40563">
        <ele>1745.8916015625</ele>
        <time>2011-04-16T09:24:09Z</time>
      </trkpt>
      <trkpt lat="42.78163" lon="1.4056">
        <ele>1746.3723144531</ele>
        <time>2011-04-16T09:24:16Z</time>
      </trkpt>
      <trkpt lat="42.78162" lon="1.40561">
        <ele>1746.3723144531</ele>
        <time>2011-04-16T09:24:22Z</time>
      </trkpt>
      <trkpt lat="42.7816" lon="1.40558">
        <ele>1746.3723144531</ele>
        <time>2011-04-16T09:24:26Z</time>
      </trkpt>
      <trkpt lat="42.78161" lon="1.40556">
        <ele>1747.3334960938</ele>
        <time>2011-04-16T09:24:30Z</time>
      </trkpt>
      <trkpt lat="42.78162" lon="1.40554">
        <ele>1747.8142089844</ele>
        <time>2011-04-16T09:24:35Z</time>
      </trkpt>
      <trkpt lat="42.78163" lon="1.40551">
        <ele>1748.775390625</ele>
        <time>2011-04-16T09:24:41Z</time>
      </trkpt>
      <trkpt lat="42.78164" lon="1.40549">
        <ele>1749.2561035156</ele>
        <time>2011-04-16T09:24:45Z</time>
      </trkpt>
      <trkpt lat="42.78164" lon="1.40549">
        <ele>1749.7368164062</ele>
        <time>2011-04-16T09:24:46Z</time>
      </trkpt>
      <trkpt lat="42.78159" lon="1.40545">
        <ele>1747.8142089844</ele>
        <time>2011-04-16T09:27:24Z</time>
      </trkpt>
      <trkpt lat="42.78159" lon="1.40545">
        <ele>1747.8142089844</ele>
        <time>2011-04-16T09:27:25Z</time>
      </trkpt>
      <trkpt lat="42.78155" lon="1.40544">
        <ele>1747.8142089844</ele>
        <time>2011-04-16T09:27:29Z</time>
      </trkpt>
      <trkpt lat="42.78152" lon="1.4054">
        <ele>1748.775390625</ele>
        <time>2011-04-16T09:27:36Z</time>
      </trkpt>
      <trkpt lat="42.78151" lon="1.40537">
        <ele>1749.2561035156</ele>
        <time>2011-04-16T09:27:41Z</time>
      </trkpt>
      <trkpt lat="42.78149" lon="1.40535">
        <ele>1751.1787109375</ele>
        <time>2011-04-16T09:27:45Z</time>
      </trkpt>
      <trkpt lat="42.78147" lon="1.40534">
        <ele>1752.6206054688</ele>
        <time>2011-04-16T09:27:50Z</time>
      </trkpt>
      <trkpt lat="42.78145" lon="1.40531">
        <ele>1754.0627441406</ele>
        <time>2011-04-16T09:27:55Z</time>
      </trkpt>
      <trkpt lat="42.78143" lon="1.40529">
        <ele>1755.5046386719</ele>
        <time>2011-04-16T09:28:01Z</time>
      </trkpt>
      <trkpt lat="42.78141" lon="1.40528">
        <ele>1756.4660644531</ele>
        <time>2011-04-16T09:28:06Z</time>
      </trkpt>
      <trkpt lat="42.78139" lon="1.40525">
        <ele>1757.4274902344</ele>
        <time>2011-04-16T09:28:12Z</time>
      </trkpt>
      <trkpt lat="42.78139" lon="1.40522">
        <ele>1758.388671875</ele>
        <time>2011-04-16T09:28:17Z</time>
      </trkpt>
      <trkpt lat="42.78139" lon="1.40519">
        <ele>1758.8693847656</ele>
        <time>2011-04-16T09:28:23Z</time>
      </trkpt>
      <trkpt lat="42.78139" lon="1.40517">
        <ele>1758.8693847656</ele>
        <time>2011-04-16T09:28:30Z</time>
      </trkpt>
      <trkpt lat="42.78139" lon="1.40515">
        <ele>1758.8693847656</ele>
        <time>2011-04-16T09:28:37Z</time>
      </trkpt>
      <trkpt lat="42.78137" lon="1.40512">
        <ele>1760.3112792969</ele>
        <time>2011-04-16T09:28:43Z</time>
      </trkpt>
      <trkpt lat="42.78135" lon="1.40509">
        <ele>1762.2338867188</ele>
        <time>2011-04-16T09:28:49Z</time>
      </trkpt>
      <trkpt lat="42.78135" lon="1.40506">
        <ele>1763.67578125</ele>
        <time>2011-04-16T09:28:55Z</time>
      </trkpt>
      <trkpt lat="42.78133" lon="1.40504">
        <ele>1765.1179199219</ele>
        <time>2011-04-16T09:29:02Z</time>
      </trkpt>
      <trkpt lat="42.78131" lon="1.40502">
        <ele>1767.5209960938</ele>
        <time>2011-04-16T09:29:07Z</time>
      </trkpt>
      <trkpt lat="42.78129" lon="1.40502">
        <ele>1770.4050292969</ele>
        <time>2011-04-16T09:29:12Z</time>
      </trkpt>
      <trkpt lat="42.78128" lon="1.40499">
        <ele>1772.3278808594</ele>
        <time>2011-04-16T09:29:17Z</time>
      </trkpt>
      <trkpt lat="42.78127" lon="1.40496">
        <ele>1772.80859375</ele>
        <time>2011-04-16T09:29:22Z</time>
      </trkpt>
      <trkpt lat="42.78127" lon="1.40492">
        <ele>1773.7697753906</ele>
        <time>2011-04-16T09:29:28Z</time>
      </trkpt>
      <trkpt lat="42.78127" lon="1.40488">
        <ele>1774.7312011719</ele>
        <time>2011-04-16T09:29:34Z</time>
      </trkpt>
      <trkpt lat="42.78126" lon="1.40483">
        <ele>1776.1730957031</ele>
        <time>2011-04-16T09:29:40Z</time>
      </trkpt>
      <trkpt lat="42.78124" lon="1.40481">
        <ele>1777.6149902344</ele>
        <time>2011-04-16T09:29:47Z</time>
      </trkpt>
      <trkpt lat="42.78123" lon="1.40477">
        <ele>1778.5764160156</ele>
        <time>2011-04-16T09:29:52Z</time>
      </trkpt>
      <trkpt lat="42.78123" lon="1.40475">
        <ele>1780.0183105469</ele>
        <time>2011-04-16T09:29:58Z</time>
      </trkpt>
      <trkpt lat="42.78123" lon="1.40473">
        <ele>1782.4216308594</ele>
        <time>2011-04-16T09:30:05Z</time>
      </trkpt>
      <trkpt lat="42.78124" lon="1.40471">
        <ele>1783.8635253906</ele>
        <time>2011-04-16T09:30:10Z</time>
      </trkpt>
      <trkpt lat="42.78125" lon="1.40471">
        <ele>1784.3442382812</ele>
        <time>2011-04-16T09:30:14Z</time>
      </trkpt>
      <trkpt lat="42.78125" lon="1.40469">
        <ele>1785.3054199219</ele>
        <time>2011-04-16T09:30:21Z</time>
      </trkpt>
      <trkpt lat="42.78124" lon="1.40467">
        <ele>1786.2668457031</ele>
        <time>2011-04-16T09:30:28Z</time>
      </trkpt>
      <trkpt lat="42.78125" lon="1.40465">
        <ele>1787.7087402344</ele>
        <time>2011-04-16T09:30:34Z</time>
      </trkpt>
      <trkpt lat="42.78127" lon="1.40465">
        <ele>1789.1508789062</ele>
        <time>2011-04-16T09:30:40Z</time>
      </trkpt>
      <trkpt lat="42.78128" lon="1.40463">
        <ele>1789.6315917969</ele>
        <time>2011-04-16T09:30:44Z</time>
      </trkpt>
      <trkpt lat="42.7813" lon="1.40463">
        <ele>1789.6315917969</ele>
        <time>2011-04-16T09:30:49Z</time>
      </trkpt>
      <trkpt lat="42.78132" lon="1.40464">
        <ele>1790.1123046875</ele>
        <time>2011-04-16T09:30:54Z</time>
      </trkpt>
      <trkpt lat="42.78133" lon="1.40464">
        <ele>1790.5927734375</ele>
        <time>2011-04-16T09:31:00Z</time>
      </trkpt>
      <trkpt lat="42.78135" lon="1.40465">
        <ele>1792.0349121094</ele>
        <time>2011-04-16T09:31:09Z</time>
      </trkpt>
      <trkpt lat="42.78136" lon="1.40465">
        <ele>1793.9575195312</ele>
        <time>2011-04-16T09:31:15Z</time>
      </trkpt>
      <trkpt lat="42.78136" lon="1.40463">
        <ele>1793.9575195312</ele>
        <time>2011-04-16T09:31:23Z</time>
      </trkpt>
      <trkpt lat="42.78137" lon="1.40462">
        <ele>1795.8801269531</ele>
        <time>2011-04-16T09:31:30Z</time>
      </trkpt>
      <trkpt lat="42.78138" lon="1.40462">
        <ele>1797.3220214844</ele>
        <time>2011-04-16T09:31:40Z</time>
      </trkpt>
      <trkpt lat="42.78139" lon="1.40461">
        <ele>1798.7639160156</ele>
        <time>2011-04-16T09:31:47Z</time>
      </trkpt>
      <trkpt lat="42.78141" lon="1.40462">
        <ele>1800.2060546875</ele>
        <time>2011-04-16T09:31:54Z</time>
      </trkpt>
      <trkpt lat="42.78141" lon="1.40459">
        <ele>1801.1672363281</ele>
        <time>2011-04-16T09:32:02Z</time>
      </trkpt>
      <trkpt lat="42.78142" lon="1.40454">
        <ele>1801.6479492188</ele>
        <time>2011-04-16T09:32:08Z</time>
      </trkpt>
      <trkpt lat="42.78142" lon="1.40451">
        <ele>1802.6091308594</ele>
        <time>2011-04-16T09:32:14Z</time>
      </trkpt>
      <trkpt lat="42.78141" lon="1.40451">
        <ele>1802.1284179688</ele>
        <time>2011-04-16T09:32:20Z</time>
      </trkpt>
      <trkpt lat="42.78139" lon="1.40446">
        <ele>1800.6865234375</ele>
        <time>2011-04-16T09:32:28Z</time>
      </trkpt>
      <trkpt lat="42.78138" lon="1.40446">
        <ele>1801.6479492188</ele>
        <time>2011-04-16T09:32:33Z</time>
      </trkpt>
      <trkpt lat="42.78141" lon="1.40449">
        <ele>1803.5705566406</ele>
        <time>2011-04-16T09:32:44Z</time>
      </trkpt>
      <trkpt lat="42.78141" lon="1.40452">
        <ele>1804.5319824219</ele>
        <time>2011-04-16T09:32:51Z</time>
      </trkpt>
      <trkpt lat="42.78143" lon="1.40451">
        <ele>1804.0515136719</ele>
        <time>2011-04-16T09:33:11Z</time>
      </trkpt>
      <trkpt lat="42.78143" lon="1.40451">
        <ele>1804.0515136719</ele>
        <time>2011-04-16T09:33:20Z</time>
      </trkpt>
      <trkpt lat="42.78143" lon="1.40452">
        <ele>1805.0126953125</ele>
        <time>2011-04-16T09:33:27Z</time>
      </trkpt>
      <trkpt lat="42.78144" lon="1.40456">
        <ele>1805.4934082031</ele>
        <time>2011-04-16T09:33:33Z</time>
      </trkpt>
      <trkpt lat="42.78145" lon="1.4046">
        <ele>1806.4545898438</ele>
        <time>2011-04-16T09:33:41Z</time>
      </trkpt>
      <trkpt lat="42.78145" lon="1.40458">
        <ele>1804.5319824219</ele>
        <time>2011-04-16T09:33:56Z</time>
      </trkpt>
      <trkpt lat="42.78144" lon="1.40453">
        <ele>1803.08984375</ele>
        <time>2011-04-16T09:34:06Z</time>
      </trkpt>
      <trkpt lat="42.78143" lon="1.40452">
        <ele>1803.08984375</ele>
        <time>2011-04-16T09:34:13Z</time>
      </trkpt>
      <trkpt lat="42.78143" lon="1.40451">
        <ele>1803.5705566406</ele>
        <time>2011-04-16T09:34:21Z</time>
      </trkpt>
      <trkpt lat="42.78143" lon="1.40452">
        <ele>1803.5705566406</ele>
        <time>2011-04-16T09:34:30Z</time>
      </trkpt>
      <trkpt lat="42.78143" lon="1.40452">
        <ele>1803.5705566406</ele>
        <time>2011-04-16T09:34:39Z</time>
      </trkpt>
      <trkpt lat="42.78141" lon="1.40451">
        <ele>1803.5705566406</ele>
        <time>2011-04-16T09:34:46Z</time>
      </trkpt>
      <trkpt lat="42.78143" lon="1.4045">
        <ele>1803.08984375</ele>
        <time>2011-04-16T09:34:53Z</time>
      </trkpt>
      <trkpt lat="42.78143" lon="1.4045">
        <ele>1803.08984375</ele>
        <time>2011-04-16T09:34:54Z</time>
      </trkpt>
      <trkpt lat="42.77985" lon="1.40403">
        <ele>1868.4597167969</ele>
        <time>2011-04-16T09:41:16Z</time>
      </trkpt>
      <trkpt lat="42.77985" lon="1.40403">
        <ele>1868.4597167969</ele>
        <time>2011-04-16T09:41:17Z</time>
      </trkpt>
      <trkpt lat="42.77983" lon="1.40404">
        <ele>1869.9016113281</ele>
        <time>2011-04-16T09:41:22Z</time>
      </trkpt>
      <trkpt lat="42.77981" lon="1.40399">
        <ele>1871.3435058594</ele>
        <time>2011-04-16T09:41:27Z</time>
      </trkpt>
      <trkpt lat="42.77978" lon="1.40392">
        <ele>1872.7856445312</ele>
        <time>2011-04-16T09:41:35Z</time>
      </trkpt>
      <trkpt lat="42.77977" lon="1.40386">
        <ele>1874.2275390625</ele>
        <time>2011-04-16T09:41:41Z</time>
      </trkpt>
      <trkpt lat="42.77975" lon="1.40386">
        <ele>1875.6694335938</ele>
        <time>2011-04-16T09:41:48Z</time>
      </trkpt>
      <trkpt lat="42.77974" lon="1.40393">
        <ele>1877.1115722656</ele>
        <time>2011-04-16T09:41:55Z</time>
      </trkpt>
      <trkpt lat="42.77972" lon="1.40393">
        <ele>1878.5534667969</ele>
        <time>2011-04-16T09:42:00Z</time>
      </trkpt>
      <trkpt lat="42.77969" lon="1.40392">
        <ele>1879.5146484375</ele>
        <time>2011-04-16T09:42:06Z</time>
      </trkpt>
      <trkpt lat="42.77967" lon="1.40392">
        <ele>1881.4372558594</ele>
        <time>2011-04-16T09:42:11Z</time>
      </trkpt>
      <trkpt lat="42.77966" lon="1.4039">
        <ele>1882.8791503906</ele>
        <time>2011-04-16T09:42:17Z</time>
      </trkpt>
      <trkpt lat="42.77963" lon="1.40395">
        <ele>1885.7634277344</ele>
        <time>2011-04-16T09:42:24Z</time>
      </trkpt>
      <trkpt lat="42.77961" lon="1.40399">
        <ele>1886.724609375</ele>
        <time>2011-04-16T09:42:29Z</time>
      </trkpt>
      <trkpt lat="42.77961" lon="1.40402">
        <ele>1887.6860351562</ele>
        <time>2011-04-16T09:42:35Z</time>
      </trkpt>
      <trkpt lat="42.77959" lon="1.40407">
        <ele>1889.1279296875</ele>
        <time>2011-04-16T09:42:40Z</time>
      </trkpt>
      <trkpt lat="42.77958" lon="1.4041">
        <ele>1890.0893554688</ele>
        <time>2011-04-16T09:42:45Z</time>
      </trkpt>
      <trkpt lat="42.77955" lon="1.40413">
        <ele>1891.0505371094</ele>
        <time>2011-04-16T09:42:50Z</time>
      </trkpt>
      <trkpt lat="42.77953" lon="1.40411">
        <ele>1892.4926757812</ele>
        <time>2011-04-16T09:42:56Z</time>
      </trkpt>
      <trkpt lat="42.77951" lon="1.40411">
        <ele>1893.9345703125</ele>
        <time>2011-04-16T09:43:02Z</time>
      </trkpt>
      <trkpt lat="42.7795" lon="1.4041">
        <ele>1895.3764648438</ele>
        <time>2011-04-16T09:43:08Z</time>
      </trkpt>
      <trkpt lat="42.77947" lon="1.40411">
        <ele>1897.2990722656</ele>
        <time>2011-04-16T09:43:14Z</time>
      </trkpt>
      <trkpt lat="42.77945" lon="1.40414">
        <ele>1898.2602539062</ele>
        <time>2011-04-16T09:43:19Z</time>
      </trkpt>
      <trkpt lat="42.77944" lon="1.40421">
        <ele>1900.1833496094</ele>
        <time>2011-04-16T09:43:27Z</time>
      </trkpt>
      <trkpt lat="42.77942" lon="1.40428">
        <ele>1900.6638183594</ele>
        <time>2011-04-16T09:43:34Z</time>
      </trkpt>
      <trkpt lat="42.77941" lon="1.40432">
        <ele>1900.1833496094</ele>
        <time>2011-04-16T09:43:41Z</time>
      </trkpt>
      <trkpt lat="42.77942" lon="1.40432">
        <ele>1900.1833496094</ele>
        <time>2011-04-16T09:43:42Z</time>
      </trkpt>
      <trkpt lat="42.7794" lon="1.40432">
        <ele>1898.7409667969</ele>
        <time>2011-04-16T09:46:26Z</time>
      </trkpt>
      <trkpt lat="42.77938" lon="1.40431">
        <ele>1898.7409667969</ele>
        <time>2011-04-16T09:46:33Z</time>
      </trkpt>
      <trkpt lat="42.77937" lon="1.40431">
        <ele>1897.7797851562</ele>
        <time>2011-04-16T09:46:38Z</time>
      </trkpt>
      <trkpt lat="42.77935" lon="1.40431">
        <ele>1896.337890625</ele>
        <time>2011-04-16T09:46:44Z</time>
      </trkpt>
      <trkpt lat="42.77934" lon="1.40432">
        <ele>1895.3764648438</ele>
        <time>2011-04-16T09:46:51Z</time>
      </trkpt>
      <trkpt lat="42.77932" lon="1.40432">
        <ele>1894.4150390625</ele>
        <time>2011-04-16T09:46:59Z</time>
      </trkpt>
      <trkpt lat="42.7793" lon="1.40431">
        <ele>1893.4538574219</ele>
        <time>2011-04-16T09:47:05Z</time>
      </trkpt>
      <trkpt lat="42.77927" lon="1.40428">
        <ele>1892.0119628906</ele>
        <time>2011-04-16T09:47:10Z</time>
      </trkpt>
      <trkpt lat="42.77924" lon="1.40429">
        <ele>1890.5698242188</ele>
        <time>2011-04-16T09:47:16Z</time>
      </trkpt>
      <trkpt lat="42.77922" lon="1.40429">
        <ele>1888.6474609375</ele>
        <time>2011-04-16T09:47:23Z</time>
      </trkpt>
      <trkpt lat="42.7792" lon="1.40431">
        <ele>1887.6860351562</ele>
        <time>2011-04-16T09:47:30Z</time>
      </trkpt>
      <trkpt lat="42.77914" lon="1.40433">
        <ele>1885.7634277344</ele>
        <time>2011-04-16T09:47:37Z</time>
      </trkpt>
      <trkpt lat="42.77912" lon="1.40434">
        <ele>1883.8405761719</ele>
        <time>2011-04-16T09:47:42Z</time>
      </trkpt>
      <trkpt lat="42.77907" lon="1.40434">
        <ele>1881.4372558594</ele>
        <time>2011-04-16T09:47:49Z</time>
      </trkpt>
      <trkpt lat="42.77902" lon="1.40433">
        <ele>1879.0339355469</ele>
        <time>2011-04-16T09:47:56Z</time>
      </trkpt>
      <trkpt lat="42.77897" lon="1.40432">
        <ele>1877.5920410156</ele>
        <time>2011-04-16T09:48:03Z</time>
      </trkpt>
      <trkpt lat="42.77891" lon="1.40432">
        <ele>1876.630859375</ele>
        <time>2011-04-16T09:48:12Z</time>
      </trkpt>
      <trkpt lat="42.77888" lon="1.40432">
        <ele>1876.1501464844</ele>
        <time>2011-04-16T09:48:18Z</time>
      </trkpt>
      <trkpt lat="42.77886" lon="1.40432">
        <ele>1876.630859375</ele>
        <time>2011-04-16T09:48:23Z</time>
      </trkpt>
      <trkpt lat="42.77881" lon="1.40432">
        <ele>1876.630859375</ele>
        <time>2011-04-16T09:48:30Z</time>
      </trkpt>
      <trkpt lat="42.77878" lon="1.40431">
        <ele>1877.1115722656</ele>
        <time>2011-04-16T09:48:36Z</time>
      </trkpt>
      <trkpt lat="42.77876" lon="1.40432">
        <ele>1878.0727539062</ele>
        <time>2011-04-16T09:48:41Z</time>
      </trkpt>
      <trkpt lat="42.77873" lon="1.40434">
        <ele>1878.0727539062</ele>
        <time>2011-04-16T09:48:47Z</time>
      </trkpt>
      <trkpt lat="42.77868" lon="1.40436">
        <ele>1878.0727539062</ele>
        <time>2011-04-16T09:48:54Z</time>
      </trkpt>
      <trkpt lat="42.77865" lon="1.40436">
        <ele>1877.1115722656</ele>
        <time>2011-04-16T09:49:00Z</time>
      </trkpt>
      <trkpt lat="42.77862" lon="1.40438">
        <ele>1876.630859375</ele>
        <time>2011-04-16T09:49:05Z</time>
      </trkpt>
      <trkpt lat="42.77861" lon="1.40438">
        <ele>1876.1501464844</ele>
        <time>2011-04-16T09:49:12Z</time>
      </trkpt>
      <trkpt lat="42.77861" lon="1.40439">
        <ele>1876.630859375</ele>
        <time>2011-04-16T09:49:19Z</time>
      </trkpt>
      <trkpt lat="42.77858" lon="1.4044">
        <ele>1876.1501464844</ele>
        <time>2011-04-16T09:49:25Z</time>
      </trkpt>
      <trkpt lat="42.77854" lon="1.40442">
        <ele>1876.1501464844</ele>
        <time>2011-04-16T09:49:31Z</time>
      </trkpt>
      <trkpt lat="42.77851" lon="1.40442">
        <ele>1876.1501464844</ele>
        <time>2011-04-16T09:49:39Z</time>
      </trkpt>
      <trkpt lat="42.77849" lon="1.40443">
        <ele>1876.1501464844</ele>
        <time>2011-04-16T09:49:44Z</time>
      </trkpt>
      <trkpt lat="42.77845" lon="1.40445">
        <ele>1876.1501464844</ele>
        <time>2011-04-16T09:49:52Z</time>
      </trkpt>
      <trkpt lat="42.7784" lon="1.40448">
        <ele>1877.1115722656</ele>
        <time>2011-04-16T09:50:00Z</time>
      </trkpt>
      <trkpt lat="42.77838" lon="1.40449">
        <ele>1877.5920410156</ele>
        <time>2011-04-16T09:50:06Z</time>
      </trkpt>
      <trkpt lat="42.77835" lon="1.40451">
        <ele>1878.0727539062</ele>
        <time>2011-04-16T09:50:12Z</time>
      </trkpt>
      <trkpt lat="42.77833" lon="1.40452">
        <ele>1876.1501464844</ele>
        <time>2011-04-16T09:50:18Z</time>
      </trkpt>
      <trkpt lat="42.77831" lon="1.40451">
        <ele>1875.1887207031</ele>
        <time>2011-04-16T09:50:24Z</time>
      </trkpt>
      <trkpt lat="42.77829" lon="1.40453">
        <ele>1873.7468261719</ele>
        <time>2011-04-16T09:50:31Z</time>
      </trkpt>
      <trkpt lat="42.77827" lon="1.40456">
        <ele>1874.2275390625</ele>
        <time>2011-04-16T09:50:40Z</time>
      </trkpt>
      <trkpt lat="42.77824" lon="1.40457">
        <ele>1873.7468261719</ele>
        <time>2011-04-16T09:50:46Z</time>
      </trkpt>
      <trkpt lat="42.77821" lon="1.4046">
        <ele>1874.7082519531</ele>
        <time>2011-04-16T09:50:55Z</time>
      </trkpt>
      <trkpt lat="42.77818" lon="1.40463">
        <ele>1874.7082519531</ele>
        <time>2011-04-16T09:51:02Z</time>
      </trkpt>
      <trkpt lat="42.77816" lon="1.40464">
        <ele>1874.2275390625</ele>
        <time>2011-04-16T09:51:09Z</time>
      </trkpt>
      <trkpt lat="42.77816" lon="1.40465">
        <ele>1874.2275390625</ele>
        <time>2011-04-16T09:51:16Z</time>
      </trkpt>
      <trkpt lat="42.77814" lon="1.40467">
        <ele>1873.7468261719</ele>
        <time>2011-04-16T09:51:35Z</time>
      </trkpt>
      <trkpt lat="42.77813" lon="1.40469">
        <ele>1872.7856445312</ele>
        <time>2011-04-16T09:51:40Z</time>
      </trkpt>
      <trkpt lat="42.77812" lon="1.4047">
        <ele>1870.8630371094</ele>
        <time>2011-04-16T09:51:47Z</time>
      </trkpt>
      <trkpt lat="42.77808" lon="1.40474">
        <ele>1871.3435058594</ele>
        <time>2011-04-16T09:51:55Z</time>
      </trkpt>
      <trkpt lat="42.77803" lon="1.40478">
        <ele>1872.3049316406</ele>
        <time>2011-04-16T09:52:02Z</time>
      </trkpt>
      <trkpt lat="42.77799" lon="1.40479">
        <ele>1872.7856445312</ele>
        <time>2011-04-16T09:52:10Z</time>
      </trkpt>
      <trkpt lat="42.77797" lon="1.4048">
        <ele>1872.7856445312</ele>
        <time>2011-04-16T09:52:17Z</time>
      </trkpt>
      <trkpt lat="42.77794" lon="1.40484">
        <ele>1872.3049316406</ele>
        <time>2011-04-16T09:52:27Z</time>
      </trkpt>
      <trkpt lat="42.7779" lon="1.40486">
        <ele>1872.3049316406</ele>
        <time>2011-04-16T09:52:34Z</time>
      </trkpt>
      <trkpt lat="42.77788" lon="1.40488">
        <ele>1872.7856445312</ele>
        <time>2011-04-16T09:52:41Z</time>
      </trkpt>
      <trkpt lat="42.77785" lon="1.40489">
        <ele>1872.3049316406</ele>
        <time>2011-04-16T09:52:48Z</time>
      </trkpt>
      <trkpt lat="42.77782" lon="1.40491">
        <ele>1872.7856445312</ele>
        <time>2011-04-16T09:52:56Z</time>
      </trkpt>
      <trkpt lat="42.77779" lon="1.40493">
        <ele>1873.2663574219</ele>
        <time>2011-04-16T09:53:03Z</time>
      </trkpt>
      <trkpt lat="42.77778" lon="1.40494">
        <ele>1872.7856445312</ele>
        <time>2011-04-16T09:53:11Z</time>
      </trkpt>
      <trkpt lat="42.77774" lon="1.405">
        <ele>1874.7082519531</ele>
        <time>2011-04-16T09:53:22Z</time>
      </trkpt>
      <trkpt lat="42.77772" lon="1.40505">
        <ele>1875.1887207031</ele>
        <time>2011-04-16T09:53:30Z</time>
      </trkpt>
      <trkpt lat="42.7777" lon="1.40507">
        <ele>1876.1501464844</ele>
        <time>2011-04-16T09:53:37Z</time>
      </trkpt>
      <trkpt lat="42.77769" lon="1.4051">
        <ele>1876.630859375</ele>
        <time>2011-04-16T09:53:44Z</time>
      </trkpt>
      <trkpt lat="42.77768" lon="1.40514">
        <ele>1877.5920410156</ele>
        <time>2011-04-16T09:53:50Z</time>
      </trkpt>
      <trkpt lat="42.77766" lon="1.4052">
        <ele>1878.5534667969</ele>
        <time>2011-04-16T09:53:58Z</time>
      </trkpt>
      <trkpt lat="42.77765" lon="1.40523">
        <ele>1878.5534667969</ele>
        <time>2011-04-16T09:54:03Z</time>
      </trkpt>
      <trkpt lat="42.77764" lon="1.40528">
        <ele>1879.0339355469</ele>
        <time>2011-04-16T09:54:10Z</time>
      </trkpt>
      <trkpt lat="42.77764" lon="1.40531">
        <ele>1879.5146484375</ele>
        <time>2011-04-16T09:54:16Z</time>
      </trkpt>
      <trkpt lat="42.77764" lon="1.40534">
        <ele>1879.5146484375</ele>
        <time>2011-04-16T09:54:23Z</time>
      </trkpt>
      <trkpt lat="42.77763" lon="1.40537">
        <ele>1879.9953613281</ele>
        <time>2011-04-16T09:54:31Z</time>
      </trkpt>
      <trkpt lat="42.77762" lon="1.40541">
        <ele>1880.9567871094</ele>
        <time>2011-04-16T09:54:37Z</time>
      </trkpt>
      <trkpt lat="42.7776" lon="1.40543">
        <ele>1881.4372558594</ele>
        <time>2011-04-16T09:54:43Z</time>
      </trkpt>
      <trkpt lat="42.77758" lon="1.40544">
        <ele>1882.3986816406</ele>
        <time>2011-04-16T09:54:48Z</time>
      </trkpt>
      <trkpt lat="42.77757" lon="1.40547">
        <ele>1882.8791503906</ele>
        <time>2011-04-16T09:54:55Z</time>
      </trkpt>
      <trkpt lat="42.77755" lon="1.40547">
        <ele>1883.3598632812</ele>
        <time>2011-04-16T09:55:06Z</time>
      </trkpt>
      <trkpt lat="42.77752" lon="1.40548">
        <ele>1884.3215332031</ele>
        <time>2011-04-16T09:55:11Z</time>
      </trkpt>
      <trkpt lat="42.77749" lon="1.40549">
        <ele>1883.8405761719</ele>
        <time>2011-04-16T09:55:18Z</time>
      </trkpt>
      <trkpt lat="42.77747" lon="1.40552">
        <ele>1883.8405761719</ele>
        <time>2011-04-16T09:55:25Z</time>
      </trkpt>
      <trkpt lat="42.77745" lon="1.40556">
        <ele>1883.8405761719</ele>
        <time>2011-04-16T09:55:32Z</time>
      </trkpt>
      <trkpt lat="42.77743" lon="1.40558">
        <ele>1882.8791503906</ele>
        <time>2011-04-16T09:55:38Z</time>
      </trkpt>
      <trkpt lat="42.77742" lon="1.40562">
        <ele>1883.3598632812</ele>
        <time>2011-04-16T09:55:43Z</time>
      </trkpt>
      <trkpt lat="42.77741" lon="1.40566">
        <ele>1883.3598632812</ele>
        <time>2011-04-16T09:55:48Z</time>
      </trkpt>
      <trkpt lat="42.7774" lon="1.40574">
        <ele>1883.3598632812</ele>
        <time>2011-04-16T09:55:54Z</time>
      </trkpt>
      <trkpt lat="42.77741" lon="1.4058">
        <ele>1882.3986816406</ele>
        <time>2011-04-16T09:56:01Z</time>
      </trkpt>
      <trkpt lat="42.77739" lon="1.40584">
        <ele>1881.91796875</ele>
        <time>2011-04-16T09:56:08Z</time>
      </trkpt>
      <trkpt lat="42.77736" lon="1.40588">
        <ele>1881.4372558594</ele>
        <time>2011-04-16T09:56:14Z</time>
      </trkpt>
      <trkpt lat="42.77733" lon="1.4059">
        <ele>1881.91796875</ele>
        <time>2011-04-16T09:56:21Z</time>
      </trkpt>
      <trkpt lat="42.77731" lon="1.40593">
        <ele>1882.3986816406</ele>
        <time>2011-04-16T09:56:27Z</time>
      </trkpt>
      <trkpt lat="42.77729" lon="1.40597">
        <ele>1883.3598632812</ele>
        <time>2011-04-16T09:56:34Z</time>
      </trkpt>
      <trkpt lat="42.77728" lon="1.40602">
        <ele>1881.91796875</ele>
        <time>2011-04-16T09:56:41Z</time>
      </trkpt>
      <trkpt lat="42.77727" lon="1.40607">
        <ele>1880.4760742188</ele>
        <time>2011-04-16T09:56:46Z</time>
      </trkpt>
      <trkpt lat="42.77727" lon="1.40612">
        <ele>1879.0339355469</ele>
        <time>2011-04-16T09:56:51Z</time>
      </trkpt>
      <trkpt lat="42.77728" lon="1.40615">
        <ele>1878.5534667969</ele>
        <time>2011-04-16T09:56:58Z</time>
      </trkpt>
      <trkpt lat="42.77729" lon="1.40618">
        <ele>1878.0727539062</ele>
        <time>2011-04-16T09:57:03Z</time>
      </trkpt>
      <trkpt lat="42.77729" lon="1.40623">
        <ele>1877.5920410156</ele>
        <time>2011-04-16T09:57:09Z</time>
      </trkpt>
      <trkpt lat="42.77727" lon="1.40625">
        <ele>1877.1115722656</ele>
        <time>2011-04-16T09:57:17Z</time>
      </trkpt>
      <trkpt lat="42.77726" lon="1.40627">
        <ele>1876.1501464844</ele>
        <time>2011-04-16T09:57:23Z</time>
      </trkpt>
      <trkpt lat="42.77721" lon="1.4063">
        <ele>1875.6694335938</ele>
        <time>2011-04-16T09:57:30Z</time>
      </trkpt>
      <trkpt lat="42.77712" lon="1.40632">
        <ele>1874.2275390625</ele>
        <time>2011-04-16T09:57:39Z</time>
      </trkpt>
      <trkpt lat="42.77707" lon="1.40633">
        <ele>1874.2275390625</ele>
        <time>2011-04-16T09:57:45Z</time>
      </trkpt>
      <trkpt lat="42.77706" lon="1.40633">
        <ele>1875.1887207031</ele>
        <time>2011-04-16T09:57:50Z</time>
      </trkpt>
      <trkpt lat="42.77705" lon="1.40633">
        <ele>1875.6694335938</ele>
        <time>2011-04-16T09:57:56Z</time>
      </trkpt>
      <trkpt lat="42.77703" lon="1.40632">
        <ele>1876.1501464844</ele>
        <time>2011-04-16T09:58:02Z</time>
      </trkpt>
      <trkpt lat="42.777" lon="1.40632">
        <ele>1876.630859375</ele>
        <time>2011-04-16T09:58:09Z</time>
      </trkpt>
      <trkpt lat="42.777" lon="1.40642">
        <ele>1878.0727539062</ele>
        <time>2011-04-16T09:59:05Z</time>
      </trkpt>
      <trkpt lat="42.777" lon="1.40643">
        <ele>1877.5920410156</ele>
        <time>2011-04-16T09:59:06Z</time>
      </trkpt>
      <trkpt lat="42.77696" lon="1.40645">
        <ele>1877.1115722656</ele>
        <time>2011-04-16T09:59:10Z</time>
      </trkpt>
      <trkpt lat="42.77693" lon="1.40646">
        <ele>1876.630859375</ele>
        <time>2011-04-16T09:59:16Z</time>
      </trkpt>
      <trkpt lat="42.77691" lon="1.40651">
        <ele>1877.5920410156</ele>
        <time>2011-04-16T09:59:21Z</time>
      </trkpt>
      <trkpt lat="42.77687" lon="1.40657">
        <ele>1878.0727539062</ele>
        <time>2011-04-16T09:59:28Z</time>
      </trkpt>
      <trkpt lat="42.77686" lon="1.40664">
        <ele>1878.0727539062</ele>
        <time>2011-04-16T09:59:35Z</time>
      </trkpt>
      <trkpt lat="42.77686" lon="1.40669">
        <ele>1878.5534667969</ele>
        <time>2011-04-16T09:59:41Z</time>
      </trkpt>
      <trkpt lat="42.77685" lon="1.40672">
        <ele>1878.5534667969</ele>
        <time>2011-04-16T09:59:46Z</time>
      </trkpt>
      <trkpt lat="42.77684" lon="1.40674">
        <ele>1878.5534667969</ele>
        <time>2011-04-16T09:59:53Z</time>
      </trkpt>
      <trkpt lat="42.77682" lon="1.40672">
        <ele>1878.5534667969</ele>
        <time>2011-04-16T09:59:59Z</time>
      </trkpt>
      <trkpt lat="42.7768" lon="1.4067">
        <ele>1878.5534667969</ele>
        <time>2011-04-16T10:00:04Z</time>
      </trkpt>
      <trkpt lat="42.77676" lon="1.40668">
        <ele>1878.5534667969</ele>
        <time>2011-04-16T10:00:10Z</time>
      </trkpt>
      <trkpt lat="42.77673" lon="1.40672">
        <ele>1878.0727539062</ele>
        <time>2011-04-16T10:00:16Z</time>
      </trkpt>
      <trkpt lat="42.77669" lon="1.40676">
        <ele>1878.5534667969</ele>
        <time>2011-04-16T10:00:22Z</time>
      </trkpt>
      <trkpt lat="42.77669" lon="1.40682">
        <ele>1878.5534667969</ele>
        <time>2011-04-16T10:00:28Z</time>
      </trkpt>
      <trkpt lat="42.77669" lon="1.40687">
        <ele>1878.5534667969</ele>
        <time>2011-04-16T10:00:34Z</time>
      </trkpt>
      <trkpt lat="42.77667" lon="1.40694">
        <ele>1879.0339355469</ele>
        <time>2011-04-16T10:00:41Z</time>
      </trkpt>
      <trkpt lat="42.77663" lon="1.40696">
        <ele>1880.4760742188</ele>
        <time>2011-04-16T10:00:47Z</time>
      </trkpt>
      <trkpt lat="42.7766" lon="1.407">
        <ele>1880.9567871094</ele>
        <time>2011-04-16T10:00:53Z</time>
      </trkpt>
      <trkpt lat="42.77658" lon="1.407">
        <ele>1880.4760742188</ele>
        <time>2011-04-16T10:00:58Z</time>
      </trkpt>
      <trkpt lat="42.77658" lon="1.40699">
        <ele>1880.4760742188</ele>
        <time>2011-04-16T10:01:07Z</time>
      </trkpt>
      <trkpt lat="42.77658" lon="1.40702">
        <ele>1879.0339355469</ele>
        <time>2011-04-16T10:01:15Z</time>
      </trkpt>
      <trkpt lat="42.77656" lon="1.40705">
        <ele>1878.0727539062</ele>
        <time>2011-04-16T10:01:22Z</time>
      </trkpt>
      <trkpt lat="42.77652" lon="1.40705">
        <ele>1878.0727539062</ele>
        <time>2011-04-16T10:01:28Z</time>
      </trkpt>
      <trkpt lat="42.77648" lon="1.4071">
        <ele>1878.5534667969</ele>
        <time>2011-04-16T10:01:36Z</time>
      </trkpt>
      <trkpt lat="42.77645" lon="1.40713">
        <ele>1879.0339355469</ele>
        <time>2011-04-16T10:01:42Z</time>
      </trkpt>
      <trkpt lat="42.77645" lon="1.40716">
        <ele>1879.0339355469</ele>
        <time>2011-04-16T10:01:48Z</time>
      </trkpt>
      <trkpt lat="42.77645" lon="1.40721">
        <ele>1880.4760742188</ele>
        <time>2011-04-16T10:01:54Z</time>
      </trkpt>
      <trkpt lat="42.77642" lon="1.40726">
        <ele>1881.91796875</ele>
        <time>2011-04-16T10:02:00Z</time>
      </trkpt>
      <trkpt lat="42.77639" lon="1.40729">
        <ele>1882.3986816406</ele>
        <time>2011-04-16T10:02:06Z</time>
      </trkpt>
      <trkpt lat="42.77638" lon="1.40732">
        <ele>1882.3986816406</ele>
        <time>2011-04-16T10:02:13Z</time>
      </trkpt>
      <trkpt lat="42.77638" lon="1.40739">
        <ele>1882.3986816406</ele>
        <time>2011-04-16T10:02:19Z</time>
      </trkpt>
      <trkpt lat="42.77636" lon="1.40746">
        <ele>1882.3986816406</ele>
        <time>2011-04-16T10:02:26Z</time>
      </trkpt>
      <trkpt lat="42.77634" lon="1.40754">
        <ele>1881.91796875</ele>
        <time>2011-04-16T10:02:33Z</time>
      </trkpt>
      <trkpt lat="42.77629" lon="1.40762">
        <ele>1882.3986816406</ele>
        <time>2011-04-16T10:02:40Z</time>
      </trkpt>
      <trkpt lat="42.77627" lon="1.40765">
        <ele>1882.3986816406</ele>
        <time>2011-04-16T10:02:44Z</time>
      </trkpt>
      <trkpt lat="42.77624" lon="1.40768">
        <ele>1884.3215332031</ele>
        <time>2011-04-16T10:02:49Z</time>
      </trkpt>
      <trkpt lat="42.77621" lon="1.40773">
        <ele>1884.8022460938</ele>
        <time>2011-04-16T10:02:55Z</time>
      </trkpt>
      <trkpt lat="42.77618" lon="1.40778">
        <ele>1884.8022460938</ele>
        <time>2011-04-16T10:03:01Z</time>
      </trkpt>
      <trkpt lat="42.77615" lon="1.40786">
        <ele>1885.7634277344</ele>
        <time>2011-04-16T10:03:08Z</time>
      </trkpt>
      <trkpt lat="42.77614" lon="1.40791">
        <ele>1886.244140625</ele>
        <time>2011-04-16T10:03:13Z</time>
      </trkpt>
      <trkpt lat="42.77612" lon="1.40797">
        <ele>1886.724609375</ele>
        <time>2011-04-16T10:03:19Z</time>
      </trkpt>
      <trkpt lat="42.77609" lon="1.40806">
        <ele>1887.6860351562</ele>
        <time>2011-04-16T10:03:26Z</time>
      </trkpt>
      <trkpt lat="42.77608" lon="1.40815">
        <ele>1888.1667480469</ele>
        <time>2011-04-16T10:03:34Z</time>
      </trkpt>
      <trkpt lat="42.77607" lon="1.4082">
        <ele>1888.6474609375</ele>
        <time>2011-04-16T10:03:40Z</time>
      </trkpt>
      <trkpt lat="42.77607" lon="1.40821">
        <ele>1890.0893554688</ele>
        <time>2011-04-16T10:04:00Z</time>
      </trkpt>
      <trkpt lat="42.77606" lon="1.40824">
        <ele>1889.6086425781</ele>
        <time>2011-04-16T10:04:06Z</time>
      </trkpt>
      <trkpt lat="42.77605" lon="1.40827">
        <ele>1888.6474609375</ele>
        <time>2011-04-16T10:04:11Z</time>
      </trkpt>
      <trkpt lat="42.77604" lon="1.40835">
        <ele>1887.2053222656</ele>
        <time>2011-04-16T10:04:18Z</time>
      </trkpt>
      <trkpt lat="42.77602" lon="1.40844">
        <ele>1885.2827148438</ele>
        <time>2011-04-16T10:04:26Z</time>
      </trkpt>
      <trkpt lat="42.776" lon="1.40848">
        <ele>1884.8022460938</ele>
        <time>2011-04-16T10:04:31Z</time>
      </trkpt>
      <trkpt lat="42.77599" lon="1.40853">
        <ele>1884.3215332031</ele>
        <time>2011-04-16T10:04:38Z</time>
      </trkpt>
      <trkpt lat="42.77599" lon="1.40858">
        <ele>1884.3215332031</ele>
        <time>2011-04-16T10:04:44Z</time>
      </trkpt>
      <trkpt lat="42.77599" lon="1.40864">
        <ele>1883.8405761719</ele>
        <time>2011-04-16T10:04:51Z</time>
      </trkpt>
      <trkpt lat="42.77599" lon="1.40868">
        <ele>1884.3215332031</ele>
        <time>2011-04-16T10:04:56Z</time>
      </trkpt>
      <trkpt lat="42.77597" lon="1.40872">
        <ele>1884.3215332031</ele>
        <time>2011-04-16T10:05:01Z</time>
      </trkpt>
      <trkpt lat="42.77594" lon="1.40877">
        <ele>1883.8405761719</ele>
        <time>2011-04-16T10:05:08Z</time>
      </trkpt>
      <trkpt lat="42.77591" lon="1.4088">
        <ele>1883.3598632812</ele>
        <time>2011-04-16T10:05:14Z</time>
      </trkpt>
      <trkpt lat="42.7759" lon="1.40882">
        <ele>1883.3598632812</ele>
        <time>2011-04-16T10:05:18Z</time>
      </trkpt>
      <trkpt lat="42.77588" lon="1.40885">
        <ele>1883.3598632812</ele>
        <time>2011-04-16T10:05:24Z</time>
      </trkpt>
      <trkpt lat="42.77588" lon="1.40889">
        <ele>1882.8791503906</ele>
        <time>2011-04-16T10:05:30Z</time>
      </trkpt>
      <trkpt lat="42.77586" lon="1.40897">
        <ele>1883.3598632812</ele>
        <time>2011-04-16T10:05:37Z</time>
      </trkpt>
      <trkpt lat="42.77583" lon="1.40902">
        <ele>1883.3598632812</ele>
        <time>2011-04-16T10:05:43Z</time>
      </trkpt>
      <trkpt lat="42.77583" lon="1.40901">
        <ele>1883.8405761719</ele>
        <time>2011-04-16T10:05:50Z</time>
      </trkpt>
      <trkpt lat="42.77581" lon="1.40903">
        <ele>1882.8791503906</ele>
        <time>2011-04-16T10:06:07Z</time>
      </trkpt>
      <trkpt lat="42.77577" lon="1.40909">
        <ele>1882.8791503906</ele>
        <time>2011-04-16T10:06:13Z</time>
      </trkpt>
      <trkpt lat="42.77572" lon="1.40914">
        <ele>1881.91796875</ele>
        <time>2011-04-16T10:06:19Z</time>
      </trkpt>
      <trkpt lat="42.77565" lon="1.40922">
        <ele>1880.9567871094</ele>
        <time>2011-04-16T10:06:28Z</time>
      </trkpt>
      <trkpt lat="42.77559" lon="1.40927">
        <ele>1880.9567871094</ele>
        <time>2011-04-16T10:06:35Z</time>
      </trkpt>
      <trkpt lat="42.77557" lon="1.40929">
        <ele>1880.4760742188</ele>
        <time>2011-04-16T10:06:41Z</time>
      </trkpt>
      <trkpt lat="42.77555" lon="1.40934">
        <ele>1881.4372558594</ele>
        <time>2011-04-16T10:06:46Z</time>
      </trkpt>
      <trkpt lat="42.77554" lon="1.40938">
        <ele>1881.91796875</ele>
        <time>2011-04-16T10:06:53Z</time>
      </trkpt>
      <trkpt lat="42.77552" lon="1.40946">
        <ele>1881.91796875</ele>
        <time>2011-04-16T10:06:59Z</time>
      </trkpt>
      <trkpt lat="42.77551" lon="1.40952">
        <ele>1881.4372558594</ele>
        <time>2011-04-16T10:07:05Z</time>
      </trkpt>
      <trkpt lat="42.77548" lon="1.40956">
        <ele>1881.4372558594</ele>
        <time>2011-04-16T10:07:11Z</time>
      </trkpt>
      <trkpt lat="42.77548" lon="1.40958">
        <ele>1881.91796875</ele>
        <time>2011-04-16T10:07:16Z</time>
      </trkpt>
      <trkpt lat="42.77549" lon="1.40962">
        <ele>1882.3986816406</ele>
        <time>2011-04-16T10:07:22Z</time>
      </trkpt>
      <trkpt lat="42.77545" lon="1.40968">
        <ele>1882.3986816406</ele>
        <time>2011-04-16T10:07:28Z</time>
      </trkpt>
      <trkpt lat="42.77542" lon="1.40971">
        <ele>1882.3986816406</ele>
        <time>2011-04-16T10:07:33Z</time>
      </trkpt>
      <trkpt lat="42.77539" lon="1.40976">
        <ele>1882.8791503906</ele>
        <time>2011-04-16T10:07:39Z</time>
      </trkpt>
      <trkpt lat="42.77535" lon="1.4098">
        <ele>1882.8791503906</ele>
        <time>2011-04-16T10:07:45Z</time>
      </trkpt>
      <trkpt lat="42.77531" lon="1.40987">
        <ele>1881.91796875</ele>
        <time>2011-04-16T10:07:52Z</time>
      </trkpt>
      <trkpt lat="42.77526" lon="1.40992">
        <ele>1882.8791503906</ele>
        <time>2011-04-16T10:07:59Z</time>
      </trkpt>
      <trkpt lat="42.77522" lon="1.40997">
        <ele>1882.8791503906</ele>
        <time>2011-04-16T10:08:07Z</time>
      </trkpt>
      <trkpt lat="42.77518" lon="1.41002">
        <ele>1883.8405761719</ele>
        <time>2011-04-16T10:08:13Z</time>
      </trkpt>
      <trkpt lat="42.77515" lon="1.41005">
        <ele>1884.8022460938</ele>
        <time>2011-04-16T10:08:19Z</time>
      </trkpt>
      <trkpt lat="42.77513" lon="1.41007">
        <ele>1885.7634277344</ele>
        <time>2011-04-16T10:08:26Z</time>
      </trkpt>
      <trkpt lat="42.77513" lon="1.41008">
        <ele>1885.7634277344</ele>
        <time>2011-04-16T10:08:32Z</time>
      </trkpt>
      <trkpt lat="42.77513" lon="1.41011">
        <ele>1886.724609375</ele>
        <time>2011-04-16T10:08:38Z</time>
      </trkpt>
      <trkpt lat="42.77511" lon="1.41017">
        <ele>1888.1667480469</ele>
        <time>2011-04-16T10:08:46Z</time>
      </trkpt>
      <trkpt lat="42.7751" lon="1.41024">
        <ele>1889.1279296875</ele>
        <time>2011-04-16T10:08:52Z</time>
      </trkpt>
      <trkpt lat="42.77509" lon="1.41034">
        <ele>1889.6086425781</ele>
        <time>2011-04-16T10:09:00Z</time>
      </trkpt>
      <trkpt lat="42.77509" lon="1.4104">
        <ele>1889.6086425781</ele>
        <time>2011-04-16T10:09:06Z</time>
      </trkpt>
      <trkpt lat="42.77507" lon="1.41044">
        <ele>1890.0893554688</ele>
        <time>2011-04-16T10:09:12Z</time>
      </trkpt>
      <trkpt lat="42.77504" lon="1.41045">
        <ele>1890.5698242188</ele>
        <time>2011-04-16T10:09:18Z</time>
      </trkpt>
      <trkpt lat="42.77502" lon="1.41044">
        <ele>1890.5698242188</ele>
        <time>2011-04-16T10:09:23Z</time>
      </trkpt>
      <trkpt lat="42.77498" lon="1.4104">
        <ele>1892.4926757812</ele>
        <time>2011-04-16T10:09:30Z</time>
      </trkpt>
      <trkpt lat="42.77496" lon="1.41036">
        <ele>1892.4926757812</ele>
        <time>2011-04-16T10:09:36Z</time>
      </trkpt>
      <trkpt lat="42.77496" lon="1.41035">
        <ele>1892.4926757812</ele>
        <time>2011-04-16T10:09:42Z</time>
      </trkpt>
      <trkpt lat="42.77494" lon="1.41032">
        <ele>1893.4538574219</ele>
        <time>2011-04-16T10:09:48Z</time>
      </trkpt>
      <trkpt lat="42.77493" lon="1.41029">
        <ele>1894.4150390625</ele>
        <time>2011-04-16T10:09:54Z</time>
      </trkpt>
      <trkpt lat="42.77491" lon="1.41023">
        <ele>1895.3764648438</ele>
        <time>2011-04-16T10:10:03Z</time>
      </trkpt>
      <trkpt lat="42.77491" lon="1.41019">
        <ele>1895.8571777344</ele>
        <time>2011-04-16T10:10:11Z</time>
      </trkpt>
      <trkpt lat="42.7749" lon="1.41016">
        <ele>1896.337890625</ele>
        <time>2011-04-16T10:10:17Z</time>
      </trkpt>
      <trkpt lat="42.77489" lon="1.41014">
        <ele>1897.7797851562</ele>
        <time>2011-04-16T10:10:23Z</time>
      </trkpt>
      <trkpt lat="42.77488" lon="1.41012">
        <ele>1897.7797851562</ele>
        <time>2011-04-16T10:10:30Z</time>
      </trkpt>
      <trkpt lat="42.77486" lon="1.4101">
        <ele>1898.2602539062</ele>
        <time>2011-04-16T10:10:35Z</time>
      </trkpt>
      <trkpt lat="42.77485" lon="1.41009">
        <ele>1898.7409667969</ele>
        <time>2011-04-16T10:10:40Z</time>
      </trkpt>
      <trkpt lat="42.77484" lon="1.41005">
        <ele>1899.7023925781</ele>
        <time>2011-04-16T10:10:46Z</time>
      </trkpt>
      <trkpt lat="42.77484" lon="1.41004">
        <ele>1900.6638183594</ele>
        <time>2011-04-16T10:10:51Z</time>
      </trkpt>
      <trkpt lat="42.77481" lon="1.41002">
        <ele>1901.6252441406</ele>
        <time>2011-04-16T10:10:58Z</time>
      </trkpt>
      <trkpt lat="42.77481" lon="1.41002">
        <ele>1903.0671386719</ele>
        <time>2011-04-16T10:11:04Z</time>
      </trkpt>
      <trkpt lat="42.77478" lon="1.41004">
        <ele>1903.0671386719</ele>
        <time>2011-04-16T10:11:10Z</time>
      </trkpt>
      <trkpt lat="42.77477" lon="1.41007">
        <ele>1903.0671386719</ele>
        <time>2011-04-16T10:11:16Z</time>
      </trkpt>
      <trkpt lat="42.77475" lon="1.41009">
        <ele>1903.5478515625</ele>
        <time>2011-04-16T10:11:21Z</time>
      </trkpt>
      <trkpt lat="42.77473" lon="1.41011">
        <ele>1903.5478515625</ele>
        <time>2011-04-16T10:11:29Z</time>
      </trkpt>
      <trkpt lat="42.7747" lon="1.41015">
        <ele>1903.5478515625</ele>
        <time>2011-04-16T10:11:36Z</time>
      </trkpt>
      <trkpt lat="42.77467" lon="1.41017">
        <ele>1903.0671386719</ele>
        <time>2011-04-16T10:11:42Z</time>
      </trkpt>
      <trkpt lat="42.77465" lon="1.41019">
        <ele>1903.5478515625</ele>
        <time>2011-04-16T10:11:47Z</time>
      </trkpt>
      <trkpt lat="42.77459" lon="1.41023">
        <ele>1904.9897460938</ele>
        <time>2011-04-16T10:11:56Z</time>
      </trkpt>
      <trkpt lat="42.77455" lon="1.41026">
        <ele>1905.4704589844</ele>
        <time>2011-04-16T10:12:04Z</time>
      </trkpt>
      <trkpt lat="42.77454" lon="1.41028">
        <ele>1905.4704589844</ele>
        <time>2011-04-16T10:12:10Z</time>
      </trkpt>
      <trkpt lat="42.77454" lon="1.41028">
        <ele>1904.9897460938</ele>
        <time>2011-04-16T10:12:24Z</time>
      </trkpt>
      <trkpt lat="42.77452" lon="1.41028">
        <ele>1904.5090332031</ele>
        <time>2011-04-16T10:12:33Z</time>
      </trkpt>
      <trkpt lat="42.7745" lon="1.41027">
        <ele>1906.431640625</ele>
        <time>2011-04-16T10:12:39Z</time>
      </trkpt>
      <trkpt lat="42.77447" lon="1.41029">
        <ele>1907.8737792969</ele>
        <time>2011-04-16T10:12:47Z</time>
      </trkpt>
      <trkpt lat="42.77446" lon="1.4103">
        <ele>1907.8737792969</ele>
        <time>2011-04-16T10:12:53Z</time>
      </trkpt>
      <trkpt lat="42.77443" lon="1.41031">
        <ele>1908.3542480469</ele>
        <time>2011-04-16T10:12:59Z</time>
      </trkpt>
      <trkpt lat="42.77439" lon="1.41032">
        <ele>1909.7961425781</ele>
        <time>2011-04-16T10:13:06Z</time>
      </trkpt>
      <trkpt lat="42.77436" lon="1.41035">
        <ele>1910.2768554688</ele>
        <time>2011-04-16T10:13:13Z</time>
      </trkpt>
      <trkpt lat="42.77432" lon="1.4104">
        <ele>1910.7575683594</ele>
        <time>2011-04-16T10:13:22Z</time>
      </trkpt>
      <trkpt lat="42.77428" lon="1.41042">
        <ele>1911.7189941406</ele>
        <time>2011-04-16T10:13:28Z</time>
      </trkpt>
      <trkpt lat="42.77426" lon="1.41043">
        <ele>1911.7189941406</ele>
        <time>2011-04-16T10:13:34Z</time>
      </trkpt>
      <trkpt lat="42.77424" lon="1.41043">
        <ele>1911.7189941406</ele>
        <time>2011-04-16T10:13:44Z</time>
      </trkpt>
      <trkpt lat="42.77422" lon="1.41042">
        <ele>1913.1608886719</ele>
        <time>2011-04-16T10:13:51Z</time>
      </trkpt>
      <trkpt lat="42.77419" lon="1.41042">
        <ele>1913.6413574219</ele>
        <time>2011-04-16T10:13:56Z</time>
      </trkpt>
      <trkpt lat="42.77417" lon="1.41043">
        <ele>1914.6027832031</ele>
        <time>2011-04-16T10:14:04Z</time>
      </trkpt>
      <trkpt lat="42.77415" lon="1.41042">
        <ele>1915.0834960938</ele>
        <time>2011-04-16T10:14:09Z</time>
      </trkpt>
      <trkpt lat="42.77412" lon="1.41044">
        <ele>1916.5256347656</ele>
        <time>2011-04-16T10:14:15Z</time>
      </trkpt>
      <trkpt lat="42.77409" lon="1.4105">
        <ele>1917.9675292969</ele>
        <time>2011-04-16T10:14:23Z</time>
      </trkpt>
      <trkpt lat="42.77407" lon="1.41057">
        <ele>1917.9675292969</ele>
        <time>2011-04-16T10:14:30Z</time>
      </trkpt>
      <trkpt lat="42.77404" lon="1.41061">
        <ele>1918.4482421875</ele>
        <time>2011-04-16T10:14:36Z</time>
      </trkpt>
      <trkpt lat="42.77399" lon="1.41062">
        <ele>1918.4482421875</ele>
        <time>2011-04-16T10:14:42Z</time>
      </trkpt>
      <trkpt lat="42.77394" lon="1.41062">
        <ele>1919.4096679688</ele>
        <time>2011-04-16T10:14:49Z</time>
      </trkpt>
      <trkpt lat="42.7739" lon="1.41064">
        <ele>1920.3708496094</ele>
        <time>2011-04-16T10:14:55Z</time>
      </trkpt>
      <trkpt lat="42.77385" lon="1.41068">
        <ele>1920.8515625</ele>
        <time>2011-04-16T10:15:02Z</time>
      </trkpt>
      <trkpt lat="42.77382" lon="1.4107">
        <ele>1921.33203125</ele>
        <time>2011-04-16T10:15:08Z</time>
      </trkpt>
      <trkpt lat="42.7738" lon="1.41072">
        <ele>1921.33203125</ele>
        <time>2011-04-16T10:15:13Z</time>
      </trkpt>
      <trkpt lat="42.77377" lon="1.41075">
        <ele>1920.3708496094</ele>
        <time>2011-04-16T10:15:20Z</time>
      </trkpt>
      <trkpt lat="42.77376" lon="1.41075">
        <ele>1920.3708496094</ele>
        <time>2011-04-16T10:15:26Z</time>
      </trkpt>
      <trkpt lat="42.77372" lon="1.41078">
        <ele>1920.8515625</ele>
        <time>2011-04-16T10:15:34Z</time>
      </trkpt>
      <trkpt lat="42.77368" lon="1.41082">
        <ele>1922.2934570312</ele>
        <time>2011-04-16T10:15:41Z</time>
      </trkpt>
      <trkpt lat="42.77367" lon="1.41085">
        <ele>1922.7741699219</ele>
        <time>2011-04-16T10:15:47Z</time>
      </trkpt>
      <trkpt lat="42.77365" lon="1.41089">
        <ele>1923.2548828125</ele>
        <time>2011-04-16T10:15:54Z</time>
      </trkpt>
      <trkpt lat="42.77363" lon="1.41091">
        <ele>1923.7353515625</ele>
        <time>2011-04-16T10:16:00Z</time>
      </trkpt>
      <trkpt lat="42.7736" lon="1.41093">
        <ele>1924.2160644531</ele>
        <time>2011-04-16T10:16:06Z</time>
      </trkpt>
      <trkpt lat="42.77356" lon="1.41095">
        <ele>1925.1772460938</ele>
        <time>2011-04-16T10:16:14Z</time>
      </trkpt>
      <trkpt lat="42.77352" lon="1.41097">
        <ele>1926.6193847656</ele>
        <time>2011-04-16T10:16:21Z</time>
      </trkpt>
      <trkpt lat="42.77349" lon="1.41099">
        <ele>1927.1000976562</ele>
        <time>2011-04-16T10:16:26Z</time>
      </trkpt>
      <trkpt lat="42.77348" lon="1.411">
        <ele>1927.5805664062</ele>
        <time>2011-04-16T10:16:32Z</time>
      </trkpt>
      <trkpt lat="42.77344" lon="1.41104">
        <ele>1928.5419921875</ele>
        <time>2011-04-16T10:16:39Z</time>
      </trkpt>
      <trkpt lat="42.77342" lon="1.41108">
        <ele>1928.0612792969</ele>
        <time>2011-04-16T10:16:45Z</time>
      </trkpt>
      <trkpt lat="42.7734" lon="1.41113">
        <ele>1929.0224609375</ele>
        <time>2011-04-16T10:16:52Z</time>
      </trkpt>
      <trkpt lat="42.77336" lon="1.41118">
        <ele>1929.5031738281</ele>
        <time>2011-04-16T10:17:00Z</time>
      </trkpt>
      <trkpt lat="42.77332" lon="1.41121">
        <ele>1929.5031738281</ele>
        <time>2011-04-16T10:17:08Z</time>
      </trkpt>
      <trkpt lat="42.77329" lon="1.41122">
        <ele>1929.9838867188</ele>
        <time>2011-04-16T10:17:14Z</time>
      </trkpt>
      <trkpt lat="42.77323" lon="1.41125">
        <ele>1931.42578125</ele>
        <time>2011-04-16T10:17:22Z</time>
      </trkpt>
      <trkpt lat="42.77317" lon="1.41127">
        <ele>1932.3874511719</ele>
        <time>2011-04-16T10:17:30Z</time>
      </trkpt>
      <trkpt lat="42.77312" lon="1.41131">
        <ele>1932.3874511719</ele>
        <time>2011-04-16T10:17:38Z</time>
      </trkpt>
      <trkpt lat="42.77311" lon="1.41135">
        <ele>1931.9064941406</ele>
        <time>2011-04-16T10:17:43Z</time>
      </trkpt>
      <trkpt lat="42.77307" lon="1.41138">
        <ele>1931.9064941406</ele>
        <time>2011-04-16T10:17:49Z</time>
      </trkpt>
      <trkpt lat="42.77303" lon="1.41139">
        <ele>1933.3486328125</ele>
        <time>2011-04-16T10:17:56Z</time>
      </trkpt>
      <trkpt lat="42.773" lon="1.41142">
        <ele>1934.3100585938</ele>
        <time>2011-04-16T10:18:02Z</time>
      </trkpt>
      <trkpt lat="42.77296" lon="1.41145">
        <ele>1936.7131347656</ele>
        <time>2011-04-16T10:18:09Z</time>
      </trkpt>
      <trkpt lat="42.77291" lon="1.41146">
        <ele>1937.6745605469</ele>
        <time>2011-04-16T10:18:16Z</time>
      </trkpt>
      <trkpt lat="42.77287" lon="1.41148">
        <ele>1937.6745605469</ele>
        <time>2011-04-16T10:18:23Z</time>
      </trkpt>
      <trkpt lat="42.77283" lon="1.41149">
        <ele>1937.6745605469</ele>
        <time>2011-04-16T10:18:30Z</time>
      </trkpt>
      <trkpt lat="42.77278" lon="1.41152">
        <ele>1937.6745605469</ele>
        <time>2011-04-16T10:18:38Z</time>
      </trkpt>
      <trkpt lat="42.77273" lon="1.41156">
        <ele>1938.1552734375</ele>
        <time>2011-04-16T10:18:45Z</time>
      </trkpt>
      <trkpt lat="42.77268" lon="1.41161">
        <ele>1939.1164550781</ele>
        <time>2011-04-16T10:18:54Z</time>
      </trkpt>
      <trkpt lat="42.77266" lon="1.41162">
        <ele>1938.6359863281</ele>
        <time>2011-04-16T10:18:59Z</time>
      </trkpt>
      <trkpt lat="42.77265" lon="1.41165">
        <ele>1937.6745605469</ele>
        <time>2011-04-16T10:19:04Z</time>
      </trkpt>
      <trkpt lat="42.77263" lon="1.41167">
        <ele>1938.6359863281</ele>
        <time>2011-04-16T10:19:09Z</time>
      </trkpt>
      <trkpt lat="42.7726" lon="1.41173">
        <ele>1938.6359863281</ele>
        <time>2011-04-16T10:19:16Z</time>
      </trkpt>
      <trkpt lat="42.77259" lon="1.41174">
        <ele>1938.6359863281</ele>
        <time>2011-04-16T10:19:22Z</time>
      </trkpt>
      <trkpt lat="42.77255" lon="1.41175">
        <ele>1939.5971679688</ele>
        <time>2011-04-16T10:19:33Z</time>
      </trkpt>
      <trkpt lat="42.77254" lon="1.41175">
        <ele>1939.5971679688</ele>
        <time>2011-04-16T10:19:34Z</time>
      </trkpt>
      <trkpt lat="42.77246" lon="1.41176">
        <ele>1939.5971679688</ele>
        <time>2011-04-16T10:19:41Z</time>
      </trkpt>
      <trkpt lat="42.77242" lon="1.41179">
        <ele>1940.0778808594</ele>
        <time>2011-04-16T10:19:46Z</time>
      </trkpt>
      <trkpt lat="42.77238" lon="1.41184">
        <ele>1940.5583496094</ele>
        <time>2011-04-16T10:19:53Z</time>
      </trkpt>
      <trkpt lat="42.77237" lon="1.41182">
        <ele>1940.5583496094</ele>
        <time>2011-04-16T10:20:00Z</time>
      </trkpt>
      <trkpt lat="42.77233" lon="1.41179">
        <ele>1939.5971679688</ele>
        <time>2011-04-16T10:20:07Z</time>
      </trkpt>
      <trkpt lat="42.77231" lon="1.41179">
        <ele>1939.1164550781</ele>
        <time>2011-04-16T10:20:16Z</time>
      </trkpt>
      <trkpt lat="42.77228" lon="1.41179">
        <ele>1938.6359863281</ele>
        <time>2011-04-16T10:20:22Z</time>
      </trkpt>
      <trkpt lat="42.77222" lon="1.4118">
        <ele>1936.2326660156</ele>
        <time>2011-04-16T10:20:30Z</time>
      </trkpt>
      <trkpt lat="42.77216" lon="1.41181">
        <ele>1933.8293457031</ele>
        <time>2011-04-16T10:20:37Z</time>
      </trkpt>
      <trkpt lat="42.77211" lon="1.41185">
        <ele>1931.9064941406</ele>
        <time>2011-04-16T10:20:44Z</time>
      </trkpt>
      <trkpt lat="42.77207" lon="1.41184">
        <ele>1930.9453125</ele>
        <time>2011-04-16T10:20:50Z</time>
      </trkpt>
      <trkpt lat="42.77205" lon="1.41182">
        <ele>1930.4645996094</ele>
        <time>2011-04-16T10:20:56Z</time>
      </trkpt>
      <trkpt lat="42.77205" lon="1.4118">
        <ele>1929.9838867188</ele>
        <time>2011-04-16T10:21:02Z</time>
      </trkpt>
      <trkpt lat="42.77205" lon="1.41183">
        <ele>1930.9453125</ele>
        <time>2011-04-16T10:21:14Z</time>
      </trkpt>
      <trkpt lat="42.77202" lon="1.41186">
        <ele>1929.9838867188</ele>
        <time>2011-04-16T10:21:20Z</time>
      </trkpt>
      <trkpt lat="42.77198" lon="1.41189">
        <ele>1927.5805664062</ele>
        <time>2011-04-16T10:21:26Z</time>
      </trkpt>
      <trkpt lat="42.77196" lon="1.41188">
        <ele>1926.6193847656</ele>
        <time>2011-04-16T10:21:30Z</time>
      </trkpt>
      <trkpt lat="42.77193" lon="1.41191">
        <ele>1925.1772460938</ele>
        <time>2011-04-16T10:21:37Z</time>
      </trkpt>
      <trkpt lat="42.7719" lon="1.41193">
        <ele>1923.7353515625</ele>
        <time>2011-04-16T10:21:43Z</time>
      </trkpt>
      <trkpt lat="42.77182" lon="1.41197">
        <ele>1919.8901367188</ele>
        <time>2011-04-16T10:21:51Z</time>
      </trkpt>
      <trkpt lat="42.77177" lon="1.412">
        <ele>1917.9675292969</ele>
        <time>2011-04-16T10:21:55Z</time>
      </trkpt>
      <trkpt lat="42.77173" lon="1.41205">
        <ele>1915.5642089844</ele>
        <time>2011-04-16T10:22:03Z</time>
      </trkpt>
      <trkpt lat="42.77168" lon="1.41209">
        <ele>1912.6801757812</ele>
        <time>2011-04-16T10:22:09Z</time>
      </trkpt>
      <trkpt lat="42.77164" lon="1.41213">
        <ele>1911.23828125</ele>
        <time>2011-04-16T10:22:15Z</time>
      </trkpt>
      <trkpt lat="42.77163" lon="1.41214">
        <ele>1910.7575683594</ele>
        <time>2011-04-16T10:22:16Z</time>
      </trkpt>
      <trkpt lat="42.77154" lon="1.41218">
        <ele>1907.8737792969</ele>
        <time>2011-04-16T10:22:24Z</time>
      </trkpt>
      <trkpt lat="42.77153" lon="1.41219">
        <ele>1906.9123535156</ele>
        <time>2011-04-16T10:22:25Z</time>
      </trkpt>
      <trkpt lat="42.7715" lon="1.41218">
        <ele>1905.9509277344</ele>
        <time>2011-04-16T10:22:30Z</time>
      </trkpt>
      <trkpt lat="42.77148" lon="1.41217">
        <ele>1905.9509277344</ele>
        <time>2011-04-16T10:22:33Z</time>
      </trkpt>
      <trkpt lat="42.77143" lon="1.41212">
        <ele>1904.5090332031</ele>
        <time>2011-04-16T10:22:37Z</time>
      </trkpt>
      <trkpt lat="42.77135" lon="1.41211">
        <ele>1903.0671386719</ele>
        <time>2011-04-16T10:22:44Z</time>
      </trkpt>
      <trkpt lat="42.77132" lon="1.41208">
        <ele>1901.14453125</ele>
        <time>2011-04-16T10:22:51Z</time>
      </trkpt>
      <trkpt lat="42.77126" lon="1.4121">
        <ele>1899.7023925781</ele>
        <time>2011-04-16T10:22:58Z</time>
      </trkpt>
      <trkpt lat="42.77121" lon="1.41211">
        <ele>1898.7409667969</ele>
        <time>2011-04-16T10:23:04Z</time>
      </trkpt>
      <trkpt lat="42.77116" lon="1.4121">
        <ele>1898.2602539062</ele>
        <time>2011-04-16T10:23:11Z</time>
      </trkpt>
      <trkpt lat="42.77114" lon="1.4121">
        <ele>1898.2602539062</ele>
        <time>2011-04-16T10:23:13Z</time>
      </trkpt>
      <trkpt lat="42.77107" lon="1.41212">
        <ele>1897.2990722656</ele>
        <time>2011-04-16T10:23:20Z</time>
      </trkpt>
      <trkpt lat="42.77103" lon="1.41215">
        <ele>1896.818359375</ele>
        <time>2011-04-16T10:23:27Z</time>
      </trkpt>
      <trkpt lat="42.77102" lon="1.41217">
        <ele>1895.8571777344</ele>
        <time>2011-04-16T10:23:34Z</time>
      </trkpt>
      <trkpt lat="42.771" lon="1.41219">
        <ele>1895.8571777344</ele>
        <time>2011-04-16T10:23:42Z</time>
      </trkpt>
      <trkpt lat="42.77099" lon="1.41219">
        <ele>1895.8571777344</ele>
        <time>2011-04-16T10:23:55Z</time>
      </trkpt>
      <trkpt lat="42.77097" lon="1.4122">
        <ele>1895.3764648438</ele>
        <time>2011-04-16T10:24:03Z</time>
      </trkpt>
      <trkpt lat="42.77092" lon="1.41225">
        <ele>1893.4538574219</ele>
        <time>2011-04-16T10:24:10Z</time>
      </trkpt>
      <trkpt lat="42.77088" lon="1.41228">
        <ele>1892.0119628906</ele>
        <time>2011-04-16T10:24:16Z</time>
      </trkpt>
      <trkpt lat="42.77085" lon="1.41229">
        <ele>1890.5698242188</ele>
        <time>2011-04-16T10:24:21Z</time>
      </trkpt>
      <trkpt lat="42.77083" lon="1.4123">
        <ele>1889.6086425781</ele>
        <time>2011-04-16T10:24:27Z</time>
      </trkpt>
      <trkpt lat="42.7708" lon="1.41233">
        <ele>1887.6860351562</ele>
        <time>2011-04-16T10:24:33Z</time>
      </trkpt>
      <trkpt lat="42.7708" lon="1.41238">
        <ele>1887.2053222656</ele>
        <time>2011-04-16T10:24:39Z</time>
      </trkpt>
      <trkpt lat="42.7708" lon="1.41242">
        <ele>1886.244140625</ele>
        <time>2011-04-16T10:24:45Z</time>
      </trkpt>
      <trkpt lat="42.77081" lon="1.41247">
        <ele>1884.8022460938</ele>
        <time>2011-04-16T10:24:50Z</time>
      </trkpt>
      <trkpt lat="42.77081" lon="1.41247">
        <ele>1883.8405761719</ele>
        <time>2011-04-16T10:24:58Z</time>
      </trkpt>
      <trkpt lat="42.77079" lon="1.41252">
        <ele>1881.91796875</ele>
        <time>2011-04-16T10:25:06Z</time>
      </trkpt>
      <trkpt lat="42.77076" lon="1.41255">
        <ele>1879.9953613281</ele>
        <time>2011-04-16T10:25:12Z</time>
      </trkpt>
      <trkpt lat="42.77074" lon="1.41256">
        <ele>1878.0727539062</ele>
        <time>2011-04-16T10:25:18Z</time>
      </trkpt>
      <trkpt lat="42.77073" lon="1.41259">
        <ele>1877.1115722656</ele>
        <time>2011-04-16T10:25:24Z</time>
      </trkpt>
      <trkpt lat="42.77073" lon="1.41263">
        <ele>1876.630859375</ele>
        <time>2011-04-16T10:25:29Z</time>
      </trkpt>
      <trkpt lat="42.77073" lon="1.41267">
        <ele>1875.6694335938</ele>
        <time>2011-04-16T10:25:34Z</time>
      </trkpt>
      <trkpt lat="42.7707" lon="1.41273">
        <ele>1873.2663574219</ele>
        <time>2011-04-16T10:25:42Z</time>
      </trkpt>
      <trkpt lat="42.77067" lon="1.41272">
        <ele>1871.82421875</ele>
        <time>2011-04-16T10:25:48Z</time>
      </trkpt>
      <trkpt lat="42.77064" lon="1.41269">
        <ele>1869.9016113281</ele>
        <time>2011-04-16T10:25:55Z</time>
      </trkpt>
      <trkpt lat="42.77062" lon="1.41269">
        <ele>1868.4597167969</ele>
        <time>2011-04-16T10:26:01Z</time>
      </trkpt>
      <trkpt lat="42.77059" lon="1.41269">
        <ele>1867.498046875</ele>
        <time>2011-04-16T10:26:06Z</time>
      </trkpt>
      <trkpt lat="42.77053" lon="1.41265">
        <ele>1865.0949707031</ele>
        <time>2011-04-16T10:26:13Z</time>
      </trkpt>
      <trkpt lat="42.77049" lon="1.41262">
        <ele>1864.1335449219</ele>
        <time>2011-04-16T10:26:17Z</time>
      </trkpt>
      <trkpt lat="42.77046" lon="1.41257">
        <ele>1862.2109375</ele>
        <time>2011-04-16T10:26:22Z</time>
      </trkpt>
      <trkpt lat="42.77047" lon="1.41249">
        <ele>1861.2497558594</ele>
        <time>2011-04-16T10:26:29Z</time>
      </trkpt>
      <trkpt lat="42.77047" lon="1.41245">
        <ele>1859.8076171875</ele>
        <time>2011-04-16T10:26:34Z</time>
      </trkpt>
      <trkpt lat="42.77045" lon="1.41241">
        <ele>1858.3657226562</ele>
        <time>2011-04-16T10:26:40Z</time>
      </trkpt>
      <trkpt lat="42.77042" lon="1.41238">
        <ele>1856.923828125</ele>
        <time>2011-04-16T10:26:46Z</time>
      </trkpt>
      <trkpt lat="42.77039" lon="1.41235">
        <ele>1855.4819335938</ele>
        <time>2011-04-16T10:26:51Z</time>
      </trkpt>
      <trkpt lat="42.77036" lon="1.41232">
        <ele>1854.5205078125</ele>
        <time>2011-04-16T10:26:56Z</time>
      </trkpt>
      <trkpt lat="42.77035" lon="1.41234">
        <ele>1854.0400390625</ele>
        <time>2011-04-16T10:27:01Z</time>
      </trkpt>
      <trkpt lat="42.77035" lon="1.41235">
        <ele>1854.5205078125</ele>
        <time>2011-04-16T10:27:10Z</time>
      </trkpt>
      <trkpt lat="42.77033" lon="1.41233">
        <ele>1854.5205078125</ele>
        <time>2011-04-16T10:27:23Z</time>
      </trkpt>
      <trkpt lat="42.77028" lon="1.41229">
        <ele>1854.0400390625</ele>
        <time>2011-04-16T10:27:30Z</time>
      </trkpt>
      <trkpt lat="42.77028" lon="1.41224">
        <ele>1852.5979003906</ele>
        <time>2011-04-16T10:27:35Z</time>
      </trkpt>
      <trkpt lat="42.77029" lon="1.41217">
        <ele>1851.6364746094</ele>
        <time>2011-04-16T10:27:41Z</time>
      </trkpt>
      <trkpt lat="42.77027" lon="1.41216">
        <ele>1850.6750488281</ele>
        <time>2011-04-16T10:27:46Z</time>
      </trkpt>
      <trkpt lat="42.77024" lon="1.41216">
        <ele>1849.2331542969</ele>
        <time>2011-04-16T10:27:52Z</time>
      </trkpt>
      <trkpt lat="42.77022" lon="1.4122">
        <ele>1847.310546875</ele>
        <time>2011-04-16T10:27:58Z</time>
      </trkpt>
      <trkpt lat="42.77018" lon="1.41223">
        <ele>1844.9072265625</ele>
        <time>2011-04-16T10:28:04Z</time>
      </trkpt>
      <trkpt lat="42.77016" lon="1.41223">
        <ele>1843.9460449219</ele>
        <time>2011-04-16T10:28:09Z</time>
      </trkpt>
      <trkpt lat="42.77013" lon="1.41226">
        <ele>1842.0234375</ele>
        <time>2011-04-16T10:28:15Z</time>
      </trkpt>
      <trkpt lat="42.7701" lon="1.41224">
        <ele>1840.5812988281</ele>
        <time>2011-04-16T10:28:21Z</time>
      </trkpt>
      <trkpt lat="42.77008" lon="1.4122">
        <ele>1839.6201171875</ele>
        <time>2011-04-16T10:28:27Z</time>
      </trkpt>
      <trkpt lat="42.77005" lon="1.41218">
        <ele>1838.6589355469</ele>
        <time>2011-04-16T10:28:33Z</time>
      </trkpt>
      <trkpt lat="42.77002" lon="1.41216">
        <ele>1836.7360839844</ele>
        <time>2011-04-16T10:28:38Z</time>
      </trkpt>
      <trkpt lat="42.77" lon="1.41212">
        <ele>1835.2939453125</ele>
        <time>2011-04-16T10:28:44Z</time>
      </trkpt>
      <trkpt lat="42.76999" lon="1.4121">
        <ele>1833.8520507812</ele>
        <time>2011-04-16T10:28:49Z</time>
      </trkpt>
      <trkpt lat="42.76996" lon="1.41211">
        <ele>1832.41015625</ele>
        <time>2011-04-16T10:28:54Z</time>
      </trkpt>
      <trkpt lat="42.76994" lon="1.41211">
        <ele>1831.4487304688</ele>
        <time>2011-04-16T10:29:00Z</time>
      </trkpt>
      <trkpt lat="42.76991" lon="1.41212">
        <ele>1830.4875488281</ele>
        <time>2011-04-16T10:29:09Z</time>
      </trkpt>
      <trkpt lat="42.76991" lon="1.41213">
        <ele>1831.4487304688</ele>
        <time>2011-04-16T10:29:18Z</time>
      </trkpt>
      <trkpt lat="42.76988" lon="1.41216">
        <ele>1830.0068359375</ele>
        <time>2011-04-16T10:29:24Z</time>
      </trkpt>
      <trkpt lat="42.76987" lon="1.41223">
        <ele>1828.5649414062</ele>
        <time>2011-04-16T10:29:30Z</time>
      </trkpt>
      <trkpt lat="42.76987" lon="1.41226">
        <ele>1827.123046875</ele>
        <time>2011-04-16T10:29:35Z</time>
      </trkpt>
      <trkpt lat="42.76985" lon="1.4123">
        <ele>1825.2001953125</ele>
        <time>2011-04-16T10:29:42Z</time>
      </trkpt>
      <trkpt lat="42.76982" lon="1.41235">
        <ele>1823.2778320312</ele>
        <time>2011-04-16T10:29:48Z</time>
      </trkpt>
      <trkpt lat="42.76981" lon="1.4124">
        <ele>1821.3549804688</ele>
        <time>2011-04-16T10:29:54Z</time>
      </trkpt>
      <trkpt lat="42.7698" lon="1.41246">
        <ele>1820.8745117188</ele>
        <time>2011-04-16T10:30:00Z</time>
      </trkpt>
      <trkpt lat="42.76978" lon="1.41249">
        <ele>1818.9516601562</ele>
        <time>2011-04-16T10:30:06Z</time>
      </trkpt>
      <trkpt lat="42.76975" lon="1.41253">
        <ele>1817.0290527344</ele>
        <time>2011-04-16T10:30:13Z</time>
      </trkpt>
      <trkpt lat="42.76972" lon="1.41254">
        <ele>1815.1064453125</ele>
        <time>2011-04-16T10:30:19Z</time>
      </trkpt>
      <trkpt lat="42.76968" lon="1.41259">
        <ele>1812.2224121094</ele>
        <time>2011-04-16T10:30:28Z</time>
      </trkpt>
      <trkpt lat="42.76964" lon="1.41266">
        <ele>1810.2998046875</ele>
        <time>2011-04-16T10:30:34Z</time>
      </trkpt>
      <trkpt lat="42.76963" lon="1.41271">
        <ele>1809.3386230469</ele>
        <time>2011-04-16T10:30:38Z</time>
      </trkpt>
      <trkpt lat="42.7696" lon="1.41279">
        <ele>1808.3771972656</ele>
        <time>2011-04-16T10:30:46Z</time>
      </trkpt>
      <trkpt lat="42.7696" lon="1.41286">
        <ele>1807.416015625</ele>
        <time>2011-04-16T10:30:51Z</time>
      </trkpt>
      <trkpt lat="42.76959" lon="1.41291">
        <ele>1806.4545898438</ele>
        <time>2011-04-16T10:30:57Z</time>
      </trkpt>
      <trkpt lat="42.76957" lon="1.41298">
        <ele>1804.0515136719</ele>
        <time>2011-04-16T10:31:05Z</time>
      </trkpt>
      <trkpt lat="42.76957" lon="1.41302">
        <ele>1803.08984375</ele>
        <time>2011-04-16T10:31:11Z</time>
      </trkpt>
      <trkpt lat="42.76955" lon="1.41307">
        <ele>1801.6479492188</ele>
        <time>2011-04-16T10:31:17Z</time>
      </trkpt>
      <trkpt lat="42.76954" lon="1.41309">
        <ele>1800.6865234375</ele>
        <time>2011-04-16T10:31:20Z</time>
      </trkpt>
      <trkpt lat="42.76951" lon="1.41319">
        <ele>1797.3220214844</ele>
        <time>2011-04-16T10:31:28Z</time>
      </trkpt>
      <trkpt lat="42.7695" lon="1.41323">
        <ele>1795.8801269531</ele>
        <time>2011-04-16T10:31:33Z</time>
      </trkpt>
      <trkpt lat="42.76947" lon="1.41327">
        <ele>1794.4379882812</ele>
        <time>2011-04-16T10:31:38Z</time>
      </trkpt>
      <trkpt lat="42.76948" lon="1.41333">
        <ele>1793.4768066406</ele>
        <time>2011-04-16T10:31:43Z</time>
      </trkpt>
      <trkpt lat="42.76947" lon="1.41335">
        <ele>1792.515625</ele>
        <time>2011-04-16T10:31:48Z</time>
      </trkpt>
      <trkpt lat="42.76946" lon="1.41338">
        <ele>1791.0734863281</ele>
        <time>2011-04-16T10:31:53Z</time>
      </trkpt>
      <trkpt lat="42.76946" lon="1.41342">
        <ele>1790.1123046875</ele>
        <time>2011-04-16T10:31:59Z</time>
      </trkpt>
      <trkpt lat="42.76944" lon="1.41347">
        <ele>1788.6704101562</ele>
        <time>2011-04-16T10:32:05Z</time>
      </trkpt>
      <trkpt lat="42.76942" lon="1.41349">
        <ele>1787.7087402344</ele>
        <time>2011-04-16T10:32:11Z</time>
      </trkpt>
      <trkpt lat="42.76942" lon="1.41353">
        <ele>1786.2668457031</ele>
        <time>2011-04-16T10:32:18Z</time>
      </trkpt>
      <trkpt lat="42.76941" lon="1.41356">
        <ele>1784.3442382812</ele>
        <time>2011-04-16T10:32:23Z</time>
      </trkpt>
      <trkpt lat="42.76938" lon="1.41359">
        <ele>1783.3828125</ele>
        <time>2011-04-16T10:32:29Z</time>
      </trkpt>
      <trkpt lat="42.76935" lon="1.41359">
        <ele>1781.9409179688</ele>
        <time>2011-04-16T10:32:33Z</time>
      </trkpt>
      <trkpt lat="42.76933" lon="1.41367">
        <ele>1780.4990234375</ele>
        <time>2011-04-16T10:32:39Z</time>
      </trkpt>
      <trkpt lat="42.76933" lon="1.41373">
        <ele>1780.0183105469</ele>
        <time>2011-04-16T10:32:45Z</time>
      </trkpt>
      <trkpt lat="42.76933" lon="1.41378">
        <ele>1778.5764160156</ele>
        <time>2011-04-16T10:32:51Z</time>
      </trkpt>
      <trkpt lat="42.7693" lon="1.4138">
        <ele>1777.1345214844</ele>
        <time>2011-04-16T10:32:57Z</time>
      </trkpt>
      <trkpt lat="42.76929" lon="1.41387">
        <ele>1775.2116699219</ele>
        <time>2011-04-16T10:33:03Z</time>
      </trkpt>
      <trkpt lat="42.76929" lon="1.41392">
        <ele>1774.2504882812</ele>
        <time>2011-04-16T10:33:08Z</time>
      </trkpt>
      <trkpt lat="42.7693" lon="1.41396">
        <ele>1773.7697753906</ele>
        <time>2011-04-16T10:33:14Z</time>
      </trkpt>
      <trkpt lat="42.76926" lon="1.41396">
        <ele>1771.8469238281</ele>
        <time>2011-04-16T10:33:20Z</time>
      </trkpt>
      <trkpt lat="42.76925" lon="1.41396">
        <ele>1771.8469238281</ele>
        <time>2011-04-16T10:33:26Z</time>
      </trkpt>
      <trkpt lat="42.76923" lon="1.41395">
        <ele>1771.8469238281</ele>
        <time>2011-04-16T10:33:30Z</time>
      </trkpt>
      <trkpt lat="42.7692" lon="1.41396">
        <ele>1770.4050292969</ele>
        <time>2011-04-16T10:33:37Z</time>
      </trkpt>
      <trkpt lat="42.76919" lon="1.414">
        <ele>1769.4438476562</ele>
        <time>2011-04-16T10:33:42Z</time>
      </trkpt>
      <trkpt lat="42.76916" lon="1.414">
        <ele>1767.5209960938</ele>
        <time>2011-04-16T10:33:48Z</time>
      </trkpt>
      <trkpt lat="42.76916" lon="1.41408">
        <ele>1765.5986328125</ele>
        <time>2011-04-16T10:33:55Z</time>
      </trkpt>
      <trkpt lat="42.76915" lon="1.4141">
        <ele>1764.6372070312</ele>
        <time>2011-04-16T10:34:01Z</time>
      </trkpt>
      <trkpt lat="42.76914" lon="1.41409">
        <ele>1764.6372070312</ele>
        <time>2011-04-16T10:34:03Z</time>
      </trkpt>
      <trkpt lat="42.76911" lon="1.41404">
        <ele>1764.1564941406</ele>
        <time>2011-04-16T10:34:09Z</time>
      </trkpt>
      <trkpt lat="42.76908" lon="1.41401">
        <ele>1763.1953125</ele>
        <time>2011-04-16T10:34:14Z</time>
      </trkpt>
      <trkpt lat="42.76907" lon="1.41401">
        <ele>1762.7145996094</ele>
        <time>2011-04-16T10:34:18Z</time>
      </trkpt>
      <trkpt lat="42.76905" lon="1.41404">
        <ele>1761.2727050781</ele>
        <time>2011-04-16T10:34:23Z</time>
      </trkpt>
      <trkpt lat="42.76902" lon="1.41404">
        <ele>1759.3500976562</ele>
        <time>2011-04-16T10:34:29Z</time>
      </trkpt>
      <trkpt lat="42.76899" lon="1.41403">
        <ele>1758.388671875</ele>
        <time>2011-04-16T10:34:34Z</time>
      </trkpt>
      <trkpt lat="42.76897" lon="1.41401">
        <ele>1756.4660644531</ele>
        <time>2011-04-16T10:34:40Z</time>
      </trkpt>
      <trkpt lat="42.76893" lon="1.41401">
        <ele>1755.0239257812</ele>
        <time>2011-04-16T10:34:46Z</time>
      </trkpt>
      <trkpt lat="42.76888" lon="1.41402">
        <ele>1752.1398925781</ele>
        <time>2011-04-16T10:34:52Z</time>
      </trkpt>
      <trkpt lat="42.76883" lon="1.41402">
        <ele>1750.6979980469</ele>
        <time>2011-04-16T10:34:56Z</time>
      </trkpt>
      <trkpt lat="42.76881" lon="1.41402">
        <ele>1750.2175292969</ele>
        <time>2011-04-16T10:34:58Z</time>
      </trkpt>
      <trkpt lat="42.76881" lon="1.41397">
        <ele>1749.7368164062</ele>
        <time>2011-04-16T10:35:05Z</time>
      </trkpt>
      <trkpt lat="42.7688" lon="1.41396">
        <ele>1749.2561035156</ele>
        <time>2011-04-16T10:35:10Z</time>
      </trkpt>
      <trkpt lat="42.76878" lon="1.41394">
        <ele>1747.8142089844</ele>
        <time>2011-04-16T10:35:14Z</time>
      </trkpt>
      <trkpt lat="42.76875" lon="1.41391">
        <ele>1744.9301757812</ele>
        <time>2011-04-16T10:35:19Z</time>
      </trkpt>
      <trkpt lat="42.7687" lon="1.41389">
        <ele>1741.0849609375</ele>
        <time>2011-04-16T10:35:26Z</time>
      </trkpt>
      <trkpt lat="42.76867" lon="1.41389">
        <ele>1740.1237792969</ele>
        <time>2011-04-16T10:35:31Z</time>
      </trkpt>
      <trkpt lat="42.76863" lon="1.41394">
        <ele>1737.7202148438</ele>
        <time>2011-04-16T10:35:38Z</time>
      </trkpt>
      <trkpt lat="42.7686" lon="1.41396">
        <ele>1735.7976074219</ele>
        <time>2011-04-16T10:35:43Z</time>
      </trkpt>
      <trkpt lat="42.76856" lon="1.414">
        <ele>1732.4331054688</ele>
        <time>2011-04-16T10:35:51Z</time>
      </trkpt>
      <trkpt lat="42.76854" lon="1.41401">
        <ele>1730.5104980469</ele>
        <time>2011-04-16T10:35:56Z</time>
      </trkpt>
      <trkpt lat="42.76851" lon="1.41402">
        <ele>1729.068359375</ele>
        <time>2011-04-16T10:36:00Z</time>
      </trkpt>
      <trkpt lat="42.76846" lon="1.41405">
        <ele>1726.6652832031</ele>
        <time>2011-04-16T10:36:07Z</time>
      </trkpt>
      <trkpt lat="42.76843" lon="1.41411">
        <ele>1725.2231445312</ele>
        <time>2011-04-16T10:36:13Z</time>
      </trkpt>
      <trkpt lat="42.76836" lon="1.41415">
        <ele>1722.8198242188</ele>
        <time>2011-04-16T10:36:20Z</time>
      </trkpt>
      <trkpt lat="42.76835" lon="1.41417">
        <ele>1721.3776855469</ele>
        <time>2011-04-16T10:36:22Z</time>
      </trkpt>
      <trkpt lat="42.76829" lon="1.41425">
        <ele>1718.4938964844</ele>
        <time>2011-04-16T10:36:29Z</time>
      </trkpt>
      <trkpt lat="42.76828" lon="1.41428">
        <ele>1717.5324707031</ele>
        <time>2011-04-16T10:36:31Z</time>
      </trkpt>
      <trkpt lat="42.76822" lon="1.41435">
        <ele>1716.0905761719</ele>
        <time>2011-04-16T10:36:38Z</time>
      </trkpt>
      <trkpt lat="42.76819" lon="1.41436">
        <ele>1714.6486816406</ele>
        <time>2011-04-16T10:36:43Z</time>
      </trkpt>
      <trkpt lat="42.76816" lon="1.41439">
        <ele>1713.6872558594</ele>
        <time>2011-04-16T10:36:49Z</time>
      </trkpt>
      <trkpt lat="42.76814" lon="1.41444">
        <ele>1712.7260742188</ele>
        <time>2011-04-16T10:36:54Z</time>
      </trkpt>
      <trkpt lat="42.7681" lon="1.41449">
        <ele>1711.2841796875</ele>
        <time>2011-04-16T10:36:58Z</time>
      </trkpt>
      <trkpt lat="42.76806" lon="1.41455">
        <ele>1709.3615722656</ele>
        <time>2011-04-16T10:37:04Z</time>
      </trkpt>
      <trkpt lat="42.76802" lon="1.4146">
        <ele>1707.4387207031</ele>
        <time>2011-04-16T10:37:10Z</time>
      </trkpt>
      <trkpt lat="42.76799" lon="1.41459">
        <ele>1705.9965820312</ele>
        <time>2011-04-16T10:37:16Z</time>
      </trkpt>
      <trkpt lat="42.76795" lon="1.41463">
        <ele>1704.07421875</ele>
        <time>2011-04-16T10:37:23Z</time>
      </trkpt>
      <trkpt lat="42.76793" lon="1.41464">
        <ele>1703.1127929688</ele>
        <time>2011-04-16T10:37:28Z</time>
      </trkpt>
      <trkpt lat="42.76791" lon="1.41462">
        <ele>1702.6320800781</ele>
        <time>2011-04-16T10:37:32Z</time>
      </trkpt>
      <trkpt lat="42.76788" lon="1.41463">
        <ele>1701.6708984375</ele>
        <time>2011-04-16T10:37:38Z</time>
      </trkpt>
      <trkpt lat="42.76783" lon="1.41463">
        <ele>1700.2290039062</ele>
        <time>2011-04-16T10:37:43Z</time>
      </trkpt>
      <trkpt lat="42.7678" lon="1.4146">
        <ele>1699.7482910156</ele>
        <time>2011-04-16T10:37:48Z</time>
      </trkpt>
      <trkpt lat="42.76777" lon="1.41455">
        <ele>1699.267578125</ele>
        <time>2011-04-16T10:37:53Z</time>
      </trkpt>
      <trkpt lat="42.76771" lon="1.41452">
        <ele>1697.8256835938</ele>
        <time>2011-04-16T10:38:00Z</time>
      </trkpt>
      <trkpt lat="42.76769" lon="1.41453">
        <ele>1695.9030761719</ele>
        <time>2011-04-16T10:38:04Z</time>
      </trkpt>
      <trkpt lat="42.76772" lon="1.41462">
        <ele>1693.98046875</ele>
        <time>2011-04-16T10:38:10Z</time>
      </trkpt>
      <trkpt lat="42.76768" lon="1.41464">
        <ele>1692.5385742188</ele>
        <time>2011-04-16T10:38:15Z</time>
      </trkpt>
      <trkpt lat="42.76763" lon="1.41464">
        <ele>1690.1350097656</ele>
        <time>2011-04-16T10:38:21Z</time>
      </trkpt>
      <trkpt lat="42.76758" lon="1.41461">
        <ele>1688.6931152344</ele>
        <time>2011-04-16T10:38:26Z</time>
      </trkpt>
      <trkpt lat="42.76756" lon="1.41461">
        <ele>1688.6931152344</ele>
        <time>2011-04-16T10:38:28Z</time>
      </trkpt>
      <trkpt lat="42.76751" lon="1.41457">
        <ele>1688.2124023438</ele>
        <time>2011-04-16T10:38:34Z</time>
      </trkpt>
      <trkpt lat="42.76749" lon="1.41457">
        <ele>1688.2124023438</ele>
        <time>2011-04-16T10:38:36Z</time>
      </trkpt>
      <trkpt lat="42.76743" lon="1.41455">
        <ele>1687.7316894531</ele>
        <time>2011-04-16T10:38:42Z</time>
      </trkpt>
      <trkpt lat="42.76736" lon="1.41459">
        <ele>1686.7702636719</ele>
        <time>2011-04-16T10:38:48Z</time>
      </trkpt>
      <trkpt lat="42.76733" lon="1.41454">
        <ele>1684.3671875</ele>
        <time>2011-04-16T10:38:55Z</time>
      </trkpt>
      <trkpt lat="42.76731" lon="1.41456">
        <ele>1682.9250488281</ele>
        <time>2011-04-16T10:39:00Z</time>
      </trkpt>
      <trkpt lat="42.76727" lon="1.41458">
        <ele>1681.4831542969</ele>
        <time>2011-04-16T10:39:05Z</time>
      </trkpt>
      <trkpt lat="42.76722" lon="1.41458">
        <ele>1679.560546875</ele>
        <time>2011-04-16T10:39:10Z</time>
      </trkpt>
      <trkpt lat="42.7672" lon="1.41456">
        <ele>1678.5993652344</ele>
        <time>2011-04-16T10:39:12Z</time>
      </trkpt>
      <trkpt lat="42.76712" lon="1.41449">
        <ele>1677.6379394531</ele>
        <time>2011-04-16T10:39:19Z</time>
      </trkpt>
      <trkpt lat="42.76708" lon="1.41446">
        <ele>1676.6767578125</ele>
        <time>2011-04-16T10:39:23Z</time>
      </trkpt>
      <trkpt lat="42.76707" lon="1.41447">
        <ele>1675.7150878906</ele>
        <time>2011-04-16T10:39:25Z</time>
      </trkpt>
      <trkpt lat="42.76702" lon="1.41451">
        <ele>1672.8312988281</ele>
        <time>2011-04-16T10:39:31Z</time>
      </trkpt>
      <trkpt lat="42.76697" lon="1.4145">
        <ele>1671.8698730469</ele>
        <time>2011-04-16T10:39:36Z</time>
      </trkpt>
      <trkpt lat="42.76688" lon="1.41456">
        <ele>1668.9860839844</ele>
        <time>2011-04-16T10:39:42Z</time>
      </trkpt>
      <trkpt lat="42.7668" lon="1.41459">
        <ele>1668.9860839844</ele>
        <time>2011-04-16T10:39:46Z</time>
      </trkpt>
      <trkpt lat="42.76679" lon="1.4146">
        <ele>1669.466796875</ele>
        <time>2011-04-16T10:39:47Z</time>
      </trkpt>
      <trkpt lat="42.76673" lon="1.41462">
        <ele>1669.947265625</ele>
        <time>2011-04-16T10:39:53Z</time>
      </trkpt>
      <trkpt lat="42.7667" lon="1.41462">
        <ele>1669.947265625</ele>
        <time>2011-04-16T10:39:55Z</time>
      </trkpt>
      <trkpt lat="42.76665" lon="1.41472">
        <ele>1669.466796875</ele>
        <time>2011-04-16T10:40:02Z</time>
      </trkpt>
      <trkpt lat="42.76661" lon="1.41478">
        <ele>1668.9860839844</ele>
        <time>2011-04-16T10:40:07Z</time>
      </trkpt>
      <trkpt lat="42.76658" lon="1.41484">
        <ele>1668.0246582031</ele>
        <time>2011-04-16T10:40:13Z</time>
      </trkpt>
      <trkpt lat="42.76657" lon="1.41487">
        <ele>1667.5439453125</ele>
        <time>2011-04-16T10:40:18Z</time>
      </trkpt>
      <trkpt lat="42.76658" lon="1.41494">
        <ele>1666.5827636719</ele>
        <time>2011-04-16T10:40:24Z</time>
      </trkpt>
      <trkpt lat="42.76659" lon="1.41499">
        <ele>1666.1020507812</ele>
        <time>2011-04-16T10:40:27Z</time>
      </trkpt>
      <trkpt lat="42.76655" lon="1.41511">
        <ele>1666.1020507812</ele>
        <time>2011-04-16T10:40:35Z</time>
      </trkpt>
      <trkpt lat="42.76651" lon="1.41521">
        <ele>1666.1020507812</ele>
        <time>2011-04-16T10:40:41Z</time>
      </trkpt>
      <trkpt lat="42.76645" lon="1.41534">
        <ele>1665.6215820312</ele>
        <time>2011-04-16T10:40:45Z</time>
      </trkpt>
      <trkpt lat="42.7664" lon="1.41554">
        <ele>1665.6215820312</ele>
        <time>2011-04-16T10:40:51Z</time>
      </trkpt>
      <trkpt lat="42.76639" lon="1.41556">
        <ele>1665.6215820312</ele>
        <time>2011-04-16T10:40:52Z</time>
      </trkpt>
      <trkpt lat="42.76643" lon="1.41558">
        <ele>1664.1794433594</ele>
        <time>2011-04-16T10:40:58Z</time>
      </trkpt>
      <trkpt lat="42.76643" lon="1.41557">
        <ele>1663.6987304688</ele>
        <time>2011-04-16T10:41:05Z</time>
      </trkpt>
      <trkpt lat="42.76639" lon="1.41558">
        <ele>1663.2182617188</ele>
        <time>2011-04-16T10:41:13Z</time>
      </trkpt>
      <trkpt lat="42.76637" lon="1.41562">
        <ele>1661.7763671875</ele>
        <time>2011-04-16T10:41:19Z</time>
      </trkpt>
      <trkpt lat="42.76637" lon="1.41566">
        <ele>1662.7375488281</ele>
        <time>2011-04-16T10:41:21Z</time>
      </trkpt>
      <trkpt lat="42.76634" lon="1.41575">
        <ele>1662.7375488281</ele>
        <time>2011-04-16T10:41:27Z</time>
      </trkpt>
      <trkpt lat="42.76635" lon="1.41577">
        <ele>1663.2182617188</ele>
        <time>2011-04-16T10:41:28Z</time>
      </trkpt>
      <trkpt lat="42.76635" lon="1.41591">
        <ele>1665.6215820312</ele>
        <time>2011-04-16T10:41:36Z</time>
      </trkpt>
      <trkpt lat="42.76635" lon="1.41592">
        <ele>1665.6215820312</ele>
        <time>2011-04-16T10:41:37Z</time>
      </trkpt>
      <trkpt lat="42.76634" lon="1.41602">
        <ele>1666.1020507812</ele>
        <time>2011-04-16T10:41:42Z</time>
      </trkpt>
      <trkpt lat="42.7663" lon="1.41611">
        <ele>1665.6215820312</ele>
        <time>2011-04-16T10:41:48Z</time>
      </trkpt>
      <trkpt lat="42.76628" lon="1.41617">
        <ele>1667.5439453125</ele>
        <time>2011-04-16T10:41:52Z</time>
      </trkpt>
      <trkpt lat="42.76622" lon="1.41627">
        <ele>1667.5439453125</ele>
        <time>2011-04-16T10:42:01Z</time>
      </trkpt>
      <trkpt lat="42.76617" lon="1.41638">
        <ele>1667.5439453125</ele>
        <time>2011-04-16T10:42:08Z</time>
      </trkpt>
      <trkpt lat="42.76613" lon="1.41649">
        <ele>1668.5053710938</ele>
        <time>2011-04-16T10:42:15Z</time>
      </trkpt>
      <trkpt lat="42.76611" lon="1.41655">
        <ele>1668.9860839844</ele>
        <time>2011-04-16T10:42:20Z</time>
      </trkpt>
      <trkpt lat="42.76608" lon="1.41657">
        <ele>1668.9860839844</ele>
        <time>2011-04-16T10:42:24Z</time>
      </trkpt>
      <trkpt lat="42.766" lon="1.41662">
        <ele>1668.9860839844</ele>
        <time>2011-04-16T10:42:31Z</time>
      </trkpt>
      <trkpt lat="42.76596" lon="1.41669">
        <ele>1667.0634765625</ele>
        <time>2011-04-16T10:42:36Z</time>
      </trkpt>
      <trkpt lat="42.76591" lon="1.41679">
        <ele>1666.1020507812</ele>
        <time>2011-04-16T10:42:41Z</time>
      </trkpt>
      <trkpt lat="42.76592" lon="1.41688">
        <ele>1664.66015625</ele>
        <time>2011-04-16T10:42:46Z</time>
      </trkpt>
      <trkpt lat="42.76594" lon="1.41699">
        <ele>1665.6215820312</ele>
        <time>2011-04-16T10:42:52Z</time>
      </trkpt>
      <trkpt lat="42.76596" lon="1.41704">
        <ele>1665.1408691406</ele>
        <time>2011-04-16T10:42:55Z</time>
      </trkpt>
      <trkpt lat="42.76599" lon="1.41709">
        <ele>1664.66015625</ele>
        <time>2011-04-16T10:42:59Z</time>
      </trkpt>
      <trkpt lat="42.766" lon="1.4171">
        <ele>1664.66015625</ele>
        <time>2011-04-16T10:43:00Z</time>
      </trkpt>
      <trkpt lat="42.76603" lon="1.41713">
        <ele>1665.1408691406</ele>
        <time>2011-04-16T10:43:04Z</time>
      </trkpt>
      <trkpt lat="42.76608" lon="1.41724">
        <ele>1666.1020507812</ele>
        <time>2011-04-16T10:43:11Z</time>
      </trkpt>
      <trkpt lat="42.76612" lon="1.41732">
        <ele>1666.5827636719</ele>
        <time>2011-04-16T10:43:17Z</time>
      </trkpt>
      <trkpt lat="42.76614" lon="1.41735">
        <ele>1667.0634765625</ele>
        <time>2011-04-16T10:43:20Z</time>
      </trkpt>
      <trkpt lat="42.7662" lon="1.41743">
        <ele>1668.0246582031</ele>
        <time>2011-04-16T10:43:27Z</time>
      </trkpt>
      <trkpt lat="42.7662" lon="1.41745">
        <ele>1668.0246582031</ele>
        <time>2011-04-16T10:43:28Z</time>
      </trkpt>
      <trkpt lat="42.76624" lon="1.41752">
        <ele>1668.0246582031</ele>
        <time>2011-04-16T10:43:33Z</time>
      </trkpt>
      <trkpt lat="42.76626" lon="1.41759">
        <ele>1667.0634765625</ele>
        <time>2011-04-16T10:43:37Z</time>
      </trkpt>
      <trkpt lat="42.76629" lon="1.41768">
        <ele>1667.0634765625</ele>
        <time>2011-04-16T10:43:44Z</time>
      </trkpt>
      <trkpt lat="42.76628" lon="1.4177">
        <ele>1666.5827636719</ele>
        <time>2011-04-16T10:43:45Z</time>
      </trkpt>
      <trkpt lat="42.76627" lon="1.41778">
        <ele>1667.0634765625</ele>
        <time>2011-04-16T10:43:50Z</time>
      </trkpt>
      <trkpt lat="42.76627" lon="1.41783">
        <ele>1666.5827636719</ele>
        <time>2011-04-16T10:43:54Z</time>
      </trkpt>
      <trkpt lat="42.76623" lon="1.41792">
        <ele>1666.5827636719</ele>
        <time>2011-04-16T10:44:01Z</time>
      </trkpt>
      <trkpt lat="42.76619" lon="1.418">
        <ele>1667.0634765625</ele>
        <time>2011-04-16T10:44:06Z</time>
      </trkpt>
      <trkpt lat="42.76617" lon="1.41804">
        <ele>1666.5827636719</ele>
        <time>2011-04-16T10:44:09Z</time>
      </trkpt>
      <trkpt lat="42.76612" lon="1.41811">
        <ele>1666.5827636719</ele>
        <time>2011-04-16T10:44:15Z</time>
      </trkpt>
      <trkpt lat="42.76608" lon="1.4182">
        <ele>1666.5827636719</ele>
        <time>2011-04-16T10:44:21Z</time>
      </trkpt>
      <trkpt lat="42.76604" lon="1.41831">
        <ele>1664.1794433594</ele>
        <time>2011-04-16T10:44:29Z</time>
      </trkpt>
      <trkpt lat="42.76602" lon="1.41834">
        <ele>1663.2182617188</ele>
        <time>2011-04-16T10:44:32Z</time>
      </trkpt>
      <trkpt lat="42.76598" lon="1.41838">
        <ele>1662.2568359375</ele>
        <time>2011-04-16T10:44:38Z</time>
      </trkpt>
      <trkpt lat="42.76596" lon="1.41846">
        <ele>1661.7763671875</ele>
        <time>2011-04-16T10:44:43Z</time>
      </trkpt>
      <trkpt lat="42.76595" lon="1.41848">
        <ele>1661.7763671875</ele>
        <time>2011-04-16T10:44:45Z</time>
      </trkpt>
      <trkpt lat="42.76591" lon="1.41851">
        <ele>1661.7763671875</ele>
        <time>2011-04-16T10:44:50Z</time>
      </trkpt>
      <trkpt lat="42.76588" lon="1.41857">
        <ele>1659.3728027344</ele>
        <time>2011-04-16T10:44:55Z</time>
      </trkpt>
      <trkpt lat="42.76588" lon="1.4186">
        <ele>1659.3728027344</ele>
        <time>2011-04-16T10:44:57Z</time>
      </trkpt>
      <trkpt lat="42.76587" lon="1.41863">
        <ele>1657.4501953125</ele>
        <time>2011-04-16T10:45:03Z</time>
      </trkpt>
      <trkpt lat="42.76583" lon="1.41866">
        <ele>1657.4501953125</ele>
        <time>2011-04-16T10:45:08Z</time>
      </trkpt>
      <trkpt lat="42.76581" lon="1.41868">
        <ele>1656.0080566406</ele>
        <time>2011-04-16T10:45:13Z</time>
      </trkpt>
      <trkpt lat="42.76577" lon="1.41872">
        <ele>1654.0856933594</ele>
        <time>2011-04-16T10:45:18Z</time>
      </trkpt>
      <trkpt lat="42.76574" lon="1.41875">
        <ele>1651.6823730469</ele>
        <time>2011-04-16T10:45:21Z</time>
      </trkpt>
      <trkpt lat="42.76566" lon="1.4188">
        <ele>1648.7983398438</ele>
        <time>2011-04-16T10:45:29Z</time>
      </trkpt>
      <trkpt lat="42.76563" lon="1.41883">
        <ele>1648.3176269531</ele>
        <time>2011-04-16T10:45:32Z</time>
      </trkpt>
      <trkpt lat="42.76559" lon="1.41888">
        <ele>1647.8371582031</ele>
        <time>2011-04-16T10:45:36Z</time>
      </trkpt>
      <trkpt lat="42.76557" lon="1.41895">
        <ele>1648.3176269531</ele>
        <time>2011-04-16T10:45:40Z</time>
      </trkpt>
      <trkpt lat="42.76556" lon="1.41906">
        <ele>1648.3176269531</ele>
        <time>2011-04-16T10:45:46Z</time>
      </trkpt>
      <trkpt lat="42.76554" lon="1.41907">
        <ele>1648.3176269531</ele>
        <time>2011-04-16T10:45:47Z</time>
      </trkpt>
      <trkpt lat="42.76549" lon="1.41917">
        <ele>1648.3176269531</ele>
        <time>2011-04-16T10:45:54Z</time>
      </trkpt>
      <trkpt lat="42.76542" lon="1.41925">
        <ele>1650.7209472656</ele>
        <time>2011-04-16T10:46:00Z</time>
      </trkpt>
      <trkpt lat="42.7654" lon="1.41928">
        <ele>1650.7209472656</ele>
        <time>2011-04-16T10:46:03Z</time>
      </trkpt>
      <trkpt lat="42.76537" lon="1.41935">
        <ele>1650.2404785156</ele>
        <time>2011-04-16T10:46:08Z</time>
      </trkpt>
      <trkpt lat="42.76535" lon="1.4194">
        <ele>1650.2404785156</ele>
        <time>2011-04-16T10:46:14Z</time>
      </trkpt>
      <trkpt lat="42.76532" lon="1.41946">
        <ele>1650.7209472656</ele>
        <time>2011-04-16T10:46:21Z</time>
      </trkpt>
      <trkpt lat="42.76528" lon="1.41955">
        <ele>1652.1628417969</ele>
        <time>2011-04-16T10:46:28Z</time>
      </trkpt>
      <trkpt lat="42.76527" lon="1.41959">
        <ele>1652.6435546875</ele>
        <time>2011-04-16T10:46:31Z</time>
      </trkpt>
      <trkpt lat="42.76524" lon="1.41968">
        <ele>1653.6049804688</ele>
        <time>2011-04-16T10:46:38Z</time>
      </trkpt>
      <trkpt lat="42.76523" lon="1.41969">
        <ele>1653.6049804688</ele>
        <time>2011-04-16T10:46:39Z</time>
      </trkpt>
      <trkpt lat="42.7652" lon="1.41978">
        <ele>1653.6049804688</ele>
        <time>2011-04-16T10:46:47Z</time>
      </trkpt>
      <trkpt lat="42.76518" lon="1.41981">
        <ele>1653.1242675781</ele>
        <time>2011-04-16T10:46:50Z</time>
      </trkpt>
      <trkpt lat="42.76514" lon="1.41986">
        <ele>1652.1628417969</ele>
        <time>2011-04-16T10:46:55Z</time>
      </trkpt>
      <trkpt lat="42.76511" lon="1.41994">
        <ele>1650.7209472656</ele>
        <time>2011-04-16T10:46:59Z</time>
      </trkpt>
      <trkpt lat="42.76511" lon="1.42005">
        <ele>1651.2016601562</ele>
        <time>2011-04-16T10:47:06Z</time>
      </trkpt>
      <trkpt lat="42.76512" lon="1.42009">
        <ele>1650.2404785156</ele>
        <time>2011-04-16T10:47:09Z</time>
      </trkpt>
      <trkpt lat="42.7651" lon="1.42017">
        <ele>1650.2404785156</ele>
        <time>2011-04-16T10:47:15Z</time>
      </trkpt>
      <trkpt lat="42.76509" lon="1.42019">
        <ele>1650.2404785156</ele>
        <time>2011-04-16T10:47:18Z</time>
      </trkpt>
      <trkpt lat="42.76503" lon="1.42025">
        <ele>1650.7209472656</ele>
        <time>2011-04-16T10:47:25Z</time>
      </trkpt>
      <trkpt lat="42.76503" lon="1.42028">
        <ele>1651.6823730469</ele>
        <time>2011-04-16T10:47:30Z</time>
      </trkpt>
      <trkpt lat="42.76502" lon="1.42034">
        <ele>1653.1242675781</ele>
        <time>2011-04-16T10:47:35Z</time>
      </trkpt>
      <trkpt lat="42.76501" lon="1.42041">
        <ele>1655.046875</ele>
        <time>2011-04-16T10:47:42Z</time>
      </trkpt>
      <trkpt lat="42.765" lon="1.42042">
        <ele>1655.046875</ele>
        <time>2011-04-16T10:47:46Z</time>
      </trkpt>
      <trkpt lat="42.76498" lon="1.42048">
        <ele>1654.5661621094</ele>
        <time>2011-04-16T10:47:53Z</time>
      </trkpt>
      <trkpt lat="42.76493" lon="1.42052">
        <ele>1653.1242675781</ele>
        <time>2011-04-16T10:48:00Z</time>
      </trkpt>
      <trkpt lat="42.76491" lon="1.42058">
        <ele>1653.1242675781</ele>
        <time>2011-04-16T10:48:06Z</time>
      </trkpt>
      <trkpt lat="42.76487" lon="1.42064">
        <ele>1653.1242675781</ele>
        <time>2011-04-16T10:48:11Z</time>
      </trkpt>
      <trkpt lat="42.76485" lon="1.42067">
        <ele>1653.1242675781</ele>
        <time>2011-04-16T10:48:14Z</time>
      </trkpt>
      <trkpt lat="42.76482" lon="1.42074">
        <ele>1655.046875</ele>
        <time>2011-04-16T10:48:20Z</time>
      </trkpt>
      <trkpt lat="42.76479" lon="1.42079">
        <ele>1656.4887695312</ele>
        <time>2011-04-16T10:48:26Z</time>
      </trkpt>
      <trkpt lat="42.76479" lon="1.42082">
        <ele>1657.4501953125</ele>
        <time>2011-04-16T10:48:28Z</time>
      </trkpt>
      <trkpt lat="42.76476" lon="1.42089">
        <ele>1658.4113769531</ele>
        <time>2011-04-16T10:48:33Z</time>
      </trkpt>
      <trkpt lat="42.76471" lon="1.42097">
        <ele>1659.8532714844</ele>
        <time>2011-04-16T10:48:40Z</time>
      </trkpt>
      <trkpt lat="42.76467" lon="1.42105">
        <ele>1661.7763671875</ele>
        <time>2011-04-16T10:48:45Z</time>
      </trkpt>
      <trkpt lat="42.7646" lon="1.42114">
        <ele>1661.2956542969</ele>
        <time>2011-04-16T10:48:52Z</time>
      </trkpt>
      <trkpt lat="42.76457" lon="1.42119">
        <ele>1661.7763671875</ele>
        <time>2011-04-16T10:48:57Z</time>
      </trkpt>
      <trkpt lat="42.76454" lon="1.42127">
        <ele>1662.2568359375</ele>
        <time>2011-04-16T10:49:03Z</time>
      </trkpt>
      <trkpt lat="42.76453" lon="1.4213">
        <ele>1662.2568359375</ele>
        <time>2011-04-16T10:49:05Z</time>
      </trkpt>
      <trkpt lat="42.76449" lon="1.42143">
        <ele>1664.66015625</ele>
        <time>2011-04-16T10:49:13Z</time>
      </trkpt>
      <trkpt lat="42.76449" lon="1.42145">
        <ele>1664.66015625</ele>
        <time>2011-04-16T10:49:14Z</time>
      </trkpt>
      <trkpt lat="42.7645" lon="1.42155">
        <ele>1664.66015625</ele>
        <time>2011-04-16T10:49:22Z</time>
      </trkpt>
      <trkpt lat="42.76449" lon="1.42158">
        <ele>1664.1794433594</ele>
        <time>2011-04-16T10:49:24Z</time>
      </trkpt>
      <trkpt lat="42.76448" lon="1.42161">
        <ele>1664.1794433594</ele>
        <time>2011-04-16T10:49:26Z</time>
      </trkpt>
      <trkpt lat="42.76449" lon="1.42167">
        <ele>1664.66015625</ele>
        <time>2011-04-16T10:49:30Z</time>
      </trkpt>
      <trkpt lat="42.76452" lon="1.42174">
        <ele>1664.66015625</ele>
        <time>2011-04-16T10:49:35Z</time>
      </trkpt>
      <trkpt lat="42.76453" lon="1.42175">
        <ele>1664.66015625</ele>
        <time>2011-04-16T10:49:36Z</time>
      </trkpt>
      <trkpt lat="42.76448" lon="1.42181">
        <ele>1663.2182617188</ele>
        <time>2011-04-16T10:49:42Z</time>
      </trkpt>
      <trkpt lat="42.76444" lon="1.42187">
        <ele>1662.2568359375</ele>
        <time>2011-04-16T10:49:47Z</time>
      </trkpt>
      <trkpt lat="42.76443" lon="1.42188">
        <ele>1662.2568359375</ele>
        <time>2011-04-16T10:49:48Z</time>
      </trkpt>
      <trkpt lat="42.76442" lon="1.42191">
        <ele>1662.2568359375</ele>
        <time>2011-04-16T10:49:50Z</time>
      </trkpt>
      <trkpt lat="42.76442" lon="1.42202">
        <ele>1663.2182617188</ele>
        <time>2011-04-16T10:49:57Z</time>
      </trkpt>
      <trkpt lat="42.76444" lon="1.4221">
        <ele>1663.2182617188</ele>
        <time>2011-04-16T10:50:02Z</time>
      </trkpt>
      <trkpt lat="42.76445" lon="1.42217">
        <ele>1662.2568359375</ele>
        <time>2011-04-16T10:50:06Z</time>
      </trkpt>
      <trkpt lat="42.76445" lon="1.4222">
        <ele>1662.2568359375</ele>
        <time>2011-04-16T10:50:08Z</time>
      </trkpt>
      <trkpt lat="42.76447" lon="1.42224">
        <ele>1662.2568359375</ele>
        <time>2011-04-16T10:50:14Z</time>
      </trkpt>
      <trkpt lat="42.76447" lon="1.4223">
        <ele>1661.7763671875</ele>
        <time>2011-04-16T10:50:20Z</time>
      </trkpt>
      <trkpt lat="42.76443" lon="1.42237">
        <ele>1663.2182617188</ele>
        <time>2011-04-16T10:50:26Z</time>
      </trkpt>
      <trkpt lat="42.76439" lon="1.42238">
        <ele>1663.2182617188</ele>
        <time>2011-04-16T10:50:30Z</time>
      </trkpt>
      <trkpt lat="42.76435" lon="1.42244">
        <ele>1663.6987304688</ele>
        <time>2011-04-16T10:50:35Z</time>
      </trkpt>
      <trkpt lat="42.76432" lon="1.4225">
        <ele>1665.1408691406</ele>
        <time>2011-04-16T10:50:40Z</time>
      </trkpt>
      <trkpt lat="42.76427" lon="1.42256">
        <ele>1665.1408691406</ele>
        <time>2011-04-16T10:50:45Z</time>
      </trkpt>
      <trkpt lat="42.76426" lon="1.42258">
        <ele>1665.6215820312</ele>
        <time>2011-04-16T10:50:46Z</time>
      </trkpt>
      <trkpt lat="42.7642" lon="1.42269">
        <ele>1667.5439453125</ele>
        <time>2011-04-16T10:50:53Z</time>
      </trkpt>
      <trkpt lat="42.76416" lon="1.42277">
        <ele>1668.5053710938</ele>
        <time>2011-04-16T10:50:59Z</time>
      </trkpt>
      <trkpt lat="42.76413" lon="1.42285">
        <ele>1669.466796875</ele>
        <time>2011-04-16T10:51:06Z</time>
      </trkpt>
      <trkpt lat="42.76411" lon="1.42293">
        <ele>1670.9086914062</ele>
        <time>2011-04-16T10:51:12Z</time>
      </trkpt>
      <trkpt lat="42.7641" lon="1.42299">
        <ele>1670.9086914062</ele>
        <time>2011-04-16T10:51:17Z</time>
      </trkpt>
      <trkpt lat="42.76407" lon="1.42308">
        <ele>1671.3891601562</ele>
        <time>2011-04-16T10:51:23Z</time>
      </trkpt>
      <trkpt lat="42.76406" lon="1.42316">
        <ele>1672.8312988281</ele>
        <time>2011-04-16T10:51:29Z</time>
      </trkpt>
      <trkpt lat="42.76407" lon="1.42324">
        <ele>1672.8312988281</ele>
        <time>2011-04-16T10:51:35Z</time>
      </trkpt>
      <trkpt lat="42.76407" lon="1.42325">
        <ele>1672.8312988281</ele>
        <time>2011-04-16T10:51:36Z</time>
      </trkpt>
      <trkpt lat="42.76409" lon="1.42334">
        <ele>1673.3120117188</ele>
        <time>2011-04-16T10:51:43Z</time>
      </trkpt>
      <trkpt lat="42.7641" lon="1.42343">
        <ele>1673.7924804688</ele>
        <time>2011-04-16T10:51:50Z</time>
      </trkpt>
      <trkpt lat="42.76411" lon="1.4235">
        <ele>1673.7924804688</ele>
        <time>2011-04-16T10:51:56Z</time>
      </trkpt>
      <trkpt lat="42.76413" lon="1.42353">
        <ele>1674.2731933594</ele>
        <time>2011-04-16T10:52:01Z</time>
      </trkpt>
      <trkpt lat="42.76414" lon="1.4236">
        <ele>1673.3120117188</ele>
        <time>2011-04-16T10:52:06Z</time>
      </trkpt>
      <trkpt lat="42.76414" lon="1.42365">
        <ele>1673.3120117188</ele>
        <time>2011-04-16T10:52:10Z</time>
      </trkpt>
      <trkpt lat="42.76415" lon="1.42366">
        <ele>1673.3120117188</ele>
        <time>2011-04-16T10:52:11Z</time>
      </trkpt>
      <trkpt lat="42.76416" lon="1.42372">
        <ele>1673.7924804688</ele>
        <time>2011-04-16T10:52:16Z</time>
      </trkpt>
      <trkpt lat="42.76414" lon="1.42379">
        <ele>1674.75390625</ele>
        <time>2011-04-16T10:52:22Z</time>
      </trkpt>
      <trkpt lat="42.76417" lon="1.42384">
        <ele>1673.3120117188</ele>
        <time>2011-04-16T10:52:27Z</time>
      </trkpt>
      <trkpt lat="42.76416" lon="1.42391">
        <ele>1673.3120117188</ele>
        <time>2011-04-16T10:52:33Z</time>
      </trkpt>
      <trkpt lat="42.76416" lon="1.42398">
        <ele>1673.3120117188</ele>
        <time>2011-04-16T10:52:38Z</time>
      </trkpt>
      <trkpt lat="42.76417" lon="1.42404">
        <ele>1672.8312988281</ele>
        <time>2011-04-16T10:52:44Z</time>
      </trkpt>
      <trkpt lat="42.76417" lon="1.4241">
        <ele>1672.3505859375</ele>
        <time>2011-04-16T10:52:51Z</time>
      </trkpt>
      <trkpt lat="42.76416" lon="1.42415">
        <ele>1673.3120117188</ele>
        <time>2011-04-16T10:52:56Z</time>
      </trkpt>
      <trkpt lat="42.76415" lon="1.4242">
        <ele>1673.3120117188</ele>
        <time>2011-04-16T10:52:59Z</time>
      </trkpt>
      <trkpt lat="42.76417" lon="1.42428">
        <ele>1673.3120117188</ele>
        <time>2011-04-16T10:53:05Z</time>
      </trkpt>
      <trkpt lat="42.76418" lon="1.42434">
        <ele>1672.8312988281</ele>
        <time>2011-04-16T10:53:09Z</time>
      </trkpt>
      <trkpt lat="42.76419" lon="1.42441">
        <ele>1671.8698730469</ele>
        <time>2011-04-16T10:53:14Z</time>
      </trkpt>
      <trkpt lat="42.76418" lon="1.42447">
        <ele>1672.3505859375</ele>
        <time>2011-04-16T10:53:19Z</time>
      </trkpt>
      <trkpt lat="42.76418" lon="1.42452">
        <ele>1671.3891601562</ele>
        <time>2011-04-16T10:53:22Z</time>
      </trkpt>
      <trkpt lat="42.76417" lon="1.42456">
        <ele>1670.4279785156</ele>
        <time>2011-04-16T10:53:24Z</time>
      </trkpt>
      <trkpt lat="42.76416" lon="1.42462">
        <ele>1670.4279785156</ele>
        <time>2011-04-16T10:53:28Z</time>
      </trkpt>
      <trkpt lat="42.76414" lon="1.42465">
        <ele>1670.9086914062</ele>
        <time>2011-04-16T10:53:31Z</time>
      </trkpt>
      <trkpt lat="42.76414" lon="1.42474">
        <ele>1671.8698730469</ele>
        <time>2011-04-16T10:53:38Z</time>
      </trkpt>
      <trkpt lat="42.76413" lon="1.42483">
        <ele>1670.9086914062</ele>
        <time>2011-04-16T10:53:41Z</time>
      </trkpt>
      <trkpt lat="42.7641" lon="1.42491">
        <ele>1671.3891601562</ele>
        <time>2011-04-16T10:53:47Z</time>
      </trkpt>
      <trkpt lat="42.76408" lon="1.42497">
        <ele>1672.3505859375</ele>
        <time>2011-04-16T10:53:52Z</time>
      </trkpt>
      <trkpt lat="42.76409" lon="1.42505">
        <ele>1672.8312988281</ele>
        <time>2011-04-16T10:53:58Z</time>
      </trkpt>
      <trkpt lat="42.76406" lon="1.42507">
        <ele>1673.7924804688</ele>
        <time>2011-04-16T10:54:03Z</time>
      </trkpt>
      <trkpt lat="42.76405" lon="1.42512">
        <ele>1674.75390625</ele>
        <time>2011-04-16T10:54:08Z</time>
      </trkpt>
      <trkpt lat="42.76403" lon="1.42517">
        <ele>1676.6767578125</ele>
        <time>2011-04-16T10:54:14Z</time>
      </trkpt>
      <trkpt lat="42.764" lon="1.42519">
        <ele>1678.5993652344</ele>
        <time>2011-04-16T10:54:20Z</time>
      </trkpt>
      <trkpt lat="42.76397" lon="1.42522">
        <ele>1679.560546875</ele>
        <time>2011-04-16T10:54:26Z</time>
      </trkpt>
      <trkpt lat="42.76393" lon="1.42526">
        <ele>1678.5993652344</ele>
        <time>2011-04-16T10:54:31Z</time>
      </trkpt>
      <trkpt lat="42.76389" lon="1.42529">
        <ele>1679.0798339844</ele>
        <time>2011-04-16T10:54:36Z</time>
      </trkpt>
      <trkpt lat="42.76385" lon="1.42534">
        <ele>1678.5993652344</ele>
        <time>2011-04-16T10:54:41Z</time>
      </trkpt>
      <trkpt lat="42.76378" lon="1.42544">
        <ele>1677.1574707031</ele>
        <time>2011-04-16T10:54:50Z</time>
      </trkpt>
      <trkpt lat="42.76376" lon="1.42551">
        <ele>1677.6379394531</ele>
        <time>2011-04-16T10:54:56Z</time>
      </trkpt>
      <trkpt lat="42.76375" lon="1.42551">
        <ele>1677.1574707031</ele>
        <time>2011-04-16T10:54:57Z</time>
      </trkpt>
      <trkpt lat="42.76369" lon="1.42557">
        <ele>1675.7150878906</ele>
        <time>2011-04-16T10:55:04Z</time>
      </trkpt>
      <trkpt lat="42.76366" lon="1.42561">
        <ele>1674.75390625</ele>
        <time>2011-04-16T10:55:10Z</time>
      </trkpt>
      <trkpt lat="42.76366" lon="1.42564">
        <ele>1674.2731933594</ele>
        <time>2011-04-16T10:55:15Z</time>
      </trkpt>
      <trkpt lat="42.76368" lon="1.4257">
        <ele>1673.3120117188</ele>
        <time>2011-04-16T10:55:20Z</time>
      </trkpt>
      <trkpt lat="42.76368" lon="1.42572">
        <ele>1672.8312988281</ele>
        <time>2011-04-16T10:55:21Z</time>
      </trkpt>
      <trkpt lat="42.76367" lon="1.42582">
        <ele>1671.3891601562</ele>
        <time>2011-04-16T10:55:27Z</time>
      </trkpt>
      <trkpt lat="42.76363" lon="1.42587">
        <ele>1671.3891601562</ele>
        <time>2011-04-16T10:55:32Z</time>
      </trkpt>
      <trkpt lat="42.76358" lon="1.42594">
        <ele>1670.9086914062</ele>
        <time>2011-04-16T10:55:40Z</time>
      </trkpt>
      <trkpt lat="42.76355" lon="1.42602">
        <ele>1672.3505859375</ele>
        <time>2011-04-16T10:55:47Z</time>
      </trkpt>
      <trkpt lat="42.76353" lon="1.42609">
        <ele>1673.3120117188</ele>
        <time>2011-04-16T10:55:54Z</time>
      </trkpt>
      <trkpt lat="42.76347" lon="1.4261">
        <ele>1674.2731933594</ele>
        <time>2011-04-16T10:55:59Z</time>
      </trkpt>
      <trkpt lat="42.76344" lon="1.42608">
        <ele>1673.7924804688</ele>
        <time>2011-04-16T10:56:04Z</time>
      </trkpt>
      <trkpt lat="42.76344" lon="1.42609">
        <ele>1673.7924804688</ele>
        <time>2011-04-16T10:56:09Z</time>
      </trkpt>
      <trkpt lat="42.76344" lon="1.42608">
        <ele>1674.2731933594</ele>
        <time>2011-04-16T10:56:16Z</time>
      </trkpt>
      <trkpt lat="42.76344" lon="1.4261">
        <ele>1674.2731933594</ele>
        <time>2011-04-16T10:56:20Z</time>
      </trkpt>
      <trkpt lat="42.76344" lon="1.4261">
        <ele>1675.234375</ele>
        <time>2011-04-16T10:56:25Z</time>
      </trkpt>
      <trkpt lat="42.76344" lon="1.42615">
        <ele>1675.234375</ele>
        <time>2011-04-16T11:25:03Z</time>
      </trkpt>
      <trkpt lat="42.76344" lon="1.42615">
        <ele>1675.7150878906</ele>
        <time>2011-04-16T11:25:04Z</time>
      </trkpt>
      <trkpt lat="42.76347" lon="1.42618">
        <ele>1676.1960449219</ele>
        <time>2011-04-16T11:25:09Z</time>
      </trkpt>
      <trkpt lat="42.76347" lon="1.42626">
        <ele>1676.6767578125</ele>
        <time>2011-04-16T11:25:15Z</time>
      </trkpt>
      <trkpt lat="42.76345" lon="1.42634">
        <ele>1677.1574707031</ele>
        <time>2011-04-16T11:25:21Z</time>
      </trkpt>
      <trkpt lat="42.76345" lon="1.42636">
        <ele>1676.1960449219</ele>
        <time>2011-04-16T11:25:22Z</time>
      </trkpt>
      <trkpt lat="42.76344" lon="1.42645">
        <ele>1673.3120117188</ele>
        <time>2011-04-16T11:25:28Z</time>
      </trkpt>
      <trkpt lat="42.76342" lon="1.42649">
        <ele>1670.9086914062</ele>
        <time>2011-04-16T11:25:33Z</time>
      </trkpt>
      <trkpt lat="42.76337" lon="1.42649">
        <ele>1668.9860839844</ele>
        <time>2011-04-16T11:25:39Z</time>
      </trkpt>
      <trkpt lat="42.76335" lon="1.42653">
        <ele>1666.5827636719</ele>
        <time>2011-04-16T11:25:45Z</time>
      </trkpt>
      <trkpt lat="42.76331" lon="1.42656">
        <ele>1664.66015625</ele>
        <time>2011-04-16T11:25:50Z</time>
      </trkpt>
      <trkpt lat="42.7633" lon="1.42662">
        <ele>1663.2182617188</ele>
        <time>2011-04-16T11:25:56Z</time>
      </trkpt>
      <trkpt lat="42.76327" lon="1.42669">
        <ele>1662.7375488281</ele>
        <time>2011-04-16T11:26:03Z</time>
      </trkpt>
      <trkpt lat="42.76326" lon="1.4267">
        <ele>1662.2568359375</ele>
        <time>2011-04-16T11:26:09Z</time>
      </trkpt>
      <trkpt lat="42.76324" lon="1.42667">
        <ele>1661.2956542969</ele>
        <time>2011-04-16T11:26:21Z</time>
      </trkpt>
      <trkpt lat="42.76322" lon="1.42664">
        <ele>1660.3342285156</ele>
        <time>2011-04-16T11:26:27Z</time>
      </trkpt>
      <trkpt lat="42.7632" lon="1.4267">
        <ele>1659.8532714844</ele>
        <time>2011-04-16T11:26:33Z</time>
      </trkpt>
      <trkpt lat="42.76318" lon="1.42674">
        <ele>1659.3728027344</ele>
        <time>2011-04-16T11:26:38Z</time>
      </trkpt>
      <trkpt lat="42.76315" lon="1.42677">
        <ele>1658.4113769531</ele>
        <time>2011-04-16T11:26:43Z</time>
      </trkpt>
      <trkpt lat="42.76312" lon="1.4268">
        <ele>1656.9694824219</ele>
        <time>2011-04-16T11:26:47Z</time>
      </trkpt>
      <trkpt lat="42.76308" lon="1.42683">
        <ele>1655.5275878906</ele>
        <time>2011-04-16T11:26:51Z</time>
      </trkpt>
      <trkpt lat="42.76305" lon="1.42689">
        <ele>1655.046875</ele>
        <time>2011-04-16T11:26:54Z</time>
      </trkpt>
      <trkpt lat="42.76302" lon="1.42692">
        <ele>1654.5661621094</ele>
        <time>2011-04-16T11:26:58Z</time>
      </trkpt>
      <trkpt lat="42.76298" lon="1.42698">
        <ele>1653.6049804688</ele>
        <time>2011-04-16T11:27:03Z</time>
      </trkpt>
      <trkpt lat="42.76297" lon="1.42704">
        <ele>1653.6049804688</ele>
        <time>2011-04-16T11:27:08Z</time>
      </trkpt>
      <trkpt lat="42.76294" lon="1.42709">
        <ele>1654.5661621094</ele>
        <time>2011-04-16T11:27:13Z</time>
      </trkpt>
      <trkpt lat="42.7629" lon="1.42717">
        <ele>1654.5661621094</ele>
        <time>2011-04-16T11:27:20Z</time>
      </trkpt>
      <trkpt lat="42.76286" lon="1.42719">
        <ele>1653.6049804688</ele>
        <time>2011-04-16T11:27:25Z</time>
      </trkpt>
      <trkpt lat="42.76281" lon="1.42722">
        <ele>1652.1628417969</ele>
        <time>2011-04-16T11:27:32Z</time>
      </trkpt>
      <trkpt lat="42.76277" lon="1.42728">
        <ele>1651.2016601562</ele>
        <time>2011-04-16T11:27:37Z</time>
      </trkpt>
      <trkpt lat="42.76273" lon="1.42733">
        <ele>1650.7209472656</ele>
        <time>2011-04-16T11:27:43Z</time>
      </trkpt>
      <trkpt lat="42.76271" lon="1.42738">
        <ele>1650.7209472656</ele>
        <time>2011-04-16T11:27:47Z</time>
      </trkpt>
      <trkpt lat="42.76267" lon="1.42748">
        <ele>1652.1628417969</ele>
        <time>2011-04-16T11:27:55Z</time>
      </trkpt>
      <trkpt lat="42.76263" lon="1.42758">
        <ele>1653.1242675781</ele>
        <time>2011-04-16T11:28:02Z</time>
      </trkpt>
      <trkpt lat="42.76261" lon="1.42761">
        <ele>1653.1242675781</ele>
        <time>2011-04-16T11:28:05Z</time>
      </trkpt>
      <trkpt lat="42.76256" lon="1.42771">
        <ele>1652.1628417969</ele>
        <time>2011-04-16T11:28:14Z</time>
      </trkpt>
      <trkpt lat="42.76252" lon="1.42779">
        <ele>1650.2404785156</ele>
        <time>2011-04-16T11:28:21Z</time>
      </trkpt>
      <trkpt lat="42.76248" lon="1.42784">
        <ele>1649.2790527344</ele>
        <time>2011-04-16T11:28:27Z</time>
      </trkpt>
      <trkpt lat="42.76243" lon="1.42784">
        <ele>1649.2790527344</ele>
        <time>2011-04-16T11:28:33Z</time>
      </trkpt>
      <trkpt lat="42.76244" lon="1.42785">
        <ele>1648.7983398438</ele>
        <time>2011-04-16T11:28:37Z</time>
      </trkpt>
      <trkpt lat="42.7624" lon="1.42792">
        <ele>1647.3564453125</ele>
        <time>2011-04-16T11:28:42Z</time>
      </trkpt>
      <trkpt lat="42.76236" lon="1.42801">
        <ele>1646.8757324219</ele>
        <time>2011-04-16T11:28:48Z</time>
      </trkpt>
      <trkpt lat="42.76234" lon="1.42805">
        <ele>1646.8757324219</ele>
        <time>2011-04-16T11:28:51Z</time>
      </trkpt>
      <trkpt lat="42.76233" lon="1.42814">
        <ele>1646.3952636719</ele>
        <time>2011-04-16T11:28:58Z</time>
      </trkpt>
      <trkpt lat="42.76231" lon="1.42818">
        <ele>1644.953125</ele>
        <time>2011-04-16T11:29:06Z</time>
      </trkpt>
      <trkpt lat="42.76227" lon="1.42823">
        <ele>1643.5109863281</ele>
        <time>2011-04-16T11:29:11Z</time>
      </trkpt>
      <trkpt lat="42.76223" lon="1.42825">
        <ele>1642.0690917969</ele>
        <time>2011-04-16T11:29:15Z</time>
      </trkpt>
      <trkpt lat="42.76217" lon="1.4283">
        <ele>1639.1850585938</ele>
        <time>2011-04-16T11:29:22Z</time>
      </trkpt>
      <trkpt lat="42.76217" lon="1.42837">
        <ele>1638.2238769531</ele>
        <time>2011-04-16T11:29:27Z</time>
      </trkpt>
      <trkpt lat="42.7622" lon="1.4285">
        <ele>1637.2624511719</ele>
        <time>2011-04-16T11:29:33Z</time>
      </trkpt>
      <trkpt lat="42.76219" lon="1.42858">
        <ele>1637.2624511719</ele>
        <time>2011-04-16T11:29:38Z</time>
      </trkpt>
      <trkpt lat="42.76218" lon="1.42872">
        <ele>1635.8205566406</ele>
        <time>2011-04-16T11:29:46Z</time>
      </trkpt>
      <trkpt lat="42.76218" lon="1.4288">
        <ele>1635.8205566406</ele>
        <time>2011-04-16T11:29:51Z</time>
      </trkpt>
      <trkpt lat="42.76217" lon="1.42882">
        <ele>1635.33984375</ele>
        <time>2011-04-16T11:29:53Z</time>
      </trkpt>
      <trkpt lat="42.76218" lon="1.42889">
        <ele>1635.33984375</ele>
        <time>2011-04-16T11:29:58Z</time>
      </trkpt>
      <trkpt lat="42.76216" lon="1.42896">
        <ele>1635.8205566406</ele>
        <time>2011-04-16T11:30:03Z</time>
      </trkpt>
      <trkpt lat="42.76213" lon="1.42899">
        <ele>1635.8205566406</ele>
        <time>2011-04-16T11:30:06Z</time>
      </trkpt>
      <trkpt lat="42.7621" lon="1.42907">
        <ele>1635.8205566406</ele>
        <time>2011-04-16T11:30:11Z</time>
      </trkpt>
      <trkpt lat="42.76208" lon="1.42916">
        <ele>1636.3012695312</ele>
        <time>2011-04-16T11:30:18Z</time>
      </trkpt>
      <trkpt lat="42.76207" lon="1.42922">
        <ele>1636.3012695312</ele>
        <time>2011-04-16T11:30:25Z</time>
      </trkpt>
      <trkpt lat="42.76202" lon="1.42931">
        <ele>1636.3012695312</ele>
        <time>2011-04-16T11:30:32Z</time>
      </trkpt>
      <trkpt lat="42.76199" lon="1.42939">
        <ele>1635.8205566406</ele>
        <time>2011-04-16T11:30:38Z</time>
      </trkpt>
      <trkpt lat="42.76198" lon="1.4295">
        <ele>1634.3786621094</ele>
        <time>2011-04-16T11:30:45Z</time>
      </trkpt>
      <trkpt lat="42.76196" lon="1.42963">
        <ele>1633.8979492188</ele>
        <time>2011-04-16T11:30:53Z</time>
      </trkpt>
      <trkpt lat="42.76193" lon="1.42973">
        <ele>1634.3786621094</ele>
        <time>2011-04-16T11:31:00Z</time>
      </trkpt>
      <trkpt lat="42.76192" lon="1.42979">
        <ele>1633.8979492188</ele>
        <time>2011-04-16T11:31:04Z</time>
      </trkpt>
      <trkpt lat="42.7619" lon="1.42984">
        <ele>1632.9365234375</ele>
        <time>2011-04-16T11:31:08Z</time>
      </trkpt>
      <trkpt lat="42.76189" lon="1.4299">
        <ele>1632.9365234375</ele>
        <time>2011-04-16T11:31:12Z</time>
      </trkpt>
      <trkpt lat="42.76182" lon="1.42997">
        <ele>1632.9365234375</ele>
        <time>2011-04-16T11:31:20Z</time>
      </trkpt>
      <trkpt lat="42.7618" lon="1.43005">
        <ele>1632.9365234375</ele>
        <time>2011-04-16T11:31:25Z</time>
      </trkpt>
      <trkpt lat="42.76178" lon="1.43006">
        <ele>1632.9365234375</ele>
        <time>2011-04-16T11:31:26Z</time>
      </trkpt>
      <trkpt lat="42.76172" lon="1.43013">
        <ele>1633.8979492188</ele>
        <time>2011-04-16T11:31:34Z</time>
      </trkpt>
      <trkpt lat="42.76171" lon="1.43015">
        <ele>1634.3786621094</ele>
        <time>2011-04-16T11:31:36Z</time>
      </trkpt>
      <trkpt lat="42.76169" lon="1.43027">
        <ele>1634.3786621094</ele>
        <time>2011-04-16T11:31:44Z</time>
      </trkpt>
      <trkpt lat="42.76165" lon="1.43036">
        <ele>1634.3786621094</ele>
        <time>2011-04-16T11:31:50Z</time>
      </trkpt>
      <trkpt lat="42.7616" lon="1.43043">
        <ele>1633.8979492188</ele>
        <time>2011-04-16T11:31:56Z</time>
      </trkpt>
      <trkpt lat="42.76159" lon="1.43049">
        <ele>1633.4172363281</ele>
        <time>2011-04-16T11:32:00Z</time>
      </trkpt>
      <trkpt lat="42.76158" lon="1.43056">
        <ele>1632.9365234375</ele>
        <time>2011-04-16T11:32:05Z</time>
      </trkpt>
      <trkpt lat="42.76157" lon="1.43064">
        <ele>1632.4560546875</ele>
        <time>2011-04-16T11:32:10Z</time>
      </trkpt>
      <trkpt lat="42.76157" lon="1.43071">
        <ele>1632.4560546875</ele>
        <time>2011-04-16T11:32:15Z</time>
      </trkpt>
      <trkpt lat="42.76155" lon="1.43079">
        <ele>1631.9753417969</ele>
        <time>2011-04-16T11:32:22Z</time>
      </trkpt>
      <trkpt lat="42.76151" lon="1.43087">
        <ele>1631.9753417969</ele>
        <time>2011-04-16T11:32:28Z</time>
      </trkpt>
      <trkpt lat="42.76144" lon="1.43086">
        <ele>1631.4946289062</ele>
        <time>2011-04-16T11:32:34Z</time>
      </trkpt>
      <trkpt lat="42.76141" lon="1.43087">
        <ele>1631.4946289062</ele>
        <time>2011-04-16T11:32:39Z</time>
      </trkpt>
      <trkpt lat="42.76138" lon="1.43093">
        <ele>1631.9753417969</ele>
        <time>2011-04-16T11:32:45Z</time>
      </trkpt>
      <trkpt lat="42.76134" lon="1.43099">
        <ele>1632.4560546875</ele>
        <time>2011-04-16T11:32:51Z</time>
      </trkpt>
      <trkpt lat="42.76128" lon="1.4311">
        <ele>1633.4172363281</ele>
        <time>2011-04-16T11:33:00Z</time>
      </trkpt>
      <trkpt lat="42.76123" lon="1.43115">
        <ele>1634.3786621094</ele>
        <time>2011-04-16T11:33:06Z</time>
      </trkpt>
      <trkpt lat="42.76123" lon="1.43123">
        <ele>1634.859375</ele>
        <time>2011-04-16T11:33:13Z</time>
      </trkpt>
      <trkpt lat="42.76124" lon="1.43136">
        <ele>1635.33984375</ele>
        <time>2011-04-16T11:33:22Z</time>
      </trkpt>
      <trkpt lat="42.76122" lon="1.43146">
        <ele>1636.3012695312</ele>
        <time>2011-04-16T11:33:29Z</time>
      </trkpt>
      <trkpt lat="42.76123" lon="1.43161">
        <ele>1637.7431640625</ele>
        <time>2011-04-16T11:33:38Z</time>
      </trkpt>
      <trkpt lat="42.76122" lon="1.43173">
        <ele>1639.1850585938</ele>
        <time>2011-04-16T11:33:45Z</time>
      </trkpt>
      <trkpt lat="42.76123" lon="1.4318">
        <ele>1639.6657714844</ele>
        <time>2011-04-16T11:33:50Z</time>
      </trkpt>
      <trkpt lat="42.76125" lon="1.43186">
        <ele>1640.626953125</ele>
        <time>2011-04-16T11:33:55Z</time>
      </trkpt>
      <trkpt lat="42.76126" lon="1.43188">
        <ele>1641.1076660156</ele>
        <time>2011-04-16T11:33:57Z</time>
      </trkpt>
      <trkpt lat="42.76127" lon="1.43196">
        <ele>1641.1076660156</ele>
        <time>2011-04-16T11:34:03Z</time>
      </trkpt>
      <trkpt lat="42.76126" lon="1.43204">
        <ele>1641.5883789062</ele>
        <time>2011-04-16T11:34:08Z</time>
      </trkpt>
      <trkpt lat="42.76128" lon="1.43212">
        <ele>1642.5498046875</ele>
        <time>2011-04-16T11:34:15Z</time>
      </trkpt>
      <trkpt lat="42.76129" lon="1.43213">
        <ele>1643.0302734375</ele>
        <time>2011-04-16T11:34:16Z</time>
      </trkpt>
      <trkpt lat="42.76132" lon="1.43218">
        <ele>1643.5109863281</ele>
        <time>2011-04-16T11:34:21Z</time>
      </trkpt>
      <trkpt lat="42.76134" lon="1.4322">
        <ele>1643.9916992188</ele>
        <time>2011-04-16T11:34:23Z</time>
      </trkpt>
      <trkpt lat="42.7614" lon="1.43228">
        <ele>1644.953125</ele>
        <time>2011-04-16T11:34:31Z</time>
      </trkpt>
      <trkpt lat="42.76139" lon="1.43237">
        <ele>1644.953125</ele>
        <time>2011-04-16T11:34:37Z</time>
      </trkpt>
      <trkpt lat="42.76138" lon="1.43241">
        <ele>1645.4338378906</ele>
        <time>2011-04-16T11:34:40Z</time>
      </trkpt>
      <trkpt lat="42.76135" lon="1.43249">
        <ele>1645.9145507812</ele>
        <time>2011-04-16T11:34:46Z</time>
      </trkpt>
      <trkpt lat="42.76136" lon="1.43258">
        <ele>1645.9145507812</ele>
        <time>2011-04-16T11:34:52Z</time>
      </trkpt>
      <trkpt lat="42.76139" lon="1.43263">
        <ele>1646.3952636719</ele>
        <time>2011-04-16T11:34:57Z</time>
      </trkpt>
      <trkpt lat="42.76146" lon="1.43265">
        <ele>1646.8757324219</ele>
        <time>2011-04-16T11:35:04Z</time>
      </trkpt>
      <trkpt lat="42.76147" lon="1.4327">
        <ele>1647.8371582031</ele>
        <time>2011-04-16T11:35:08Z</time>
      </trkpt>
      <trkpt lat="42.76153" lon="1.43276">
        <ele>1649.2790527344</ele>
        <time>2011-04-16T11:35:16Z</time>
      </trkpt>
      <trkpt lat="42.76155" lon="1.43282">
        <ele>1649.759765625</ele>
        <time>2011-04-16T11:35:22Z</time>
      </trkpt>
      <trkpt lat="42.76159" lon="1.43287">
        <ele>1649.759765625</ele>
        <time>2011-04-16T11:35:27Z</time>
      </trkpt>
      <trkpt lat="42.76164" lon="1.43291">
        <ele>1650.2404785156</ele>
        <time>2011-04-16T11:35:33Z</time>
      </trkpt>
      <trkpt lat="42.76163" lon="1.43301">
        <ele>1651.6823730469</ele>
        <time>2011-04-16T11:35:40Z</time>
      </trkpt>
      <trkpt lat="42.76164" lon="1.4331">
        <ele>1653.1242675781</ele>
        <time>2011-04-16T11:35:46Z</time>
      </trkpt>
      <trkpt lat="42.76164" lon="1.43317">
        <ele>1653.1242675781</ele>
        <time>2011-04-16T11:35:50Z</time>
      </trkpt>
      <trkpt lat="42.76166" lon="1.43323">
        <ele>1654.0856933594</ele>
        <time>2011-04-16T11:35:55Z</time>
      </trkpt>
      <trkpt lat="42.76167" lon="1.43325">
        <ele>1654.0856933594</ele>
        <time>2011-04-16T11:35:57Z</time>
      </trkpt>
      <trkpt lat="42.76167" lon="1.43337">
        <ele>1654.5661621094</ele>
        <time>2011-04-16T11:36:05Z</time>
      </trkpt>
      <trkpt lat="42.76165" lon="1.4334">
        <ele>1655.5275878906</ele>
        <time>2011-04-16T11:36:08Z</time>
      </trkpt>
      <trkpt lat="42.76165" lon="1.43346">
        <ele>1657.4501953125</ele>
        <time>2011-04-16T11:36:14Z</time>
      </trkpt>
      <trkpt lat="42.76165" lon="1.43354">
        <ele>1658.8920898438</ele>
        <time>2011-04-16T11:36:21Z</time>
      </trkpt>
      <trkpt lat="42.76166" lon="1.43361">
        <ele>1659.3728027344</ele>
        <time>2011-04-16T11:36:27Z</time>
      </trkpt>
      <trkpt lat="42.76167" lon="1.43369">
        <ele>1660.8149414062</ele>
        <time>2011-04-16T11:36:33Z</time>
      </trkpt>
      <trkpt lat="42.76167" lon="1.43374">
        <ele>1661.2956542969</ele>
        <time>2011-04-16T11:36:37Z</time>
      </trkpt>
      <trkpt lat="42.76163" lon="1.43379">
        <ele>1661.7763671875</ele>
        <time>2011-04-16T11:36:42Z</time>
      </trkpt>
      <trkpt lat="42.76162" lon="1.43385">
        <ele>1662.7375488281</ele>
        <time>2011-04-16T11:36:49Z</time>
      </trkpt>
      <trkpt lat="42.76166" lon="1.43388">
        <ele>1663.2182617188</ele>
        <time>2011-04-16T11:36:56Z</time>
      </trkpt>
      <trkpt lat="42.76168" lon="1.4339">
        <ele>1663.2182617188</ele>
        <time>2011-04-16T11:37:02Z</time>
      </trkpt>
      <trkpt lat="42.76165" lon="1.43393">
        <ele>1662.2568359375</ele>
        <time>2011-04-16T11:37:07Z</time>
      </trkpt>
      <trkpt lat="42.76162" lon="1.43401">
        <ele>1664.1794433594</ele>
        <time>2011-04-16T11:37:13Z</time>
      </trkpt>
      <trkpt lat="42.7616" lon="1.43404">
        <ele>1665.1408691406</ele>
        <time>2011-04-16T11:37:16Z</time>
      </trkpt>
      <trkpt lat="42.76157" lon="1.4341">
        <ele>1664.1794433594</ele>
        <time>2011-04-16T11:37:23Z</time>
      </trkpt>
      <trkpt lat="42.76152" lon="1.43414">
        <ele>1661.7763671875</ele>
        <time>2011-04-16T11:37:29Z</time>
      </trkpt>
      <trkpt lat="42.76151" lon="1.43421">
        <ele>1660.3342285156</ele>
        <time>2011-04-16T11:37:35Z</time>
      </trkpt>
      <trkpt lat="42.76151" lon="1.43425">
        <ele>1658.8920898438</ele>
        <time>2011-04-16T11:37:40Z</time>
      </trkpt>
      <trkpt lat="42.76146" lon="1.4343">
        <ele>1657.9309082031</ele>
        <time>2011-04-16T11:37:46Z</time>
      </trkpt>
      <trkpt lat="42.76144" lon="1.43432">
        <ele>1657.9309082031</ele>
        <time>2011-04-16T11:37:48Z</time>
      </trkpt>
      <trkpt lat="42.76143" lon="1.43441">
        <ele>1657.9309082031</ele>
        <time>2011-04-16T11:37:54Z</time>
      </trkpt>
      <trkpt lat="42.76143" lon="1.43443">
        <ele>1657.9309082031</ele>
        <time>2011-04-16T11:37:55Z</time>
      </trkpt>
      <trkpt lat="42.76141" lon="1.43448">
        <ele>1658.8920898438</ele>
        <time>2011-04-16T11:37:59Z</time>
      </trkpt>
      <trkpt lat="42.76136" lon="1.43455">
        <ele>1660.3342285156</ele>
        <time>2011-04-16T11:38:07Z</time>
      </trkpt>
      <trkpt lat="42.76135" lon="1.43461">
        <ele>1660.8149414062</ele>
        <time>2011-04-16T11:38:12Z</time>
      </trkpt>
      <trkpt lat="42.76133" lon="1.4347">
        <ele>1662.2568359375</ele>
        <time>2011-04-16T11:38:20Z</time>
      </trkpt>
      <trkpt lat="42.76131" lon="1.43478">
        <ele>1663.2182617188</ele>
        <time>2011-04-16T11:38:27Z</time>
      </trkpt>
      <trkpt lat="42.7613" lon="1.43485">
        <ele>1663.6987304688</ele>
        <time>2011-04-16T11:38:34Z</time>
      </trkpt>
      <trkpt lat="42.76128" lon="1.43491">
        <ele>1665.1408691406</ele>
        <time>2011-04-16T11:38:40Z</time>
      </trkpt>
      <trkpt lat="42.76126" lon="1.43498">
        <ele>1664.66015625</ele>
        <time>2011-04-16T11:38:48Z</time>
      </trkpt>
      <trkpt lat="42.76125" lon="1.43505">
        <ele>1665.6215820312</ele>
        <time>2011-04-16T11:38:54Z</time>
      </trkpt>
      <trkpt lat="42.76125" lon="1.43513">
        <ele>1665.6215820312</ele>
        <time>2011-04-16T11:39:00Z</time>
      </trkpt>
      <trkpt lat="42.76124" lon="1.43522">
        <ele>1665.6215820312</ele>
        <time>2011-04-16T11:39:07Z</time>
      </trkpt>
      <trkpt lat="42.76123" lon="1.43525">
        <ele>1666.5827636719</ele>
        <time>2011-04-16T11:39:09Z</time>
      </trkpt>
      <trkpt lat="42.76123" lon="1.43531">
        <ele>1667.0634765625</ele>
        <time>2011-04-16T11:39:15Z</time>
      </trkpt>
      <trkpt lat="42.76125" lon="1.43537">
        <ele>1668.0246582031</ele>
        <time>2011-04-16T11:39:22Z</time>
      </trkpt>
      <trkpt lat="42.76124" lon="1.43543">
        <ele>1668.5053710938</ele>
        <time>2011-04-16T11:39:28Z</time>
      </trkpt>
      <trkpt lat="42.76122" lon="1.43548">
        <ele>1668.0246582031</ele>
        <time>2011-04-16T11:39:33Z</time>
      </trkpt>
      <trkpt lat="42.76126" lon="1.43549">
        <ele>1669.466796875</ele>
        <time>2011-04-16T11:39:39Z</time>
      </trkpt>
      <trkpt lat="42.7613" lon="1.4355">
        <ele>1670.9086914062</ele>
        <time>2011-04-16T11:39:45Z</time>
      </trkpt>
      <trkpt lat="42.76133" lon="1.43554">
        <ele>1672.3505859375</ele>
        <time>2011-04-16T11:39:50Z</time>
      </trkpt>
      <trkpt lat="42.76133" lon="1.43562">
        <ele>1673.3120117188</ele>
        <time>2011-04-16T11:39:57Z</time>
      </trkpt>
      <trkpt lat="42.76136" lon="1.43565">
        <ele>1674.75390625</ele>
        <time>2011-04-16T11:40:02Z</time>
      </trkpt>
      <trkpt lat="42.76141" lon="1.43569">
        <ele>1676.1960449219</ele>
        <time>2011-04-16T11:40:09Z</time>
      </trkpt>
      <trkpt lat="42.76144" lon="1.43567">
        <ele>1678.1186523438</ele>
        <time>2011-04-16T11:40:14Z</time>
      </trkpt>
      <trkpt lat="42.76149" lon="1.43569">
        <ele>1679.0798339844</ele>
        <time>2011-04-16T11:40:20Z</time>
      </trkpt>
      <trkpt lat="42.76153" lon="1.43577">
        <ele>1680.5219726562</ele>
        <time>2011-04-16T11:40:28Z</time>
      </trkpt>
      <trkpt lat="42.76151" lon="1.43586">
        <ele>1681.4831542969</ele>
        <time>2011-04-16T11:40:35Z</time>
      </trkpt>
      <trkpt lat="42.76149" lon="1.43591">
        <ele>1681.0026855469</ele>
        <time>2011-04-16T11:40:39Z</time>
      </trkpt>
      <trkpt lat="42.76146" lon="1.43595">
        <ele>1680.0412597656</ele>
        <time>2011-04-16T11:40:44Z</time>
      </trkpt>
      <trkpt lat="42.76144" lon="1.43602">
        <ele>1679.560546875</ele>
        <time>2011-04-16T11:40:50Z</time>
      </trkpt>
      <trkpt lat="42.76142" lon="1.43611">
        <ele>1679.0798339844</ele>
        <time>2011-04-16T11:40:57Z</time>
      </trkpt>
      <trkpt lat="42.76139" lon="1.43616">
        <ele>1679.0798339844</ele>
        <time>2011-04-16T11:41:02Z</time>
      </trkpt>
      <trkpt lat="42.76134" lon="1.43621">
        <ele>1679.560546875</ele>
        <time>2011-04-16T11:41:09Z</time>
      </trkpt>
      <trkpt lat="42.76132" lon="1.43627">
        <ele>1681.0026855469</ele>
        <time>2011-04-16T11:41:15Z</time>
      </trkpt>
      <trkpt lat="42.76134" lon="1.43636">
        <ele>1682.9250488281</ele>
        <time>2011-04-16T11:41:23Z</time>
      </trkpt>
      <trkpt lat="42.76136" lon="1.43644">
        <ele>1683.8864746094</ele>
        <time>2011-04-16T11:41:30Z</time>
      </trkpt>
      <trkpt lat="42.76137" lon="1.4365">
        <ele>1684.8479003906</ele>
        <time>2011-04-16T11:41:36Z</time>
      </trkpt>
      <trkpt lat="42.76139" lon="1.43658">
        <ele>1687.2509765625</ele>
        <time>2011-04-16T11:41:43Z</time>
      </trkpt>
      <trkpt lat="42.76141" lon="1.43663">
        <ele>1689.654296875</ele>
        <time>2011-04-16T11:41:49Z</time>
      </trkpt>
      <trkpt lat="42.7614" lon="1.43665">
        <ele>1689.654296875</ele>
        <time>2011-04-16T11:41:54Z</time>
      </trkpt>
      <trkpt lat="42.7614" lon="1.43664">
        <ele>1690.1350097656</ele>
        <time>2011-04-16T11:42:04Z</time>
      </trkpt>
      <trkpt lat="42.76137" lon="1.4367">
        <ele>1690.1350097656</ele>
        <time>2011-04-16T11:42:10Z</time>
      </trkpt>
      <trkpt lat="42.76136" lon="1.43677">
        <ele>1690.6154785156</ele>
        <time>2011-04-16T11:42:16Z</time>
      </trkpt>
      <trkpt lat="42.76135" lon="1.43684">
        <ele>1691.0961914062</ele>
        <time>2011-04-16T11:42:22Z</time>
      </trkpt>
      <trkpt lat="42.76136" lon="1.43688">
        <ele>1692.0578613281</ele>
        <time>2011-04-16T11:42:28Z</time>
      </trkpt>
      <trkpt lat="42.76138" lon="1.43691">
        <ele>1693.0190429688</ele>
        <time>2011-04-16T11:42:32Z</time>
      </trkpt>
      <trkpt lat="42.76137" lon="1.43695">
        <ele>1694.4609375</ele>
        <time>2011-04-16T11:42:37Z</time>
      </trkpt>
      <trkpt lat="42.76134" lon="1.437">
        <ele>1694.9416503906</ele>
        <time>2011-04-16T11:42:43Z</time>
      </trkpt>
      <trkpt lat="42.76133" lon="1.43704">
        <ele>1694.9416503906</ele>
        <time>2011-04-16T11:42:48Z</time>
      </trkpt>
      <trkpt lat="42.76134" lon="1.43707">
        <ele>1695.4223632812</ele>
        <time>2011-04-16T11:42:52Z</time>
      </trkpt>
      <trkpt lat="42.76133" lon="1.43711">
        <ele>1695.4223632812</ele>
        <time>2011-04-16T11:42:57Z</time>
      </trkpt>
      <trkpt lat="42.76135" lon="1.43714">
        <ele>1695.9030761719</ele>
        <time>2011-04-16T11:43:02Z</time>
      </trkpt>
      <trkpt lat="42.76135" lon="1.43718">
        <ele>1696.3837890625</ele>
        <time>2011-04-16T11:43:06Z</time>
      </trkpt>
      <trkpt lat="42.76138" lon="1.4372">
        <ele>1697.8256835938</ele>
        <time>2011-04-16T11:43:10Z</time>
      </trkpt>
      <trkpt lat="42.7614" lon="1.43724">
        <ele>1699.7482910156</ele>
        <time>2011-04-16T11:43:16Z</time>
      </trkpt>
      <trkpt lat="42.76142" lon="1.43726">
        <ele>1700.2290039062</ele>
        <time>2011-04-16T11:43:22Z</time>
      </trkpt>
      <trkpt lat="42.76147" lon="1.43728">
        <ele>1702.6320800781</ele>
        <time>2011-04-16T11:43:28Z</time>
      </trkpt>
      <trkpt lat="42.76148" lon="1.43732">
        <ele>1703.5935058594</ele>
        <time>2011-04-16T11:43:34Z</time>
      </trkpt>
      <trkpt lat="42.76155" lon="1.43733">
        <ele>1707.4387207031</ele>
        <time>2011-04-16T11:43:42Z</time>
      </trkpt>
      <trkpt lat="42.76157" lon="1.43737">
        <ele>1707.9194335938</ele>
        <time>2011-04-16T11:43:48Z</time>
      </trkpt>
      <trkpt lat="42.7616" lon="1.43741">
        <ele>1708.880859375</ele>
        <time>2011-04-16T11:43:55Z</time>
      </trkpt>
      <trkpt lat="42.76163" lon="1.43743">
        <ele>1710.3227539062</ele>
        <time>2011-04-16T11:44:00Z</time>
      </trkpt>
      <trkpt lat="42.76165" lon="1.43746">
        <ele>1711.7648925781</ele>
        <time>2011-04-16T11:44:05Z</time>
      </trkpt>
      <trkpt lat="42.76168" lon="1.43744">
        <ele>1714.16796875</ele>
        <time>2011-04-16T11:44:10Z</time>
      </trkpt>
      <trkpt lat="42.76171" lon="1.43743">
        <ele>1715.6101074219</ele>
        <time>2011-04-16T11:44:15Z</time>
      </trkpt>
      <trkpt lat="42.76175" lon="1.43742">
        <ele>1717.0520019531</ele>
        <time>2011-04-16T11:44:21Z</time>
      </trkpt>
      <trkpt lat="42.76181" lon="1.43741">
        <ele>1718.4938964844</ele>
        <time>2011-04-16T11:44:28Z</time>
      </trkpt>
      <trkpt lat="42.76185" lon="1.43746">
        <ele>1719.9357910156</ele>
        <time>2011-04-16T11:44:34Z</time>
      </trkpt>
      <trkpt lat="42.7619" lon="1.43743">
        <ele>1720.8972167969</ele>
        <time>2011-04-16T11:44:40Z</time>
      </trkpt>
      <trkpt lat="42.76194" lon="1.43744">
        <ele>1721.8583984375</ele>
        <time>2011-04-16T11:44:46Z</time>
      </trkpt>
      <trkpt lat="42.76193" lon="1.43751">
        <ele>1722.8198242188</ele>
        <time>2011-04-16T11:44:52Z</time>
      </trkpt>
      <trkpt lat="42.76194" lon="1.43756">
        <ele>1723.3005371094</ele>
        <time>2011-04-16T11:44:58Z</time>
      </trkpt>
      <trkpt lat="42.76199" lon="1.43758">
        <ele>1723.7810058594</ele>
        <time>2011-04-16T11:45:05Z</time>
      </trkpt>
      <trkpt lat="42.76203" lon="1.43759">
        <ele>1724.2619628906</ele>
        <time>2011-04-16T11:45:11Z</time>
      </trkpt>
      <trkpt lat="42.76208" lon="1.43762">
        <ele>1724.7426757812</ele>
        <time>2011-04-16T11:45:18Z</time>
      </trkpt>
      <trkpt lat="42.7621" lon="1.43764">
        <ele>1725.2231445312</ele>
        <time>2011-04-16T11:45:23Z</time>
      </trkpt>
      <trkpt lat="42.76211" lon="1.43768">
        <ele>1726.1845703125</ele>
        <time>2011-04-16T11:45:29Z</time>
      </trkpt>
      <trkpt lat="42.76213" lon="1.4377">
        <ele>1727.6264648438</ele>
        <time>2011-04-16T11:45:34Z</time>
      </trkpt>
      <trkpt lat="42.76214" lon="1.43773">
        <ele>1729.5490722656</ele>
        <time>2011-04-16T11:45:39Z</time>
      </trkpt>
      <trkpt lat="42.76217" lon="1.43775">
        <ele>1727.6264648438</ele>
        <time>2011-04-16T11:45:45Z</time>
      </trkpt>
      <trkpt lat="42.7622" lon="1.43777">
        <ele>1728.1071777344</ele>
        <time>2011-04-16T11:45:50Z</time>
      </trkpt>
      <trkpt lat="42.76223" lon="1.43777">
        <ele>1728.1071777344</ele>
        <time>2011-04-16T11:45:55Z</time>
      </trkpt>
      <trkpt lat="42.76224" lon="1.43778">
        <ele>1728.1071777344</ele>
        <time>2011-04-16T11:46:01Z</time>
      </trkpt>
      <trkpt lat="42.76227" lon="1.43778">
        <ele>1728.1071777344</ele>
        <time>2011-04-16T11:46:06Z</time>
      </trkpt>
      <trkpt lat="42.76233" lon="1.43779">
        <ele>1729.5490722656</ele>
        <time>2011-04-16T11:46:14Z</time>
      </trkpt>
      <trkpt lat="42.76233" lon="1.43779">
        <ele>1730.0297851562</ele>
        <time>2011-04-16T11:46:18Z</time>
      </trkpt>
      <trkpt lat="42.76233" lon="1.43779">
        <ele>1730.5104980469</ele>
        <time>2011-04-16T11:47:21Z</time>
      </trkpt>
      <trkpt lat="42.76233" lon="1.43779">
        <ele>1730.5104980469</ele>
        <time>2011-04-16T11:47:22Z</time>
      </trkpt>
      <trkpt lat="42.76228" lon="1.43779">
        <ele>1729.068359375</ele>
        <time>2011-04-16T11:47:28Z</time>
      </trkpt>
      <trkpt lat="42.76226" lon="1.43781">
        <ele>1728.587890625</ele>
        <time>2011-04-16T11:47:34Z</time>
      </trkpt>
      <trkpt lat="42.76225" lon="1.43784">
        <ele>1728.587890625</ele>
        <time>2011-04-16T11:47:38Z</time>
      </trkpt>
      <trkpt lat="42.76222" lon="1.43789">
        <ele>1730.5104980469</ele>
        <time>2011-04-16T11:47:46Z</time>
      </trkpt>
      <trkpt lat="42.76219" lon="1.43791">
        <ele>1731.9523925781</ele>
        <time>2011-04-16T11:47:51Z</time>
      </trkpt>
      <trkpt lat="42.76217" lon="1.43795">
        <ele>1733.875</ele>
        <time>2011-04-16T11:47:57Z</time>
      </trkpt>
      <trkpt lat="42.76215" lon="1.43798">
        <ele>1734.8364257812</ele>
        <time>2011-04-16T11:48:02Z</time>
      </trkpt>
      <trkpt lat="42.76211" lon="1.43802">
        <ele>1736.2783203125</ele>
        <time>2011-04-16T11:48:08Z</time>
      </trkpt>
      <trkpt lat="42.7621" lon="1.4381">
        <ele>1738.2009277344</ele>
        <time>2011-04-16T11:48:15Z</time>
      </trkpt>
      <trkpt lat="42.76208" lon="1.43813">
        <ele>1739.162109375</ele>
        <time>2011-04-16T11:48:19Z</time>
      </trkpt>
      <trkpt lat="42.76205" lon="1.43817">
        <ele>1740.6042480469</ele>
        <time>2011-04-16T11:48:26Z</time>
      </trkpt>
      <trkpt lat="42.76203" lon="1.43818">
        <ele>1741.0849609375</ele>
        <time>2011-04-16T11:48:31Z</time>
      </trkpt>
      <trkpt lat="42.76199" lon="1.43826">
        <ele>1742.5270996094</ele>
        <time>2011-04-16T11:48:39Z</time>
      </trkpt>
      <trkpt lat="42.76199" lon="1.43831">
        <ele>1743.9689941406</ele>
        <time>2011-04-16T11:48:45Z</time>
      </trkpt>
      <trkpt lat="42.76198" lon="1.43834">
        <ele>1744.9301757812</ele>
        <time>2011-04-16T11:48:49Z</time>
      </trkpt>
      <trkpt lat="42.762" lon="1.43835">
        <ele>1744.9301757812</ele>
        <time>2011-04-16T11:48:54Z</time>
      </trkpt>
      <trkpt lat="42.76204" lon="1.43838">
        <ele>1746.3723144531</ele>
        <time>2011-04-16T11:49:00Z</time>
      </trkpt>
      <trkpt lat="42.76203" lon="1.43842">
        <ele>1746.8527832031</ele>
        <time>2011-04-16T11:49:07Z</time>
      </trkpt>
      <trkpt lat="42.76202" lon="1.43846">
        <ele>1748.775390625</ele>
        <time>2011-04-16T11:49:14Z</time>
      </trkpt>
      <trkpt lat="42.76203" lon="1.43848">
        <ele>1750.2175292969</ele>
        <time>2011-04-16T11:49:19Z</time>
      </trkpt>
      <trkpt lat="42.76206" lon="1.4385">
        <ele>1751.6594238281</ele>
        <time>2011-04-16T11:49:25Z</time>
      </trkpt>
      <trkpt lat="42.76209" lon="1.4385">
        <ele>1752.6206054688</ele>
        <time>2011-04-16T11:49:31Z</time>
      </trkpt>
      <trkpt lat="42.76213" lon="1.43853">
        <ele>1754.0627441406</ele>
        <time>2011-04-16T11:49:38Z</time>
      </trkpt>
      <trkpt lat="42.76215" lon="1.43854">
        <ele>1754.5432128906</ele>
        <time>2011-04-16T11:49:43Z</time>
      </trkpt>
      <trkpt lat="42.7622" lon="1.43854">
        <ele>1754.5432128906</ele>
        <time>2011-04-16T11:49:49Z</time>
      </trkpt>
      <trkpt lat="42.76221" lon="1.43855">
        <ele>1755.5046386719</ele>
        <time>2011-04-16T11:49:56Z</time>
      </trkpt>
      <trkpt lat="42.76217" lon="1.43856">
        <ele>1756.9467773438</ele>
        <time>2011-04-16T11:50:02Z</time>
      </trkpt>
      <trkpt lat="42.76213" lon="1.43859">
        <ele>1756.4660644531</ele>
        <time>2011-04-16T11:50:08Z</time>
      </trkpt>
      <trkpt lat="42.7621" lon="1.43864">
        <ele>1756.9467773438</ele>
        <time>2011-04-16T11:50:14Z</time>
      </trkpt>
      <trkpt lat="42.76212" lon="1.43866">
        <ele>1758.388671875</ele>
        <time>2011-04-16T11:50:21Z</time>
      </trkpt>
      <trkpt lat="42.76215" lon="1.43869">
        <ele>1760.3112792969</ele>
        <time>2011-04-16T11:50:28Z</time>
      </trkpt>
      <trkpt lat="42.7622" lon="1.4387">
        <ele>1762.2338867188</ele>
        <time>2011-04-16T11:50:35Z</time>
      </trkpt>
      <trkpt lat="42.76223" lon="1.43871">
        <ele>1762.7145996094</ele>
        <time>2011-04-16T11:50:40Z</time>
      </trkpt>
      <trkpt lat="42.76228" lon="1.43873">
        <ele>1764.1564941406</ele>
        <time>2011-04-16T11:50:48Z</time>
      </trkpt>
      <trkpt lat="42.76229" lon="1.43877">
        <ele>1765.5986328125</ele>
        <time>2011-04-16T11:50:54Z</time>
      </trkpt>
      <trkpt lat="42.76232" lon="1.4388">
        <ele>1766.0791015625</ele>
        <time>2011-04-16T11:51:02Z</time>
      </trkpt>
      <trkpt lat="42.76231" lon="1.43882">
        <ele>1768.482421875</ele>
        <time>2011-04-16T11:51:07Z</time>
      </trkpt>
      <trkpt lat="42.76229" lon="1.43884">
        <ele>1769.4438476562</ele>
        <time>2011-04-16T11:51:12Z</time>
      </trkpt>
      <trkpt lat="42.76226" lon="1.43886">
        <ele>1769.9243164062</ele>
        <time>2011-04-16T11:51:18Z</time>
      </trkpt>
      <trkpt lat="42.76226" lon="1.43889">
        <ele>1770.4050292969</ele>
        <time>2011-04-16T11:51:23Z</time>
      </trkpt>
      <trkpt lat="42.76225" lon="1.43892">
        <ele>1772.3278808594</ele>
        <time>2011-04-16T11:51:30Z</time>
      </trkpt>
      <trkpt lat="42.76221" lon="1.43896">
        <ele>1772.80859375</ele>
        <time>2011-04-16T11:51:35Z</time>
      </trkpt>
      <trkpt lat="42.7622" lon="1.43898">
        <ele>1773.2893066406</ele>
        <time>2011-04-16T11:51:40Z</time>
      </trkpt>
      <trkpt lat="42.76219" lon="1.43899">
        <ele>1773.7697753906</ele>
        <time>2011-04-16T11:51:45Z</time>
      </trkpt>
      <trkpt lat="42.76221" lon="1.43901">
        <ele>1774.7312011719</ele>
        <time>2011-04-16T11:51:49Z</time>
      </trkpt>
      <trkpt lat="42.76224" lon="1.43902">
        <ele>1775.2116699219</ele>
        <time>2011-04-16T11:51:54Z</time>
      </trkpt>
      <trkpt lat="42.76226" lon="1.43903">
        <ele>1776.6538085938</ele>
        <time>2011-04-16T11:52:00Z</time>
      </trkpt>
      <trkpt lat="42.76228" lon="1.43905">
        <ele>1777.6149902344</ele>
        <time>2011-04-16T11:52:04Z</time>
      </trkpt>
      <trkpt lat="42.76229" lon="1.43906">
        <ele>1777.6149902344</ele>
        <time>2011-04-16T11:52:11Z</time>
      </trkpt>
      <trkpt lat="42.76228" lon="1.4391">
        <ele>1778.095703125</ele>
        <time>2011-04-16T11:52:17Z</time>
      </trkpt>
      <trkpt lat="42.76226" lon="1.43913">
        <ele>1779.5375976562</ele>
        <time>2011-04-16T11:52:22Z</time>
      </trkpt>
      <trkpt lat="42.76226" lon="1.43913">
        <ele>1780.0183105469</ele>
        <time>2011-04-16T11:52:27Z</time>
      </trkpt>
      <trkpt lat="42.76225" lon="1.43918">
        <ele>1780.4990234375</ele>
        <time>2011-04-16T11:52:33Z</time>
      </trkpt>
      <trkpt lat="42.76223" lon="1.4392">
        <ele>1782.4216308594</ele>
        <time>2011-04-16T11:52:38Z</time>
      </trkpt>
      <trkpt lat="42.76223" lon="1.43923">
        <ele>1783.3828125</ele>
        <time>2011-04-16T11:52:43Z</time>
      </trkpt>
      <trkpt lat="42.76221" lon="1.43925">
        <ele>1783.8635253906</ele>
        <time>2011-04-16T11:52:48Z</time>
      </trkpt>
      <trkpt lat="42.76218" lon="1.43927">
        <ele>1783.3828125</ele>
        <time>2011-04-16T11:52:54Z</time>
      </trkpt>
      <trkpt lat="42.76217" lon="1.43929">
        <ele>1784.3442382812</ele>
        <time>2011-04-16T11:53:02Z</time>
      </trkpt>
      <trkpt lat="42.76214" lon="1.43933">
        <ele>1786.2668457031</ele>
        <time>2011-04-16T11:53:07Z</time>
      </trkpt>
      <trkpt lat="42.76214" lon="1.43935">
        <ele>1788.1896972656</ele>
        <time>2011-04-16T11:53:11Z</time>
      </trkpt>
      <trkpt lat="42.76217" lon="1.43938">
        <ele>1789.1508789062</ele>
        <time>2011-04-16T11:53:18Z</time>
      </trkpt>
      <trkpt lat="42.76219" lon="1.43941">
        <ele>1791.0734863281</ele>
        <time>2011-04-16T11:53:24Z</time>
      </trkpt>
      <trkpt lat="42.7622" lon="1.43944">
        <ele>1791.5541992188</ele>
        <time>2011-04-16T11:53:28Z</time>
      </trkpt>
      <trkpt lat="42.7622" lon="1.43947">
        <ele>1792.515625</ele>
        <time>2011-04-16T11:53:33Z</time>
      </trkpt>
      <trkpt lat="42.76224" lon="1.4395">
        <ele>1793.4768066406</ele>
        <time>2011-04-16T11:53:41Z</time>
      </trkpt>
      <trkpt lat="42.76228" lon="1.43954">
        <ele>1794.9187011719</ele>
        <time>2011-04-16T11:53:49Z</time>
      </trkpt>
      <trkpt lat="42.76228" lon="1.43957">
        <ele>1795.8801269531</ele>
        <time>2011-04-16T11:53:53Z</time>
      </trkpt>
      <trkpt lat="42.76228" lon="1.4396">
        <ele>1796.3608398438</ele>
        <time>2011-04-16T11:53:57Z</time>
      </trkpt>
      <trkpt lat="42.76226" lon="1.43963">
        <ele>1796.8413085938</ele>
        <time>2011-04-16T11:54:02Z</time>
      </trkpt>
      <trkpt lat="42.76224" lon="1.43965">
        <ele>1797.3220214844</ele>
        <time>2011-04-16T11:54:08Z</time>
      </trkpt>
      <trkpt lat="42.76222" lon="1.43968">
        <ele>1797.3220214844</ele>
        <time>2011-04-16T11:54:13Z</time>
      </trkpt>
      <trkpt lat="42.76221" lon="1.43972">
        <ele>1797.3220214844</ele>
        <time>2011-04-16T11:54:18Z</time>
      </trkpt>
      <trkpt lat="42.76219" lon="1.43976">
        <ele>1798.283203125</ele>
        <time>2011-04-16T11:54:23Z</time>
      </trkpt>
      <trkpt lat="42.7622" lon="1.43979">
        <ele>1798.7639160156</ele>
        <time>2011-04-16T11:54:28Z</time>
      </trkpt>
      <trkpt lat="42.76223" lon="1.43982">
        <ele>1800.6865234375</ele>
        <time>2011-04-16T11:54:35Z</time>
      </trkpt>
      <trkpt lat="42.76228" lon="1.43984">
        <ele>1803.08984375</ele>
        <time>2011-04-16T11:54:42Z</time>
      </trkpt>
      <trkpt lat="42.76233" lon="1.43986">
        <ele>1805.4934082031</ele>
        <time>2011-04-16T11:54:51Z</time>
      </trkpt>
      <trkpt lat="42.76233" lon="1.43986">
        <ele>1806.9353027344</ele>
        <time>2011-04-16T11:54:57Z</time>
      </trkpt>
      <trkpt lat="42.76235" lon="1.43985">
        <ele>1808.8579101562</ele>
        <time>2011-04-16T11:55:17Z</time>
      </trkpt>
      <trkpt lat="42.7624" lon="1.43988">
        <ele>1809.8190917969</ele>
        <time>2011-04-16T11:55:24Z</time>
      </trkpt>
      <trkpt lat="42.76244" lon="1.4399">
        <ele>1810.7805175781</ele>
        <time>2011-04-16T11:55:30Z</time>
      </trkpt>
      <trkpt lat="42.76247" lon="1.43994">
        <ele>1811.7419433594</ele>
        <time>2011-04-16T11:55:38Z</time>
      </trkpt>
      <trkpt lat="42.76243" lon="1.44">
        <ele>1813.6643066406</ele>
        <time>2011-04-16T11:55:47Z</time>
      </trkpt>
      <trkpt lat="42.76243" lon="1.44005">
        <ele>1815.1064453125</ele>
        <time>2011-04-16T11:55:52Z</time>
      </trkpt>
      <trkpt lat="42.76241" lon="1.44009">
        <ele>1816.0676269531</ele>
        <time>2011-04-16T11:55:58Z</time>
      </trkpt>
      <trkpt lat="42.7624" lon="1.44015">
        <ele>1817.5095214844</ele>
        <time>2011-04-16T11:56:06Z</time>
      </trkpt>
      <trkpt lat="42.7624" lon="1.44021">
        <ele>1818.9516601562</ele>
        <time>2011-04-16T11:56:13Z</time>
      </trkpt>
      <trkpt lat="42.76237" lon="1.44028">
        <ele>1819.9128417969</ele>
        <time>2011-04-16T11:56:22Z</time>
      </trkpt>
      <trkpt lat="42.76234" lon="1.44035">
        <ele>1821.3549804688</ele>
        <time>2011-04-16T11:56:31Z</time>
      </trkpt>
      <trkpt lat="42.76229" lon="1.44044">
        <ele>1822.31640625</ele>
        <time>2011-04-16T11:56:41Z</time>
      </trkpt>
      <trkpt lat="42.76226" lon="1.44049">
        <ele>1823.2778320312</ele>
        <time>2011-04-16T11:56:48Z</time>
      </trkpt>
      <trkpt lat="42.76225" lon="1.44053">
        <ele>1823.7583007812</ele>
        <time>2011-04-16T11:56:52Z</time>
      </trkpt>
      <trkpt lat="42.76222" lon="1.44059">
        <ele>1824.2390136719</ele>
        <time>2011-04-16T11:56:59Z</time>
      </trkpt>
      <trkpt lat="42.76222" lon="1.44064">
        <ele>1824.7197265625</ele>
        <time>2011-04-16T11:57:06Z</time>
      </trkpt>
      <trkpt lat="42.76226" lon="1.44065">
        <ele>1825.6809082031</ele>
        <time>2011-04-16T11:57:12Z</time>
      </trkpt>
      <trkpt lat="42.76228" lon="1.44067">
        <ele>1826.6423339844</ele>
        <time>2011-04-16T11:57:17Z</time>
      </trkpt>
      <trkpt lat="42.76233" lon="1.44071">
        <ele>1829.5261230469</ele>
        <time>2011-04-16T11:57:26Z</time>
      </trkpt>
      <trkpt lat="42.76237" lon="1.44075">
        <ele>1830.9682617188</ele>
        <time>2011-04-16T11:57:34Z</time>
      </trkpt>
      <trkpt lat="42.76236" lon="1.4408">
        <ele>1831.4487304688</ele>
        <time>2011-04-16T11:57:40Z</time>
      </trkpt>
      <trkpt lat="42.76234" lon="1.44086">
        <ele>1832.890625</ele>
        <time>2011-04-16T11:57:47Z</time>
      </trkpt>
      <trkpt lat="42.76234" lon="1.4409">
        <ele>1833.3713378906</ele>
        <time>2011-04-16T11:57:51Z</time>
      </trkpt>
      <trkpt lat="42.76233" lon="1.44094">
        <ele>1834.3327636719</ele>
        <time>2011-04-16T11:57:56Z</time>
      </trkpt>
      <trkpt lat="42.76231" lon="1.44099">
        <ele>1835.2939453125</ele>
        <time>2011-04-16T11:58:03Z</time>
      </trkpt>
      <trkpt lat="42.76229" lon="1.44105">
        <ele>1836.2556152344</ele>
        <time>2011-04-16T11:58:10Z</time>
      </trkpt>
      <trkpt lat="42.76229" lon="1.44109">
        <ele>1837.216796875</ele>
        <time>2011-04-16T11:58:15Z</time>
      </trkpt>
      <trkpt lat="42.76228" lon="1.44114">
        <ele>1838.1782226562</ele>
        <time>2011-04-16T11:58:20Z</time>
      </trkpt>
      <trkpt lat="42.76225" lon="1.44118">
        <ele>1838.6589355469</ele>
        <time>2011-04-16T11:58:25Z</time>
      </trkpt>
      <trkpt lat="42.7622" lon="1.44126">
        <ele>1839.1394042969</ele>
        <time>2011-04-16T11:58:33Z</time>
      </trkpt>
      <trkpt lat="42.76218" lon="1.44132">
        <ele>1839.6201171875</ele>
        <time>2011-04-16T11:58:39Z</time>
      </trkpt>
      <trkpt lat="42.76213" lon="1.44142">
        <ele>1841.5427246094</ele>
        <time>2011-04-16T11:58:50Z</time>
      </trkpt>
      <trkpt lat="42.7621" lon="1.44148">
        <ele>1842.9846191406</ele>
        <time>2011-04-16T11:58:57Z</time>
      </trkpt>
      <trkpt lat="42.76209" lon="1.44154">
        <ele>1844.9072265625</ele>
        <time>2011-04-16T11:59:04Z</time>
      </trkpt>
      <trkpt lat="42.76208" lon="1.4416">
        <ele>1845.8686523438</ele>
        <time>2011-04-16T11:59:11Z</time>
      </trkpt>
      <trkpt lat="42.76205" lon="1.44167">
        <ele>1846.8298339844</ele>
        <time>2011-04-16T11:59:18Z</time>
      </trkpt>
      <trkpt lat="42.76202" lon="1.44175">
        <ele>1848.2717285156</ele>
        <time>2011-04-16T11:59:26Z</time>
      </trkpt>
      <trkpt lat="42.76207" lon="1.44177">
        <ele>1849.7138671875</ele>
        <time>2011-04-16T11:59:34Z</time>
      </trkpt>
      <trkpt lat="42.76209" lon="1.44181">
        <ele>1851.1557617188</ele>
        <time>2011-04-16T11:59:40Z</time>
      </trkpt>
      <trkpt lat="42.7621" lon="1.44187">
        <ele>1853.0786132812</ele>
        <time>2011-04-16T11:59:48Z</time>
      </trkpt>
      <trkpt lat="42.76213" lon="1.44192">
        <ele>1855.0012207031</ele>
        <time>2011-04-16T11:59:56Z</time>
      </trkpt>
      <trkpt lat="42.76217" lon="1.44194">
        <ele>1856.4431152344</ele>
        <time>2011-04-16T12:00:02Z</time>
      </trkpt>
      <trkpt lat="42.76221" lon="1.44196">
        <ele>1857.4045410156</ele>
        <time>2011-04-16T12:00:08Z</time>
      </trkpt>
      <trkpt lat="42.76223" lon="1.44201">
        <ele>1858.3657226562</ele>
        <time>2011-04-16T12:00:15Z</time>
      </trkpt>
      <trkpt lat="42.76222" lon="1.44209">
        <ele>1859.8076171875</ele>
        <time>2011-04-16T12:00:23Z</time>
      </trkpt>
      <trkpt lat="42.76221" lon="1.44217">
        <ele>1861.2497558594</ele>
        <time>2011-04-16T12:00:31Z</time>
      </trkpt>
      <trkpt lat="42.7622" lon="1.44221">
        <ele>1861.73046875</ele>
        <time>2011-04-16T12:00:36Z</time>
      </trkpt>
      <trkpt lat="42.76221" lon="1.44224">
        <ele>1862.2109375</ele>
        <time>2011-04-16T12:00:40Z</time>
      </trkpt>
      <trkpt lat="42.76221" lon="1.44229">
        <ele>1862.6916503906</ele>
        <time>2011-04-16T12:00:45Z</time>
      </trkpt>
      <trkpt lat="42.7622" lon="1.44236">
        <ele>1864.1335449219</ele>
        <time>2011-04-16T12:00:52Z</time>
      </trkpt>
      <trkpt lat="42.7622" lon="1.44241">
        <ele>1865.0949707031</ele>
        <time>2011-04-16T12:00:57Z</time>
      </trkpt>
      <trkpt lat="42.76219" lon="1.44246">
        <ele>1865.0949707031</ele>
        <time>2011-04-16T12:01:02Z</time>
      </trkpt>
      <trkpt lat="42.76221" lon="1.44249">
        <ele>1865.5756835938</ele>
        <time>2011-04-16T12:01:07Z</time>
      </trkpt>
      <trkpt lat="42.76221" lon="1.44255">
        <ele>1866.5368652344</ele>
        <time>2011-04-16T12:01:14Z</time>
      </trkpt>
      <trkpt lat="42.76224" lon="1.4426">
        <ele>1867.498046875</ele>
        <time>2011-04-16T12:01:21Z</time>
      </trkpt>
      <trkpt lat="42.76225" lon="1.44265">
        <ele>1867.9787597656</ele>
        <time>2011-04-16T12:01:26Z</time>
      </trkpt>
      <trkpt lat="42.76225" lon="1.4427">
        <ele>1868.9404296875</ele>
        <time>2011-04-16T12:01:32Z</time>
      </trkpt>
      <trkpt lat="42.76225" lon="1.44275">
        <ele>1869.9016113281</ele>
        <time>2011-04-16T12:01:37Z</time>
      </trkpt>
      <trkpt lat="42.76225" lon="1.4428">
        <ele>1870.8630371094</ele>
        <time>2011-04-16T12:01:42Z</time>
      </trkpt>
      <trkpt lat="42.76224" lon="1.44285">
        <ele>1871.82421875</ele>
        <time>2011-04-16T12:01:47Z</time>
      </trkpt>
      <trkpt lat="42.76225" lon="1.4429">
        <ele>1872.7856445312</ele>
        <time>2011-04-16T12:01:53Z</time>
      </trkpt>
      <trkpt lat="42.76227" lon="1.44293">
        <ele>1872.7856445312</ele>
        <time>2011-04-16T12:01:58Z</time>
      </trkpt>
      <trkpt lat="42.76228" lon="1.44299">
        <ele>1873.7468261719</ele>
        <time>2011-04-16T12:02:04Z</time>
      </trkpt>
      <trkpt lat="42.76228" lon="1.44304">
        <ele>1874.2275390625</ele>
        <time>2011-04-16T12:02:09Z</time>
      </trkpt>
      <trkpt lat="42.76228" lon="1.44309">
        <ele>1874.7082519531</ele>
        <time>2011-04-16T12:02:14Z</time>
      </trkpt>
      <trkpt lat="42.76228" lon="1.44316">
        <ele>1875.6694335938</ele>
        <time>2011-04-16T12:02:22Z</time>
      </trkpt>
      <trkpt lat="42.76233" lon="1.4432">
        <ele>1877.5920410156</ele>
        <time>2011-04-16T12:02:28Z</time>
      </trkpt>
      <trkpt lat="42.76234" lon="1.44325">
        <ele>1878.5534667969</ele>
        <time>2011-04-16T12:02:34Z</time>
      </trkpt>
      <trkpt lat="42.76236" lon="1.4433">
        <ele>1879.5146484375</ele>
        <time>2011-04-16T12:02:39Z</time>
      </trkpt>
      <trkpt lat="42.7624" lon="1.44332">
        <ele>1880.4760742188</ele>
        <time>2011-04-16T12:02:46Z</time>
      </trkpt>
      <trkpt lat="42.76243" lon="1.44335">
        <ele>1881.4372558594</ele>
        <time>2011-04-16T12:02:52Z</time>
      </trkpt>
      <trkpt lat="42.76245" lon="1.4434">
        <ele>1882.8791503906</ele>
        <time>2011-04-16T12:02:58Z</time>
      </trkpt>
      <trkpt lat="42.76248" lon="1.44345">
        <ele>1883.3598632812</ele>
        <time>2011-04-16T12:03:04Z</time>
      </trkpt>
      <trkpt lat="42.76249" lon="1.44348">
        <ele>1883.8405761719</ele>
        <time>2011-04-16T12:03:09Z</time>
      </trkpt>
      <trkpt lat="42.76249" lon="1.44353">
        <ele>1883.8405761719</ele>
        <time>2011-04-16T12:03:14Z</time>
      </trkpt>
      <trkpt lat="42.7625" lon="1.44359">
        <ele>1884.3215332031</ele>
        <time>2011-04-16T12:03:19Z</time>
      </trkpt>
      <trkpt lat="42.7625" lon="1.44364">
        <ele>1885.2827148438</ele>
        <time>2011-04-16T12:03:23Z</time>
      </trkpt>
      <trkpt lat="42.76252" lon="1.44372">
        <ele>1886.244140625</ele>
        <time>2011-04-16T12:03:30Z</time>
      </trkpt>
      <trkpt lat="42.76255" lon="1.44374">
        <ele>1887.2053222656</ele>
        <time>2011-04-16T12:03:35Z</time>
      </trkpt>
      <trkpt lat="42.7626" lon="1.44378">
        <ele>1888.6474609375</ele>
        <time>2011-04-16T12:03:42Z</time>
      </trkpt>
      <trkpt lat="42.76264" lon="1.44385">
        <ele>1890.0893554688</ele>
        <time>2011-04-16T12:03:50Z</time>
      </trkpt>
      <trkpt lat="42.76264" lon="1.44394">
        <ele>1891.0505371094</ele>
        <time>2011-04-16T12:03:57Z</time>
      </trkpt>
      <trkpt lat="42.76263" lon="1.44401">
        <ele>1892.0119628906</ele>
        <time>2011-04-16T12:04:04Z</time>
      </trkpt>
      <trkpt lat="42.76261" lon="1.44412">
        <ele>1893.4538574219</ele>
        <time>2011-04-16T12:04:13Z</time>
      </trkpt>
      <trkpt lat="42.76262" lon="1.4442">
        <ele>1894.4150390625</ele>
        <time>2011-04-16T12:04:20Z</time>
      </trkpt>
      <trkpt lat="42.76266" lon="1.44427">
        <ele>1894.4150390625</ele>
        <time>2011-04-16T12:04:28Z</time>
      </trkpt>
      <trkpt lat="42.76266" lon="1.44429">
        <ele>1894.4150390625</ele>
        <time>2011-04-16T12:04:35Z</time>
      </trkpt>
      <trkpt lat="42.76265" lon="1.4443">
        <ele>1892.9731445312</ele>
        <time>2011-04-16T12:08:21Z</time>
      </trkpt>
      <trkpt lat="42.76264" lon="1.4443">
        <ele>1892.4926757812</ele>
        <time>2011-04-16T12:08:22Z</time>
      </trkpt>
      <trkpt lat="42.76262" lon="1.44438">
        <ele>1892.4926757812</ele>
        <time>2011-04-16T12:08:28Z</time>
      </trkpt>
      <trkpt lat="42.7626" lon="1.44443">
        <ele>1892.0119628906</ele>
        <time>2011-04-16T12:08:33Z</time>
      </trkpt>
      <trkpt lat="42.76259" lon="1.4445">
        <ele>1891.53125</ele>
        <time>2011-04-16T12:08:38Z</time>
      </trkpt>
      <trkpt lat="42.76256" lon="1.44463">
        <ele>1893.4538574219</ele>
        <time>2011-04-16T12:08:48Z</time>
      </trkpt>
      <trkpt lat="42.76253" lon="1.44474">
        <ele>1894.4150390625</ele>
        <time>2011-04-16T12:08:56Z</time>
      </trkpt>
      <trkpt lat="42.76247" lon="1.44482">
        <ele>1894.8957519531</ele>
        <time>2011-04-16T12:09:03Z</time>
      </trkpt>
      <trkpt lat="42.76241" lon="1.44488">
        <ele>1895.8571777344</ele>
        <time>2011-04-16T12:09:10Z</time>
      </trkpt>
      <trkpt lat="42.76235" lon="1.44495">
        <ele>1895.8571777344</ele>
        <time>2011-04-16T12:09:16Z</time>
      </trkpt>
      <trkpt lat="42.76233" lon="1.44496">
        <ele>1895.8571777344</ele>
        <time>2011-04-16T12:09:17Z</time>
      </trkpt>
      <trkpt lat="42.76228" lon="1.44504">
        <ele>1895.8571777344</ele>
        <time>2011-04-16T12:09:24Z</time>
      </trkpt>
      <trkpt lat="42.76223" lon="1.4451">
        <ele>1895.8571777344</ele>
        <time>2011-04-16T12:09:29Z</time>
      </trkpt>
      <trkpt lat="42.76219" lon="1.44517">
        <ele>1896.337890625</ele>
        <time>2011-04-16T12:09:34Z</time>
      </trkpt>
      <trkpt lat="42.76214" lon="1.44523">
        <ele>1896.818359375</ele>
        <time>2011-04-16T12:09:40Z</time>
      </trkpt>
      <trkpt lat="42.76209" lon="1.44531">
        <ele>1897.2990722656</ele>
        <time>2011-04-16T12:09:47Z</time>
      </trkpt>
      <trkpt lat="42.76207" lon="1.44543">
        <ele>1898.2602539062</ele>
        <time>2011-04-16T12:09:55Z</time>
      </trkpt>
      <trkpt lat="42.76204" lon="1.44552">
        <ele>1898.2602539062</ele>
        <time>2011-04-16T12:10:02Z</time>
      </trkpt>
      <trkpt lat="42.762" lon="1.4456">
        <ele>1898.7409667969</ele>
        <time>2011-04-16T12:10:08Z</time>
      </trkpt>
      <trkpt lat="42.76194" lon="1.44568">
        <ele>1900.1833496094</ele>
        <time>2011-04-16T12:10:15Z</time>
      </trkpt>
      <trkpt lat="42.76192" lon="1.4458">
        <ele>1901.14453125</ele>
        <time>2011-04-16T12:10:23Z</time>
      </trkpt>
      <trkpt lat="42.76186" lon="1.44585">
        <ele>1902.1057128906</ele>
        <time>2011-04-16T12:10:30Z</time>
      </trkpt>
      <trkpt lat="42.7618" lon="1.44593">
        <ele>1903.0671386719</ele>
        <time>2011-04-16T12:10:38Z</time>
      </trkpt>
      <trkpt lat="42.76178" lon="1.44594">
        <ele>1903.5478515625</ele>
        <time>2011-04-16T12:10:40Z</time>
      </trkpt>
      <trkpt lat="42.76175" lon="1.44599">
        <ele>1904.0285644531</ele>
        <time>2011-04-16T12:10:44Z</time>
      </trkpt>
      <trkpt lat="42.76172" lon="1.44608">
        <ele>1904.5090332031</ele>
        <time>2011-04-16T12:10:52Z</time>
      </trkpt>
      <trkpt lat="42.76166" lon="1.44614">
        <ele>1905.4704589844</ele>
        <time>2011-04-16T12:10:59Z</time>
      </trkpt>
      <trkpt lat="42.7616" lon="1.44622">
        <ele>1905.9509277344</ele>
        <time>2011-04-16T12:11:08Z</time>
      </trkpt>
      <trkpt lat="42.76155" lon="1.44629">
        <ele>1906.431640625</ele>
        <time>2011-04-16T12:11:14Z</time>
      </trkpt>
      <trkpt lat="42.76151" lon="1.44637">
        <ele>1907.3930664062</ele>
        <time>2011-04-16T12:11:21Z</time>
      </trkpt>
      <trkpt lat="42.76146" lon="1.44639">
        <ele>1907.8737792969</ele>
        <time>2011-04-16T12:11:26Z</time>
      </trkpt>
      <trkpt lat="42.76141" lon="1.44647">
        <ele>1908.3542480469</ele>
        <time>2011-04-16T12:11:33Z</time>
      </trkpt>
      <trkpt lat="42.76135" lon="1.44654">
        <ele>1908.8349609375</ele>
        <time>2011-04-16T12:11:41Z</time>
      </trkpt>
      <trkpt lat="42.7613" lon="1.44658">
        <ele>1909.7961425781</ele>
        <time>2011-04-16T12:11:47Z</time>
      </trkpt>
      <trkpt lat="42.76124" lon="1.44662">
        <ele>1909.7961425781</ele>
        <time>2011-04-16T12:11:53Z</time>
      </trkpt>
      <trkpt lat="42.76118" lon="1.44668">
        <ele>1910.7575683594</ele>
        <time>2011-04-16T12:12:02Z</time>
      </trkpt>
      <trkpt lat="42.76113" lon="1.44673">
        <ele>1911.7189941406</ele>
        <time>2011-04-16T12:12:09Z</time>
      </trkpt>
      <trkpt lat="42.76109" lon="1.44678">
        <ele>1912.1994628906</ele>
        <time>2011-04-16T12:12:15Z</time>
      </trkpt>
      <trkpt lat="42.76103" lon="1.44685">
        <ele>1913.6413574219</ele>
        <time>2011-04-16T12:12:23Z</time>
      </trkpt>
      <trkpt lat="42.76101" lon="1.44687">
        <ele>1914.1220703125</ele>
        <time>2011-04-16T12:12:25Z</time>
      </trkpt>
      <trkpt lat="42.76097" lon="1.44691">
        <ele>1915.0834960938</ele>
        <time>2011-04-16T12:12:31Z</time>
      </trkpt>
      <trkpt lat="42.76096" lon="1.44697">
        <ele>1916.044921875</ele>
        <time>2011-04-16T12:12:37Z</time>
      </trkpt>
      <trkpt lat="42.76091" lon="1.44701">
        <ele>1916.5256347656</ele>
        <time>2011-04-16T12:12:43Z</time>
      </trkpt>
      <trkpt lat="42.76089" lon="1.44704">
        <ele>1916.5256347656</ele>
        <time>2011-04-16T12:12:49Z</time>
      </trkpt>
      <trkpt lat="42.76085" lon="1.44708">
        <ele>1917.4868164062</ele>
        <time>2011-04-16T12:12:54Z</time>
      </trkpt>
      <trkpt lat="42.7608" lon="1.44715">
        <ele>1917.9675292969</ele>
        <time>2011-04-16T12:13:01Z</time>
      </trkpt>
      <trkpt lat="42.76074" lon="1.44722">
        <ele>1918.4482421875</ele>
        <time>2011-04-16T12:13:09Z</time>
      </trkpt>
      <trkpt lat="42.76067" lon="1.44729">
        <ele>1919.8901367188</ele>
        <time>2011-04-16T12:13:18Z</time>
      </trkpt>
      <trkpt lat="42.76062" lon="1.44736">
        <ele>1920.8515625</ele>
        <time>2011-04-16T12:13:25Z</time>
      </trkpt>
      <trkpt lat="42.76058" lon="1.44741">
        <ele>1920.8515625</ele>
        <time>2011-04-16T12:13:31Z</time>
      </trkpt>
      <trkpt lat="42.76054" lon="1.44746">
        <ele>1921.8127441406</ele>
        <time>2011-04-16T12:14:20Z</time>
      </trkpt>
      <trkpt lat="42.76054" lon="1.44746">
        <ele>1921.8127441406</ele>
        <time>2011-04-16T12:14:21Z</time>
      </trkpt>
      <trkpt lat="42.76051" lon="1.4475">
        <ele>1921.33203125</ele>
        <time>2011-04-16T12:14:27Z</time>
      </trkpt>
      <trkpt lat="42.76047" lon="1.44754">
        <ele>1920.8515625</ele>
        <time>2011-04-16T12:14:33Z</time>
      </trkpt>
      <trkpt lat="42.76043" lon="1.44761">
        <ele>1920.8515625</ele>
        <time>2011-04-16T12:14:40Z</time>
      </trkpt>
      <trkpt lat="42.76037" lon="1.44768">
        <ele>1921.33203125</ele>
        <time>2011-04-16T12:14:47Z</time>
      </trkpt>
      <trkpt lat="42.76033" lon="1.44778">
        <ele>1921.33203125</ele>
        <time>2011-04-16T12:14:54Z</time>
      </trkpt>
      <trkpt lat="42.76028" lon="1.44786">
        <ele>1922.2934570312</ele>
        <time>2011-04-16T12:15:01Z</time>
      </trkpt>
      <trkpt lat="42.76025" lon="1.44792">
        <ele>1923.2548828125</ele>
        <time>2011-04-16T12:15:08Z</time>
      </trkpt>
      <trkpt lat="42.76021" lon="1.44797">
        <ele>1923.7353515625</ele>
        <time>2011-04-16T12:15:14Z</time>
      </trkpt>
      <trkpt lat="42.76017" lon="1.44804">
        <ele>1924.6967773438</ele>
        <time>2011-04-16T12:15:20Z</time>
      </trkpt>
      <trkpt lat="42.76011" lon="1.44812">
        <ele>1926.6193847656</ele>
        <time>2011-04-16T12:15:28Z</time>
      </trkpt>
      <trkpt lat="42.7601" lon="1.44813">
        <ele>1927.1000976562</ele>
        <time>2011-04-16T12:15:34Z</time>
      </trkpt>
      <trkpt lat="42.76007" lon="1.44812">
        <ele>1927.5805664062</ele>
        <time>2011-04-16T12:15:40Z</time>
      </trkpt>
      <trkpt lat="42.76002" lon="1.44813">
        <ele>1927.5805664062</ele>
        <time>2011-04-16T12:15:47Z</time>
      </trkpt>
      <trkpt lat="42.76" lon="1.44818">
        <ele>1928.0612792969</ele>
        <time>2011-04-16T12:15:54Z</time>
      </trkpt>
      <trkpt lat="42.75999" lon="1.44818">
        <ele>1928.0612792969</ele>
        <time>2011-04-16T12:16:07Z</time>
      </trkpt>
      <trkpt lat="42.75993" lon="1.44824">
        <ele>1928.5419921875</ele>
        <time>2011-04-16T12:16:15Z</time>
      </trkpt>
      <trkpt lat="42.75988" lon="1.4483">
        <ele>1929.0224609375</ele>
        <time>2011-04-16T12:16:23Z</time>
      </trkpt>
      <trkpt lat="42.75984" lon="1.44838">
        <ele>1929.5031738281</ele>
        <time>2011-04-16T12:16:29Z</time>
      </trkpt>
      <trkpt lat="42.75982" lon="1.44845">
        <ele>1929.9838867188</ele>
        <time>2011-04-16T12:16:35Z</time>
      </trkpt>
      <trkpt lat="42.75978" lon="1.44854">
        <ele>1930.4645996094</ele>
        <time>2011-04-16T12:16:42Z</time>
      </trkpt>
      <trkpt lat="42.75976" lon="1.44857">
        <ele>1929.5031738281</ele>
        <time>2011-04-16T12:16:48Z</time>
      </trkpt>
      <trkpt lat="42.75975" lon="1.44862">
        <ele>1929.9838867188</ele>
        <time>2011-04-16T12:16:54Z</time>
      </trkpt>
      <trkpt lat="42.7597" lon="1.44869">
        <ele>1929.9838867188</ele>
        <time>2011-04-16T12:17:01Z</time>
      </trkpt>
      <trkpt lat="42.75967" lon="1.44877">
        <ele>1930.4645996094</ele>
        <time>2011-04-16T12:17:07Z</time>
      </trkpt>
      <trkpt lat="42.75964" lon="1.44887">
        <ele>1930.9453125</ele>
        <time>2011-04-16T12:17:14Z</time>
      </trkpt>
      <trkpt lat="42.7596" lon="1.449">
        <ele>1931.42578125</ele>
        <time>2011-04-16T12:17:23Z</time>
      </trkpt>
      <trkpt lat="42.75956" lon="1.4491">
        <ele>1931.9064941406</ele>
        <time>2011-04-16T12:17:31Z</time>
      </trkpt>
      <trkpt lat="42.75952" lon="1.4492">
        <ele>1932.3874511719</ele>
        <time>2011-04-16T12:17:38Z</time>
      </trkpt>
      <trkpt lat="42.75948" lon="1.44931">
        <ele>1932.8679199219</ele>
        <time>2011-04-16T12:17:45Z</time>
      </trkpt>
      <trkpt lat="42.75944" lon="1.44941">
        <ele>1932.8679199219</ele>
        <time>2011-04-16T12:17:53Z</time>
      </trkpt>
      <trkpt lat="42.7594" lon="1.44949">
        <ele>1932.8679199219</ele>
        <time>2011-04-16T12:18:00Z</time>
      </trkpt>
      <trkpt lat="42.75938" lon="1.4495">
        <ele>1932.8679199219</ele>
        <time>2011-04-16T12:18:02Z</time>
      </trkpt>
      <trkpt lat="42.75936" lon="1.44958">
        <ele>1932.3874511719</ele>
        <time>2011-04-16T12:18:08Z</time>
      </trkpt>
      <trkpt lat="42.75933" lon="1.44971">
        <ele>1932.3874511719</ele>
        <time>2011-04-16T12:18:16Z</time>
      </trkpt>
      <trkpt lat="42.7593" lon="1.44981">
        <ele>1932.8679199219</ele>
        <time>2011-04-16T12:18:23Z</time>
      </trkpt>
      <trkpt lat="42.7593" lon="1.44983">
        <ele>1932.3874511719</ele>
        <time>2011-04-16T12:18:25Z</time>
      </trkpt>
      <trkpt lat="42.75897" lon="1.45115">
        <ele>1916.5256347656</ele>
        <time>2011-04-16T12:21:19Z</time>
      </trkpt>
      <trkpt lat="42.75896" lon="1.45119">
        <ele>1915.5642089844</ele>
        <time>2011-04-16T12:21:23Z</time>
      </trkpt>
      <trkpt lat="42.75896" lon="1.45126">
        <ele>1914.1220703125</ele>
        <time>2011-04-16T12:21:29Z</time>
      </trkpt>
      <trkpt lat="42.75895" lon="1.45134">
        <ele>1913.1608886719</ele>
        <time>2011-04-16T12:21:35Z</time>
      </trkpt>
      <trkpt lat="42.75892" lon="1.4514">
        <ele>1912.1994628906</ele>
        <time>2011-04-16T12:21:42Z</time>
      </trkpt>
      <trkpt lat="42.75891" lon="1.45143">
        <ele>1911.23828125</ele>
        <time>2011-04-16T12:21:49Z</time>
      </trkpt>
      <trkpt lat="42.75892" lon="1.45148">
        <ele>1910.2768554688</ele>
        <time>2011-04-16T12:21:55Z</time>
      </trkpt>
      <trkpt lat="42.75892" lon="1.4515">
        <ele>1909.7961425781</ele>
        <time>2011-04-16T12:22:00Z</time>
      </trkpt>
      <trkpt lat="42.75892" lon="1.45154">
        <ele>1909.7961425781</ele>
        <time>2011-04-16T12:22:05Z</time>
      </trkpt>
      <trkpt lat="42.75891" lon="1.45155">
        <ele>1909.3156738281</ele>
        <time>2011-04-16T12:22:12Z</time>
      </trkpt>
      <trkpt lat="42.7589" lon="1.45157">
        <ele>1908.8349609375</ele>
        <time>2011-04-16T12:22:20Z</time>
      </trkpt>
      <trkpt lat="42.7589" lon="1.45159">
        <ele>1907.8737792969</ele>
        <time>2011-04-16T12:22:31Z</time>
      </trkpt>
      <trkpt lat="42.7589" lon="1.45163">
        <ele>1904.9897460938</ele>
        <time>2011-04-16T12:22:39Z</time>
      </trkpt>
      <trkpt lat="42.75891" lon="1.45166">
        <ele>1903.5478515625</ele>
        <time>2011-04-16T12:22:44Z</time>
      </trkpt>
      <trkpt lat="42.7589" lon="1.4517">
        <ele>1903.0671386719</ele>
        <time>2011-04-16T12:22:50Z</time>
      </trkpt>
      <trkpt lat="42.7589" lon="1.4517">
        <ele>1902.5864257812</ele>
        <time>2011-04-16T12:23:00Z</time>
      </trkpt>
      <trkpt lat="42.7589" lon="1.4517">
        <ele>1902.1057128906</ele>
        <time>2011-04-16T12:23:05Z</time>
      </trkpt>
      <trkpt lat="42.7589" lon="1.45172">
        <ele>1901.6252441406</ele>
        <time>2011-04-16T12:23:11Z</time>
      </trkpt>
      <trkpt lat="42.7589" lon="1.45172">
        <ele>1900.6638183594</ele>
        <time>2011-04-16T12:23:15Z</time>
      </trkpt>
      <trkpt lat="42.75888" lon="1.45172">
        <ele>1899.2216796875</ele>
        <time>2011-04-16T12:23:22Z</time>
      </trkpt>
      <trkpt lat="42.75886" lon="1.45172">
        <ele>1898.2602539062</ele>
        <time>2011-04-16T12:23:29Z</time>
      </trkpt>
      <trkpt lat="42.75883" lon="1.4517">
        <ele>1897.2990722656</ele>
        <time>2011-04-16T12:23:36Z</time>
      </trkpt>
      <trkpt lat="42.75882" lon="1.45173">
        <ele>1896.337890625</ele>
        <time>2011-04-16T12:23:42Z</time>
      </trkpt>
      <trkpt lat="42.7588" lon="1.45175">
        <ele>1895.8571777344</ele>
        <time>2011-04-16T12:23:48Z</time>
      </trkpt>
      <trkpt lat="42.75879" lon="1.45176">
        <ele>1895.8571777344</ele>
        <time>2011-04-16T12:24:01Z</time>
      </trkpt>
      <trkpt lat="42.75877" lon="1.45175">
        <ele>1894.4150390625</ele>
        <time>2011-04-16T12:24:08Z</time>
      </trkpt>
      <trkpt lat="42.75875" lon="1.45173">
        <ele>1891.53125</ele>
        <time>2011-04-16T12:24:15Z</time>
      </trkpt>
      <trkpt lat="42.75873" lon="1.45172">
        <ele>1890.0893554688</ele>
        <time>2011-04-16T12:24:20Z</time>
      </trkpt>
      <trkpt lat="42.7587" lon="1.45171">
        <ele>1888.6474609375</ele>
        <time>2011-04-16T12:24:26Z</time>
      </trkpt>
      <trkpt lat="42.75867" lon="1.45171">
        <ele>1887.2053222656</ele>
        <time>2011-04-16T12:24:32Z</time>
      </trkpt>
      <trkpt lat="42.75864" lon="1.45173">
        <ele>1886.244140625</ele>
        <time>2011-04-16T12:24:37Z</time>
      </trkpt>
      <trkpt lat="42.75865" lon="1.45177">
        <ele>1884.8022460938</ele>
        <time>2011-04-16T12:24:42Z</time>
      </trkpt>
      <trkpt lat="42.75864" lon="1.4518">
        <ele>1883.3598632812</ele>
        <time>2011-04-16T12:24:48Z</time>
      </trkpt>
      <trkpt lat="42.75864" lon="1.45184">
        <ele>1881.4372558594</ele>
        <time>2011-04-16T12:24:52Z</time>
      </trkpt>
      <trkpt lat="42.75863" lon="1.45186">
        <ele>1879.9953613281</ele>
        <time>2011-04-16T12:24:57Z</time>
      </trkpt>
      <trkpt lat="42.7586" lon="1.45186">
        <ele>1878.0727539062</ele>
        <time>2011-04-16T12:25:03Z</time>
      </trkpt>
      <trkpt lat="42.75858" lon="1.45188">
        <ele>1875.6694335938</ele>
        <time>2011-04-16T12:25:09Z</time>
      </trkpt>
      <trkpt lat="42.75856" lon="1.45193">
        <ele>1874.2275390625</ele>
        <time>2011-04-16T12:25:15Z</time>
      </trkpt>
      <trkpt lat="42.75853" lon="1.45194">
        <ele>1872.3049316406</ele>
        <time>2011-04-16T12:25:20Z</time>
      </trkpt>
      <trkpt lat="42.75847" lon="1.45193">
        <ele>1869.9016113281</ele>
        <time>2011-04-16T12:25:28Z</time>
      </trkpt>
      <trkpt lat="42.75845" lon="1.45199">
        <ele>1866.5368652344</ele>
        <time>2011-04-16T12:25:34Z</time>
      </trkpt>
      <trkpt lat="42.75845" lon="1.45207">
        <ele>1863.6528320312</ele>
        <time>2011-04-16T12:25:40Z</time>
      </trkpt>
      <trkpt lat="42.75842" lon="1.45211">
        <ele>1861.73046875</ele>
        <time>2011-04-16T12:25:45Z</time>
      </trkpt>
      <trkpt lat="42.75835" lon="1.45215">
        <ele>1859.3271484375</ele>
        <time>2011-04-16T12:25:53Z</time>
      </trkpt>
      <trkpt lat="42.75832" lon="1.4522">
        <ele>1857.8852539062</ele>
        <time>2011-04-16T12:26:00Z</time>
      </trkpt>
      <trkpt lat="42.7583" lon="1.45228">
        <ele>1855.4819335938</ele>
        <time>2011-04-16T12:26:07Z</time>
      </trkpt>
      <trkpt lat="42.75829" lon="1.45228">
        <ele>1854.5205078125</ele>
        <time>2011-04-16T12:26:13Z</time>
      </trkpt>
      <trkpt lat="42.75829" lon="1.45228">
        <ele>1854.5205078125</ele>
        <time>2011-04-16T12:26:14Z</time>
      </trkpt>
      <trkpt lat="42.75828" lon="1.45227">
        <ele>1852.1171875</ele>
        <time>2011-04-16T12:27:17Z</time>
      </trkpt>
      <trkpt lat="42.75828" lon="1.45227">
        <ele>1852.1171875</ele>
        <time>2011-04-16T12:27:18Z</time>
      </trkpt>
      <trkpt lat="42.75827" lon="1.45232">
        <ele>1850.6750488281</ele>
        <time>2011-04-16T12:27:23Z</time>
      </trkpt>
      <trkpt lat="42.75826" lon="1.45236">
        <ele>1849.7138671875</ele>
        <time>2011-04-16T12:27:29Z</time>
      </trkpt>
      <trkpt lat="42.75826" lon="1.45239">
        <ele>1848.2717285156</ele>
        <time>2011-04-16T12:27:34Z</time>
      </trkpt>
      <trkpt lat="42.75826" lon="1.45243">
        <ele>1846.8298339844</ele>
        <time>2011-04-16T12:27:39Z</time>
      </trkpt>
      <trkpt lat="42.75824" lon="1.45248">
        <ele>1843.9460449219</ele>
        <time>2011-04-16T12:27:45Z</time>
      </trkpt>
      <trkpt lat="42.75827" lon="1.45254">
        <ele>1842.0234375</ele>
        <time>2011-04-16T12:27:50Z</time>
      </trkpt>
      <trkpt lat="42.75828" lon="1.45258">
        <ele>1840.1008300781</ele>
        <time>2011-04-16T12:27:55Z</time>
      </trkpt>
      <trkpt lat="42.75827" lon="1.45261">
        <ele>1838.1782226562</ele>
        <time>2011-04-16T12:28:00Z</time>
      </trkpt>
      <trkpt lat="42.75828" lon="1.45265">
        <ele>1836.7360839844</ele>
        <time>2011-04-16T12:28:04Z</time>
      </trkpt>
      <trkpt lat="42.75829" lon="1.45268">
        <ele>1833.8520507812</ele>
        <time>2011-04-16T12:28:09Z</time>
      </trkpt>
      <trkpt lat="42.75829" lon="1.45273">
        <ele>1831.4487304688</ele>
        <time>2011-04-16T12:28:13Z</time>
      </trkpt>
      <trkpt lat="42.75827" lon="1.45277">
        <ele>1828.0842285156</ele>
        <time>2011-04-16T12:28:20Z</time>
      </trkpt>
      <trkpt lat="42.75826" lon="1.4528">
        <ele>1826.6423339844</ele>
        <time>2011-04-16T12:28:25Z</time>
      </trkpt>
      <trkpt lat="42.7583" lon="1.45287">
        <ele>1824.2390136719</ele>
        <time>2011-04-16T12:28:31Z</time>
      </trkpt>
      <trkpt lat="42.7583" lon="1.45292">
        <ele>1823.2778320312</ele>
        <time>2011-04-16T12:28:35Z</time>
      </trkpt>
      <trkpt lat="42.7583" lon="1.45299">
        <ele>1822.31640625</ele>
        <time>2011-04-16T12:28:40Z</time>
      </trkpt>
      <trkpt lat="42.7583" lon="1.45307">
        <ele>1820.3937988281</ele>
        <time>2011-04-16T12:28:46Z</time>
      </trkpt>
      <trkpt lat="42.75829" lon="1.45314">
        <ele>1819.9128417969</ele>
        <time>2011-04-16T12:28:50Z</time>
      </trkpt>
      <trkpt lat="42.75829" lon="1.45317">
        <ele>1819.9128417969</ele>
        <time>2011-04-16T12:28:52Z</time>
      </trkpt>
      <trkpt lat="42.75828" lon="1.45325">
        <ele>1818.4709472656</ele>
        <time>2011-04-16T12:28:59Z</time>
      </trkpt>
      <trkpt lat="42.75829" lon="1.4533">
        <ele>1817.0290527344</ele>
        <time>2011-04-16T12:29:04Z</time>
      </trkpt>
      <trkpt lat="42.75831" lon="1.45338">
        <ele>1815.1064453125</ele>
        <time>2011-04-16T12:29:10Z</time>
      </trkpt>
      <trkpt lat="42.75833" lon="1.45341">
        <ele>1815.1064453125</ele>
        <time>2011-04-16T12:29:14Z</time>
      </trkpt>
      <trkpt lat="42.75831" lon="1.45341">
        <ele>1814.6257324219</ele>
        <time>2011-04-16T12:29:20Z</time>
      </trkpt>
      <trkpt lat="42.75827" lon="1.45341">
        <ele>1812.703125</ele>
        <time>2011-04-16T12:29:27Z</time>
      </trkpt>
      <trkpt lat="42.75824" lon="1.45344">
        <ele>1809.8190917969</ele>
        <time>2011-04-16T12:29:32Z</time>
      </trkpt>
      <trkpt lat="42.7582" lon="1.45345">
        <ele>1808.8579101562</ele>
        <time>2011-04-16T12:29:37Z</time>
      </trkpt>
      <trkpt lat="42.75818" lon="1.4535">
        <ele>1807.8967285156</ele>
        <time>2011-04-16T12:29:43Z</time>
      </trkpt>
      <trkpt lat="42.75819" lon="1.45355">
        <ele>1805.9738769531</ele>
        <time>2011-04-16T12:29:48Z</time>
      </trkpt>
      <trkpt lat="42.75819" lon="1.4536">
        <ele>1804.0515136719</ele>
        <time>2011-04-16T12:29:53Z</time>
      </trkpt>
      <trkpt lat="42.75816" lon="1.45364">
        <ele>1802.1284179688</ele>
        <time>2011-04-16T12:29:59Z</time>
      </trkpt>
      <trkpt lat="42.75813" lon="1.45369">
        <ele>1801.6479492188</ele>
        <time>2011-04-16T12:30:05Z</time>
      </trkpt>
      <trkpt lat="42.75814" lon="1.45373">
        <ele>1800.6865234375</ele>
        <time>2011-04-16T12:30:10Z</time>
      </trkpt>
      <trkpt lat="42.75814" lon="1.45377">
        <ele>1799.2446289062</ele>
        <time>2011-04-16T12:30:14Z</time>
      </trkpt>
      <trkpt lat="42.75817" lon="1.45382">
        <ele>1796.3608398438</ele>
        <time>2011-04-16T12:30:20Z</time>
      </trkpt>
      <trkpt lat="42.75819" lon="1.45387">
        <ele>1794.4379882812</ele>
        <time>2011-04-16T12:30:25Z</time>
      </trkpt>
      <trkpt lat="42.7582" lon="1.45394">
        <ele>1792.0349121094</ele>
        <time>2011-04-16T12:30:31Z</time>
      </trkpt>
      <trkpt lat="42.7582" lon="1.45403">
        <ele>1790.5927734375</ele>
        <time>2011-04-16T12:30:37Z</time>
      </trkpt>
      <trkpt lat="42.75821" lon="1.45408">
        <ele>1789.1508789062</ele>
        <time>2011-04-16T12:30:41Z</time>
      </trkpt>
      <trkpt lat="42.75824" lon="1.45416">
        <ele>1786.7473144531</ele>
        <time>2011-04-16T12:30:48Z</time>
      </trkpt>
      <trkpt lat="42.75827" lon="1.45415">
        <ele>1786.2668457031</ele>
        <time>2011-04-16T12:30:55Z</time>
      </trkpt>
      <trkpt lat="42.7583" lon="1.45415">
        <ele>1787.2280273438</ele>
        <time>2011-04-16T12:31:01Z</time>
      </trkpt>
      <trkpt lat="42.75827" lon="1.45415">
        <ele>1786.7473144531</ele>
        <time>2011-04-16T12:31:12Z</time>
      </trkpt>
      <trkpt lat="42.75827" lon="1.45418">
        <ele>1786.2668457031</ele>
        <time>2011-04-16T12:31:17Z</time>
      </trkpt>
      <trkpt lat="42.75826" lon="1.4542">
        <ele>1784.3442382812</ele>
        <time>2011-04-16T12:31:24Z</time>
      </trkpt>
      <trkpt lat="42.75827" lon="1.4542">
        <ele>1783.3828125</ele>
        <time>2011-04-16T12:31:29Z</time>
      </trkpt>
      <trkpt lat="42.75828" lon="1.45425">
        <ele>1785.3054199219</ele>
        <time>2011-04-16T12:31:41Z</time>
      </trkpt>
      <trkpt lat="42.75827" lon="1.45429">
        <ele>1783.8635253906</ele>
        <time>2011-04-16T12:31:48Z</time>
      </trkpt>
      <trkpt lat="42.75826" lon="1.4543">
        <ele>1783.3828125</ele>
        <time>2011-04-16T12:31:53Z</time>
      </trkpt>
      <trkpt lat="42.75824" lon="1.45433">
        <ele>1782.4216308594</ele>
        <time>2011-04-16T12:31:58Z</time>
      </trkpt>
      <trkpt lat="42.75824" lon="1.45434">
        <ele>1781.9409179688</ele>
        <time>2011-04-16T12:32:02Z</time>
      </trkpt>
      <trkpt lat="42.75822" lon="1.45437">
        <ele>1780.0183105469</ele>
        <time>2011-04-16T12:32:09Z</time>
      </trkpt>
      <trkpt lat="42.75826" lon="1.45442">
        <ele>1778.5764160156</ele>
        <time>2011-04-16T12:32:16Z</time>
      </trkpt>
      <trkpt lat="42.75827" lon="1.45449">
        <ele>1779.5375976562</ele>
        <time>2011-04-16T12:32:21Z</time>
      </trkpt>
      <trkpt lat="42.75827" lon="1.45453">
        <ele>1777.6149902344</ele>
        <time>2011-04-16T12:32:25Z</time>
      </trkpt>
      <trkpt lat="42.75826" lon="1.4546">
        <ele>1775.2116699219</ele>
        <time>2011-04-16T12:32:30Z</time>
      </trkpt>
      <trkpt lat="42.75829" lon="1.45469">
        <ele>1771.8469238281</ele>
        <time>2011-04-16T12:32:37Z</time>
      </trkpt>
      <trkpt lat="42.75831" lon="1.45473">
        <ele>1769.4438476562</ele>
        <time>2011-04-16T12:32:42Z</time>
      </trkpt>
      <trkpt lat="42.75831" lon="1.45478">
        <ele>1768.482421875</ele>
        <time>2011-04-16T12:32:47Z</time>
      </trkpt>
      <trkpt lat="42.7583" lon="1.45484">
        <ele>1767.0405273438</ele>
        <time>2011-04-16T12:32:53Z</time>
      </trkpt>
      <trkpt lat="42.75832" lon="1.45488">
        <ele>1764.6372070312</ele>
        <time>2011-04-16T12:32:59Z</time>
      </trkpt>
      <trkpt lat="42.75836" lon="1.45494">
        <ele>1763.1953125</ele>
        <time>2011-04-16T12:33:05Z</time>
      </trkpt>
      <trkpt lat="42.75838" lon="1.45497">
        <ele>1761.7534179688</ele>
        <time>2011-04-16T12:33:10Z</time>
      </trkpt>
      <trkpt lat="42.75841" lon="1.45503">
        <ele>1759.3500976562</ele>
        <time>2011-04-16T12:33:17Z</time>
      </trkpt>
      <trkpt lat="42.75844" lon="1.4551">
        <ele>1757.908203125</ele>
        <time>2011-04-16T12:33:22Z</time>
      </trkpt>
      <trkpt lat="42.75847" lon="1.45516">
        <ele>1757.4274902344</ele>
        <time>2011-04-16T12:33:28Z</time>
      </trkpt>
      <trkpt lat="42.75849" lon="1.4552">
        <ele>1755.0239257812</ele>
        <time>2011-04-16T12:33:34Z</time>
      </trkpt>
      <trkpt lat="42.75851" lon="1.45521">
        <ele>1753.58203125</ele>
        <time>2011-04-16T12:33:39Z</time>
      </trkpt>
      <trkpt lat="42.75851" lon="1.45521">
        <ele>1752.6206054688</ele>
        <time>2011-04-16T12:33:44Z</time>
      </trkpt>
      <trkpt lat="42.75854" lon="1.45524">
        <ele>1751.1787109375</ele>
        <time>2011-04-16T12:33:49Z</time>
      </trkpt>
      <trkpt lat="42.75859" lon="1.45528">
        <ele>1750.2175292969</ele>
        <time>2011-04-16T12:33:54Z</time>
      </trkpt>
      <trkpt lat="42.7586" lon="1.45531">
        <ele>1748.775390625</ele>
        <time>2011-04-16T12:33:58Z</time>
      </trkpt>
      <trkpt lat="42.7586" lon="1.45538">
        <ele>1747.3334960938</ele>
        <time>2011-04-16T12:34:04Z</time>
      </trkpt>
      <trkpt lat="42.75858" lon="1.45543">
        <ele>1745.8916015625</ele>
        <time>2011-04-16T12:34:10Z</time>
      </trkpt>
      <trkpt lat="42.75859" lon="1.45547">
        <ele>1745.4108886719</ele>
        <time>2011-04-16T12:34:16Z</time>
      </trkpt>
      <trkpt lat="42.75861" lon="1.4555">
        <ele>1744.4494628906</ele>
        <time>2011-04-16T12:34:21Z</time>
      </trkpt>
      <trkpt lat="42.75862" lon="1.45554">
        <ele>1743.48828125</ele>
        <time>2011-04-16T12:34:26Z</time>
      </trkpt>
      <trkpt lat="42.75861" lon="1.45559">
        <ele>1743.9689941406</ele>
        <time>2011-04-16T12:34:32Z</time>
      </trkpt>
      <trkpt lat="42.75863" lon="1.45562">
        <ele>1743.9689941406</ele>
        <time>2011-04-16T12:34:38Z</time>
      </trkpt>
      <trkpt lat="42.75864" lon="1.45563">
        <ele>1743.9689941406</ele>
        <time>2011-04-16T12:34:44Z</time>
      </trkpt>
      <trkpt lat="42.75866" lon="1.45566">
        <ele>1744.4494628906</ele>
        <time>2011-04-16T12:34:49Z</time>
      </trkpt>
      <trkpt lat="42.75867" lon="1.45568">
        <ele>1743.9689941406</ele>
        <time>2011-04-16T12:34:53Z</time>
      </trkpt>
      <trkpt lat="42.75869" lon="1.45572">
        <ele>1743.9689941406</ele>
        <time>2011-04-16T12:34:58Z</time>
      </trkpt>
      <trkpt lat="42.7587" lon="1.45575">
        <ele>1743.9689941406</ele>
        <time>2011-04-16T12:35:02Z</time>
      </trkpt>
      <trkpt lat="42.7587" lon="1.45579">
        <ele>1743.9689941406</ele>
        <time>2011-04-16T12:35:06Z</time>
      </trkpt>
      <trkpt lat="42.7587" lon="1.45588">
        <ele>1743.0075683594</ele>
        <time>2011-04-16T12:35:12Z</time>
      </trkpt>
      <trkpt lat="42.75871" lon="1.45595">
        <ele>1742.5270996094</ele>
        <time>2011-04-16T12:35:18Z</time>
      </trkpt>
      <trkpt lat="42.75871" lon="1.456">
        <ele>1743.48828125</ele>
        <time>2011-04-16T12:35:24Z</time>
      </trkpt>
      <trkpt lat="42.75872" lon="1.45606">
        <ele>1744.4494628906</ele>
        <time>2011-04-16T12:35:29Z</time>
      </trkpt>
      <trkpt lat="42.75873" lon="1.45611">
        <ele>1743.9689941406</ele>
        <time>2011-04-16T12:35:34Z</time>
      </trkpt>
      <trkpt lat="42.75875" lon="1.45615">
        <ele>1743.9689941406</ele>
        <time>2011-04-16T12:35:39Z</time>
      </trkpt>
      <trkpt lat="42.75877" lon="1.45621">
        <ele>1743.48828125</ele>
        <time>2011-04-16T12:35:46Z</time>
      </trkpt>
      <trkpt lat="42.75878" lon="1.45631">
        <ele>1743.0075683594</ele>
        <time>2011-04-16T12:35:54Z</time>
      </trkpt>
      <trkpt lat="42.7588" lon="1.45638">
        <ele>1742.5270996094</ele>
        <time>2011-04-16T12:36:00Z</time>
      </trkpt>
      <trkpt lat="42.75883" lon="1.45648">
        <ele>1742.0463867188</ele>
        <time>2011-04-16T12:36:09Z</time>
      </trkpt>
      <trkpt lat="42.75885" lon="1.45652">
        <ele>1741.5656738281</ele>
        <time>2011-04-16T12:36:12Z</time>
      </trkpt>
      <trkpt lat="42.75887" lon="1.45657">
        <ele>1741.5656738281</ele>
        <time>2011-04-16T12:36:18Z</time>
      </trkpt>
      <trkpt lat="42.75889" lon="1.45662">
        <ele>1740.6042480469</ele>
        <time>2011-04-16T12:36:23Z</time>
      </trkpt>
      <trkpt lat="42.75893" lon="1.4567">
        <ele>1740.1237792969</ele>
        <time>2011-04-16T12:36:30Z</time>
      </trkpt>
      <trkpt lat="42.75895" lon="1.45674">
        <ele>1739.6428222656</ele>
        <time>2011-04-16T12:36:37Z</time>
      </trkpt>
      <trkpt lat="42.75898" lon="1.45674">
        <ele>1740.1237792969</ele>
        <time>2011-04-16T12:36:44Z</time>
      </trkpt>
      <trkpt lat="42.759" lon="1.45676">
        <ele>1739.6428222656</ele>
        <time>2011-04-16T12:36:50Z</time>
      </trkpt>
      <trkpt lat="42.759" lon="1.45678">
        <ele>1738.2009277344</ele>
        <time>2011-04-16T12:36:56Z</time>
      </trkpt>
      <trkpt lat="42.75902" lon="1.45681">
        <ele>1736.2783203125</ele>
        <time>2011-04-16T12:37:01Z</time>
      </trkpt>
      <trkpt lat="42.75902" lon="1.45681">
        <ele>1735.7976074219</ele>
        <time>2011-04-16T12:37:09Z</time>
      </trkpt>
      <trkpt lat="42.75903" lon="1.45684">
        <ele>1734.3557128906</ele>
        <time>2011-04-16T12:37:15Z</time>
      </trkpt>
      <trkpt lat="42.75903" lon="1.45687">
        <ele>1732.9135742188</ele>
        <time>2011-04-16T12:37:22Z</time>
      </trkpt>
      <trkpt lat="42.75903" lon="1.4569">
        <ele>1731.4716796875</ele>
        <time>2011-04-16T12:37:29Z</time>
      </trkpt>
      <trkpt lat="42.75902" lon="1.4569">
        <ele>1731.4716796875</ele>
        <time>2011-04-16T12:37:36Z</time>
      </trkpt>
      <trkpt lat="42.75902" lon="1.45691">
        <ele>1731.4716796875</ele>
        <time>2011-04-16T12:37:43Z</time>
      </trkpt>
      <trkpt lat="42.75902" lon="1.45694">
        <ele>1729.5490722656</ele>
        <time>2011-04-16T12:37:49Z</time>
      </trkpt>
      <trkpt lat="42.75903" lon="1.45698">
        <ele>1727.6264648438</ele>
        <time>2011-04-16T12:37:56Z</time>
      </trkpt>
      <trkpt lat="42.75903" lon="1.45699">
        <ele>1728.1071777344</ele>
        <time>2011-04-16T12:37:58Z</time>
      </trkpt>
      <trkpt lat="42.75903" lon="1.45698">
        <ele>1728.587890625</ele>
        <time>2011-04-16T12:39:14Z</time>
      </trkpt>
      <trkpt lat="42.75903" lon="1.45698">
        <ele>1728.587890625</ele>
        <time>2011-04-16T12:39:15Z</time>
      </trkpt>
      <trkpt lat="42.75901" lon="1.45699">
        <ele>1727.6264648438</ele>
        <time>2011-04-16T12:39:21Z</time>
      </trkpt>
      <trkpt lat="42.75899" lon="1.45702">
        <ele>1725.7038574219</ele>
        <time>2011-04-16T12:39:26Z</time>
      </trkpt>
      <trkpt lat="42.75898" lon="1.45704">
        <ele>1724.2619628906</ele>
        <time>2011-04-16T12:39:34Z</time>
      </trkpt>
      <trkpt lat="42.75899" lon="1.45703">
        <ele>1724.7426757812</ele>
        <time>2011-04-16T12:39:41Z</time>
      </trkpt>
      <trkpt lat="42.75899" lon="1.45708">
        <ele>1723.7810058594</ele>
        <time>2011-04-16T12:39:47Z</time>
      </trkpt>
      <trkpt lat="42.75896" lon="1.45712">
        <ele>1721.3776855469</ele>
        <time>2011-04-16T12:39:52Z</time>
      </trkpt>
      <trkpt lat="42.75895" lon="1.45715">
        <ele>1718.974609375</ele>
        <time>2011-04-16T12:39:58Z</time>
      </trkpt>
      <trkpt lat="42.75895" lon="1.45719">
        <ele>1716.5712890625</ele>
        <time>2011-04-16T12:40:03Z</time>
      </trkpt>
      <trkpt lat="42.75895" lon="1.45723">
        <ele>1715.1293945312</ele>
        <time>2011-04-16T12:40:07Z</time>
      </trkpt>
      <trkpt lat="42.75893" lon="1.45724">
        <ele>1713.2067871094</ele>
        <time>2011-04-16T12:40:11Z</time>
      </trkpt>
      <trkpt lat="42.75891" lon="1.45726">
        <ele>1710.8034667969</ele>
        <time>2011-04-16T12:40:17Z</time>
      </trkpt>
      <trkpt lat="42.75888" lon="1.45729">
        <ele>1708.4001464844</ele>
        <time>2011-04-16T12:40:23Z</time>
      </trkpt>
      <trkpt lat="42.75885" lon="1.45728">
        <ele>1706.4772949219</ele>
        <time>2011-04-16T12:40:28Z</time>
      </trkpt>
      <trkpt lat="42.75879" lon="1.45731">
        <ele>1704.07421875</ele>
        <time>2011-04-16T12:40:35Z</time>
      </trkpt>
      <trkpt lat="42.75876" lon="1.45733">
        <ele>1701.6708984375</ele>
        <time>2011-04-16T12:40:40Z</time>
      </trkpt>
      <trkpt lat="42.75876" lon="1.45737">
        <ele>1700.7094726562</ele>
        <time>2011-04-16T12:40:44Z</time>
      </trkpt>
      <trkpt lat="42.75872" lon="1.4574">
        <ele>1698.3061523438</ele>
        <time>2011-04-16T12:40:48Z</time>
      </trkpt>
      <trkpt lat="42.7587" lon="1.45745">
        <ele>1696.3837890625</ele>
        <time>2011-04-16T12:40:53Z</time>
      </trkpt>
      <trkpt lat="42.75871" lon="1.4575">
        <ele>1695.4223632812</ele>
        <time>2011-04-16T12:40:56Z</time>
      </trkpt>
      <trkpt lat="42.75868" lon="1.45754">
        <ele>1693.98046875</ele>
        <time>2011-04-16T12:40:59Z</time>
      </trkpt>
      <trkpt lat="42.75867" lon="1.45757">
        <ele>1693.4997558594</ele>
        <time>2011-04-16T12:41:01Z</time>
      </trkpt>
      <trkpt lat="42.75862" lon="1.45761">
        <ele>1692.5385742188</ele>
        <time>2011-04-16T12:41:06Z</time>
      </trkpt>
      <trkpt lat="42.75859" lon="1.45769">
        <ele>1691.0961914062</ele>
        <time>2011-04-16T12:41:15Z</time>
      </trkpt>
      <trkpt lat="42.75859" lon="1.45777">
        <ele>1689.1735839844</ele>
        <time>2011-04-16T12:41:22Z</time>
      </trkpt>
      <trkpt lat="42.75859" lon="1.45787">
        <ele>1688.2124023438</ele>
        <time>2011-04-16T12:41:27Z</time>
      </trkpt>
      <trkpt lat="42.75862" lon="1.45796">
        <ele>1687.2509765625</ele>
        <time>2011-04-16T12:41:33Z</time>
      </trkpt>
      <trkpt lat="42.75865" lon="1.45803">
        <ele>1686.7702636719</ele>
        <time>2011-04-16T12:41:39Z</time>
      </trkpt>
      <trkpt lat="42.75867" lon="1.45806">
        <ele>1686.2897949219</ele>
        <time>2011-04-16T12:41:44Z</time>
      </trkpt>
      <trkpt lat="42.7587" lon="1.45806">
        <ele>1687.2509765625</ele>
        <time>2011-04-16T12:41:51Z</time>
      </trkpt>
      <trkpt lat="42.75873" lon="1.45806">
        <ele>1688.2124023438</ele>
        <time>2011-04-16T12:41:57Z</time>
      </trkpt>
      <trkpt lat="42.75872" lon="1.45806">
        <ele>1687.7316894531</ele>
        <time>2011-04-16T12:42:04Z</time>
      </trkpt>
      <trkpt lat="42.75867" lon="1.45807">
        <ele>1686.7702636719</ele>
        <time>2011-04-16T12:42:09Z</time>
      </trkpt>
      <trkpt lat="42.75861" lon="1.4581">
        <ele>1686.2897949219</ele>
        <time>2011-04-16T12:42:15Z</time>
      </trkpt>
      <trkpt lat="42.75856" lon="1.45811">
        <ele>1685.8090820312</ele>
        <time>2011-04-16T12:42:20Z</time>
      </trkpt>
      <trkpt lat="42.75848" lon="1.45814">
        <ele>1685.3283691406</ele>
        <time>2011-04-16T12:42:28Z</time>
      </trkpt>
      <trkpt lat="42.75845" lon="1.45812">
        <ele>1685.8090820312</ele>
        <time>2011-04-16T12:42:34Z</time>
      </trkpt>
      <trkpt lat="42.75844" lon="1.45807">
        <ele>1686.7702636719</ele>
        <time>2011-04-16T12:42:39Z</time>
      </trkpt>
      <trkpt lat="42.75845" lon="1.45805">
        <ele>1686.7702636719</ele>
        <time>2011-04-16T12:42:45Z</time>
      </trkpt>
      <trkpt lat="42.75843" lon="1.45807">
        <ele>1687.2509765625</ele>
        <time>2011-04-16T12:42:50Z</time>
      </trkpt>
      <trkpt lat="42.75839" lon="1.45805">
        <ele>1686.7702636719</ele>
        <time>2011-04-16T12:42:56Z</time>
      </trkpt>
      <trkpt lat="42.75837" lon="1.45806">
        <ele>1686.2897949219</ele>
        <time>2011-04-16T12:43:02Z</time>
      </trkpt>
      <trkpt lat="42.75837" lon="1.45808">
        <ele>1685.8090820312</ele>
        <time>2011-04-16T12:43:08Z</time>
      </trkpt>
      <trkpt lat="42.75836" lon="1.45809">
        <ele>1685.3283691406</ele>
        <time>2011-04-16T12:43:11Z</time>
      </trkpt>
      <trkpt lat="42.75836" lon="1.45809">
        <ele>1684.8479003906</ele>
        <time>2011-04-16T12:43:22Z</time>
      </trkpt>
      <trkpt lat="42.75835" lon="1.45809">
        <ele>1684.3671875</ele>
        <time>2011-04-16T12:43:52Z</time>
      </trkpt>
      <trkpt lat="42.75837" lon="1.4581">
        <ele>1683.4057617188</ele>
        <time>2011-04-16T12:44:25Z</time>
      </trkpt>
      <trkpt lat="42.75837" lon="1.45811">
        <ele>1683.4057617188</ele>
        <time>2011-04-16T12:44:30Z</time>
      </trkpt>
      <trkpt lat="42.76121" lon="1.46241">
        <ele>1506.5231933594</ele>
        <time>2011-04-16T12:55:06Z</time>
      </trkpt>
      <trkpt lat="42.76121" lon="1.46242">
        <ele>1506.0424804688</ele>
        <time>2011-04-16T12:55:07Z</time>
      </trkpt>
      <trkpt lat="42.76125" lon="1.46249">
        <ele>1501.716796875</ele>
        <time>2011-04-16T12:55:13Z</time>
      </trkpt>
      <trkpt lat="42.76125" lon="1.46254">
        <ele>1501.2360839844</ele>
        <time>2011-04-16T12:55:16Z</time>
      </trkpt>
      <trkpt lat="42.76123" lon="1.46266">
        <ele>1500.2749023438</ele>
        <time>2011-04-16T12:55:22Z</time>
      </trkpt>
      <trkpt lat="42.76123" lon="1.46277">
        <ele>1497.390625</ele>
        <time>2011-04-16T12:55:27Z</time>
      </trkpt>
      <trkpt lat="42.76123" lon="1.46283">
        <ele>1497.390625</ele>
        <time>2011-04-16T12:55:29Z</time>
      </trkpt>
      <trkpt lat="42.76123" lon="1.46296">
        <ele>1494.9873046875</ele>
        <time>2011-04-16T12:55:34Z</time>
      </trkpt>
      <trkpt lat="42.76125" lon="1.46309">
        <ele>1493.5454101562</ele>
        <time>2011-04-16T12:55:40Z</time>
      </trkpt>
      <trkpt lat="42.76126" lon="1.46321">
        <ele>1490.6613769531</ele>
        <time>2011-04-16T12:55:45Z</time>
      </trkpt>
      <trkpt lat="42.76122" lon="1.46332">
        <ele>1485.8549804688</ele>
        <time>2011-04-16T12:55:50Z</time>
      </trkpt>
      <trkpt lat="42.76121" lon="1.46336">
        <ele>1483.4514160156</ele>
        <time>2011-04-16T12:55:52Z</time>
      </trkpt>
      <trkpt lat="42.76118" lon="1.46341">
        <ele>1479.6062011719</ele>
        <time>2011-04-16T12:55:58Z</time>
      </trkpt>
      <trkpt lat="42.76114" lon="1.46347">
        <ele>1475.7609863281</ele>
        <time>2011-04-16T12:56:04Z</time>
      </trkpt>
      <trkpt lat="42.76109" lon="1.46354">
        <ele>1471.9157714844</ele>
        <time>2011-04-16T12:56:10Z</time>
      </trkpt>
      <trkpt lat="42.76107" lon="1.46359">
        <ele>1469.0319824219</ele>
        <time>2011-04-16T12:56:14Z</time>
      </trkpt>
      <trkpt lat="42.76103" lon="1.46368">
        <ele>1465.6672363281</ele>
        <time>2011-04-16T12:56:20Z</time>
      </trkpt>
      <trkpt lat="42.76101" lon="1.46373">
        <ele>1464.2250976562</ele>
        <time>2011-04-16T12:56:24Z</time>
      </trkpt>
      <trkpt lat="42.76102" lon="1.46374">
        <ele>1463.2639160156</ele>
        <time>2011-04-16T12:56:31Z</time>
      </trkpt>
      <trkpt lat="42.76107" lon="1.46373">
        <ele>1460.8605957031</ele>
        <time>2011-04-16T12:56:37Z</time>
      </trkpt>
      <trkpt lat="42.76112" lon="1.46371">
        <ele>1459.4187011719</ele>
        <time>2011-04-16T12:56:43Z</time>
      </trkpt>
      <trkpt lat="42.76117" lon="1.46373">
        <ele>1457.49609375</ele>
        <time>2011-04-16T12:56:47Z</time>
      </trkpt>
      <trkpt lat="42.76123" lon="1.46378">
        <ele>1455.0927734375</ele>
        <time>2011-04-16T12:56:52Z</time>
      </trkpt>
      <trkpt lat="42.76125" lon="1.46381">
        <ele>1453.6508789062</ele>
        <time>2011-04-16T12:56:55Z</time>
      </trkpt>
      <trkpt lat="42.76132" lon="1.46383">
        <ele>1450.7666015625</ele>
        <time>2011-04-16T12:57:01Z</time>
      </trkpt>
      <trkpt lat="42.76134" lon="1.46384">
        <ele>1450.7666015625</ele>
        <time>2011-04-16T12:57:03Z</time>
      </trkpt>
      <trkpt lat="42.76139" lon="1.46387">
        <ele>1449.8054199219</ele>
        <time>2011-04-16T12:57:10Z</time>
      </trkpt>
      <trkpt lat="42.7614" lon="1.46387">
        <ele>1451.2473144531</ele>
        <time>2011-04-16T12:57:21Z</time>
      </trkpt>
      <trkpt lat="42.76144" lon="1.46387">
        <ele>1450.2861328125</ele>
        <time>2011-04-16T12:57:28Z</time>
      </trkpt>
      <trkpt lat="42.76149" lon="1.46385">
        <ele>1447.8828125</ele>
        <time>2011-04-16T12:57:34Z</time>
      </trkpt>
      <trkpt lat="42.76154" lon="1.46382">
        <ele>1444.0375976562</ele>
        <time>2011-04-16T12:57:39Z</time>
      </trkpt>
      <trkpt lat="42.76157" lon="1.4638">
        <ele>1442.1149902344</ele>
        <time>2011-04-16T12:57:43Z</time>
      </trkpt>
      <trkpt lat="42.76157" lon="1.46379">
        <ele>1441.1535644531</ele>
        <time>2011-04-16T12:57:44Z</time>
      </trkpt>
      <trkpt lat="42.76163" lon="1.46373">
        <ele>1439.7116699219</ele>
        <time>2011-04-16T12:57:51Z</time>
      </trkpt>
      <trkpt lat="42.76167" lon="1.4637">
        <ele>1436.3471679688</ele>
        <time>2011-04-16T12:57:58Z</time>
      </trkpt>
      <trkpt lat="42.76169" lon="1.46376">
        <ele>1436.8276367188</ele>
        <time>2011-04-16T12:58:03Z</time>
      </trkpt>
      <trkpt lat="42.76169" lon="1.46383">
        <ele>1433.9436035156</ele>
        <time>2011-04-16T12:58:08Z</time>
      </trkpt>
      <trkpt lat="42.76171" lon="1.46378">
        <ele>1431.0598144531</ele>
        <time>2011-04-16T12:58:12Z</time>
      </trkpt>
      <trkpt lat="42.76173" lon="1.46373">
        <ele>1429.1369628906</ele>
        <time>2011-04-16T12:58:17Z</time>
      </trkpt>
      <trkpt lat="42.76175" lon="1.4637">
        <ele>1427.6950683594</ele>
        <time>2011-04-16T12:58:19Z</time>
      </trkpt>
      <trkpt lat="42.76176" lon="1.46366">
        <ele>1425.2917480469</ele>
        <time>2011-04-16T12:58:22Z</time>
      </trkpt>
      <trkpt lat="42.7618" lon="1.46359">
        <ele>1420.9660644531</ele>
        <time>2011-04-16T12:58:27Z</time>
      </trkpt>
      <trkpt lat="42.76181" lon="1.46358">
        <ele>1420.4853515625</ele>
        <time>2011-04-16T12:58:28Z</time>
      </trkpt>
      <trkpt lat="42.76183" lon="1.46351">
        <ele>1418.0817871094</ele>
        <time>2011-04-16T12:58:32Z</time>
      </trkpt>
      <trkpt lat="42.76189" lon="1.46339">
        <ele>1414.7172851562</ele>
        <time>2011-04-16T12:58:38Z</time>
      </trkpt>
      <trkpt lat="42.76193" lon="1.46334">
        <ele>1413.275390625</ele>
        <time>2011-04-16T12:58:42Z</time>
      </trkpt>
      <trkpt lat="42.76199" lon="1.46323">
        <ele>1407.0268554688</ele>
        <time>2011-04-16T12:58:48Z</time>
      </trkpt>
      <trkpt lat="42.76203" lon="1.46311">
        <ele>1405.5849609375</ele>
        <time>2011-04-16T12:58:57Z</time>
      </trkpt>
      <trkpt lat="42.76206" lon="1.46306">
        <ele>1404.1430664062</ele>
        <time>2011-04-16T12:59:04Z</time>
      </trkpt>
      <trkpt lat="42.76207" lon="1.46297">
        <ele>1405.1042480469</ele>
        <time>2011-04-16T12:59:10Z</time>
      </trkpt>
      <trkpt lat="42.76208" lon="1.46296">
        <ele>1404.6235351562</ele>
        <time>2011-04-16T12:59:11Z</time>
      </trkpt>
      <trkpt lat="42.7621" lon="1.46286">
        <ele>1403.1813964844</ele>
        <time>2011-04-16T12:59:16Z</time>
      </trkpt>
      <trkpt lat="42.76213" lon="1.46279">
        <ele>1401.7395019531</ele>
        <time>2011-04-16T12:59:22Z</time>
      </trkpt>
      <trkpt lat="42.76213" lon="1.46274">
        <ele>1401.2587890625</ele>
        <time>2011-04-16T12:59:26Z</time>
      </trkpt>
      <trkpt lat="42.76217" lon="1.46268">
        <ele>1400.7780761719</ele>
        <time>2011-04-16T12:59:32Z</time>
      </trkpt>
      <trkpt lat="42.76221" lon="1.46263">
        <ele>1399.8168945312</ele>
        <time>2011-04-16T12:59:36Z</time>
      </trkpt>
      <trkpt lat="42.76222" lon="1.46255">
        <ele>1397.8942871094</ele>
        <time>2011-04-16T12:59:41Z</time>
      </trkpt>
      <trkpt lat="42.76228" lon="1.46249">
        <ele>1397.4135742188</ele>
        <time>2011-04-16T12:59:45Z</time>
      </trkpt>
      <trkpt lat="42.7623" lon="1.4624">
        <ele>1393.0876464844</ele>
        <time>2011-04-16T12:59:50Z</time>
      </trkpt>
      <trkpt lat="42.76231" lon="1.46233">
        <ele>1391.6457519531</ele>
        <time>2011-04-16T12:59:54Z</time>
      </trkpt>
      <trkpt lat="42.76236" lon="1.46225">
        <ele>1391.1650390625</ele>
        <time>2011-04-16T13:00:00Z</time>
      </trkpt>
      <trkpt lat="42.76237" lon="1.46221">
        <ele>1389.7231445312</ele>
        <time>2011-04-16T13:00:02Z</time>
      </trkpt>
      <trkpt lat="42.76238" lon="1.46212">
        <ele>1386.8388671875</ele>
        <time>2011-04-16T13:00:07Z</time>
      </trkpt>
      <trkpt lat="42.76243" lon="1.46202">
        <ele>1385.8776855469</ele>
        <time>2011-04-16T13:00:13Z</time>
      </trkpt>
      <trkpt lat="42.76245" lon="1.46197">
        <ele>1383.955078125</ele>
        <time>2011-04-16T13:00:16Z</time>
      </trkpt>
      <trkpt lat="42.76247" lon="1.46194">
        <ele>1382.0324707031</ele>
        <time>2011-04-16T13:00:18Z</time>
      </trkpt>
      <trkpt lat="42.76252" lon="1.46189">
        <ele>1379.6291503906</ele>
        <time>2011-04-16T13:00:22Z</time>
      </trkpt>
      <trkpt lat="42.76258" lon="1.46183">
        <ele>1381.5517578125</ele>
        <time>2011-04-16T13:00:27Z</time>
      </trkpt>
      <trkpt lat="42.76263" lon="1.46174">
        <ele>1383.4743652344</ele>
        <time>2011-04-16T13:00:31Z</time>
      </trkpt>
      <trkpt lat="42.76272" lon="1.46166">
        <ele>1381.5517578125</ele>
        <time>2011-04-16T13:00:36Z</time>
      </trkpt>
      <trkpt lat="42.76278" lon="1.4616">
        <ele>1379.1484375</ele>
        <time>2011-04-16T13:00:42Z</time>
      </trkpt>
      <trkpt lat="42.76281" lon="1.46153">
        <ele>1376.2646484375</ele>
        <time>2011-04-16T13:00:48Z</time>
      </trkpt>
      <trkpt lat="42.7628" lon="1.46151">
        <ele>1376.2646484375</ele>
        <time>2011-04-16T13:00:50Z</time>
      </trkpt>
      <trkpt lat="42.76281" lon="1.46152">
        <ele>1375.7839355469</ele>
        <time>2011-04-16T13:00:52Z</time>
      </trkpt>
      <trkpt lat="42.76279" lon="1.46161">
        <ele>1378.66796875</ele>
        <time>2011-04-16T13:00:59Z</time>
      </trkpt>
      <trkpt lat="42.76281" lon="1.46156">
        <ele>1376.7453613281</ele>
        <time>2011-04-16T13:01:03Z</time>
      </trkpt>
      <trkpt lat="42.76283" lon="1.46154">
        <ele>1375.3032226562</ele>
        <time>2011-04-16T13:01:05Z</time>
      </trkpt>
      <trkpt lat="42.76286" lon="1.46148">
        <ele>1372.4194335938</ele>
        <time>2011-04-16T13:01:10Z</time>
      </trkpt>
      <trkpt lat="42.7629" lon="1.46144">
        <ele>1374.3420410156</ele>
        <time>2011-04-16T13:01:13Z</time>
      </trkpt>
      <trkpt lat="42.76294" lon="1.46146">
        <ele>1377.2260742188</ele>
        <time>2011-04-16T13:01:16Z</time>
      </trkpt>
      <trkpt lat="42.76298" lon="1.46155">
        <ele>1379.6291503906</ele>
        <time>2011-04-16T13:01:21Z</time>
      </trkpt>
      <trkpt lat="42.76298" lon="1.46158">
        <ele>1380.1098632812</ele>
        <time>2011-04-16T13:01:22Z</time>
      </trkpt>
      <trkpt lat="42.76299" lon="1.46168">
        <ele>1379.6291503906</ele>
        <time>2011-04-16T13:01:28Z</time>
      </trkpt>
      <trkpt lat="42.763" lon="1.46171">
        <ele>1375.3032226562</ele>
        <time>2011-04-16T13:01:32Z</time>
      </trkpt>
      <trkpt lat="42.763" lon="1.46177">
        <ele>1373.380859375</ele>
        <time>2011-04-16T13:01:36Z</time>
      </trkpt>
      <trkpt lat="42.76299" lon="1.46184">
        <ele>1371.4577636719</ele>
        <time>2011-04-16T13:01:41Z</time>
      </trkpt>
      <trkpt lat="42.76301" lon="1.46189">
        <ele>1364.7287597656</ele>
        <time>2011-04-16T13:01:46Z</time>
      </trkpt>
      <trkpt lat="42.76301" lon="1.46196">
        <ele>1361.8449707031</ele>
        <time>2011-04-16T13:01:50Z</time>
      </trkpt>
      <trkpt lat="42.76302" lon="1.46207">
        <ele>1361.8449707031</ele>
        <time>2011-04-16T13:01:55Z</time>
      </trkpt>
      <trkpt lat="42.76301" lon="1.46218">
        <ele>1363.2868652344</ele>
        <time>2011-04-16T13:02:02Z</time>
      </trkpt>
      <trkpt lat="42.76302" lon="1.46219">
        <ele>1362.8061523438</ele>
        <time>2011-04-16T13:02:03Z</time>
      </trkpt>
      <trkpt lat="42.76305" lon="1.46225">
        <ele>1362.8061523438</ele>
        <time>2011-04-16T13:02:07Z</time>
      </trkpt>
      <trkpt lat="42.76307" lon="1.46228">
        <ele>1360.4028320312</ele>
        <time>2011-04-16T13:02:10Z</time>
      </trkpt>
      <trkpt lat="42.76306" lon="1.46233">
        <ele>1360.4028320312</ele>
        <time>2011-04-16T13:02:13Z</time>
      </trkpt>
      <trkpt lat="42.76309" lon="1.46241">
        <ele>1354.634765625</ele>
        <time>2011-04-16T13:02:20Z</time>
      </trkpt>
      <trkpt lat="42.76311" lon="1.46247">
        <ele>1355.5961914062</ele>
        <time>2011-04-16T13:02:23Z</time>
      </trkpt>
      <trkpt lat="42.76311" lon="1.46257">
        <ele>1351.7509765625</ele>
        <time>2011-04-16T13:02:29Z</time>
      </trkpt>
      <trkpt lat="42.76313" lon="1.4627">
        <ele>1350.3090820312</ele>
        <time>2011-04-16T13:02:35Z</time>
      </trkpt>
      <trkpt lat="42.76314" lon="1.46279">
        <ele>1345.9831542969</ele>
        <time>2011-04-16T13:02:40Z</time>
      </trkpt>
      <trkpt lat="42.76317" lon="1.4629">
        <ele>1343.5798339844</ele>
        <time>2011-04-16T13:02:46Z</time>
      </trkpt>
      <trkpt lat="42.76317" lon="1.46293">
        <ele>1343.5798339844</ele>
        <time>2011-04-16T13:02:47Z</time>
      </trkpt>
      <trkpt lat="42.76318" lon="1.46296">
        <ele>1342.6186523438</ele>
        <time>2011-04-16T13:02:49Z</time>
      </trkpt>
      <trkpt lat="42.76321" lon="1.46304">
        <ele>1341.1765136719</ele>
        <time>2011-04-16T13:02:54Z</time>
      </trkpt>
      <trkpt lat="42.76324" lon="1.46311">
        <ele>1338.7731933594</ele>
        <time>2011-04-16T13:02:59Z</time>
      </trkpt>
      <trkpt lat="42.76328" lon="1.46324">
        <ele>1338.2924804688</ele>
        <time>2011-04-16T13:03:04Z</time>
      </trkpt>
      <trkpt lat="42.7633" lon="1.46335">
        <ele>1335.8891601562</ele>
        <time>2011-04-16T13:03:09Z</time>
      </trkpt>
      <trkpt lat="42.76335" lon="1.4634">
        <ele>1332.0439453125</ele>
        <time>2011-04-16T13:03:14Z</time>
      </trkpt>
      <trkpt lat="42.76334" lon="1.46347">
        <ele>1332.0439453125</ele>
        <time>2011-04-16T13:03:18Z</time>
      </trkpt>
      <trkpt lat="42.76334" lon="1.46355">
        <ele>1331.0827636719</ele>
        <time>2011-04-16T13:03:22Z</time>
      </trkpt>
      <trkpt lat="42.76334" lon="1.46359">
        <ele>1330.1213378906</ele>
        <time>2011-04-16T13:03:24Z</time>
      </trkpt>
      <trkpt lat="42.76337" lon="1.46369">
        <ele>1328.1987304688</ele>
        <time>2011-04-16T13:03:29Z</time>
      </trkpt>
      <trkpt lat="42.76338" lon="1.46374">
        <ele>1328.1987304688</ele>
        <time>2011-04-16T13:03:31Z</time>
      </trkpt>
      <trkpt lat="42.7634" lon="1.46387">
        <ele>1327.2375488281</ele>
        <time>2011-04-16T13:03:36Z</time>
      </trkpt>
      <trkpt lat="42.76342" lon="1.46397">
        <ele>1330.6020507812</ele>
        <time>2011-04-16T13:03:40Z</time>
      </trkpt>
      <trkpt lat="42.76342" lon="1.46402">
        <ele>1324.8342285156</ele>
        <time>2011-04-16T13:03:44Z</time>
      </trkpt>
      <trkpt lat="42.76345" lon="1.46414">
        <ele>1318.1047363281</ele>
        <time>2011-04-16T13:03:50Z</time>
      </trkpt>
      <trkpt lat="42.76345" lon="1.46416">
        <ele>1316.1821289062</ele>
        <time>2011-04-16T13:03:51Z</time>
      </trkpt>
      <trkpt lat="42.7635" lon="1.4643">
        <ele>1312.3369140625</ele>
        <time>2011-04-16T13:03:58Z</time>
      </trkpt>
      <trkpt lat="42.76353" lon="1.46435">
        <ele>1312.3369140625</ele>
        <time>2011-04-16T13:04:01Z</time>
      </trkpt>
      <trkpt lat="42.76353" lon="1.46445">
        <ele>1310.4143066406</ele>
        <time>2011-04-16T13:04:06Z</time>
      </trkpt>
      <trkpt lat="42.76352" lon="1.46451">
        <ele>1307.5302734375</ele>
        <time>2011-04-16T13:04:10Z</time>
      </trkpt>
      <trkpt lat="42.76352" lon="1.46454">
        <ele>1307.0495605469</ele>
        <time>2011-04-16T13:04:11Z</time>
      </trkpt>
      <trkpt lat="42.76351" lon="1.46463">
        <ele>1307.0495605469</ele>
        <time>2011-04-16T13:04:15Z</time>
      </trkpt>
      <trkpt lat="42.7635" lon="1.46472">
        <ele>1308.0112304688</ele>
        <time>2011-04-16T13:04:21Z</time>
      </trkpt>
      <trkpt lat="42.7635" lon="1.46478">
        <ele>1305.6076660156</ele>
        <time>2011-04-16T13:04:24Z</time>
      </trkpt>
      <trkpt lat="42.76351" lon="1.46492">
        <ele>1304.1657714844</ele>
        <time>2011-04-16T13:04:30Z</time>
      </trkpt>
      <trkpt lat="42.7635" lon="1.46495">
        <ele>1302.7236328125</ele>
        <time>2011-04-16T13:04:31Z</time>
      </trkpt>
      <trkpt lat="42.7635" lon="1.46502">
        <ele>1300.3205566406</ele>
        <time>2011-04-16T13:04:34Z</time>
      </trkpt>
      <trkpt lat="42.76352" lon="1.46505">
        <ele>1300.3205566406</ele>
        <time>2011-04-16T13:04:36Z</time>
      </trkpt>
      <trkpt lat="42.76356" lon="1.46496">
        <ele>1293.5913085938</ele>
        <time>2011-04-16T13:04:42Z</time>
      </trkpt>
      <trkpt lat="42.76358" lon="1.46488">
        <ele>1287.8232421875</ele>
        <time>2011-04-16T13:04:47Z</time>
      </trkpt>
      <trkpt lat="42.76361" lon="1.46476">
        <ele>1281.0942382812</ele>
        <time>2011-04-16T13:04:54Z</time>
      </trkpt>
      <trkpt lat="42.76362" lon="1.46474">
        <ele>1279.1713867188</ele>
        <time>2011-04-16T13:04:56Z</time>
      </trkpt>
      <trkpt lat="42.76367" lon="1.46466">
        <ele>1275.806640625</ele>
        <time>2011-04-16T13:05:03Z</time>
      </trkpt>
      <trkpt lat="42.76368" lon="1.46464">
        <ele>1275.3259277344</ele>
        <time>2011-04-16T13:05:04Z</time>
      </trkpt>
      <trkpt lat="42.76369" lon="1.46459">
        <ele>1272.9228515625</ele>
        <time>2011-04-16T13:05:07Z</time>
      </trkpt>
      <trkpt lat="42.76376" lon="1.4645">
        <ele>1271.9614257812</ele>
        <time>2011-04-16T13:05:13Z</time>
      </trkpt>
      <trkpt lat="42.76375" lon="1.46449">
        <ele>1271.4807128906</ele>
        <time>2011-04-16T13:05:14Z</time>
      </trkpt>
      <trkpt lat="42.76379" lon="1.4644">
        <ele>1267.6354980469</ele>
        <time>2011-04-16T13:05:19Z</time>
      </trkpt>
      <trkpt lat="42.76382" lon="1.46432">
        <ele>1264.7517089844</ele>
        <time>2011-04-16T13:05:24Z</time>
      </trkpt>
      <trkpt lat="42.7639" lon="1.46423">
        <ele>1266.1936035156</ele>
        <time>2011-04-16T13:05:29Z</time>
      </trkpt>
      <trkpt lat="42.76393" lon="1.46416">
        <ele>1264.2709960938</ele>
        <time>2011-04-16T13:05:32Z</time>
      </trkpt>
      <trkpt lat="42.76395" lon="1.46412">
        <ele>1263.3098144531</ele>
        <time>2011-04-16T13:05:34Z</time>
      </trkpt>
      <trkpt lat="42.764" lon="1.46399">
        <ele>1259.4643554688</ele>
        <time>2011-04-16T13:05:39Z</time>
      </trkpt>
      <trkpt lat="42.76401" lon="1.46389">
        <ele>1255.619140625</ele>
        <time>2011-04-16T13:05:44Z</time>
      </trkpt>
      <trkpt lat="42.76404" lon="1.46378">
        <ele>1254.6577148438</ele>
        <time>2011-04-16T13:05:49Z</time>
      </trkpt>
      <trkpt lat="42.76409" lon="1.46359">
        <ele>1257.0610351562</ele>
        <time>2011-04-16T13:05:59Z</time>
      </trkpt>
      <trkpt lat="42.76408" lon="1.46354">
        <ele>1256.099609375</ele>
        <time>2011-04-16T13:06:01Z</time>
      </trkpt>
      <trkpt lat="42.76409" lon="1.46345">
        <ele>1253.6965332031</ele>
        <time>2011-04-16T13:06:05Z</time>
      </trkpt>
      <trkpt lat="42.76411" lon="1.46343">
        <ele>1252.2543945312</ele>
        <time>2011-04-16T13:06:07Z</time>
      </trkpt>
      <trkpt lat="42.7642" lon="1.46352">
        <ele>1248.8898925781</ele>
        <time>2011-04-16T13:06:13Z</time>
      </trkpt>
      <trkpt lat="42.76422" lon="1.46355">
        <ele>1249.3706054688</ele>
        <time>2011-04-16T13:06:14Z</time>
      </trkpt>
      <trkpt lat="42.76427" lon="1.46371">
        <ele>1249.3706054688</ele>
        <time>2011-04-16T13:06:21Z</time>
      </trkpt>
      <trkpt lat="42.76427" lon="1.46373">
        <ele>1251.7739257812</ele>
        <time>2011-04-16T13:06:22Z</time>
      </trkpt>
      <trkpt lat="42.76428" lon="1.46381">
        <ele>1254.1772460938</ele>
        <time>2011-04-16T13:06:28Z</time>
      </trkpt>
      <trkpt lat="42.76427" lon="1.46383">
        <ele>1254.6577148438</ele>
        <time>2011-04-16T13:06:29Z</time>
      </trkpt>
      <trkpt lat="42.76429" lon="1.46393">
        <ele>1250.33203125</ele>
        <time>2011-04-16T13:06:35Z</time>
      </trkpt>
      <trkpt lat="42.76434" lon="1.464">
        <ele>1247.9287109375</ele>
        <time>2011-04-16T13:06:39Z</time>
      </trkpt>
      <trkpt lat="42.76438" lon="1.4641">
        <ele>1242.1606445312</ele>
        <time>2011-04-16T13:06:44Z</time>
      </trkpt>
      <trkpt lat="42.76442" lon="1.46418">
        <ele>1238.3154296875</ele>
        <time>2011-04-16T13:06:48Z</time>
      </trkpt>
      <trkpt lat="42.76443" lon="1.46422">
        <ele>1235.912109375</ele>
        <time>2011-04-16T13:06:50Z</time>
      </trkpt>
      <trkpt lat="42.76444" lon="1.46442">
        <ele>1233.0280761719</ele>
        <time>2011-04-16T13:06:57Z</time>
      </trkpt>
      <trkpt lat="42.76446" lon="1.46445">
        <ele>1232.5476074219</ele>
        <time>2011-04-16T13:07:00Z</time>
      </trkpt>
      <trkpt lat="42.76449" lon="1.46455">
        <ele>1230.625</ele>
        <time>2011-04-16T13:07:06Z</time>
      </trkpt>
      <trkpt lat="42.76448" lon="1.46462">
        <ele>1230.1442871094</ele>
        <time>2011-04-16T13:07:11Z</time>
      </trkpt>
      <trkpt lat="42.7645" lon="1.46472">
        <ele>1228.2216796875</ele>
        <time>2011-04-16T13:07:17Z</time>
      </trkpt>
      <trkpt lat="42.76451" lon="1.46481">
        <ele>1227.2602539062</ele>
        <time>2011-04-16T13:07:22Z</time>
      </trkpt>
      <trkpt lat="42.76452" lon="1.46494">
        <ele>1227.2602539062</ele>
        <time>2011-04-16T13:07:28Z</time>
      </trkpt>
      <trkpt lat="42.76451" lon="1.46508">
        <ele>1226.298828125</ele>
        <time>2011-04-16T13:07:33Z</time>
      </trkpt>
      <trkpt lat="42.76453" lon="1.46522">
        <ele>1226.298828125</ele>
        <time>2011-04-16T13:07:38Z</time>
      </trkpt>
      <trkpt lat="42.76455" lon="1.46531">
        <ele>1223.8955078125</ele>
        <time>2011-04-16T13:07:42Z</time>
      </trkpt>
      <trkpt lat="42.76461" lon="1.46546">
        <ele>1219.0891113281</ele>
        <time>2011-04-16T13:07:48Z</time>
      </trkpt>
      <trkpt lat="42.76461" lon="1.46549">
        <ele>1217.6469726562</ele>
        <time>2011-04-16T13:07:49Z</time>
      </trkpt>
      <trkpt lat="42.76463" lon="1.46564">
        <ele>1215.2438964844</ele>
        <time>2011-04-16T13:07:54Z</time>
      </trkpt>
      <trkpt lat="42.76461" lon="1.46582">
        <ele>1205.1499023438</ele>
        <time>2011-04-16T13:08:01Z</time>
      </trkpt>
      <trkpt lat="42.7646" lon="1.46596">
        <ele>1204.6691894531</ele>
        <time>2011-04-16T13:08:07Z</time>
      </trkpt>
      <trkpt lat="42.76461" lon="1.46609">
        <ele>1201.7854003906</ele>
        <time>2011-04-16T13:08:13Z</time>
      </trkpt>
      <trkpt lat="42.76462" lon="1.46613">
        <ele>1201.7854003906</ele>
        <time>2011-04-16T13:08:15Z</time>
      </trkpt>
      <trkpt lat="42.76461" lon="1.46624">
        <ele>1206.1110839844</ele>
        <time>2011-04-16T13:08:22Z</time>
      </trkpt>
      <trkpt lat="42.76463" lon="1.46626">
        <ele>1202.2658691406</ele>
        <time>2011-04-16T13:08:27Z</time>
      </trkpt>
      <trkpt lat="42.76466" lon="1.46629">
        <ele>1197.4594726562</ele>
        <time>2011-04-16T13:08:32Z</time>
      </trkpt>
      <trkpt lat="42.76467" lon="1.46638">
        <ele>1193.1333007812</ele>
        <time>2011-04-16T13:08:37Z</time>
      </trkpt>
      <trkpt lat="42.76467" lon="1.46649">
        <ele>1189.2880859375</ele>
        <time>2011-04-16T13:08:42Z</time>
      </trkpt>
      <trkpt lat="42.76465" lon="1.46655">
        <ele>1187.3654785156</ele>
        <time>2011-04-16T13:08:47Z</time>
      </trkpt>
      <trkpt lat="42.76467" lon="1.46654">
        <ele>1184.0009765625</ele>
        <time>2011-04-16T13:08:51Z</time>
      </trkpt>
      <trkpt lat="42.76471" lon="1.46651">
        <ele>1181.59765625</ele>
        <time>2011-04-16T13:08:56Z</time>
      </trkpt>
      <trkpt lat="42.76472" lon="1.46645">
        <ele>1178.7136230469</ele>
        <time>2011-04-16T13:09:01Z</time>
      </trkpt>
      <trkpt lat="42.76476" lon="1.46637">
        <ele>1173.9069824219</ele>
        <time>2011-04-16T13:09:07Z</time>
      </trkpt>
      <trkpt lat="42.76478" lon="1.46634">
        <ele>1171.984375</ele>
        <time>2011-04-16T13:09:10Z</time>
      </trkpt>
      <trkpt lat="42.7648" lon="1.46632">
        <ele>1171.0231933594</ele>
        <time>2011-04-16T13:09:12Z</time>
      </trkpt>
      <trkpt lat="42.76482" lon="1.46626">
        <ele>1169.1005859375</ele>
        <time>2011-04-16T13:09:16Z</time>
      </trkpt>
      <trkpt lat="42.76485" lon="1.46619">
        <ele>1166.2165527344</ele>
        <time>2011-04-16T13:09:21Z</time>
      </trkpt>
      <trkpt lat="42.76488" lon="1.46615">
        <ele>1164.7746582031</ele>
        <time>2011-04-16T13:09:25Z</time>
      </trkpt>
      <trkpt lat="42.76492" lon="1.46607">
        <ele>1162.8518066406</ele>
        <time>2011-04-16T13:09:29Z</time>
      </trkpt>
      <trkpt lat="42.76495" lon="1.46599">
        <ele>1162.37109375</ele>
        <time>2011-04-16T13:09:34Z</time>
      </trkpt>
      <trkpt lat="42.76497" lon="1.46592">
        <ele>1162.37109375</ele>
        <time>2011-04-16T13:09:40Z</time>
      </trkpt>
      <trkpt lat="42.76501" lon="1.46585">
        <ele>1161.890625</ele>
        <time>2011-04-16T13:09:46Z</time>
      </trkpt>
      <trkpt lat="42.76501" lon="1.4658">
        <ele>1159.9677734375</ele>
        <time>2011-04-16T13:09:51Z</time>
      </trkpt>
      <trkpt lat="42.76506" lon="1.46571">
        <ele>1159.0065917969</ele>
        <time>2011-04-16T13:09:56Z</time>
      </trkpt>
      <trkpt lat="42.76508" lon="1.46564">
        <ele>1156.1225585938</ele>
        <time>2011-04-16T13:10:00Z</time>
      </trkpt>
      <trkpt lat="42.76513" lon="1.46555">
        <ele>1153.2387695312</ele>
        <time>2011-04-16T13:10:06Z</time>
      </trkpt>
      <trkpt lat="42.76517" lon="1.46548">
        <ele>1151.3161621094</ele>
        <time>2011-04-16T13:10:11Z</time>
      </trkpt>
      <trkpt lat="42.76522" lon="1.46543">
        <ele>1148.9128417969</ele>
        <time>2011-04-16T13:10:14Z</time>
      </trkpt>
      <trkpt lat="42.76526" lon="1.46535">
        <ele>1144.1062011719</ele>
        <time>2011-04-16T13:10:19Z</time>
      </trkpt>
      <trkpt lat="42.76535" lon="1.46526">
        <ele>1142.6643066406</ele>
        <time>2011-04-16T13:10:25Z</time>
      </trkpt>
      <trkpt lat="42.76542" lon="1.46518">
        <ele>1141.2221679688</ele>
        <time>2011-04-16T13:10:29Z</time>
      </trkpt>
      <trkpt lat="42.76545" lon="1.46513">
        <ele>1137.8576660156</ele>
        <time>2011-04-16T13:10:32Z</time>
      </trkpt>
      <trkpt lat="42.76546" lon="1.46504">
        <ele>1132.5705566406</ele>
        <time>2011-04-16T13:10:36Z</time>
      </trkpt>
      <trkpt lat="42.76548" lon="1.465">
        <ele>1131.1284179688</ele>
        <time>2011-04-16T13:10:38Z</time>
      </trkpt>
      <trkpt lat="42.7655" lon="1.46493">
        <ele>1128.7250976562</ele>
        <time>2011-04-16T13:10:41Z</time>
      </trkpt>
      <trkpt lat="42.76556" lon="1.46475">
        <ele>1121.5151367188</ele>
        <time>2011-04-16T13:10:48Z</time>
      </trkpt>
      <trkpt lat="42.76557" lon="1.46473">
        <ele>1121.0346679688</ele>
        <time>2011-04-16T13:10:49Z</time>
      </trkpt>
      <trkpt lat="42.76563" lon="1.46467">
        <ele>1123.4379882812</ele>
        <time>2011-04-16T13:10:55Z</time>
      </trkpt>
      <trkpt lat="42.76564" lon="1.46461">
        <ele>1125.8410644531</ele>
        <time>2011-04-16T13:10:59Z</time>
      </trkpt>
      <trkpt lat="42.76566" lon="1.46459">
        <ele>1125.3603515625</ele>
        <time>2011-04-16T13:11:01Z</time>
      </trkpt>
      <trkpt lat="42.76573" lon="1.46449">
        <ele>1124.3991699219</ele>
        <time>2011-04-16T13:11:08Z</time>
      </trkpt>
      <trkpt lat="42.76574" lon="1.46443">
        <ele>1125.3603515625</ele>
        <time>2011-04-16T13:11:13Z</time>
      </trkpt>
      <trkpt lat="42.76575" lon="1.46441">
        <ele>1125.8410644531</ele>
        <time>2011-04-16T13:11:15Z</time>
      </trkpt>
      <trkpt lat="42.76581" lon="1.46445">
        <ele>1128.2443847656</ele>
        <time>2011-04-16T13:11:21Z</time>
      </trkpt>
      <trkpt lat="42.7658" lon="1.46448">
        <ele>1126.8024902344</ele>
        <time>2011-04-16T13:11:23Z</time>
      </trkpt>
      <trkpt lat="42.7658" lon="1.46459">
        <ele>1125.3603515625</ele>
        <time>2011-04-16T13:11:28Z</time>
      </trkpt>
      <trkpt lat="42.76581" lon="1.46466">
        <ele>1125.3603515625</ele>
        <time>2011-04-16T13:11:32Z</time>
      </trkpt>
      <trkpt lat="42.76581" lon="1.46477">
        <ele>1127.283203125</ele>
        <time>2011-04-16T13:11:37Z</time>
      </trkpt>
      <trkpt lat="42.76581" lon="1.46483">
        <ele>1129.6862792969</ele>
        <time>2011-04-16T13:11:40Z</time>
      </trkpt>
      <trkpt lat="42.76583" lon="1.46488">
        <ele>1129.6862792969</ele>
        <time>2011-04-16T13:11:43Z</time>
      </trkpt>
      <trkpt lat="42.76587" lon="1.46497">
        <ele>1127.763671875</ele>
        <time>2011-04-16T13:11:50Z</time>
      </trkpt>
      <trkpt lat="42.76589" lon="1.4651">
        <ele>1124.3991699219</ele>
        <time>2011-04-16T13:11:57Z</time>
      </trkpt>
      <trkpt lat="42.7659" lon="1.46515">
        <ele>1123.4379882812</ele>
        <time>2011-04-16T13:12:00Z</time>
      </trkpt>
      <trkpt lat="42.7659" lon="1.46521">
        <ele>1121.9958496094</ele>
        <time>2011-04-16T13:12:04Z</time>
      </trkpt>
      <trkpt lat="42.76591" lon="1.46527">
        <ele>1123.4379882812</ele>
        <time>2011-04-16T13:12:10Z</time>
      </trkpt>
      <trkpt lat="42.76592" lon="1.4653">
        <ele>1123.9184570312</ele>
        <time>2011-04-16T13:12:15Z</time>
      </trkpt>
      <trkpt lat="42.76593" lon="1.46533">
        <ele>1123.4379882812</ele>
        <time>2011-04-16T13:12:20Z</time>
      </trkpt>
      <trkpt lat="42.7659" lon="1.46544">
        <ele>1123.4379882812</ele>
        <time>2011-04-16T13:12:26Z</time>
      </trkpt>
      <trkpt lat="42.76588" lon="1.46547">
        <ele>1123.4379882812</ele>
        <time>2011-04-16T13:12:28Z</time>
      </trkpt>
      <trkpt lat="42.76585" lon="1.4655">
        <ele>1122.4765625</ele>
        <time>2011-04-16T13:12:34Z</time>
      </trkpt>
      <trkpt lat="42.76582" lon="1.46555">
        <ele>1123.4379882812</ele>
        <time>2011-04-16T13:12:39Z</time>
      </trkpt>
      <trkpt lat="42.76578" lon="1.46557">
        <ele>1120.0732421875</ele>
        <time>2011-04-16T13:13:14Z</time>
      </trkpt>
      <trkpt lat="42.76579" lon="1.46565">
        <ele>1114.7858886719</ele>
        <time>2011-04-16T13:13:23Z</time>
      </trkpt>
      <trkpt lat="42.76582" lon="1.4657">
        <ele>1112.3825683594</ele>
        <time>2011-04-16T13:13:29Z</time>
      </trkpt>
      <trkpt lat="42.76583" lon="1.46576">
        <ele>1111.9020996094</ele>
        <time>2011-04-16T13:13:33Z</time>
      </trkpt>
      <trkpt lat="42.76584" lon="1.46583">
        <ele>1110.9406738281</ele>
        <time>2011-04-16T13:13:37Z</time>
      </trkpt>
      <trkpt lat="42.76583" lon="1.46586">
        <ele>1110.4599609375</ele>
        <time>2011-04-16T13:13:39Z</time>
      </trkpt>
      <trkpt lat="42.76583" lon="1.46593">
        <ele>1107.576171875</ele>
        <time>2011-04-16T13:13:45Z</time>
      </trkpt>
      <trkpt lat="42.76583" lon="1.46598">
        <ele>1105.6535644531</ele>
        <time>2011-04-16T13:13:48Z</time>
      </trkpt>
      <trkpt lat="42.76583" lon="1.46605">
        <ele>1104.2116699219</ele>
        <time>2011-04-16T13:13:52Z</time>
      </trkpt>
      <trkpt lat="42.76583" lon="1.46614">
        <ele>1103.7309570312</ele>
        <time>2011-04-16T13:13:57Z</time>
      </trkpt>
      <trkpt lat="42.76582" lon="1.46622">
        <ele>1101.8083496094</ele>
        <time>2011-04-16T13:14:02Z</time>
      </trkpt>
      <trkpt lat="42.76582" lon="1.46625">
        <ele>1101.3276367188</ele>
        <time>2011-04-16T13:14:04Z</time>
      </trkpt>
      <trkpt lat="42.7658" lon="1.46638">
        <ele>1102.2888183594</ele>
        <time>2011-04-16T13:14:11Z</time>
      </trkpt>
      <trkpt lat="42.76579" lon="1.46639">
        <ele>1101.8083496094</ele>
        <time>2011-04-16T13:14:12Z</time>
      </trkpt>
      <trkpt lat="42.7658" lon="1.46654">
        <ele>1100.8469238281</ele>
        <time>2011-04-16T13:14:19Z</time>
      </trkpt>
      <trkpt lat="42.76579" lon="1.46663">
        <ele>1100.8469238281</ele>
        <time>2011-04-16T13:14:24Z</time>
      </trkpt>
      <trkpt lat="42.76577" lon="1.4667">
        <ele>1101.8083496094</ele>
        <time>2011-04-16T13:14:29Z</time>
      </trkpt>
      <trkpt lat="42.76576" lon="1.4668">
        <ele>1103.7309570312</ele>
        <time>2011-04-16T13:14:34Z</time>
      </trkpt>
      <trkpt lat="42.76574" lon="1.46695">
        <ele>1106.6147460938</ele>
        <time>2011-04-16T13:14:39Z</time>
      </trkpt>
      <trkpt lat="42.76572" lon="1.46705">
        <ele>1106.6147460938</ele>
        <time>2011-04-16T13:14:43Z</time>
      </trkpt>
      <trkpt lat="42.76571" lon="1.46718">
        <ele>1102.76953125</ele>
        <time>2011-04-16T13:14:50Z</time>
      </trkpt>
      <trkpt lat="42.76569" lon="1.46729">
        <ele>1100.3664550781</ele>
        <time>2011-04-16T13:14:55Z</time>
      </trkpt>
      <trkpt lat="42.76567" lon="1.46739">
        <ele>1097.4821777344</ele>
        <time>2011-04-16T13:15:00Z</time>
      </trkpt>
      <trkpt lat="42.76568" lon="1.46737">
        <ele>1094.5981445312</ele>
        <time>2011-04-16T13:15:04Z</time>
      </trkpt>
      <trkpt lat="42.7657" lon="1.46731">
        <ele>1089.3110351562</ele>
        <time>2011-04-16T13:15:10Z</time>
      </trkpt>
      <trkpt lat="42.76571" lon="1.46727">
        <ele>1086.4272460938</ele>
        <time>2011-04-16T13:15:15Z</time>
      </trkpt>
      <trkpt lat="42.76576" lon="1.46718">
        <ele>1082.1010742188</ele>
        <time>2011-04-16T13:15:22Z</time>
      </trkpt>
      <trkpt lat="42.76577" lon="1.46717">
        <ele>1080.6591796875</ele>
        <time>2011-04-16T13:15:23Z</time>
      </trkpt>
      <trkpt lat="42.76578" lon="1.46712">
        <ele>1078.255859375</ele>
        <time>2011-04-16T13:15:26Z</time>
      </trkpt>
      <trkpt lat="42.76582" lon="1.46709">
        <ele>1075.3718261719</ele>
        <time>2011-04-16T13:15:29Z</time>
      </trkpt>
      <trkpt lat="42.76585" lon="1.46704">
        <ele>1071.0461425781</ele>
        <time>2011-04-16T13:15:34Z</time>
      </trkpt>
      <trkpt lat="42.76587" lon="1.46701">
        <ele>1070.5654296875</ele>
        <time>2011-04-16T13:15:38Z</time>
      </trkpt>
      <trkpt lat="42.76591" lon="1.467">
        <ele>1070.5654296875</ele>
        <time>2011-04-16T13:15:41Z</time>
      </trkpt>
      <trkpt lat="42.76595" lon="1.46692">
        <ele>1066.2392578125</ele>
        <time>2011-04-16T13:15:48Z</time>
      </trkpt>
      <trkpt lat="42.76598" lon="1.46686">
        <ele>1065.7587890625</ele>
        <time>2011-04-16T13:15:53Z</time>
      </trkpt>
      <trkpt lat="42.766" lon="1.46682">
        <ele>1063.8359375</ele>
        <time>2011-04-16T13:15:57Z</time>
      </trkpt>
      <trkpt lat="42.76604" lon="1.46673">
        <ele>1060.9521484375</ele>
        <time>2011-04-16T13:16:05Z</time>
      </trkpt>
      <trkpt lat="42.76605" lon="1.46668">
        <ele>1059.5102539062</ele>
        <time>2011-04-16T13:16:10Z</time>
      </trkpt>
      <trkpt lat="42.76608" lon="1.46662">
        <ele>1057.1069335938</ele>
        <time>2011-04-16T13:16:17Z</time>
      </trkpt>
      <trkpt lat="42.76611" lon="1.46658">
        <ele>1055.1843261719</ele>
        <time>2011-04-16T13:16:22Z</time>
      </trkpt>
      <trkpt lat="42.7661" lon="1.46654">
        <ele>1054.2231445312</ele>
        <time>2011-04-16T13:16:26Z</time>
      </trkpt>
      <trkpt lat="42.76612" lon="1.46651">
        <ele>1054.7036132812</ele>
        <time>2011-04-16T13:16:31Z</time>
      </trkpt>
      <trkpt lat="42.76616" lon="1.46647">
        <ele>1054.2231445312</ele>
        <time>2011-04-16T13:16:35Z</time>
      </trkpt>
      <trkpt lat="42.76618" lon="1.46642">
        <ele>1050.8581542969</ele>
        <time>2011-04-16T13:16:41Z</time>
      </trkpt>
      <trkpt lat="42.76621" lon="1.46637">
        <ele>1051.8195800781</ele>
        <time>2011-04-16T13:16:46Z</time>
      </trkpt>
      <trkpt lat="42.76623" lon="1.46633">
        <ele>1049.4162597656</ele>
        <time>2011-04-16T13:16:50Z</time>
      </trkpt>
      <trkpt lat="42.76625" lon="1.46627">
        <ele>1046.5324707031</ele>
        <time>2011-04-16T13:16:55Z</time>
      </trkpt>
      <trkpt lat="42.76628" lon="1.46623">
        <ele>1047.0129394531</ele>
        <time>2011-04-16T13:16:59Z</time>
      </trkpt>
      <trkpt lat="42.76631" lon="1.46618">
        <ele>1047.9743652344</ele>
        <time>2011-04-16T13:17:04Z</time>
      </trkpt>
      <trkpt lat="42.76638" lon="1.46626">
        <ele>1051.3388671875</ele>
        <time>2011-04-16T13:17:09Z</time>
      </trkpt>
      <trkpt lat="42.76641" lon="1.46636">
        <ele>1049.8969726562</ele>
        <time>2011-04-16T13:17:16Z</time>
      </trkpt>
      <trkpt lat="42.76644" lon="1.46637">
        <ele>1046.5324707031</ele>
        <time>2011-04-16T13:17:19Z</time>
      </trkpt>
      <trkpt lat="42.76646" lon="1.4664">
        <ele>1046.0517578125</ele>
        <time>2011-04-16T13:17:21Z</time>
      </trkpt>
      <trkpt lat="42.76646" lon="1.46648">
        <ele>1045.5710449219</ele>
        <time>2011-04-16T13:17:26Z</time>
      </trkpt>
      <trkpt lat="42.76643" lon="1.46656">
        <ele>1044.1291503906</ele>
        <time>2011-04-16T13:17:31Z</time>
      </trkpt>
      <trkpt lat="42.76641" lon="1.46663">
        <ele>1042.6872558594</ele>
        <time>2011-04-16T13:17:36Z</time>
      </trkpt>
      <trkpt lat="42.76643" lon="1.46671">
        <ele>1037.8806152344</ele>
        <time>2011-04-16T13:17:42Z</time>
      </trkpt>
      <trkpt lat="42.76643" lon="1.46674">
        <ele>1037.8806152344</ele>
        <time>2011-04-16T13:17:44Z</time>
      </trkpt>
      <trkpt lat="42.76643" lon="1.46679">
        <ele>1037.3999023438</ele>
        <time>2011-04-16T13:17:48Z</time>
      </trkpt>
      <trkpt lat="42.7664" lon="1.4669">
        <ele>1038.361328125</ele>
        <time>2011-04-16T13:17:55Z</time>
      </trkpt>
      <trkpt lat="42.7664" lon="1.46691">
        <ele>1037.8806152344</ele>
        <time>2011-04-16T13:17:56Z</time>
      </trkpt>
      <trkpt lat="42.76639" lon="1.46698">
        <ele>1037.8806152344</ele>
        <time>2011-04-16T13:18:02Z</time>
      </trkpt>
      <trkpt lat="42.7664" lon="1.46705">
        <ele>1034.9965820312</ele>
        <time>2011-04-16T13:18:08Z</time>
      </trkpt>
      <trkpt lat="42.76642" lon="1.4671">
        <ele>1032.5932617188</ele>
        <time>2011-04-16T13:18:13Z</time>
      </trkpt>
      <trkpt lat="42.76643" lon="1.46719">
        <ele>1030.1899414062</ele>
        <time>2011-04-16T13:18:18Z</time>
      </trkpt>
      <trkpt lat="42.76642" lon="1.46728">
        <ele>1030.1899414062</ele>
        <time>2011-04-16T13:18:23Z</time>
      </trkpt>
      <trkpt lat="42.76642" lon="1.4673">
        <ele>1028.748046875</ele>
        <time>2011-04-16T13:18:25Z</time>
      </trkpt>
      <trkpt lat="42.76646" lon="1.46741">
        <ele>1026.8254394531</ele>
        <time>2011-04-16T13:18:32Z</time>
      </trkpt>
      <trkpt lat="42.76648" lon="1.46744">
        <ele>1023.94140625</ele>
        <time>2011-04-16T13:18:35Z</time>
      </trkpt>
      <trkpt lat="42.76647" lon="1.46748">
        <ele>1022.4995117188</ele>
        <time>2011-04-16T13:18:38Z</time>
      </trkpt>
      <trkpt lat="42.76645" lon="1.46753">
        <ele>1022.0187988281</ele>
        <time>2011-04-16T13:18:42Z</time>
      </trkpt>
      <trkpt lat="42.76642" lon="1.4676">
        <ele>1021.0576171875</ele>
        <time>2011-04-16T13:18:47Z</time>
      </trkpt>
      <trkpt lat="42.76642" lon="1.46769">
        <ele>1020.5769042969</ele>
        <time>2011-04-16T13:18:52Z</time>
      </trkpt>
      <trkpt lat="42.76642" lon="1.46771">
        <ele>1020.5769042969</ele>
        <time>2011-04-16T13:18:53Z</time>
      </trkpt>
      <trkpt lat="42.76641" lon="1.46777">
        <ele>1019.6154785156</ele>
        <time>2011-04-16T13:18:56Z</time>
      </trkpt>
      <trkpt lat="42.76642" lon="1.4678">
        <ele>1016.2507324219</ele>
        <time>2011-04-16T13:19:02Z</time>
      </trkpt>
      <trkpt lat="42.76641" lon="1.46786">
        <ele>1012.8862304688</ele>
        <time>2011-04-16T13:19:08Z</time>
      </trkpt>
      <trkpt lat="42.76641" lon="1.46792">
        <ele>1010.9636230469</ele>
        <time>2011-04-16T13:19:13Z</time>
      </trkpt>
      <trkpt lat="42.7664" lon="1.46798">
        <ele>1009.5217285156</ele>
        <time>2011-04-16T13:19:18Z</time>
      </trkpt>
      <trkpt lat="42.76638" lon="1.46799">
        <ele>1007.1184082031</ele>
        <time>2011-04-16T13:19:24Z</time>
      </trkpt>
      <trkpt lat="42.7664" lon="1.46805">
        <ele>1005.1958007812</ele>
        <time>2011-04-16T13:19:28Z</time>
      </trkpt>
      <trkpt lat="42.7664" lon="1.46806">
        <ele>1004.7150878906</ele>
        <time>2011-04-16T13:19:29Z</time>
      </trkpt>
      <trkpt lat="42.76639" lon="1.46812">
        <ele>1004.2346191406</ele>
        <time>2011-04-16T13:19:33Z</time>
      </trkpt>
      <trkpt lat="42.76637" lon="1.46818">
        <ele>1004.2346191406</ele>
        <time>2011-04-16T13:19:37Z</time>
      </trkpt>
      <trkpt lat="42.76637" lon="1.46829">
        <ele>1001.8310546875</ele>
        <time>2011-04-16T13:19:46Z</time>
      </trkpt>
      <trkpt lat="42.76636" lon="1.46837">
        <ele>999.427734375</ele>
        <time>2011-04-16T13:19:50Z</time>
      </trkpt>
      <trkpt lat="42.76633" lon="1.46846">
        <ele>997.98583984375</ele>
        <time>2011-04-16T13:19:55Z</time>
      </trkpt>
      <trkpt lat="42.76632" lon="1.46851">
        <ele>995.10180664062</ele>
        <time>2011-04-16T13:20:00Z</time>
      </trkpt>
      <trkpt lat="42.76628" lon="1.46855">
        <ele>990.77587890625</ele>
        <time>2011-04-16T13:20:06Z</time>
      </trkpt>
      <trkpt lat="42.76625" lon="1.46861">
        <ele>988.37280273438</ele>
        <time>2011-04-16T13:20:11Z</time>
      </trkpt>
      <trkpt lat="42.76622" lon="1.46866">
        <ele>987.4111328125</ele>
        <time>2011-04-16T13:20:17Z</time>
      </trkpt>
      <trkpt lat="42.7662" lon="1.4687">
        <ele>988.853515625</ele>
        <time>2011-04-16T13:20:21Z</time>
      </trkpt>
      <trkpt lat="42.76616" lon="1.4688">
        <ele>989.333984375</ele>
        <time>2011-04-16T13:20:27Z</time>
      </trkpt>
      <trkpt lat="42.76614" lon="1.46889">
        <ele>985.96923828125</ele>
        <time>2011-04-16T13:20:33Z</time>
      </trkpt>
      <trkpt lat="42.76613" lon="1.46894">
        <ele>984.04663085938</ele>
        <time>2011-04-16T13:20:37Z</time>
      </trkpt>
      <trkpt lat="42.76612" lon="1.46896">
        <ele>980.68212890625</ele>
        <time>2011-04-16T13:20:40Z</time>
      </trkpt>
      <trkpt lat="42.76611" lon="1.46909">
        <ele>980.68212890625</ele>
        <time>2011-04-16T13:20:45Z</time>
      </trkpt>
      <trkpt lat="42.76611" lon="1.46924">
        <ele>980.20141601562</ele>
        <time>2011-04-16T13:20:52Z</time>
      </trkpt>
      <trkpt lat="42.76609" lon="1.4693">
        <ele>977.31762695312</ele>
        <time>2011-04-16T13:20:57Z</time>
      </trkpt>
      <trkpt lat="42.76606" lon="1.46937">
        <ele>975.39477539062</ele>
        <time>2011-04-16T13:21:01Z</time>
      </trkpt>
      <trkpt lat="42.766" lon="1.46945">
        <ele>970.107421875</ele>
        <time>2011-04-16T13:21:09Z</time>
      </trkpt>
      <trkpt lat="42.76596" lon="1.4695">
        <ele>966.74291992188</ele>
        <time>2011-04-16T13:21:14Z</time>
      </trkpt>
      <trkpt lat="42.76596" lon="1.46965">
        <ele>969.626953125</ele>
        <time>2011-04-16T13:21:21Z</time>
      </trkpt>
      <trkpt lat="42.76595" lon="1.4697">
        <ele>968.18481445312</ele>
        <time>2011-04-16T13:21:24Z</time>
      </trkpt>
      <trkpt lat="42.76591" lon="1.46972">
        <ele>965.78173828125</ele>
        <time>2011-04-16T13:21:28Z</time>
      </trkpt>
      <trkpt lat="42.76591" lon="1.46977">
        <ele>971.06884765625</ele>
        <time>2011-04-16T13:21:35Z</time>
      </trkpt>
      <trkpt lat="42.76592" lon="1.46985">
        <ele>970.58813476562</ele>
        <time>2011-04-16T13:21:47Z</time>
      </trkpt>
      <trkpt lat="42.76595" lon="1.46988">
        <ele>968.18481445312</ele>
        <time>2011-04-16T13:21:53Z</time>
      </trkpt>
      <trkpt lat="42.76595" lon="1.46989">
        <ele>966.74291992188</ele>
        <time>2011-04-16T13:21:54Z</time>
      </trkpt>
      <trkpt lat="42.7659" lon="1.46998">
        <ele>962.4169921875</ele>
        <time>2011-04-16T13:21:59Z</time>
      </trkpt>
      <trkpt lat="42.76586" lon="1.47005">
        <ele>958.57177734375</ele>
        <time>2011-04-16T13:22:05Z</time>
      </trkpt>
      <trkpt lat="42.76585" lon="1.47013">
        <ele>958.09130859375</ele>
        <time>2011-04-16T13:22:10Z</time>
      </trkpt>
      <trkpt lat="42.76579" lon="1.47024">
        <ele>953.76513671875</ele>
        <time>2011-04-16T13:22:16Z</time>
      </trkpt>
      <trkpt lat="42.76575" lon="1.47028">
        <ele>948.95849609375</ele>
        <time>2011-04-16T13:22:20Z</time>
      </trkpt>
      <trkpt lat="42.76569" lon="1.47037">
        <ele>943.19067382812</ele>
        <time>2011-04-16T13:22:25Z</time>
      </trkpt>
      <trkpt lat="42.76564" lon="1.47055">
        <ele>945.59399414062</ele>
        <time>2011-04-16T13:22:30Z</time>
      </trkpt>
      <trkpt lat="42.7656" lon="1.47067">
        <ele>944.63256835938</ele>
        <time>2011-04-16T13:22:34Z</time>
      </trkpt>
      <trkpt lat="42.76558" lon="1.47081">
        <ele>940.78735351562</ele>
        <time>2011-04-16T13:22:39Z</time>
      </trkpt>
      <trkpt lat="42.76555" lon="1.47091">
        <ele>937.9033203125</ele>
        <time>2011-04-16T13:22:43Z</time>
      </trkpt>
      <trkpt lat="42.76551" lon="1.47105">
        <ele>936.94189453125</ele>
        <time>2011-04-16T13:22:48Z</time>
      </trkpt>
      <trkpt lat="42.76551" lon="1.47107">
        <ele>936.46142578125</ele>
        <time>2011-04-16T13:22:49Z</time>
      </trkpt>
      <trkpt lat="42.76551" lon="1.47121">
        <ele>933.57739257812</ele>
        <time>2011-04-16T13:22:56Z</time>
      </trkpt>
      <trkpt lat="42.76553" lon="1.47125">
        <ele>930.69360351562</ele>
        <time>2011-04-16T13:23:03Z</time>
      </trkpt>
      <trkpt lat="42.76557" lon="1.47133">
        <ele>929.73217773438</ele>
        <time>2011-04-16T13:23:07Z</time>
      </trkpt>
      <trkpt lat="42.7655" lon="1.47143">
        <ele>927.3291015625</ele>
        <time>2011-04-16T13:23:14Z</time>
      </trkpt>
      <trkpt lat="42.76547" lon="1.4715">
        <ele>925.40625</ele>
        <time>2011-04-16T13:23:19Z</time>
      </trkpt>
      <trkpt lat="42.76543" lon="1.47158">
        <ele>923.96411132812</ele>
        <time>2011-04-16T13:23:25Z</time>
      </trkpt>
      <trkpt lat="42.76542" lon="1.47163">
        <ele>922.04150390625</ele>
        <time>2011-04-16T13:23:28Z</time>
      </trkpt>
      <trkpt lat="42.76542" lon="1.47171">
        <ele>919.63842773438</ele>
        <time>2011-04-16T13:23:33Z</time>
      </trkpt>
      <trkpt lat="42.7654" lon="1.47177">
        <ele>917.71557617188</ele>
        <time>2011-04-16T13:23:36Z</time>
      </trkpt>
      <trkpt lat="42.76536" lon="1.47183">
        <ele>913.87036132812</ele>
        <time>2011-04-16T13:23:40Z</time>
      </trkpt>
      <trkpt lat="42.76534" lon="1.4719">
        <ele>909.54467773438</ele>
        <time>2011-04-16T13:23:44Z</time>
      </trkpt>
      <trkpt lat="42.76531" lon="1.47194">
        <ele>907.14111328125</ele>
        <time>2011-04-16T13:23:49Z</time>
      </trkpt>
      <trkpt lat="42.76535" lon="1.47209">
        <ele>910.02514648438</ele>
        <time>2011-04-16T13:23:55Z</time>
      </trkpt>
      <trkpt lat="42.76536" lon="1.47209">
        <ele>908.58325195312</ele>
        <time>2011-04-16T13:23:57Z</time>
      </trkpt>
      <trkpt lat="42.7654" lon="1.47205">
        <ele>904.25732421875</ele>
        <time>2011-04-16T13:24:02Z</time>
      </trkpt>
      <trkpt lat="42.76544" lon="1.47203">
        <ele>901.85400390625</ele>
        <time>2011-04-16T13:24:06Z</time>
      </trkpt>
      <trkpt lat="42.76552" lon="1.47199">
        <ele>897.04736328125</ele>
        <time>2011-04-16T13:24:12Z</time>
      </trkpt>
      <trkpt lat="42.76554" lon="1.47199">
        <ele>896.56689453125</ele>
        <time>2011-04-16T13:24:13Z</time>
      </trkpt>
      <trkpt lat="42.7656" lon="1.47198">
        <ele>894.64404296875</ele>
        <time>2011-04-16T13:24:17Z</time>
      </trkpt>
      <trkpt lat="42.76567" lon="1.47187">
        <ele>892.7216796875</ele>
        <time>2011-04-16T13:24:23Z</time>
      </trkpt>
      <trkpt lat="42.7657" lon="1.47175">
        <ele>888.87622070312</ele>
        <time>2011-04-16T13:24:28Z</time>
      </trkpt>
      <trkpt lat="42.76572" lon="1.47164">
        <ele>885.03100585938</ele>
        <time>2011-04-16T13:24:32Z</time>
      </trkpt>
      <trkpt lat="42.7658" lon="1.47156">
        <ele>883.10815429688</ele>
        <time>2011-04-16T13:24:35Z</time>
      </trkpt>
      <trkpt lat="42.76587" lon="1.47153">
        <ele>883.5888671875</ele>
        <time>2011-04-16T13:24:39Z</time>
      </trkpt>
      <trkpt lat="42.76588" lon="1.47154">
        <ele>883.5888671875</ele>
        <time>2011-04-16T13:24:41Z</time>
      </trkpt>
      <trkpt lat="42.7659" lon="1.47156">
        <ele>883.10815429688</ele>
        <time>2011-04-16T13:24:43Z</time>
      </trkpt>
      <trkpt lat="42.76595" lon="1.47161">
        <ele>882.62768554688</ele>
        <time>2011-04-16T13:24:49Z</time>
      </trkpt>
      <trkpt lat="42.76599" lon="1.47163">
        <ele>883.10815429688</ele>
        <time>2011-04-16T13:24:54Z</time>
      </trkpt>
      <trkpt lat="42.76604" lon="1.47167">
        <ele>881.18579101562</ele>
        <time>2011-04-16T13:24:59Z</time>
      </trkpt>
      <trkpt lat="42.76607" lon="1.47171">
        <ele>882.14697265625</ele>
        <time>2011-04-16T13:25:05Z</time>
      </trkpt>
      <trkpt lat="42.76611" lon="1.47173">
        <ele>882.62768554688</ele>
        <time>2011-04-16T13:25:08Z</time>
      </trkpt>
      <trkpt lat="42.76615" lon="1.47174">
        <ele>881.18579101562</ele>
        <time>2011-04-16T13:25:15Z</time>
      </trkpt>
      <trkpt lat="42.76619" lon="1.47176">
        <ele>879.74365234375</ele>
        <time>2011-04-16T13:25:20Z</time>
      </trkpt>
      <trkpt lat="42.7662" lon="1.47181">
        <ele>878.3017578125</ele>
        <time>2011-04-16T13:25:25Z</time>
      </trkpt>
      <trkpt lat="42.76622" lon="1.47187">
        <ele>876.85986328125</ele>
        <time>2011-04-16T13:25:31Z</time>
      </trkpt>
      <trkpt lat="42.76624" lon="1.47193">
        <ele>875.41748046875</ele>
        <time>2011-04-16T13:25:37Z</time>
      </trkpt>
      <trkpt lat="42.76623" lon="1.47196">
        <ele>877.34057617188</ele>
        <time>2011-04-16T13:25:46Z</time>
      </trkpt>
      <trkpt lat="42.76626" lon="1.47204">
        <ele>877.34057617188</ele>
        <time>2011-04-16T13:25:52Z</time>
      </trkpt>
      <trkpt lat="42.76631" lon="1.47208">
        <ele>876.85986328125</ele>
        <time>2011-04-16T13:25:57Z</time>
      </trkpt>
      <trkpt lat="42.76636" lon="1.47214">
        <ele>875.41748046875</ele>
        <time>2011-04-16T13:26:03Z</time>
      </trkpt>
      <trkpt lat="42.7664" lon="1.47224">
        <ele>872.53369140625</ele>
        <time>2011-04-16T13:26:11Z</time>
      </trkpt>
      <trkpt lat="42.76644" lon="1.47231">
        <ele>868.6884765625</ele>
        <time>2011-04-16T13:26:16Z</time>
      </trkpt>
      <trkpt lat="42.76648" lon="1.47238">
        <ele>867.24658203125</ele>
        <time>2011-04-16T13:26:21Z</time>
      </trkpt>
      <trkpt lat="42.76648" lon="1.47241">
        <ele>867.24658203125</ele>
        <time>2011-04-16T13:26:22Z</time>
      </trkpt>
      <trkpt lat="42.76653" lon="1.47249">
        <ele>863.4013671875</ele>
        <time>2011-04-16T13:26:27Z</time>
      </trkpt>
      <trkpt lat="42.76657" lon="1.47253">
        <ele>862.43994140625</ele>
        <time>2011-04-16T13:26:30Z</time>
      </trkpt>
      <trkpt lat="42.76665" lon="1.47259">
        <ele>858.59448242188</ele>
        <time>2011-04-16T13:26:34Z</time>
      </trkpt>
      <trkpt lat="42.76665" lon="1.47266">
        <ele>856.671875</ele>
        <time>2011-04-16T13:26:38Z</time>
      </trkpt>
      <trkpt lat="42.76661" lon="1.47276">
        <ele>852.82666015625</ele>
        <time>2011-04-16T13:26:44Z</time>
      </trkpt>
      <trkpt lat="42.76652" lon="1.47286">
        <ele>854.26879882812</ele>
        <time>2011-04-16T13:26:52Z</time>
      </trkpt>
      <trkpt lat="42.76648" lon="1.47289">
        <ele>851.86547851562</ele>
        <time>2011-04-16T13:26:56Z</time>
      </trkpt>
      <trkpt lat="42.76639" lon="1.47297">
        <ele>849.94287109375</ele>
        <time>2011-04-16T13:27:04Z</time>
      </trkpt>
      <trkpt lat="42.76631" lon="1.47304">
        <ele>849.46215820312</ele>
        <time>2011-04-16T13:27:11Z</time>
      </trkpt>
      <trkpt lat="42.76625" lon="1.47314">
        <ele>848.50073242188</ele>
        <time>2011-04-16T13:27:17Z</time>
      </trkpt>
      <trkpt lat="42.76626" lon="1.47327">
        <ele>844.65551757812</ele>
        <time>2011-04-16T13:27:23Z</time>
      </trkpt>
      <trkpt lat="42.7663" lon="1.4734">
        <ele>837.92626953125</ele>
        <time>2011-04-16T13:27:29Z</time>
      </trkpt>
      <trkpt lat="42.76633" lon="1.47353">
        <ele>833.60034179688</ele>
        <time>2011-04-16T13:27:33Z</time>
      </trkpt>
      <trkpt lat="42.76634" lon="1.47361">
        <ele>827.35180664062</ele>
        <time>2011-04-16T13:27:38Z</time>
      </trkpt>
      <trkpt lat="42.76635" lon="1.4737">
        <ele>827.83227539062</ele>
        <time>2011-04-16T13:27:41Z</time>
      </trkpt>
      <trkpt lat="42.76638" lon="1.47379">
        <ele>824.4677734375</ele>
        <time>2011-04-16T13:27:47Z</time>
      </trkpt>
      <trkpt lat="42.76639" lon="1.47381">
        <ele>824.4677734375</ele>
        <time>2011-04-16T13:27:49Z</time>
      </trkpt>
      <trkpt lat="42.76644" lon="1.47386">
        <ele>820.62255859375</ele>
        <time>2011-04-16T13:27:55Z</time>
      </trkpt>
      <trkpt lat="42.76644" lon="1.47386">
        <ele>820.14184570312</ele>
        <time>2011-04-16T13:27:56Z</time>
      </trkpt>
      <trkpt lat="42.76648" lon="1.47397">
        <ele>819.1806640625</ele>
        <time>2011-04-16T13:28:02Z</time>
      </trkpt>
      <trkpt lat="42.76645" lon="1.47404">
        <ele>820.14184570312</ele>
        <time>2011-04-16T13:28:07Z</time>
      </trkpt>
      <trkpt lat="42.76642" lon="1.47413">
        <ele>818.69995117188</ele>
        <time>2011-04-16T13:28:13Z</time>
      </trkpt>
      <trkpt lat="42.7664" lon="1.47417">
        <ele>818.69995117188</ele>
        <time>2011-04-16T13:28:15Z</time>
      </trkpt>
      <trkpt lat="42.76636" lon="1.47422">
        <ele>818.21923828125</ele>
        <time>2011-04-16T13:28:20Z</time>
      </trkpt>
      <trkpt lat="42.76636" lon="1.47421">
        <ele>818.69995117188</ele>
        <time>2011-04-16T13:28:21Z</time>
      </trkpt>
      <trkpt lat="42.76635" lon="1.4742">
        <ele>818.21923828125</ele>
        <time>2011-04-16T13:28:24Z</time>
      </trkpt>
      <trkpt lat="42.76632" lon="1.47434">
        <ele>816.77734375</ele>
        <time>2011-04-16T13:28:29Z</time>
      </trkpt>
      <trkpt lat="42.76632" lon="1.47438">
        <ele>815.81616210938</ele>
        <time>2011-04-16T13:28:30Z</time>
      </trkpt>
      <trkpt lat="42.76632" lon="1.47451">
        <ele>813.89331054688</ele>
        <time>2011-04-16T13:28:35Z</time>
      </trkpt>
      <trkpt lat="42.7663" lon="1.47463">
        <ele>811.48999023438</ele>
        <time>2011-04-16T13:28:39Z</time>
      </trkpt>
      <trkpt lat="42.76632" lon="1.47479">
        <ele>807.1640625</ele>
        <time>2011-04-16T13:28:44Z</time>
      </trkpt>
      <trkpt lat="42.76634" lon="1.47486">
        <ele>803.31884765625</ele>
        <time>2011-04-16T13:28:48Z</time>
      </trkpt>
      <trkpt lat="42.76637" lon="1.47503">
        <ele>798.99291992188</ele>
        <time>2011-04-16T13:28:54Z</time>
      </trkpt>
      <trkpt lat="42.76641" lon="1.47517">
        <ele>796.58984375</ele>
        <time>2011-04-16T13:28:58Z</time>
      </trkpt>
      <trkpt lat="42.76647" lon="1.47529">
        <ele>794.18627929688</ele>
        <time>2011-04-16T13:29:02Z</time>
      </trkpt>
      <trkpt lat="42.76648" lon="1.47532">
        <ele>793.22485351562</ele>
        <time>2011-04-16T13:29:03Z</time>
      </trkpt>
      <trkpt lat="42.76646" lon="1.47549">
        <ele>789.8603515625</ele>
        <time>2011-04-16T13:29:08Z</time>
      </trkpt>
      <trkpt lat="42.76645" lon="1.47552">
        <ele>788.89916992188</ele>
        <time>2011-04-16T13:29:09Z</time>
      </trkpt>
      <trkpt lat="42.76649" lon="1.47568">
        <ele>787.45703125</ele>
        <time>2011-04-16T13:29:15Z</time>
      </trkpt>
      <trkpt lat="42.76651" lon="1.47585">
        <ele>786.49584960938</ele>
        <time>2011-04-16T13:29:20Z</time>
      </trkpt>
      <trkpt lat="42.76657" lon="1.47594">
        <ele>785.05395507812</ele>
        <time>2011-04-16T13:29:24Z</time>
      </trkpt>
      <trkpt lat="42.7666" lon="1.47597">
        <ele>783.61181640625</ele>
        <time>2011-04-16T13:29:28Z</time>
      </trkpt>
      <trkpt lat="42.76663" lon="1.47598">
        <ele>783.13110351562</ele>
        <time>2011-04-16T13:29:30Z</time>
      </trkpt>
      <trkpt lat="42.76669" lon="1.47605">
        <ele>780.72802734375</ele>
        <time>2011-04-16T13:29:34Z</time>
      </trkpt>
      <trkpt lat="42.7667" lon="1.47611">
        <ele>777.84375</ele>
        <time>2011-04-16T13:29:38Z</time>
      </trkpt>
      <trkpt lat="42.76671" lon="1.47613">
        <ele>776.88256835938</ele>
        <time>2011-04-16T13:29:40Z</time>
      </trkpt>
      <trkpt lat="42.76676" lon="1.47616">
        <ele>774.47924804688</ele>
        <time>2011-04-16T13:29:45Z</time>
      </trkpt>
      <trkpt lat="42.76675" lon="1.47618">
        <ele>773.51806640625</ele>
        <time>2011-04-16T13:29:47Z</time>
      </trkpt>
      <trkpt lat="42.76674" lon="1.4762">
        <ele>773.03735351562</ele>
        <time>2011-04-16T13:29:49Z</time>
      </trkpt>
      <trkpt lat="42.76669" lon="1.47617">
        <ele>786.97631835938</ele>
        <time>2011-04-16T13:30:27Z</time>
      </trkpt>
      <trkpt lat="42.7667" lon="1.47618">
        <ele>786.97631835938</ele>
        <time>2011-04-16T13:30:28Z</time>
      </trkpt>
      <trkpt lat="42.7667" lon="1.47621">
        <ele>785.53442382812</ele>
        <time>2011-04-16T13:30:29Z</time>
      </trkpt>
      <trkpt lat="42.76668" lon="1.47631">
        <ele>782.169921875</ele>
        <time>2011-04-16T13:30:33Z</time>
      </trkpt>
      <trkpt lat="42.76661" lon="1.47637">
        <ele>779.28564453125</ele>
        <time>2011-04-16T13:30:38Z</time>
      </trkpt>
      <trkpt lat="42.76662" lon="1.47638">
        <ele>778.32446289062</ele>
        <time>2011-04-16T13:30:39Z</time>
      </trkpt>
      <trkpt lat="42.76669" lon="1.47652">
        <ele>773.99853515625</ele>
        <time>2011-04-16T13:30:44Z</time>
      </trkpt>
      <trkpt lat="42.76669" lon="1.4767">
        <ele>771.11474609375</ele>
        <time>2011-04-16T13:30:47Z</time>
      </trkpt>
      <trkpt lat="42.76671" lon="1.47684">
        <ele>767.26953125</ele>
        <time>2011-04-16T13:30:51Z</time>
      </trkpt>
      <trkpt lat="42.76672" lon="1.47691">
        <ele>766.30810546875</ele>
        <time>2011-04-16T13:30:53Z</time>
      </trkpt>
      <trkpt lat="42.76672" lon="1.47709">
        <ele>761.98217773438</ele>
        <time>2011-04-16T13:30:58Z</time>
      </trkpt>
      <trkpt lat="42.76675" lon="1.47716">
        <ele>757.17553710938</ele>
        <time>2011-04-16T13:31:01Z</time>
      </trkpt>
      <trkpt lat="42.76675" lon="1.4772">
        <ele>755.73364257812</ele>
        <time>2011-04-16T13:31:03Z</time>
      </trkpt>
      <trkpt lat="42.76673" lon="1.47722">
        <ele>752.849609375</ele>
        <time>2011-04-16T13:31:09Z</time>
      </trkpt>
      <trkpt lat="42.76678" lon="1.47724">
        <ele>749.48510742188</ele>
        <time>2011-04-16T13:31:14Z</time>
      </trkpt>
      <trkpt lat="42.76678" lon="1.47725">
        <ele>748.52368164062</ele>
        <time>2011-04-16T13:31:15Z</time>
      </trkpt>
      <trkpt lat="42.7668" lon="1.4773">
        <ele>749.9658203125</ele>
        <time>2011-04-16T13:31:17Z</time>
      </trkpt>
      <trkpt lat="42.7669" lon="1.47738">
        <ele>755.73364257812</ele>
        <time>2011-04-16T13:31:23Z</time>
      </trkpt>
      <trkpt lat="42.76698" lon="1.47737">
        <ele>755.2529296875</ele>
        <time>2011-04-16T13:31:27Z</time>
      </trkpt>
      <trkpt lat="42.76704" lon="1.47744">
        <ele>756.21411132812</ele>
        <time>2011-04-16T13:31:32Z</time>
      </trkpt>
      <trkpt lat="42.76703" lon="1.47758">
        <ele>755.2529296875</ele>
        <time>2011-04-16T13:31:36Z</time>
      </trkpt>
      <trkpt lat="42.76711" lon="1.47764">
        <ele>755.73364257812</ele>
        <time>2011-04-16T13:31:40Z</time>
      </trkpt>
      <trkpt lat="42.76714" lon="1.47782">
        <ele>750.92700195312</ele>
        <time>2011-04-16T13:31:45Z</time>
      </trkpt>
      <trkpt lat="42.76713" lon="1.47787">
        <ele>749.48510742188</ele>
        <time>2011-04-16T13:31:46Z</time>
      </trkpt>
      <trkpt lat="42.76707" lon="1.47799">
        <ele>745.15893554688</ele>
        <time>2011-04-16T13:31:50Z</time>
      </trkpt>
      <trkpt lat="42.76708" lon="1.47801">
        <ele>743.71704101562</ele>
        <time>2011-04-16T13:31:52Z</time>
      </trkpt>
      <trkpt lat="42.76707" lon="1.47808">
        <ele>743.71704101562</ele>
        <time>2011-04-16T13:31:56Z</time>
      </trkpt>
      <trkpt lat="42.76706" lon="1.47809">
        <ele>743.71704101562</ele>
        <time>2011-04-16T13:31:57Z</time>
      </trkpt>
      <trkpt lat="42.76699" lon="1.47819">
        <ele>744.67822265625</ele>
        <time>2011-04-16T13:32:05Z</time>
      </trkpt>
      <trkpt lat="42.76699" lon="1.47819">
        <ele>743.236328125</ele>
        <time>2011-04-16T13:32:06Z</time>
      </trkpt>
      <trkpt lat="42.76693" lon="1.47825">
        <ele>739.39111328125</ele>
        <time>2011-04-16T13:32:12Z</time>
      </trkpt>
      <trkpt lat="42.76691" lon="1.47825">
        <ele>738.42993164062</ele>
        <time>2011-04-16T13:32:13Z</time>
      </trkpt>
      <trkpt lat="42.76686" lon="1.47827">
        <ele>738.42993164062</ele>
        <time>2011-04-16T13:32:16Z</time>
      </trkpt>
      <trkpt lat="42.76682" lon="1.47835">
        <ele>739.87182617188</ele>
        <time>2011-04-16T13:32:22Z</time>
      </trkpt>
      <trkpt lat="42.7668" lon="1.47837">
        <ele>740.8330078125</ele>
        <time>2011-04-16T13:32:24Z</time>
      </trkpt>
      <trkpt lat="42.76672" lon="1.47847">
        <ele>744.67822265625</ele>
        <time>2011-04-16T13:32:32Z</time>
      </trkpt>
      <trkpt lat="42.76664" lon="1.47858">
        <ele>751.40771484375</ele>
        <time>2011-04-16T13:32:39Z</time>
      </trkpt>
      <trkpt lat="42.76656" lon="1.47869">
        <ele>757.65625</ele>
        <time>2011-04-16T13:32:46Z</time>
      </trkpt>
      <trkpt lat="42.76649" lon="1.47876">
        <ele>758.13696289062</ele>
        <time>2011-04-16T13:32:53Z</time>
      </trkpt>
      <trkpt lat="42.76645" lon="1.47882">
        <ele>757.65625</ele>
        <time>2011-04-16T13:32:59Z</time>
      </trkpt>
      <trkpt lat="42.76642" lon="1.47897">
        <ele>754.77221679688</ele>
        <time>2011-04-16T13:33:07Z</time>
      </trkpt>
      <trkpt lat="42.76643" lon="1.47903">
        <ele>752.849609375</ele>
        <time>2011-04-16T13:33:10Z</time>
      </trkpt>
      <trkpt lat="42.76646" lon="1.47912">
        <ele>752.849609375</ele>
        <time>2011-04-16T13:33:15Z</time>
      </trkpt>
      <trkpt lat="42.7665" lon="1.47921">
        <ele>753.33032226562</ele>
        <time>2011-04-16T13:33:21Z</time>
      </trkpt>
      <trkpt lat="42.76647" lon="1.47934">
        <ele>749.9658203125</ele>
        <time>2011-04-16T13:33:28Z</time>
      </trkpt>
      <trkpt lat="42.76646" lon="1.47936">
        <ele>749.48510742188</ele>
        <time>2011-04-16T13:33:29Z</time>
      </trkpt>
      <trkpt lat="42.76648" lon="1.47947">
        <ele>748.52368164062</ele>
        <time>2011-04-16T13:33:36Z</time>
      </trkpt>
      <trkpt lat="42.76648" lon="1.47949">
        <ele>749.00439453125</ele>
        <time>2011-04-16T13:33:37Z</time>
      </trkpt>
      <trkpt lat="42.76646" lon="1.47966">
        <ele>749.00439453125</ele>
        <time>2011-04-16T13:33:46Z</time>
      </trkpt>
      <trkpt lat="42.76642" lon="1.47982">
        <ele>747.56225585938</ele>
        <time>2011-04-16T13:33:55Z</time>
      </trkpt>
      <trkpt lat="42.7664" lon="1.47995">
        <ele>746.12036132812</ele>
        <time>2011-04-16T13:34:02Z</time>
      </trkpt>
      <trkpt lat="42.76641" lon="1.48007">
        <ele>744.19775390625</ele>
        <time>2011-04-16T13:34:09Z</time>
      </trkpt>
      <trkpt lat="42.76649" lon="1.48019">
        <ele>743.236328125</ele>
        <time>2011-04-16T13:34:19Z</time>
      </trkpt>
      <trkpt lat="42.76655" lon="1.4803">
        <ele>743.236328125</ele>
        <time>2011-04-16T13:34:26Z</time>
      </trkpt>
      <trkpt lat="42.76655" lon="1.48044">
        <ele>745.15893554688</ele>
        <time>2011-04-16T13:34:35Z</time>
      </trkpt>
      <trkpt lat="42.76653" lon="1.48059">
        <ele>748.04321289062</ele>
        <time>2011-04-16T13:34:43Z</time>
      </trkpt>
      <trkpt lat="42.7665" lon="1.48075">
        <ele>753.33032226562</ele>
        <time>2011-04-16T13:34:51Z</time>
      </trkpt>
      <trkpt lat="42.76647" lon="1.48084">
        <ele>751.88842773438</ele>
        <time>2011-04-16T13:34:57Z</time>
      </trkpt>
      <trkpt lat="42.76644" lon="1.48093">
        <ele>749.9658203125</ele>
        <time>2011-04-16T13:35:03Z</time>
      </trkpt>
      <trkpt lat="42.76642" lon="1.48105">
        <ele>748.04321289062</ele>
        <time>2011-04-16T13:35:10Z</time>
      </trkpt>
      <trkpt lat="42.76642" lon="1.4812">
        <ele>744.19775390625</ele>
        <time>2011-04-16T13:35:18Z</time>
      </trkpt>
      <trkpt lat="42.76645" lon="1.48132">
        <ele>741.31372070312</ele>
        <time>2011-04-16T13:35:25Z</time>
      </trkpt>
    </trkseg>
  </trk>
</gpx>